<?xml version="1.0" encoding="UTF-8"?>
<gpx version="1.1" creator="https://www.youtrack.es" xsi:schemaLocation="http://www.topografix.com/GPX/1/1 http://www.topografix.com/GPX/1/1/gpx.xsd http://www.garmin.com/xmlschemas/GpxExtensions/v3 http://www.garmin.com/xmlschemas/GpxExtensionsv3.xsd http://www.garmin.com/xmlschemas/TrackPointExtension/v1 http://www.garmin.com/xmlschemas/TrackPointExtensionv1.xsd" xmlns:gpxtpx="http://www.garmin.com/xmlschemas/TrackPointExtension/v1" xmlns:gpxx="http://www.garmin.com/xmlschemas/GpxExtensions/v3" xmlns:xsi="http://www.w3.org/2001/XMLSchema-instance">
  <metadata>
    <link href="https://www.youtrack.es">
      <text>YouTrack.es</text>
    </link>
    <time>2026-05-09T02:38:49Z</time>
  </metadata>
  <trk>
    <src>https://www.youtrack.es</src>
    <link href="https://www.youtrack.es/ruta/979-la-mola-2018">
      <text>YouTrack.es</text>
    </link>
    <trkseg>
      <trkpt lat="41.4701100" lon="2.0568610">
        <ele>119.6</ele>
        <time>2018-06-14T07:44:21Z</time>
      </trkpt>
      <trkpt lat="41.4701100" lon="2.0568610">
        <ele>120.4</ele>
        <time>2018-06-14T07:44:22Z</time>
      </trkpt>
      <trkpt lat="41.4701100" lon="2.0568610">
        <ele>120.6</ele>
        <time>2018-06-14T07:44:24Z</time>
      </trkpt>
      <trkpt lat="41.4701100" lon="2.0568610">
        <ele>121.6</ele>
        <time>2018-06-14T07:44:34Z</time>
      </trkpt>
      <trkpt lat="41.4701200" lon="2.0569200">
        <ele>121.8</ele>
        <time>2018-06-14T07:44:36Z</time>
      </trkpt>
      <trkpt lat="41.4701360" lon="2.0569440">
        <ele>121.8</ele>
        <time>2018-06-14T07:44:37Z</time>
      </trkpt>
      <trkpt lat="41.4701050" lon="2.0571140">
        <ele>122.2</ele>
        <time>2018-06-14T07:44:42Z</time>
      </trkpt>
      <trkpt lat="41.4700870" lon="2.0571900">
        <ele>122.2</ele>
        <time>2018-06-14T07:44:44Z</time>
      </trkpt>
      <trkpt lat="41.4700780" lon="2.0572570">
        <ele>122.2</ele>
        <time>2018-06-14T07:44:46Z</time>
      </trkpt>
      <trkpt lat="41.4700750" lon="2.0572920">
        <ele>122.4</ele>
        <time>2018-06-14T07:44:47Z</time>
      </trkpt>
      <trkpt lat="41.4700580" lon="2.0573710">
        <ele>122.6</ele>
        <time>2018-06-14T07:44:49Z</time>
      </trkpt>
      <trkpt lat="41.4700580" lon="2.0573710">
        <ele>122.6</ele>
        <time>2018-06-14T07:44:50Z</time>
      </trkpt>
      <trkpt lat="41.4700380" lon="2.0574450">
        <ele>122.6</ele>
        <time>2018-06-14T07:44:52Z</time>
      </trkpt>
      <trkpt lat="41.4699870" lon="2.0576480">
        <ele>122.4</ele>
        <time>2018-06-14T07:44:58Z</time>
      </trkpt>
      <trkpt lat="41.4699320" lon="2.0578460">
        <ele>122.4</ele>
        <time>2018-06-14T07:45:04Z</time>
      </trkpt>
      <trkpt lat="41.4698700" lon="2.0580870">
        <ele>122.8</ele>
        <time>2018-06-14T07:45:12Z</time>
      </trkpt>
      <trkpt lat="41.4698540" lon="2.0581560">
        <ele>122.8</ele>
        <time>2018-06-14T07:45:14Z</time>
      </trkpt>
      <trkpt lat="41.4698180" lon="2.0583150">
        <ele>123.8</ele>
        <time>2018-06-14T07:45:19Z</time>
      </trkpt>
      <trkpt lat="41.4697670" lon="2.0585720">
        <ele>123.8</ele>
        <time>2018-06-14T07:45:26Z</time>
      </trkpt>
      <trkpt lat="41.4697130" lon="2.0588300">
        <ele>123.0</ele>
        <time>2018-06-14T07:45:33Z</time>
      </trkpt>
      <trkpt lat="41.4696950" lon="2.0589320">
        <ele>122.8</ele>
        <time>2018-06-14T07:45:36Z</time>
      </trkpt>
      <trkpt lat="41.4696580" lon="2.0590970">
        <ele>123.8</ele>
        <time>2018-06-14T07:45:41Z</time>
      </trkpt>
      <trkpt lat="41.4696010" lon="2.0593380">
        <ele>123.0</ele>
        <time>2018-06-14T07:45:48Z</time>
      </trkpt>
      <trkpt lat="41.4695600" lon="2.0595630">
        <ele>123.0</ele>
        <time>2018-06-14T07:45:55Z</time>
      </trkpt>
      <trkpt lat="41.4695200" lon="2.0597770">
        <ele>122.8</ele>
        <time>2018-06-14T07:46:02Z</time>
      </trkpt>
      <trkpt lat="41.4694490" lon="2.0600000">
        <ele>123.2</ele>
        <time>2018-06-14T07:46:09Z</time>
      </trkpt>
      <trkpt lat="41.4693870" lon="2.0601660">
        <ele>123.0</ele>
        <time>2018-06-14T07:46:15Z</time>
      </trkpt>
      <trkpt lat="41.4692840" lon="2.0602620">
        <ele>121.8</ele>
        <time>2018-06-14T07:46:19Z</time>
      </trkpt>
      <trkpt lat="41.4691710" lon="2.0603360">
        <ele>120.8</ele>
        <time>2018-06-14T07:46:23Z</time>
      </trkpt>
      <trkpt lat="41.4691420" lon="2.0603550">
        <ele>120.6</ele>
        <time>2018-06-14T07:46:24Z</time>
      </trkpt>
      <trkpt lat="41.4691030" lon="2.0604000">
        <ele>120.2</ele>
        <time>2018-06-14T07:46:26Z</time>
      </trkpt>
      <trkpt lat="41.4691010" lon="2.0604310">
        <ele>119.8</ele>
        <time>2018-06-14T07:46:27Z</time>
      </trkpt>
      <trkpt lat="41.4691440" lon="2.0606390">
        <ele>119.6</ele>
        <time>2018-06-14T07:46:33Z</time>
      </trkpt>
      <trkpt lat="41.4691040" lon="2.0608290">
        <ele>119.8</ele>
        <time>2018-06-14T07:46:38Z</time>
      </trkpt>
      <trkpt lat="41.4690650" lon="2.0610900">
        <ele>120.2</ele>
        <time>2018-06-14T07:46:44Z</time>
      </trkpt>
      <trkpt lat="41.4690820" lon="2.0613620">
        <ele>120.2</ele>
        <time>2018-06-14T07:46:52Z</time>
      </trkpt>
      <trkpt lat="41.4690930" lon="2.0614360">
        <ele>120.6</ele>
        <time>2018-06-14T07:46:54Z</time>
      </trkpt>
      <trkpt lat="41.4691200" lon="2.0617000">
        <ele>120.6</ele>
        <time>2018-06-14T07:47:01Z</time>
      </trkpt>
      <trkpt lat="41.4691200" lon="2.0617430">
        <ele>120.4</ele>
        <time>2018-06-14T07:47:02Z</time>
      </trkpt>
      <trkpt lat="41.4691210" lon="2.0620090">
        <ele>120.6</ele>
        <time>2018-06-14T07:47:09Z</time>
      </trkpt>
      <trkpt lat="41.4690900" lon="2.0622800">
        <ele>121.2</ele>
        <time>2018-06-14T07:47:16Z</time>
      </trkpt>
      <trkpt lat="41.4690610" lon="2.0624200">
        <ele>121.2</ele>
        <time>2018-06-14T07:47:20Z</time>
      </trkpt>
      <trkpt lat="41.4690660" lon="2.0624620">
        <ele>121.6</ele>
        <time>2018-06-14T07:47:23Z</time>
      </trkpt>
      <trkpt lat="41.4690580" lon="2.0624650">
        <ele>121.4</ele>
        <time>2018-06-14T07:47:24Z</time>
      </trkpt>
      <trkpt lat="41.4690300" lon="2.0625830">
        <ele>122.2</ele>
        <time>2018-06-14T07:47:28Z</time>
      </trkpt>
      <trkpt lat="41.4690030" lon="2.0626790">
        <ele>122.8</ele>
        <time>2018-06-14T07:47:31Z</time>
      </trkpt>
      <trkpt lat="41.4689660" lon="2.0628180">
        <ele>123.0</ele>
        <time>2018-06-14T07:47:35Z</time>
      </trkpt>
      <trkpt lat="41.4689160" lon="2.0629910">
        <ele>123.0</ele>
        <time>2018-06-14T07:47:41Z</time>
      </trkpt>
      <trkpt lat="41.4688870" lon="2.0631760">
        <ele>123.8</ele>
        <time>2018-06-14T07:47:47Z</time>
      </trkpt>
      <trkpt lat="41.4688820" lon="2.0632050">
        <ele>124.0</ele>
        <time>2018-06-14T07:47:48Z</time>
      </trkpt>
      <trkpt lat="41.4688700" lon="2.0633180">
        <ele>124.4</ele>
        <time>2018-06-14T07:47:53Z</time>
      </trkpt>
      <trkpt lat="41.4688320" lon="2.0635070">
        <ele>124.6</ele>
        <time>2018-06-14T07:48:01Z</time>
      </trkpt>
      <trkpt lat="41.4688240" lon="2.0635350">
        <ele>125.0</ele>
        <time>2018-06-14T07:48:02Z</time>
      </trkpt>
      <trkpt lat="41.4688010" lon="2.0636250">
        <ele>125.8</ele>
        <time>2018-06-14T07:48:05Z</time>
      </trkpt>
      <trkpt lat="41.4687790" lon="2.0637100">
        <ele>125.8</ele>
        <time>2018-06-14T07:48:08Z</time>
      </trkpt>
      <trkpt lat="41.4687610" lon="2.0638170">
        <ele>126.2</ele>
        <time>2018-06-14T07:48:13Z</time>
      </trkpt>
      <trkpt lat="41.4687600" lon="2.0638660">
        <ele>126.8</ele>
        <time>2018-06-14T07:48:15Z</time>
      </trkpt>
      <trkpt lat="41.4687620" lon="2.0640210">
        <ele>127.2</ele>
        <time>2018-06-14T07:48:20Z</time>
      </trkpt>
      <trkpt lat="41.4687650" lon="2.0640880">
        <ele>127.0</ele>
        <time>2018-06-14T07:48:22Z</time>
      </trkpt>
      <trkpt lat="41.4687480" lon="2.0643690">
        <ele>127.4</ele>
        <time>2018-06-14T07:48:29Z</time>
      </trkpt>
      <trkpt lat="41.4687420" lon="2.0646250">
        <ele>127.0</ele>
        <time>2018-06-14T07:48:35Z</time>
      </trkpt>
      <trkpt lat="41.4687440" lon="2.0646620">
        <ele>127.0</ele>
        <time>2018-06-14T07:48:36Z</time>
      </trkpt>
      <trkpt lat="41.4687490" lon="2.0649040">
        <ele>127.6</ele>
        <time>2018-06-14T07:48:42Z</time>
      </trkpt>
      <trkpt lat="41.4687610" lon="2.0651640">
        <ele>127.6</ele>
        <time>2018-06-14T07:48:51Z</time>
      </trkpt>
      <trkpt lat="41.4687510" lon="2.0654170">
        <ele>127.6</ele>
        <time>2018-06-14T07:48:57Z</time>
      </trkpt>
      <trkpt lat="41.4687530" lon="2.0654620">
        <ele>127.6</ele>
        <time>2018-06-14T07:48:58Z</time>
      </trkpt>
      <trkpt lat="41.4687500" lon="2.0657100">
        <ele>127.4</ele>
        <time>2018-06-14T07:49:04Z</time>
      </trkpt>
      <trkpt lat="41.4687320" lon="2.0657900">
        <ele>127.6</ele>
        <time>2018-06-14T07:49:06Z</time>
      </trkpt>
      <trkpt lat="41.4687150" lon="2.0660180">
        <ele>127.8</ele>
        <time>2018-06-14T07:49:12Z</time>
      </trkpt>
      <trkpt lat="41.4687080" lon="2.0661260">
        <ele>128.2</ele>
        <time>2018-06-14T07:49:15Z</time>
      </trkpt>
      <trkpt lat="41.4686980" lon="2.0663270">
        <ele>128.2</ele>
        <time>2018-06-14T07:49:20Z</time>
      </trkpt>
      <trkpt lat="41.4686870" lon="2.0665200">
        <ele>128.0</ele>
        <time>2018-06-14T07:49:26Z</time>
      </trkpt>
      <trkpt lat="41.4686790" lon="2.0667650">
        <ele>128.8</ele>
        <time>2018-06-14T07:49:32Z</time>
      </trkpt>
      <trkpt lat="41.4686760" lon="2.0668460">
        <ele>129.0</ele>
        <time>2018-06-14T07:49:34Z</time>
      </trkpt>
      <trkpt lat="41.4686750" lon="2.0669550">
        <ele>129.2</ele>
        <time>2018-06-14T07:49:37Z</time>
      </trkpt>
      <trkpt lat="41.4686890" lon="2.0671290">
        <ele>129.6</ele>
        <time>2018-06-14T07:49:42Z</time>
      </trkpt>
      <trkpt lat="41.4686870" lon="2.0672350">
        <ele>129.6</ele>
        <time>2018-06-14T07:49:45Z</time>
      </trkpt>
      <trkpt lat="41.4686840" lon="2.0673460">
        <ele>129.8</ele>
        <time>2018-06-14T07:49:48Z</time>
      </trkpt>
      <trkpt lat="41.4686810" lon="2.0676010">
        <ele>130.0</ele>
        <time>2018-06-14T07:49:55Z</time>
      </trkpt>
      <trkpt lat="41.4686860" lon="2.0678800">
        <ele>129.4</ele>
        <time>2018-06-14T07:50:03Z</time>
      </trkpt>
      <trkpt lat="41.4686920" lon="2.0681440">
        <ele>130.2</ele>
        <time>2018-06-14T07:50:09Z</time>
      </trkpt>
      <trkpt lat="41.4686920" lon="2.0682290">
        <ele>130.4</ele>
        <time>2018-06-14T07:50:11Z</time>
      </trkpt>
      <trkpt lat="41.4686960" lon="2.0683120">
        <ele>130.6</ele>
        <time>2018-06-14T07:50:13Z</time>
      </trkpt>
      <trkpt lat="41.4687090" lon="2.0684620">
        <ele>130.2</ele>
        <time>2018-06-14T07:50:17Z</time>
      </trkpt>
      <trkpt lat="41.4687180" lon="2.0686970">
        <ele>130.6</ele>
        <time>2018-06-14T07:50:23Z</time>
      </trkpt>
      <trkpt lat="41.4687240" lon="2.0688030">
        <ele>131.0</ele>
        <time>2018-06-14T07:50:26Z</time>
      </trkpt>
      <trkpt lat="41.4687320" lon="2.0689430">
        <ele>130.8</ele>
        <time>2018-06-14T07:50:30Z</time>
      </trkpt>
      <trkpt lat="41.4687370" lon="2.0691900">
        <ele>130.8</ele>
        <time>2018-06-14T07:50:36Z</time>
      </trkpt>
      <trkpt lat="41.4687360" lon="2.0692320">
        <ele>130.8</ele>
        <time>2018-06-14T07:50:37Z</time>
      </trkpt>
      <trkpt lat="41.4687400" lon="2.0694950">
        <ele>130.8</ele>
        <time>2018-06-14T07:50:43Z</time>
      </trkpt>
      <trkpt lat="41.4687440" lon="2.0695790">
        <ele>130.8</ele>
        <time>2018-06-14T07:50:45Z</time>
      </trkpt>
      <trkpt lat="41.4687610" lon="2.0698460">
        <ele>130.6</ele>
        <time>2018-06-14T07:50:52Z</time>
      </trkpt>
      <trkpt lat="41.4687940" lon="2.0700390">
        <ele>130.6</ele>
        <time>2018-06-14T07:50:58Z</time>
      </trkpt>
      <trkpt lat="41.4687990" lon="2.0700730">
        <ele>130.8</ele>
        <time>2018-06-14T07:50:59Z</time>
      </trkpt>
      <trkpt lat="41.4688130" lon="2.0701780">
        <ele>131.0</ele>
        <time>2018-06-14T07:51:02Z</time>
      </trkpt>
      <trkpt lat="41.4688330" lon="2.0704550">
        <ele>131.0</ele>
        <time>2018-06-14T07:51:08Z</time>
      </trkpt>
      <trkpt lat="41.4688400" lon="2.0705400">
        <ele>131.0</ele>
        <time>2018-06-14T07:51:10Z</time>
      </trkpt>
      <trkpt lat="41.4688450" lon="2.0707070">
        <ele>131.0</ele>
        <time>2018-06-14T07:51:14Z</time>
      </trkpt>
      <trkpt lat="41.4688650" lon="2.0709030">
        <ele>131.0</ele>
        <time>2018-06-14T07:51:19Z</time>
      </trkpt>
      <trkpt lat="41.4688710" lon="2.0711230">
        <ele>130.6</ele>
        <time>2018-06-14T07:51:25Z</time>
      </trkpt>
      <trkpt lat="41.4689080" lon="2.0713020">
        <ele>130.6</ele>
        <time>2018-06-14T07:51:31Z</time>
      </trkpt>
      <trkpt lat="41.4689380" lon="2.0715670">
        <ele>129.8</ele>
        <time>2018-06-14T07:51:38Z</time>
      </trkpt>
      <trkpt lat="41.4689430" lon="2.0716050">
        <ele>129.8</ele>
        <time>2018-06-14T07:51:39Z</time>
      </trkpt>
      <trkpt lat="41.4689600" lon="2.0718760">
        <ele>129.8</ele>
        <time>2018-06-14T07:51:46Z</time>
      </trkpt>
      <trkpt lat="41.4689580" lon="2.0719160">
        <ele>129.6</ele>
        <time>2018-06-14T07:51:47Z</time>
      </trkpt>
      <trkpt lat="41.4689640" lon="2.0719520">
        <ele>129.4</ele>
        <time>2018-06-14T07:51:48Z</time>
      </trkpt>
      <trkpt lat="41.4689720" lon="2.0719920">
        <ele>129.4</ele>
        <time>2018-06-14T07:51:49Z</time>
      </trkpt>
      <trkpt lat="41.4689770" lon="2.0720790">
        <ele>129.4</ele>
        <time>2018-06-14T07:51:51Z</time>
      </trkpt>
      <trkpt lat="41.4690130" lon="2.0723290">
        <ele>129.2</ele>
        <time>2018-06-14T07:51:57Z</time>
      </trkpt>
      <trkpt lat="41.4690290" lon="2.0724410">
        <ele>129.0</ele>
        <time>2018-06-14T07:52:00Z</time>
      </trkpt>
      <trkpt lat="41.4690440" lon="2.0725950">
        <ele>129.0</ele>
        <time>2018-06-14T07:52:04Z</time>
      </trkpt>
      <trkpt lat="41.4690770" lon="2.0728600">
        <ele>128.4</ele>
        <time>2018-06-14T07:52:11Z</time>
      </trkpt>
      <trkpt lat="41.4690930" lon="2.0730020">
        <ele>128.2</ele>
        <time>2018-06-14T07:52:14Z</time>
      </trkpt>
      <trkpt lat="41.4691190" lon="2.0731500">
        <ele>128.4</ele>
        <time>2018-06-14T07:52:19Z</time>
      </trkpt>
      <trkpt lat="41.4691650" lon="2.0733910">
        <ele>128.4</ele>
        <time>2018-06-14T07:52:26Z</time>
      </trkpt>
      <trkpt lat="41.4692040" lon="2.0736470">
        <ele>128.2</ele>
        <time>2018-06-14T07:52:33Z</time>
      </trkpt>
      <trkpt lat="41.4692080" lon="2.0739200">
        <ele>127.8</ele>
        <time>2018-06-14T07:52:39Z</time>
      </trkpt>
      <trkpt lat="41.4692140" lon="2.0739500">
        <ele>127.8</ele>
        <time>2018-06-14T07:52:40Z</time>
      </trkpt>
      <trkpt lat="41.4692510" lon="2.0741250">
        <ele>127.6</ele>
        <time>2018-06-14T07:52:46Z</time>
      </trkpt>
      <trkpt lat="41.4692690" lon="2.0742410">
        <ele>127.6</ele>
        <time>2018-06-14T07:52:49Z</time>
      </trkpt>
      <trkpt lat="41.4693090" lon="2.0744800">
        <ele>127.2</ele>
        <time>2018-06-14T07:52:55Z</time>
      </trkpt>
      <trkpt lat="41.4693150" lon="2.0745170">
        <ele>127.2</ele>
        <time>2018-06-14T07:52:56Z</time>
      </trkpt>
      <trkpt lat="41.4693210" lon="2.0745500">
        <ele>127.0</ele>
        <time>2018-06-14T07:52:57Z</time>
      </trkpt>
      <trkpt lat="41.4693410" lon="2.0747240">
        <ele>126.6</ele>
        <time>2018-06-14T07:53:02Z</time>
      </trkpt>
      <trkpt lat="41.4693700" lon="2.0749480">
        <ele>126.8</ele>
        <time>2018-06-14T07:53:09Z</time>
      </trkpt>
      <trkpt lat="41.4694010" lon="2.0752040">
        <ele>126.4</ele>
        <time>2018-06-14T07:53:16Z</time>
      </trkpt>
      <trkpt lat="41.4694130" lon="2.0752810">
        <ele>126.0</ele>
        <time>2018-06-14T07:53:18Z</time>
      </trkpt>
      <trkpt lat="41.4694260" lon="2.0754360">
        <ele>125.8</ele>
        <time>2018-06-14T07:53:22Z</time>
      </trkpt>
      <trkpt lat="41.4694190" lon="2.0756800">
        <ele>125.4</ele>
        <time>2018-06-14T07:53:28Z</time>
      </trkpt>
      <trkpt lat="41.4694110" lon="2.0759390">
        <ele>125.2</ele>
        <time>2018-06-14T07:53:35Z</time>
      </trkpt>
      <trkpt lat="41.4694100" lon="2.0759740">
        <ele>125.0</ele>
        <time>2018-06-14T07:53:36Z</time>
      </trkpt>
      <trkpt lat="41.4694120" lon="2.0761640">
        <ele>124.4</ele>
        <time>2018-06-14T07:53:41Z</time>
      </trkpt>
      <trkpt lat="41.4694510" lon="2.0763330">
        <ele>123.8</ele>
        <time>2018-06-14T07:53:45Z</time>
      </trkpt>
      <trkpt lat="41.4694710" lon="2.0764090">
        <ele>123.4</ele>
        <time>2018-06-14T07:53:47Z</time>
      </trkpt>
      <trkpt lat="41.4694990" lon="2.0765960">
        <ele>122.6</ele>
        <time>2018-06-14T07:53:51Z</time>
      </trkpt>
      <trkpt lat="41.4695220" lon="2.0767650">
        <ele>122.6</ele>
        <time>2018-06-14T07:53:55Z</time>
      </trkpt>
      <trkpt lat="41.4695870" lon="2.0769880">
        <ele>123.0</ele>
        <time>2018-06-14T07:54:01Z</time>
      </trkpt>
      <trkpt lat="41.4696400" lon="2.0772550">
        <ele>123.0</ele>
        <time>2018-06-14T07:54:06Z</time>
      </trkpt>
      <trkpt lat="41.4696500" lon="2.0773030">
        <ele>122.8</ele>
        <time>2018-06-14T07:54:07Z</time>
      </trkpt>
      <trkpt lat="41.4697300" lon="2.0775310">
        <ele>123.4</ele>
        <time>2018-06-14T07:54:13Z</time>
      </trkpt>
      <trkpt lat="41.4698160" lon="2.0777220">
        <ele>123.0</ele>
        <time>2018-06-14T07:54:19Z</time>
      </trkpt>
      <trkpt lat="41.4698840" lon="2.0779170">
        <ele>122.6</ele>
        <time>2018-06-14T07:54:25Z</time>
      </trkpt>
      <trkpt lat="41.4699530" lon="2.0780900">
        <ele>123.0</ele>
        <time>2018-06-14T07:54:31Z</time>
      </trkpt>
      <trkpt lat="41.4699630" lon="2.0781800">
        <ele>123.2</ele>
        <time>2018-06-14T07:54:34Z</time>
      </trkpt>
      <trkpt lat="41.4699710" lon="2.0782500">
        <ele>123.4</ele>
        <time>2018-06-14T07:54:36Z</time>
      </trkpt>
      <trkpt lat="41.4699540" lon="2.0785260">
        <ele>123.0</ele>
        <time>2018-06-14T07:54:42Z</time>
      </trkpt>
      <trkpt lat="41.4699300" lon="2.0787020">
        <ele>121.4</ele>
        <time>2018-06-14T07:54:47Z</time>
      </trkpt>
      <trkpt lat="41.4699290" lon="2.0787410">
        <ele>121.2</ele>
        <time>2018-06-14T07:54:48Z</time>
      </trkpt>
      <trkpt lat="41.4699390" lon="2.0789290">
        <ele>120.8</ele>
        <time>2018-06-14T07:54:53Z</time>
      </trkpt>
      <trkpt lat="41.4699870" lon="2.0791700">
        <ele>120.8</ele>
        <time>2018-06-14T07:55:00Z</time>
      </trkpt>
      <trkpt lat="41.4700160" lon="2.0793250">
        <ele>120.2</ele>
        <time>2018-06-14T07:55:05Z</time>
      </trkpt>
      <trkpt lat="41.4700210" lon="2.0793500">
        <ele>120.0</ele>
        <time>2018-06-14T07:55:06Z</time>
      </trkpt>
      <trkpt lat="41.4700810" lon="2.0795300">
        <ele>119.8</ele>
        <time>2018-06-14T07:55:12Z</time>
      </trkpt>
      <trkpt lat="41.4701850" lon="2.0797670">
        <ele>119.2</ele>
        <time>2018-06-14T07:55:19Z</time>
      </trkpt>
      <trkpt lat="41.4702040" lon="2.0797980">
        <ele>119.0</ele>
        <time>2018-06-14T07:55:20Z</time>
      </trkpt>
      <trkpt lat="41.4702930" lon="2.0799970">
        <ele>118.6</ele>
        <time>2018-06-14T07:55:26Z</time>
      </trkpt>
      <trkpt lat="41.4703040" lon="2.0800410">
        <ele>118.6</ele>
        <time>2018-06-14T07:55:27Z</time>
      </trkpt>
      <trkpt lat="41.4704000" lon="2.0802150">
        <ele>118.2</ele>
        <time>2018-06-14T07:55:32Z</time>
      </trkpt>
      <trkpt lat="41.4704350" lon="2.0802580">
        <ele>118.0</ele>
        <time>2018-06-14T07:55:34Z</time>
      </trkpt>
      <trkpt lat="41.4705230" lon="2.0803520">
        <ele>117.0</ele>
        <time>2018-06-14T07:55:38Z</time>
      </trkpt>
      <trkpt lat="41.4705830" lon="2.0803890">
        <ele>116.8</ele>
        <time>2018-06-14T07:55:40Z</time>
      </trkpt>
      <trkpt lat="41.4706610" lon="2.0804620">
        <ele>116.4</ele>
        <time>2018-06-14T07:55:43Z</time>
      </trkpt>
      <trkpt lat="41.4707770" lon="2.0806300">
        <ele>116.4</ele>
        <time>2018-06-14T07:55:49Z</time>
      </trkpt>
      <trkpt lat="41.4708530" lon="2.0807960">
        <ele>116.8</ele>
        <time>2018-06-14T07:55:55Z</time>
      </trkpt>
      <trkpt lat="41.4709170" lon="2.0809860">
        <ele>116.8</ele>
        <time>2018-06-14T07:56:01Z</time>
      </trkpt>
      <trkpt lat="41.4710030" lon="2.0811710">
        <ele>117.4</ele>
        <time>2018-06-14T07:56:08Z</time>
      </trkpt>
      <trkpt lat="41.4710800" lon="2.0813040">
        <ele>117.4</ele>
        <time>2018-06-14T07:56:14Z</time>
      </trkpt>
      <trkpt lat="41.4712270" lon="2.0813880">
        <ele>117.8</ele>
        <time>2018-06-14T07:56:19Z</time>
      </trkpt>
      <trkpt lat="41.4712510" lon="2.0814080">
        <ele>118.0</ele>
        <time>2018-06-14T07:56:20Z</time>
      </trkpt>
      <trkpt lat="41.4714240" lon="2.0815580">
        <ele>118.0</ele>
        <time>2018-06-14T07:56:27Z</time>
      </trkpt>
      <trkpt lat="41.4714320" lon="2.0815950">
        <ele>118.2</ele>
        <time>2018-06-14T07:56:28Z</time>
      </trkpt>
      <trkpt lat="41.4715540" lon="2.0817740">
        <ele>118.8</ele>
        <time>2018-06-14T07:56:34Z</time>
      </trkpt>
      <trkpt lat="41.4716800" lon="2.0819630">
        <ele>118.8</ele>
        <time>2018-06-14T07:56:41Z</time>
      </trkpt>
      <trkpt lat="41.4717050" lon="2.0820250">
        <ele>118.4</ele>
        <time>2018-06-14T07:56:44Z</time>
      </trkpt>
      <trkpt lat="41.4716940" lon="2.0820470">
        <ele>118.2</ele>
        <time>2018-06-14T07:56:46Z</time>
      </trkpt>
      <trkpt lat="41.4716850" lon="2.0820520">
        <ele>118.4</ele>
        <time>2018-06-14T07:56:47Z</time>
      </trkpt>
      <trkpt lat="41.4716870" lon="2.0820520">
        <ele>118.2</ele>
        <time>2018-06-14T07:56:48Z</time>
      </trkpt>
      <trkpt lat="41.4716920" lon="2.0820510">
        <ele>117.6</ele>
        <time>2018-06-14T07:56:49Z</time>
      </trkpt>
      <trkpt lat="41.4716830" lon="2.0820540">
        <ele>118.4</ele>
        <time>2018-06-14T07:56:50Z</time>
      </trkpt>
      <trkpt lat="41.4716600" lon="2.0820660">
        <ele>118.2</ele>
        <time>2018-06-14T07:56:53Z</time>
      </trkpt>
      <trkpt lat="41.4714810" lon="2.0821580">
        <ele>117.6</ele>
        <time>2018-06-14T07:57:00Z</time>
      </trkpt>
      <trkpt lat="41.4714270" lon="2.0821960">
        <ele>117.2</ele>
        <time>2018-06-14T07:57:02Z</time>
      </trkpt>
      <trkpt lat="41.4713250" lon="2.0822310">
        <ele>117.0</ele>
        <time>2018-06-14T07:57:05Z</time>
      </trkpt>
      <trkpt lat="41.4712720" lon="2.0822610">
        <ele>116.6</ele>
        <time>2018-06-14T07:57:08Z</time>
      </trkpt>
      <trkpt lat="41.4712500" lon="2.0822680">
        <ele>116.4</ele>
        <time>2018-06-14T07:57:09Z</time>
      </trkpt>
      <trkpt lat="41.4710600" lon="2.0822900">
        <ele>115.6</ele>
        <time>2018-06-14T07:57:17Z</time>
      </trkpt>
      <trkpt lat="41.4709740" lon="2.0823910">
        <ele>116.2</ele>
        <time>2018-06-14T08:01:11Z</time>
      </trkpt>
      <trkpt lat="41.4709790" lon="2.0823920">
        <ele>116.2</ele>
        <time>2018-06-14T08:01:12Z</time>
      </trkpt>
      <trkpt lat="41.4709890" lon="2.0823870">
        <ele>116.2</ele>
        <time>2018-06-14T08:01:13Z</time>
      </trkpt>
      <trkpt lat="41.4710420" lon="2.0823400">
        <ele>116.0</ele>
        <time>2018-06-14T08:01:19Z</time>
      </trkpt>
      <trkpt lat="41.4711910" lon="2.0823730">
        <ele>117.0</ele>
        <time>2018-06-14T08:01:24Z</time>
      </trkpt>
      <trkpt lat="41.4712260" lon="2.0823720">
        <ele>117.4</ele>
        <time>2018-06-14T08:01:26Z</time>
      </trkpt>
      <trkpt lat="41.4712630" lon="2.0823550">
        <ele>117.6</ele>
        <time>2018-06-14T08:01:28Z</time>
      </trkpt>
      <trkpt lat="41.4712940" lon="2.0823630">
        <ele>117.6</ele>
        <time>2018-06-14T08:01:29Z</time>
      </trkpt>
      <trkpt lat="41.4713170" lon="2.0823610">
        <ele>117.6</ele>
        <time>2018-06-14T08:01:30Z</time>
      </trkpt>
      <trkpt lat="41.4713800" lon="2.0823530">
        <ele>117.6</ele>
        <time>2018-06-14T08:01:33Z</time>
      </trkpt>
      <trkpt lat="41.4714110" lon="2.0823520">
        <ele>117.6</ele>
        <time>2018-06-14T08:01:34Z</time>
      </trkpt>
      <trkpt lat="41.4714310" lon="2.0823550">
        <ele>117.8</ele>
        <time>2018-06-14T08:01:35Z</time>
      </trkpt>
      <trkpt lat="41.4714700" lon="2.0823780">
        <ele>118.0</ele>
        <time>2018-06-14T08:01:37Z</time>
      </trkpt>
      <trkpt lat="41.4714920" lon="2.0823950">
        <ele>118.4</ele>
        <time>2018-06-14T08:01:38Z</time>
      </trkpt>
      <trkpt lat="41.4714970" lon="2.0824030">
        <ele>118.8</ele>
        <time>2018-06-14T08:01:39Z</time>
      </trkpt>
      <trkpt lat="41.4715100" lon="2.0824110">
        <ele>119.0</ele>
        <time>2018-06-14T08:01:40Z</time>
      </trkpt>
      <trkpt lat="41.4715550" lon="2.0824190">
        <ele>119.4</ele>
        <time>2018-06-14T08:01:42Z</time>
      </trkpt>
      <trkpt lat="41.4715840" lon="2.0824230">
        <ele>119.4</ele>
        <time>2018-06-14T08:01:43Z</time>
      </trkpt>
      <trkpt lat="41.4716130" lon="2.0824290">
        <ele>119.4</ele>
        <time>2018-06-14T08:01:44Z</time>
      </trkpt>
      <trkpt lat="41.4716530" lon="2.0824520">
        <ele>119.4</ele>
        <time>2018-06-14T08:01:45Z</time>
      </trkpt>
      <trkpt lat="41.4716820" lon="2.0824560">
        <ele>119.4</ele>
        <time>2018-06-14T08:01:46Z</time>
      </trkpt>
      <trkpt lat="41.4717340" lon="2.0824710">
        <ele>119.6</ele>
        <time>2018-06-14T08:01:48Z</time>
      </trkpt>
      <trkpt lat="41.4717530" lon="2.0824760">
        <ele>119.6</ele>
        <time>2018-06-14T08:01:49Z</time>
      </trkpt>
      <trkpt lat="41.4717710" lon="2.0824770">
        <ele>120.0</ele>
        <time>2018-06-14T08:01:50Z</time>
      </trkpt>
      <trkpt lat="41.4718320" lon="2.0825070">
        <ele>120.4</ele>
        <time>2018-06-14T08:01:53Z</time>
      </trkpt>
      <trkpt lat="41.4718490" lon="2.0825320">
        <ele>120.6</ele>
        <time>2018-06-14T08:01:54Z</time>
      </trkpt>
      <trkpt lat="41.4718710" lon="2.0825860">
        <ele>120.6</ele>
        <time>2018-06-14T08:01:56Z</time>
      </trkpt>
      <trkpt lat="41.4718780" lon="2.0826120">
        <ele>120.8</ele>
        <time>2018-06-14T08:01:57Z</time>
      </trkpt>
      <trkpt lat="41.4719160" lon="2.0826690">
        <ele>120.8</ele>
        <time>2018-06-14T08:01:59Z</time>
      </trkpt>
      <trkpt lat="41.4719930" lon="2.0827310">
        <ele>121.0</ele>
        <time>2018-06-14T08:02:02Z</time>
      </trkpt>
      <trkpt lat="41.4720400" lon="2.0827750">
        <ele>121.0</ele>
        <time>2018-06-14T08:02:04Z</time>
      </trkpt>
      <trkpt lat="41.4721940" lon="2.0829320">
        <ele>121.4</ele>
        <time>2018-06-14T08:02:11Z</time>
      </trkpt>
      <trkpt lat="41.4722110" lon="2.0829490">
        <ele>121.4</ele>
        <time>2018-06-14T08:02:12Z</time>
      </trkpt>
      <trkpt lat="41.4722270" lon="2.0829780">
        <ele>121.6</ele>
        <time>2018-06-14T08:02:13Z</time>
      </trkpt>
      <trkpt lat="41.4722670" lon="2.0830520">
        <ele>121.6</ele>
        <time>2018-06-14T08:02:16Z</time>
      </trkpt>
      <trkpt lat="41.4723710" lon="2.0832600">
        <ele>122.0</ele>
        <time>2018-06-14T08:02:22Z</time>
      </trkpt>
      <trkpt lat="41.4723860" lon="2.0833000">
        <ele>122.0</ele>
        <time>2018-06-14T08:02:24Z</time>
      </trkpt>
      <trkpt lat="41.4724680" lon="2.0834300">
        <ele>122.0</ele>
        <time>2018-06-14T08:02:29Z</time>
      </trkpt>
      <trkpt lat="41.4725810" lon="2.0836570">
        <ele>122.0</ele>
        <time>2018-06-14T08:02:35Z</time>
      </trkpt>
      <trkpt lat="41.4727310" lon="2.0838230">
        <ele>122.4</ele>
        <time>2018-06-14T08:02:41Z</time>
      </trkpt>
      <trkpt lat="41.4728760" lon="2.0840250">
        <ele>122.8</ele>
        <time>2018-06-14T08:02:48Z</time>
      </trkpt>
      <trkpt lat="41.4729520" lon="2.0842160">
        <ele>122.4</ele>
        <time>2018-06-14T08:02:54Z</time>
      </trkpt>
      <trkpt lat="41.4730070" lon="2.0843780">
        <ele>122.8</ele>
        <time>2018-06-14T08:02:59Z</time>
      </trkpt>
      <trkpt lat="41.4731050" lon="2.0845270">
        <ele>123.0</ele>
        <time>2018-06-14T08:03:04Z</time>
      </trkpt>
      <trkpt lat="41.4731770" lon="2.0845770">
        <ele>122.6</ele>
        <time>2018-06-14T08:03:07Z</time>
      </trkpt>
      <trkpt lat="41.4731970" lon="2.0845750">
        <ele>122.6</ele>
        <time>2018-06-14T08:03:08Z</time>
      </trkpt>
      <trkpt lat="41.4732170" lon="2.0845790">
        <ele>122.6</ele>
        <time>2018-06-14T08:03:09Z</time>
      </trkpt>
      <trkpt lat="41.4732570" lon="2.0846450">
        <ele>122.4</ele>
        <time>2018-06-14T08:03:12Z</time>
      </trkpt>
      <trkpt lat="41.4733040" lon="2.0847970">
        <ele>122.0</ele>
        <time>2018-06-14T08:03:17Z</time>
      </trkpt>
      <trkpt lat="41.4734210" lon="2.0849490">
        <ele>122.8</ele>
        <time>2018-06-14T08:03:23Z</time>
      </trkpt>
      <trkpt lat="41.4734930" lon="2.0849380">
        <ele>122.6</ele>
        <time>2018-06-14T08:03:27Z</time>
      </trkpt>
      <trkpt lat="41.4735290" lon="2.0849270">
        <ele>122.2</ele>
        <time>2018-06-14T08:03:30Z</time>
      </trkpt>
      <trkpt lat="41.4735630" lon="2.0849420">
        <ele>122.4</ele>
        <time>2018-06-14T08:03:32Z</time>
      </trkpt>
      <trkpt lat="41.4735730" lon="2.0849530">
        <ele>122.4</ele>
        <time>2018-06-14T08:03:33Z</time>
      </trkpt>
      <trkpt lat="41.4736870" lon="2.0851360">
        <ele>122.8</ele>
        <time>2018-06-14T08:04:13Z</time>
      </trkpt>
      <trkpt lat="41.4736880" lon="2.0851290">
        <ele>122.8</ele>
        <time>2018-06-14T08:04:14Z</time>
      </trkpt>
      <trkpt lat="41.4736910" lon="2.0851040">
        <ele>122.6</ele>
        <time>2018-06-14T08:04:15Z</time>
      </trkpt>
      <trkpt lat="41.4736540" lon="2.0849540">
        <ele>122.2</ele>
        <time>2018-06-14T08:04:20Z</time>
      </trkpt>
      <trkpt lat="41.4736260" lon="2.0848430">
        <ele>123.0</ele>
        <time>2018-06-14T08:04:23Z</time>
      </trkpt>
      <trkpt lat="41.4735980" lon="2.0847720">
        <ele>123.2</ele>
        <time>2018-06-14T08:04:25Z</time>
      </trkpt>
      <trkpt lat="41.4735510" lon="2.0846720">
        <ele>123.0</ele>
        <time>2018-06-14T08:04:29Z</time>
      </trkpt>
      <trkpt lat="41.4735380" lon="2.0846520">
        <ele>122.8</ele>
        <time>2018-06-14T08:04:30Z</time>
      </trkpt>
      <trkpt lat="41.4734900" lon="2.0845810">
        <ele>123.2</ele>
        <time>2018-06-14T08:04:33Z</time>
      </trkpt>
      <trkpt lat="41.4734860" lon="2.0845610">
        <ele>123.2</ele>
        <time>2018-06-14T08:04:34Z</time>
      </trkpt>
      <trkpt lat="41.4734200" lon="2.0844080">
        <ele>123.4</ele>
        <time>2018-06-14T08:04:40Z</time>
      </trkpt>
      <trkpt lat="41.4734080" lon="2.0843750">
        <ele>123.6</ele>
        <time>2018-06-14T08:04:41Z</time>
      </trkpt>
      <trkpt lat="41.4733680" lon="2.0842940">
        <ele>123.8</ele>
        <time>2018-06-14T08:04:43Z</time>
      </trkpt>
      <trkpt lat="41.4733620" lon="2.0842630">
        <ele>124.0</ele>
        <time>2018-06-14T08:04:45Z</time>
      </trkpt>
      <trkpt lat="41.4733590" lon="2.0842350">
        <ele>124.2</ele>
        <time>2018-06-14T08:04:46Z</time>
      </trkpt>
      <trkpt lat="41.4733340" lon="2.0841530">
        <ele>124.4</ele>
        <time>2018-06-14T08:04:48Z</time>
      </trkpt>
      <trkpt lat="41.4733260" lon="2.0841170">
        <ele>124.6</ele>
        <time>2018-06-14T08:04:49Z</time>
      </trkpt>
      <trkpt lat="41.4733060" lon="2.0840120">
        <ele>124.6</ele>
        <time>2018-06-14T08:04:52Z</time>
      </trkpt>
      <trkpt lat="41.4732780" lon="2.0838570">
        <ele>124.8</ele>
        <time>2018-06-14T08:04:56Z</time>
      </trkpt>
      <trkpt lat="41.4732690" lon="2.0838180">
        <ele>125.2</ele>
        <time>2018-06-14T08:04:57Z</time>
      </trkpt>
      <trkpt lat="41.4732570" lon="2.0837110">
        <ele>125.6</ele>
        <time>2018-06-14T08:05:00Z</time>
      </trkpt>
      <trkpt lat="41.4731860" lon="2.0834800">
        <ele>126.0</ele>
        <time>2018-06-14T08:05:08Z</time>
      </trkpt>
      <trkpt lat="41.4731410" lon="2.0834130">
        <ele>126.0</ele>
        <time>2018-06-14T08:05:11Z</time>
      </trkpt>
      <trkpt lat="41.4731240" lon="2.0833200">
        <ele>126.2</ele>
        <time>2018-06-14T08:05:14Z</time>
      </trkpt>
      <trkpt lat="41.4731210" lon="2.0832420">
        <ele>126.2</ele>
        <time>2018-06-14T08:05:16Z</time>
      </trkpt>
      <trkpt lat="41.4731070" lon="2.0831550">
        <ele>126.2</ele>
        <time>2018-06-14T08:05:19Z</time>
      </trkpt>
      <trkpt lat="41.4731000" lon="2.0830860">
        <ele>126.4</ele>
        <time>2018-06-14T08:05:21Z</time>
      </trkpt>
      <trkpt lat="41.4731020" lon="2.0830560">
        <ele>126.4</ele>
        <time>2018-06-14T08:05:22Z</time>
      </trkpt>
      <trkpt lat="41.4730920" lon="2.0829190">
        <ele>126.6</ele>
        <time>2018-06-14T08:05:28Z</time>
      </trkpt>
      <trkpt lat="41.4730430" lon="2.0827140">
        <ele>126.8</ele>
        <time>2018-06-14T08:05:38Z</time>
      </trkpt>
      <trkpt lat="41.4730360" lon="2.0826870">
        <ele>126.8</ele>
        <time>2018-06-14T08:05:39Z</time>
      </trkpt>
      <trkpt lat="41.4730360" lon="2.0825250">
        <ele>127.0</ele>
        <time>2018-06-14T08:05:45Z</time>
      </trkpt>
      <trkpt lat="41.4730570" lon="2.0822500">
        <ele>127.2</ele>
        <time>2018-06-14T08:05:51Z</time>
      </trkpt>
      <trkpt lat="41.4730750" lon="2.0821730">
        <ele>127.4</ele>
        <time>2018-06-14T08:05:53Z</time>
      </trkpt>
      <trkpt lat="41.4730830" lon="2.0820910">
        <ele>127.4</ele>
        <time>2018-06-14T08:05:56Z</time>
      </trkpt>
      <trkpt lat="41.4731260" lon="2.0818720">
        <ele>127.8</ele>
        <time>2018-06-14T08:06:04Z</time>
      </trkpt>
      <trkpt lat="41.4731410" lon="2.0817020">
        <ele>128.0</ele>
        <time>2018-06-14T08:06:09Z</time>
      </trkpt>
      <trkpt lat="41.4731370" lon="2.0814630">
        <ele>128.2</ele>
        <time>2018-06-14T08:06:15Z</time>
      </trkpt>
      <trkpt lat="41.4731460" lon="2.0814200">
        <ele>128.4</ele>
        <time>2018-06-14T08:06:16Z</time>
      </trkpt>
      <trkpt lat="41.4731640" lon="2.0813820">
        <ele>128.4</ele>
        <time>2018-06-14T08:06:17Z</time>
      </trkpt>
      <trkpt lat="41.4732260" lon="2.0812460">
        <ele>128.6</ele>
        <time>2018-06-14T08:06:22Z</time>
      </trkpt>
      <trkpt lat="41.4733180" lon="2.0810120">
        <ele>129.0</ele>
        <time>2018-06-14T08:06:30Z</time>
      </trkpt>
      <trkpt lat="41.4733700" lon="2.0808300">
        <ele>129.4</ele>
        <time>2018-06-14T08:06:35Z</time>
      </trkpt>
      <trkpt lat="41.4734020" lon="2.0807690">
        <ele>129.6</ele>
        <time>2018-06-14T08:06:37Z</time>
      </trkpt>
      <trkpt lat="41.4735180" lon="2.0805530">
        <ele>129.8</ele>
        <time>2018-06-14T08:06:43Z</time>
      </trkpt>
      <trkpt lat="41.4735930" lon="2.0803660">
        <ele>130.4</ele>
        <time>2018-06-14T08:06:49Z</time>
      </trkpt>
      <trkpt lat="41.4736200" lon="2.0803300">
        <ele>130.4</ele>
        <time>2018-06-14T08:06:51Z</time>
      </trkpt>
      <trkpt lat="41.4737040" lon="2.0802390">
        <ele>130.8</ele>
        <time>2018-06-14T08:06:55Z</time>
      </trkpt>
      <trkpt lat="41.4737270" lon="2.0802190">
        <ele>130.8</ele>
        <time>2018-06-14T08:06:56Z</time>
      </trkpt>
      <trkpt lat="41.4737600" lon="2.0801360">
        <ele>131.0</ele>
        <time>2018-06-14T08:06:59Z</time>
      </trkpt>
      <trkpt lat="41.4737630" lon="2.0800960">
        <ele>131.2</ele>
        <time>2018-06-14T08:07:01Z</time>
      </trkpt>
      <trkpt lat="41.4737990" lon="2.0800280">
        <ele>131.4</ele>
        <time>2018-06-14T08:07:05Z</time>
      </trkpt>
      <trkpt lat="41.4738130" lon="2.0800080">
        <ele>131.6</ele>
        <time>2018-06-14T08:07:06Z</time>
      </trkpt>
      <trkpt lat="41.4738690" lon="2.0798900">
        <ele>131.8</ele>
        <time>2018-06-14T08:07:10Z</time>
      </trkpt>
      <trkpt lat="41.4739000" lon="2.0798170">
        <ele>132.0</ele>
        <time>2018-06-14T08:07:13Z</time>
      </trkpt>
      <trkpt lat="41.4739480" lon="2.0796530">
        <ele>132.4</ele>
        <time>2018-06-14T08:07:19Z</time>
      </trkpt>
      <trkpt lat="41.4740260" lon="2.0794550">
        <ele>133.0</ele>
        <time>2018-06-14T08:07:26Z</time>
      </trkpt>
      <trkpt lat="41.4741190" lon="2.0793240">
        <ele>133.4</ele>
        <time>2018-06-14T08:07:31Z</time>
      </trkpt>
      <trkpt lat="41.4741330" lon="2.0793020">
        <ele>133.6</ele>
        <time>2018-06-14T08:07:32Z</time>
      </trkpt>
      <trkpt lat="41.4742760" lon="2.0791220">
        <ele>134.0</ele>
        <time>2018-06-14T08:07:39Z</time>
      </trkpt>
      <trkpt lat="41.4743240" lon="2.0789730">
        <ele>134.6</ele>
        <time>2018-06-14T08:07:45Z</time>
      </trkpt>
      <trkpt lat="41.4744610" lon="2.0788100">
        <ele>135.0</ele>
        <time>2018-06-14T08:07:51Z</time>
      </trkpt>
      <trkpt lat="41.4746140" lon="2.0786650">
        <ele>135.6</ele>
        <time>2018-06-14T08:07:58Z</time>
      </trkpt>
      <trkpt lat="41.4746280" lon="2.0786450">
        <ele>135.6</ele>
        <time>2018-06-14T08:07:59Z</time>
      </trkpt>
      <trkpt lat="41.4746620" lon="2.0786040">
        <ele>135.8</ele>
        <time>2018-06-14T08:08:01Z</time>
      </trkpt>
      <trkpt lat="41.4747380" lon="2.0785020">
        <ele>136.2</ele>
        <time>2018-06-14T08:08:05Z</time>
      </trkpt>
      <trkpt lat="41.4748000" lon="2.0784050">
        <ele>136.6</ele>
        <time>2018-06-14T08:08:09Z</time>
      </trkpt>
      <trkpt lat="41.4748170" lon="2.0783200">
        <ele>136.6</ele>
        <time>2018-06-14T08:08:11Z</time>
      </trkpt>
      <trkpt lat="41.4748380" lon="2.0782310">
        <ele>136.8</ele>
        <time>2018-06-14T08:08:13Z</time>
      </trkpt>
      <trkpt lat="41.4749350" lon="2.0780380">
        <ele>137.4</ele>
        <time>2018-06-14T08:08:19Z</time>
      </trkpt>
      <trkpt lat="41.4749520" lon="2.0779670">
        <ele>137.4</ele>
        <time>2018-06-14T08:08:21Z</time>
      </trkpt>
      <trkpt lat="41.4749780" lon="2.0779050">
        <ele>137.6</ele>
        <time>2018-06-14T08:08:23Z</time>
      </trkpt>
      <trkpt lat="41.4749960" lon="2.0778770">
        <ele>137.8</ele>
        <time>2018-06-14T08:08:24Z</time>
      </trkpt>
      <trkpt lat="41.4750780" lon="2.0777350">
        <ele>138.2</ele>
        <time>2018-06-14T08:08:29Z</time>
      </trkpt>
      <trkpt lat="41.4751610" lon="2.0775950">
        <ele>138.4</ele>
        <time>2018-06-14T08:08:34Z</time>
      </trkpt>
      <trkpt lat="41.4752250" lon="2.0774800">
        <ele>138.8</ele>
        <time>2018-06-14T08:08:38Z</time>
      </trkpt>
      <trkpt lat="41.4752490" lon="2.0774230">
        <ele>139.0</ele>
        <time>2018-06-14T08:08:40Z</time>
      </trkpt>
      <trkpt lat="41.4753240" lon="2.0772650">
        <ele>139.4</ele>
        <time>2018-06-14T08:08:46Z</time>
      </trkpt>
      <trkpt lat="41.4753260" lon="2.0772420">
        <ele>139.4</ele>
        <time>2018-06-14T08:08:47Z</time>
      </trkpt>
      <trkpt lat="41.4753560" lon="2.0771970">
        <ele>139.6</ele>
        <time>2018-06-14T08:08:50Z</time>
      </trkpt>
      <trkpt lat="41.4753940" lon="2.0771330">
        <ele>139.8</ele>
        <time>2018-06-14T08:08:52Z</time>
      </trkpt>
      <trkpt lat="41.4754460" lon="2.0770030">
        <ele>140.0</ele>
        <time>2018-06-14T08:08:56Z</time>
      </trkpt>
      <trkpt lat="41.4755690" lon="2.0767840">
        <ele>140.6</ele>
        <time>2018-06-14T08:09:04Z</time>
      </trkpt>
      <trkpt lat="41.4756240" lon="2.0766580">
        <ele>140.8</ele>
        <time>2018-06-14T08:09:08Z</time>
      </trkpt>
      <trkpt lat="41.4756420" lon="2.0766360">
        <ele>141.0</ele>
        <time>2018-06-14T08:09:09Z</time>
      </trkpt>
      <trkpt lat="41.4757090" lon="2.0764820">
        <ele>141.2</ele>
        <time>2018-06-14T08:09:14Z</time>
      </trkpt>
      <trkpt lat="41.4757680" lon="2.0763480">
        <ele>141.6</ele>
        <time>2018-06-14T08:09:18Z</time>
      </trkpt>
      <trkpt lat="41.4758530" lon="2.0761710">
        <ele>141.8</ele>
        <time>2018-06-14T08:09:23Z</time>
      </trkpt>
      <trkpt lat="41.4758800" lon="2.0761480">
        <ele>142.0</ele>
        <time>2018-06-14T08:09:24Z</time>
      </trkpt>
      <trkpt lat="41.4760130" lon="2.0760650">
        <ele>142.2</ele>
        <time>2018-06-14T08:09:29Z</time>
      </trkpt>
      <trkpt lat="41.4761570" lon="2.0759610">
        <ele>142.6</ele>
        <time>2018-06-14T08:09:34Z</time>
      </trkpt>
      <trkpt lat="41.4763420" lon="2.0758600">
        <ele>142.8</ele>
        <time>2018-06-14T08:09:40Z</time>
      </trkpt>
      <trkpt lat="41.4764270" lon="2.0758070">
        <ele>142.8</ele>
        <time>2018-06-14T08:09:43Z</time>
      </trkpt>
      <trkpt lat="41.4764830" lon="2.0757780">
        <ele>143.0</ele>
        <time>2018-06-14T08:09:45Z</time>
      </trkpt>
      <trkpt lat="41.4766370" lon="2.0756810">
        <ele>143.0</ele>
        <time>2018-06-14T08:09:51Z</time>
      </trkpt>
      <trkpt lat="41.4767820" lon="2.0756230">
        <ele>143.0</ele>
        <time>2018-06-14T08:09:57Z</time>
      </trkpt>
      <trkpt lat="41.4768670" lon="2.0755870">
        <ele>143.0</ele>
        <time>2018-06-14T08:10:00Z</time>
      </trkpt>
      <trkpt lat="41.4769570" lon="2.0755540">
        <ele>142.8</ele>
        <time>2018-06-14T08:10:03Z</time>
      </trkpt>
      <trkpt lat="41.4770680" lon="2.0755110">
        <ele>142.8</ele>
        <time>2018-06-14T08:10:07Z</time>
      </trkpt>
      <trkpt lat="41.4771160" lon="2.0754890">
        <ele>142.6</ele>
        <time>2018-06-14T08:10:09Z</time>
      </trkpt>
      <trkpt lat="41.4772760" lon="2.0754070">
        <ele>142.4</ele>
        <time>2018-06-14T08:10:15Z</time>
      </trkpt>
      <trkpt lat="41.4773920" lon="2.0753240">
        <ele>142.0</ele>
        <time>2018-06-14T08:10:21Z</time>
      </trkpt>
      <trkpt lat="41.4774920" lon="2.0752680">
        <ele>141.8</ele>
        <time>2018-06-14T08:10:26Z</time>
      </trkpt>
      <trkpt lat="41.4775340" lon="2.0752400">
        <ele>141.8</ele>
        <time>2018-06-14T08:10:28Z</time>
      </trkpt>
      <trkpt lat="41.4776920" lon="2.0751830">
        <ele>141.6</ele>
        <time>2018-06-14T08:10:34Z</time>
      </trkpt>
      <trkpt lat="41.4778170" lon="2.0751360">
        <ele>141.6</ele>
        <time>2018-06-14T08:10:39Z</time>
      </trkpt>
      <trkpt lat="41.4779580" lon="2.0750550">
        <ele>141.6</ele>
        <time>2018-06-14T08:10:45Z</time>
      </trkpt>
      <trkpt lat="41.4781130" lon="2.0749810">
        <ele>141.6</ele>
        <time>2018-06-14T08:10:51Z</time>
      </trkpt>
      <trkpt lat="41.4782970" lon="2.0748690">
        <ele>141.6</ele>
        <time>2018-06-14T08:10:59Z</time>
      </trkpt>
      <trkpt lat="41.4784500" lon="2.0747930">
        <ele>141.6</ele>
        <time>2018-06-14T08:11:06Z</time>
      </trkpt>
      <trkpt lat="41.4785920" lon="2.0746860">
        <ele>141.6</ele>
        <time>2018-06-14T08:11:13Z</time>
      </trkpt>
      <trkpt lat="41.4787370" lon="2.0746230">
        <ele>141.8</ele>
        <time>2018-06-14T08:11:19Z</time>
      </trkpt>
      <trkpt lat="41.4788610" lon="2.0745710">
        <ele>141.8</ele>
        <time>2018-06-14T08:11:24Z</time>
      </trkpt>
      <trkpt lat="41.4789720" lon="2.0745650">
        <ele>142.0</ele>
        <time>2018-06-14T08:11:28Z</time>
      </trkpt>
      <trkpt lat="41.4790030" lon="2.0745740">
        <ele>142.0</ele>
        <time>2018-06-14T08:11:29Z</time>
      </trkpt>
      <trkpt lat="41.4790730" lon="2.0745850">
        <ele>142.0</ele>
        <time>2018-06-14T08:11:31Z</time>
      </trkpt>
      <trkpt lat="41.4791770" lon="2.0745480">
        <ele>142.0</ele>
        <time>2018-06-14T08:11:35Z</time>
      </trkpt>
      <trkpt lat="41.4792840" lon="2.0744870">
        <ele>142.2</ele>
        <time>2018-06-14T08:11:39Z</time>
      </trkpt>
      <trkpt lat="41.4794720" lon="2.0744100">
        <ele>142.2</ele>
        <time>2018-06-14T08:11:46Z</time>
      </trkpt>
      <trkpt lat="41.4795740" lon="2.0743740">
        <ele>142.4</ele>
        <time>2018-06-14T08:11:50Z</time>
      </trkpt>
      <trkpt lat="41.4796330" lon="2.0743520">
        <ele>142.4</ele>
        <time>2018-06-14T08:11:52Z</time>
      </trkpt>
      <trkpt lat="41.4797950" lon="2.0741810">
        <ele>142.6</ele>
        <time>2018-06-14T08:11:58Z</time>
      </trkpt>
      <trkpt lat="41.4799230" lon="2.0740710">
        <ele>142.6</ele>
        <time>2018-06-14T08:12:02Z</time>
      </trkpt>
      <trkpt lat="41.4800400" lon="2.0739960">
        <ele>142.8</ele>
        <time>2018-06-14T08:12:06Z</time>
      </trkpt>
      <trkpt lat="41.4801790" lon="2.0739480">
        <ele>142.8</ele>
        <time>2018-06-14T08:12:12Z</time>
      </trkpt>
      <trkpt lat="41.4802240" lon="2.0739340">
        <ele>143.0</ele>
        <time>2018-06-14T08:12:14Z</time>
      </trkpt>
      <trkpt lat="41.4803200" lon="2.0738980">
        <ele>143.0</ele>
        <time>2018-06-14T08:12:18Z</time>
      </trkpt>
      <trkpt lat="41.4804130" lon="2.0738540">
        <ele>145.4</ele>
        <time>2018-06-14T08:12:22Z</time>
      </trkpt>
      <trkpt lat="41.4804360" lon="2.0738430">
        <ele>146.6</ele>
        <time>2018-06-14T08:12:23Z</time>
      </trkpt>
      <trkpt lat="41.4804580" lon="2.0738290">
        <ele>147.4</ele>
        <time>2018-06-14T08:12:24Z</time>
      </trkpt>
      <trkpt lat="41.4804800" lon="2.0738180">
        <ele>147.8</ele>
        <time>2018-06-14T08:12:25Z</time>
      </trkpt>
      <trkpt lat="41.4806020" lon="2.0737560">
        <ele>148.6</ele>
        <time>2018-06-14T08:12:30Z</time>
      </trkpt>
      <trkpt lat="41.4806260" lon="2.0737420">
        <ele>148.8</ele>
        <time>2018-06-14T08:12:31Z</time>
      </trkpt>
      <trkpt lat="41.4807390" lon="2.0736630">
        <ele>148.8</ele>
        <time>2018-06-14T08:12:36Z</time>
      </trkpt>
      <trkpt lat="41.4808740" lon="2.0735770">
        <ele>149.2</ele>
        <time>2018-06-14T08:12:42Z</time>
      </trkpt>
      <trkpt lat="41.4809190" lon="2.0735510">
        <ele>149.2</ele>
        <time>2018-06-14T08:12:44Z</time>
      </trkpt>
      <trkpt lat="41.4809590" lon="2.0735150">
        <ele>149.4</ele>
        <time>2018-06-14T08:12:46Z</time>
      </trkpt>
      <trkpt lat="41.4811240" lon="2.0734130">
        <ele>149.6</ele>
        <time>2018-06-14T08:12:53Z</time>
      </trkpt>
      <trkpt lat="41.4811700" lon="2.0733840">
        <ele>149.8</ele>
        <time>2018-06-14T08:12:55Z</time>
      </trkpt>
      <trkpt lat="41.4812620" lon="2.0733240">
        <ele>150.0</ele>
        <time>2018-06-14T08:12:59Z</time>
      </trkpt>
      <trkpt lat="41.4814260" lon="2.0732080">
        <ele>150.4</ele>
        <time>2018-06-14T08:13:06Z</time>
      </trkpt>
      <trkpt lat="41.4814430" lon="2.0731920">
        <ele>150.4</ele>
        <time>2018-06-14T08:13:07Z</time>
      </trkpt>
      <trkpt lat="41.4816030" lon="2.0731160">
        <ele>150.6</ele>
        <time>2018-06-14T08:13:14Z</time>
      </trkpt>
      <trkpt lat="41.4816520" lon="2.0730960">
        <ele>150.8</ele>
        <time>2018-06-14T08:13:16Z</time>
      </trkpt>
      <trkpt lat="41.4817360" lon="2.0730460">
        <ele>151.6</ele>
        <time>2018-06-14T08:13:20Z</time>
      </trkpt>
      <trkpt lat="41.4817800" lon="2.0730220">
        <ele>152.0</ele>
        <time>2018-06-14T08:13:22Z</time>
      </trkpt>
      <trkpt lat="41.4818610" lon="2.0729860">
        <ele>153.2</ele>
        <time>2018-06-14T08:13:26Z</time>
      </trkpt>
      <trkpt lat="41.4819050" lon="2.0729750">
        <ele>154.2</ele>
        <time>2018-06-14T08:13:28Z</time>
      </trkpt>
      <trkpt lat="41.4819250" lon="2.0729690">
        <ele>154.6</ele>
        <time>2018-06-14T08:13:29Z</time>
      </trkpt>
      <trkpt lat="41.4820230" lon="2.0729490">
        <ele>155.4</ele>
        <time>2018-06-14T08:13:33Z</time>
      </trkpt>
      <trkpt lat="41.4820910" lon="2.0729300">
        <ele>155.6</ele>
        <time>2018-06-14T08:13:36Z</time>
      </trkpt>
      <trkpt lat="41.4821800" lon="2.0728940">
        <ele>156.0</ele>
        <time>2018-06-14T08:13:40Z</time>
      </trkpt>
      <trkpt lat="41.4822750" lon="2.0728680">
        <ele>156.8</ele>
        <time>2018-06-14T08:13:44Z</time>
      </trkpt>
      <trkpt lat="41.4823460" lon="2.0728420">
        <ele>157.8</ele>
        <time>2018-06-14T08:13:47Z</time>
      </trkpt>
      <trkpt lat="41.4824710" lon="2.0727860">
        <ele>158.6</ele>
        <time>2018-06-14T08:13:52Z</time>
      </trkpt>
      <trkpt lat="41.4826050" lon="2.0727150">
        <ele>158.6</ele>
        <time>2018-06-14T08:13:57Z</time>
      </trkpt>
      <trkpt lat="41.4827940" lon="2.0726710">
        <ele>158.2</ele>
        <time>2018-06-14T08:14:04Z</time>
      </trkpt>
      <trkpt lat="41.4829250" lon="2.0726240">
        <ele>157.8</ele>
        <time>2018-06-14T08:14:09Z</time>
      </trkpt>
      <trkpt lat="41.4830740" lon="2.0725940">
        <ele>156.6</ele>
        <time>2018-06-14T08:14:14Z</time>
      </trkpt>
      <trkpt lat="41.4831020" lon="2.0725880">
        <ele>156.2</ele>
        <time>2018-06-14T08:14:15Z</time>
      </trkpt>
      <trkpt lat="41.4831940" lon="2.0725640">
        <ele>155.4</ele>
        <time>2018-06-14T08:14:18Z</time>
      </trkpt>
      <trkpt lat="41.4832830" lon="2.0725580">
        <ele>154.4</ele>
        <time>2018-06-14T08:14:21Z</time>
      </trkpt>
      <trkpt lat="41.4833120" lon="2.0725560">
        <ele>154.2</ele>
        <time>2018-06-14T08:14:22Z</time>
      </trkpt>
      <trkpt lat="41.4834310" lon="2.0725320">
        <ele>153.0</ele>
        <time>2018-06-14T08:14:26Z</time>
      </trkpt>
      <trkpt lat="41.4835520" lon="2.0725240">
        <ele>151.8</ele>
        <time>2018-06-14T08:14:30Z</time>
      </trkpt>
      <trkpt lat="41.4835840" lon="2.0725240">
        <ele>151.4</ele>
        <time>2018-06-14T08:14:31Z</time>
      </trkpt>
      <trkpt lat="41.4836500" lon="2.0725250">
        <ele>150.6</ele>
        <time>2018-06-14T08:14:33Z</time>
      </trkpt>
      <trkpt lat="41.4837680" lon="2.0725270">
        <ele>149.4</ele>
        <time>2018-06-14T08:14:37Z</time>
      </trkpt>
      <trkpt lat="41.4837980" lon="2.0725250">
        <ele>149.2</ele>
        <time>2018-06-14T08:14:38Z</time>
      </trkpt>
      <trkpt lat="41.4839240" lon="2.0725220">
        <ele>148.4</ele>
        <time>2018-06-14T08:14:42Z</time>
      </trkpt>
      <trkpt lat="41.4839540" lon="2.0725240">
        <ele>148.2</ele>
        <time>2018-06-14T08:14:43Z</time>
      </trkpt>
      <trkpt lat="41.4841250" lon="2.0725410">
        <ele>147.6</ele>
        <time>2018-06-14T08:14:49Z</time>
      </trkpt>
      <trkpt lat="41.4842580" lon="2.0725580">
        <ele>147.6</ele>
        <time>2018-06-14T08:14:54Z</time>
      </trkpt>
      <trkpt lat="41.4844200" lon="2.0725770">
        <ele>147.2</ele>
        <time>2018-06-14T08:15:00Z</time>
      </trkpt>
      <trkpt lat="41.4844480" lon="2.0725850">
        <ele>147.0</ele>
        <time>2018-06-14T08:15:01Z</time>
      </trkpt>
      <trkpt lat="41.4845240" lon="2.0726100">
        <ele>147.8</ele>
        <time>2018-06-14T08:15:04Z</time>
      </trkpt>
      <trkpt lat="41.4845490" lon="2.0726140">
        <ele>148.0</ele>
        <time>2018-06-14T08:15:05Z</time>
      </trkpt>
      <trkpt lat="41.4846980" lon="2.0726220">
        <ele>149.2</ele>
        <time>2018-06-14T08:15:11Z</time>
      </trkpt>
      <trkpt lat="41.4847720" lon="2.0726210">
        <ele>150.4</ele>
        <time>2018-06-14T08:15:14Z</time>
      </trkpt>
      <trkpt lat="41.4848470" lon="2.0726230">
        <ele>150.6</ele>
        <time>2018-06-14T08:15:17Z</time>
      </trkpt>
      <trkpt lat="41.4849630" lon="2.0726340">
        <ele>151.0</ele>
        <time>2018-06-14T08:15:22Z</time>
      </trkpt>
      <trkpt lat="41.4850020" lon="2.0726240">
        <ele>151.6</ele>
        <time>2018-06-14T08:15:24Z</time>
      </trkpt>
      <trkpt lat="41.4850430" lon="2.0726200">
        <ele>152.0</ele>
        <time>2018-06-14T08:15:26Z</time>
      </trkpt>
      <trkpt lat="41.4851270" lon="2.0726480">
        <ele>152.6</ele>
        <time>2018-06-14T08:15:30Z</time>
      </trkpt>
      <trkpt lat="41.4852110" lon="2.0726480">
        <ele>153.6</ele>
        <time>2018-06-14T08:15:34Z</time>
      </trkpt>
      <trkpt lat="41.4853000" lon="2.0726670">
        <ele>154.6</ele>
        <time>2018-06-14T08:15:38Z</time>
      </trkpt>
      <trkpt lat="41.4853220" lon="2.0726730">
        <ele>154.8</ele>
        <time>2018-06-14T08:15:39Z</time>
      </trkpt>
      <trkpt lat="41.4853650" lon="2.0726830">
        <ele>155.2</ele>
        <time>2018-06-14T08:15:41Z</time>
      </trkpt>
      <trkpt lat="41.4854290" lon="2.0726960">
        <ele>155.8</ele>
        <time>2018-06-14T08:15:44Z</time>
      </trkpt>
      <trkpt lat="41.4854760" lon="2.0727030">
        <ele>156.4</ele>
        <time>2018-06-14T08:15:46Z</time>
      </trkpt>
      <trkpt lat="41.4855640" lon="2.0727190">
        <ele>157.0</ele>
        <time>2018-06-14T08:15:50Z</time>
      </trkpt>
      <trkpt lat="41.4856290" lon="2.0727470">
        <ele>157.6</ele>
        <time>2018-06-14T08:15:53Z</time>
      </trkpt>
      <trkpt lat="41.4856840" lon="2.0727600">
        <ele>158.4</ele>
        <time>2018-06-14T08:15:56Z</time>
      </trkpt>
      <trkpt lat="41.4857170" lon="2.0727740">
        <ele>158.8</ele>
        <time>2018-06-14T08:15:58Z</time>
      </trkpt>
      <trkpt lat="41.4857630" lon="2.0728010">
        <ele>159.4</ele>
        <time>2018-06-14T08:16:01Z</time>
      </trkpt>
      <trkpt lat="41.4858200" lon="2.0728390">
        <ele>160.2</ele>
        <time>2018-06-14T08:16:05Z</time>
      </trkpt>
      <trkpt lat="41.4858390" lon="2.0728480">
        <ele>160.6</ele>
        <time>2018-06-14T08:16:06Z</time>
      </trkpt>
      <trkpt lat="41.4859440" lon="2.0728970">
        <ele>161.4</ele>
        <time>2018-06-14T08:16:11Z</time>
      </trkpt>
      <trkpt lat="41.4859680" lon="2.0729080">
        <ele>161.8</ele>
        <time>2018-06-14T08:16:12Z</time>
      </trkpt>
      <trkpt lat="41.4860640" lon="2.0728900">
        <ele>162.4</ele>
        <time>2018-06-14T08:16:16Z</time>
      </trkpt>
      <trkpt lat="41.4861500" lon="2.0728160">
        <ele>162.8</ele>
        <time>2018-06-14T08:16:20Z</time>
      </trkpt>
      <trkpt lat="41.4861940" lon="2.0727750">
        <ele>163.2</ele>
        <time>2018-06-14T08:16:22Z</time>
      </trkpt>
      <trkpt lat="41.4862140" lon="2.0727520">
        <ele>163.4</ele>
        <time>2018-06-14T08:16:23Z</time>
      </trkpt>
      <trkpt lat="41.4862400" lon="2.0727080">
        <ele>163.8</ele>
        <time>2018-06-14T08:16:25Z</time>
      </trkpt>
      <trkpt lat="41.4862510" lon="2.0726500">
        <ele>164.2</ele>
        <time>2018-06-14T08:16:27Z</time>
      </trkpt>
      <trkpt lat="41.4862550" lon="2.0726200">
        <ele>164.2</ele>
        <time>2018-06-14T08:16:28Z</time>
      </trkpt>
      <trkpt lat="41.4862750" lon="2.0724780">
        <ele>165.0</ele>
        <time>2018-06-14T08:16:32Z</time>
      </trkpt>
      <trkpt lat="41.4862970" lon="2.0723760">
        <ele>165.0</ele>
        <time>2018-06-14T08:16:35Z</time>
      </trkpt>
      <trkpt lat="41.4863370" lon="2.0723320">
        <ele>165.0</ele>
        <time>2018-06-14T08:16:37Z</time>
      </trkpt>
      <trkpt lat="41.4864510" lon="2.0721970">
        <ele>165.0</ele>
        <time>2018-06-14T08:16:43Z</time>
      </trkpt>
      <trkpt lat="41.4864920" lon="2.0720430">
        <ele>165.0</ele>
        <time>2018-06-14T08:16:48Z</time>
      </trkpt>
      <trkpt lat="41.4865000" lon="2.0718290">
        <ele>165.0</ele>
        <time>2018-06-14T08:16:54Z</time>
      </trkpt>
      <trkpt lat="41.4865070" lon="2.0716490">
        <ele>165.2</ele>
        <time>2018-06-14T08:16:59Z</time>
      </trkpt>
      <trkpt lat="41.4865180" lon="2.0715120">
        <ele>165.2</ele>
        <time>2018-06-14T08:17:03Z</time>
      </trkpt>
      <trkpt lat="41.4865240" lon="2.0714440">
        <ele>165.2</ele>
        <time>2018-06-14T08:17:05Z</time>
      </trkpt>
      <trkpt lat="41.4865430" lon="2.0712310">
        <ele>165.4</ele>
        <time>2018-06-14T08:17:11Z</time>
      </trkpt>
      <trkpt lat="41.4865630" lon="2.0710290">
        <ele>165.6</ele>
        <time>2018-06-14T08:17:17Z</time>
      </trkpt>
      <trkpt lat="41.4865740" lon="2.0708210">
        <ele>165.6</ele>
        <time>2018-06-14T08:17:23Z</time>
      </trkpt>
      <trkpt lat="41.4865880" lon="2.0706720">
        <ele>165.8</ele>
        <time>2018-06-14T08:17:27Z</time>
      </trkpt>
      <trkpt lat="41.4866090" lon="2.0704000">
        <ele>166.0</ele>
        <time>2018-06-14T08:17:34Z</time>
      </trkpt>
      <trkpt lat="41.4866290" lon="2.0702130">
        <ele>166.2</ele>
        <time>2018-06-14T08:17:39Z</time>
      </trkpt>
      <trkpt lat="41.4866320" lon="2.0701730">
        <ele>166.2</ele>
        <time>2018-06-14T08:17:40Z</time>
      </trkpt>
      <trkpt lat="41.4866500" lon="2.0699750">
        <ele>166.2</ele>
        <time>2018-06-14T08:17:45Z</time>
      </trkpt>
      <trkpt lat="41.4866610" lon="2.0698620">
        <ele>166.2</ele>
        <time>2018-06-14T08:17:48Z</time>
      </trkpt>
      <trkpt lat="41.4866790" lon="2.0697130">
        <ele>166.4</ele>
        <time>2018-06-14T08:17:52Z</time>
      </trkpt>
      <trkpt lat="41.4867040" lon="2.0695690">
        <ele>166.4</ele>
        <time>2018-06-14T08:17:56Z</time>
      </trkpt>
      <trkpt lat="41.4867260" lon="2.0693560">
        <ele>166.4</ele>
        <time>2018-06-14T08:18:02Z</time>
      </trkpt>
      <trkpt lat="41.4867560" lon="2.0691380">
        <ele>166.4</ele>
        <time>2018-06-14T08:18:08Z</time>
      </trkpt>
      <trkpt lat="41.4867910" lon="2.0689510">
        <ele>166.4</ele>
        <time>2018-06-14T08:18:13Z</time>
      </trkpt>
      <trkpt lat="41.4868720" lon="2.0687020">
        <ele>166.4</ele>
        <time>2018-06-14T08:18:21Z</time>
      </trkpt>
      <trkpt lat="41.4869010" lon="2.0686420">
        <ele>166.4</ele>
        <time>2018-06-14T08:18:23Z</time>
      </trkpt>
      <trkpt lat="41.4869650" lon="2.0685210">
        <ele>166.2</ele>
        <time>2018-06-14T08:18:27Z</time>
      </trkpt>
      <trkpt lat="41.4870480" lon="2.0683740">
        <ele>166.2</ele>
        <time>2018-06-14T08:18:32Z</time>
      </trkpt>
      <trkpt lat="41.4872020" lon="2.0682240">
        <ele>166.2</ele>
        <time>2018-06-14T08:18:39Z</time>
      </trkpt>
      <trkpt lat="41.4873510" lon="2.0681290">
        <ele>166.2</ele>
        <time>2018-06-14T08:18:45Z</time>
      </trkpt>
      <trkpt lat="41.4875340" lon="2.0680650">
        <ele>166.2</ele>
        <time>2018-06-14T08:18:52Z</time>
      </trkpt>
      <trkpt lat="41.4876610" lon="2.0680200">
        <ele>166.2</ele>
        <time>2018-06-14T08:18:57Z</time>
      </trkpt>
      <trkpt lat="41.4877640" lon="2.0680010">
        <ele>166.4</ele>
        <time>2018-06-14T08:19:01Z</time>
      </trkpt>
      <trkpt lat="41.4878980" lon="2.0679550">
        <ele>166.4</ele>
        <time>2018-06-14T08:19:06Z</time>
      </trkpt>
      <trkpt lat="41.4880010" lon="2.0679460">
        <ele>166.4</ele>
        <time>2018-06-14T08:19:10Z</time>
      </trkpt>
      <trkpt lat="41.4881340" lon="2.0679150">
        <ele>166.6</ele>
        <time>2018-06-14T08:19:15Z</time>
      </trkpt>
      <trkpt lat="41.4881510" lon="2.0679180">
        <ele>166.6</ele>
        <time>2018-06-14T08:19:16Z</time>
      </trkpt>
      <trkpt lat="41.4881900" lon="2.0679810">
        <ele>166.6</ele>
        <time>2018-06-14T08:19:19Z</time>
      </trkpt>
      <trkpt lat="41.4882860" lon="2.0680700">
        <ele>166.8</ele>
        <time>2018-06-14T08:19:24Z</time>
      </trkpt>
      <trkpt lat="41.4884210" lon="2.0680820">
        <ele>166.8</ele>
        <time>2018-06-14T08:19:30Z</time>
      </trkpt>
      <trkpt lat="41.4884430" lon="2.0680690">
        <ele>166.8</ele>
        <time>2018-06-14T08:19:31Z</time>
      </trkpt>
      <trkpt lat="41.4884780" lon="2.0680270">
        <ele>168.0</ele>
        <time>2018-06-14T08:19:33Z</time>
      </trkpt>
      <trkpt lat="41.4884940" lon="2.0680000">
        <ele>168.4</ele>
        <time>2018-06-14T08:19:34Z</time>
      </trkpt>
      <trkpt lat="41.4885510" lon="2.0679340">
        <ele>169.0</ele>
        <time>2018-06-14T08:19:37Z</time>
      </trkpt>
      <trkpt lat="41.4886240" lon="2.0678840">
        <ele>168.8</ele>
        <time>2018-06-14T08:19:40Z</time>
      </trkpt>
      <trkpt lat="41.4887240" lon="2.0678230">
        <ele>168.2</ele>
        <time>2018-06-14T08:19:44Z</time>
      </trkpt>
      <trkpt lat="41.4887490" lon="2.0678130">
        <ele>167.8</ele>
        <time>2018-06-14T08:19:45Z</time>
      </trkpt>
      <trkpt lat="41.4888660" lon="2.0677990">
        <ele>168.2</ele>
        <time>2018-06-14T08:19:50Z</time>
      </trkpt>
      <trkpt lat="41.4890140" lon="2.0677920">
        <ele>168.0</ele>
        <time>2018-06-14T08:19:56Z</time>
      </trkpt>
      <trkpt lat="41.4892160" lon="2.0677920">
        <ele>168.6</ele>
        <time>2018-06-14T08:20:03Z</time>
      </trkpt>
      <trkpt lat="41.4893210" lon="2.0677850">
        <ele>168.2</ele>
        <time>2018-06-14T08:20:07Z</time>
      </trkpt>
      <trkpt lat="41.4894570" lon="2.0677800">
        <ele>169.0</ele>
        <time>2018-06-14T08:20:12Z</time>
      </trkpt>
      <trkpt lat="41.4894850" lon="2.0677800">
        <ele>169.0</ele>
        <time>2018-06-14T08:20:13Z</time>
      </trkpt>
      <trkpt lat="41.4895110" lon="2.0677770">
        <ele>169.0</ele>
        <time>2018-06-14T08:20:14Z</time>
      </trkpt>
      <trkpt lat="41.4896650" lon="2.0677510">
        <ele>168.2</ele>
        <time>2018-06-14T08:20:20Z</time>
      </trkpt>
      <trkpt lat="41.4898160" lon="2.0677590">
        <ele>168.2</ele>
        <time>2018-06-14T08:20:27Z</time>
      </trkpt>
      <trkpt lat="41.4899380" lon="2.0678230">
        <ele>168.8</ele>
        <time>2018-06-14T08:20:33Z</time>
      </trkpt>
      <trkpt lat="41.4900210" lon="2.0678660">
        <ele>169.2</ele>
        <time>2018-06-14T08:20:37Z</time>
      </trkpt>
      <trkpt lat="41.4900530" lon="2.0679150">
        <ele>169.4</ele>
        <time>2018-06-14T08:20:39Z</time>
      </trkpt>
      <trkpt lat="41.4901850" lon="2.0680590">
        <ele>169.8</ele>
        <time>2018-06-14T08:20:46Z</time>
      </trkpt>
      <trkpt lat="41.4902540" lon="2.0681100">
        <ele>170.0</ele>
        <time>2018-06-14T08:20:49Z</time>
      </trkpt>
      <trkpt lat="41.4903580" lon="2.0681560">
        <ele>170.4</ele>
        <time>2018-06-14T08:20:53Z</time>
      </trkpt>
      <trkpt lat="41.4905330" lon="2.0681620">
        <ele>170.0</ele>
        <time>2018-06-14T08:21:00Z</time>
      </trkpt>
      <trkpt lat="41.4906440" lon="2.0680790">
        <ele>171.2</ele>
        <time>2018-06-14T08:21:05Z</time>
      </trkpt>
      <trkpt lat="41.4906620" lon="2.0680590">
        <ele>171.4</ele>
        <time>2018-06-14T08:21:06Z</time>
      </trkpt>
      <trkpt lat="41.4907670" lon="2.0679070">
        <ele>171.4</ele>
        <time>2018-06-14T08:21:12Z</time>
      </trkpt>
      <trkpt lat="41.4908280" lon="2.0677340">
        <ele>171.6</ele>
        <time>2018-06-14T08:21:17Z</time>
      </trkpt>
      <trkpt lat="41.4908420" lon="2.0676040">
        <ele>172.0</ele>
        <time>2018-06-14T08:21:21Z</time>
      </trkpt>
      <trkpt lat="41.4908430" lon="2.0675740">
        <ele>172.4</ele>
        <time>2018-06-14T08:21:22Z</time>
      </trkpt>
      <trkpt lat="41.4908430" lon="2.0674770">
        <ele>172.6</ele>
        <time>2018-06-14T08:21:25Z</time>
      </trkpt>
      <trkpt lat="41.4908490" lon="2.0674200">
        <ele>172.6</ele>
        <time>2018-06-14T08:21:27Z</time>
      </trkpt>
      <trkpt lat="41.4908620" lon="2.0673560">
        <ele>172.4</ele>
        <time>2018-06-14T08:21:29Z</time>
      </trkpt>
      <trkpt lat="41.4908610" lon="2.0673240">
        <ele>172.4</ele>
        <time>2018-06-14T08:21:30Z</time>
      </trkpt>
      <trkpt lat="41.4908390" lon="2.0672650">
        <ele>172.6</ele>
        <time>2018-06-14T08:21:32Z</time>
      </trkpt>
      <trkpt lat="41.4908160" lon="2.0672130">
        <ele>172.8</ele>
        <time>2018-06-14T08:21:34Z</time>
      </trkpt>
      <trkpt lat="41.4908310" lon="2.0671710">
        <ele>173.0</ele>
        <time>2018-06-14T08:21:36Z</time>
      </trkpt>
      <trkpt lat="41.4908830" lon="2.0670610">
        <ele>173.4</ele>
        <time>2018-06-14T08:21:40Z</time>
      </trkpt>
      <trkpt lat="41.4908900" lon="2.0669940">
        <ele>173.4</ele>
        <time>2018-06-14T08:21:42Z</time>
      </trkpt>
      <trkpt lat="41.4908880" lon="2.0668870">
        <ele>173.0</ele>
        <time>2018-06-14T08:21:45Z</time>
      </trkpt>
      <trkpt lat="41.4908840" lon="2.0667200">
        <ele>173.4</ele>
        <time>2018-06-14T08:21:50Z</time>
      </trkpt>
      <trkpt lat="41.4909150" lon="2.0665990">
        <ele>172.8</ele>
        <time>2018-06-14T08:21:54Z</time>
      </trkpt>
      <trkpt lat="41.4909950" lon="2.0664990">
        <ele>173.8</ele>
        <time>2018-06-14T08:21:59Z</time>
      </trkpt>
      <trkpt lat="41.4911250" lon="2.0664400">
        <ele>173.8</ele>
        <time>2018-06-14T08:22:05Z</time>
      </trkpt>
      <trkpt lat="41.4911940" lon="2.0664100">
        <ele>174.8</ele>
        <time>2018-06-14T08:22:08Z</time>
      </trkpt>
      <trkpt lat="41.4912440" lon="2.0663910">
        <ele>176.0</ele>
        <time>2018-06-14T08:22:10Z</time>
      </trkpt>
      <trkpt lat="41.4912680" lon="2.0663800">
        <ele>176.2</ele>
        <time>2018-06-14T08:22:11Z</time>
      </trkpt>
      <trkpt lat="41.4914280" lon="2.0663280">
        <ele>176.4</ele>
        <time>2018-06-14T08:22:18Z</time>
      </trkpt>
      <trkpt lat="41.4915460" lon="2.0662830">
        <ele>177.2</ele>
        <time>2018-06-14T08:22:23Z</time>
      </trkpt>
      <trkpt lat="41.4915680" lon="2.0662740">
        <ele>177.4</ele>
        <time>2018-06-14T08:22:24Z</time>
      </trkpt>
      <trkpt lat="41.4917320" lon="2.0661950">
        <ele>177.8</ele>
        <time>2018-06-14T08:22:31Z</time>
      </trkpt>
      <trkpt lat="41.4917980" lon="2.0661630">
        <ele>178.2</ele>
        <time>2018-06-14T08:22:34Z</time>
      </trkpt>
      <trkpt lat="41.4918410" lon="2.0661400">
        <ele>178.4</ele>
        <time>2018-06-14T08:22:36Z</time>
      </trkpt>
      <trkpt lat="41.4918670" lon="2.0661280">
        <ele>178.4</ele>
        <time>2018-06-14T08:22:37Z</time>
      </trkpt>
      <trkpt lat="41.4920440" lon="2.0660520">
        <ele>178.4</ele>
        <time>2018-06-14T08:22:44Z</time>
      </trkpt>
      <trkpt lat="41.4920680" lon="2.0660420">
        <ele>178.6</ele>
        <time>2018-06-14T08:22:45Z</time>
      </trkpt>
      <trkpt lat="41.4922410" lon="2.0659650">
        <ele>179.0</ele>
        <time>2018-06-14T08:22:53Z</time>
      </trkpt>
      <trkpt lat="41.4922660" lon="2.0659540">
        <ele>179.0</ele>
        <time>2018-06-14T08:22:54Z</time>
      </trkpt>
      <trkpt lat="41.4923770" lon="2.0659070">
        <ele>179.2</ele>
        <time>2018-06-14T08:22:58Z</time>
      </trkpt>
      <trkpt lat="41.4924280" lon="2.0658880">
        <ele>179.2</ele>
        <time>2018-06-14T08:23:00Z</time>
      </trkpt>
      <trkpt lat="41.4925590" lon="2.0658310">
        <ele>179.8</ele>
        <time>2018-06-14T08:23:05Z</time>
      </trkpt>
      <trkpt lat="41.4927020" lon="2.0657960">
        <ele>180.2</ele>
        <time>2018-06-14T08:23:11Z</time>
      </trkpt>
      <trkpt lat="41.4928020" lon="2.0657580">
        <ele>180.6</ele>
        <time>2018-06-14T08:23:15Z</time>
      </trkpt>
      <trkpt lat="41.4928260" lon="2.0657500">
        <ele>180.8</ele>
        <time>2018-06-14T08:23:16Z</time>
      </trkpt>
      <trkpt lat="41.4930020" lon="2.0656810">
        <ele>180.6</ele>
        <time>2018-06-14T08:23:23Z</time>
      </trkpt>
      <trkpt lat="41.4930500" lon="2.0656640">
        <ele>180.6</ele>
        <time>2018-06-14T08:23:25Z</time>
      </trkpt>
      <trkpt lat="41.4930940" lon="2.0656460">
        <ele>181.4</ele>
        <time>2018-06-14T08:23:27Z</time>
      </trkpt>
      <trkpt lat="41.4931140" lon="2.0656320">
        <ele>181.8</ele>
        <time>2018-06-14T08:23:28Z</time>
      </trkpt>
      <trkpt lat="41.4931590" lon="2.0656120">
        <ele>182.2</ele>
        <time>2018-06-14T08:23:30Z</time>
      </trkpt>
      <trkpt lat="41.4932130" lon="2.0655930">
        <ele>182.6</ele>
        <time>2018-06-14T08:23:32Z</time>
      </trkpt>
      <trkpt lat="41.4932400" lon="2.0655840">
        <ele>182.8</ele>
        <time>2018-06-14T08:23:33Z</time>
      </trkpt>
      <trkpt lat="41.4932820" lon="2.0655610">
        <ele>182.8</ele>
        <time>2018-06-14T08:23:35Z</time>
      </trkpt>
      <trkpt lat="41.4934190" lon="2.0655080">
        <ele>182.8</ele>
        <time>2018-06-14T08:23:41Z</time>
      </trkpt>
      <trkpt lat="41.4935240" lon="2.0654630">
        <ele>184.0</ele>
        <time>2018-06-14T08:23:46Z</time>
      </trkpt>
      <trkpt lat="41.4935470" lon="2.0654520">
        <ele>184.4</ele>
        <time>2018-06-14T08:23:47Z</time>
      </trkpt>
      <trkpt lat="41.4936170" lon="2.0654200">
        <ele>185.2</ele>
        <time>2018-06-14T08:23:50Z</time>
      </trkpt>
      <trkpt lat="41.4936810" lon="2.0653850">
        <ele>185.4</ele>
        <time>2018-06-14T08:23:53Z</time>
      </trkpt>
      <trkpt lat="41.4938430" lon="2.0653330">
        <ele>186.0</ele>
        <time>2018-06-14T08:24:00Z</time>
      </trkpt>
      <trkpt lat="41.4939470" lon="2.0653030">
        <ele>186.2</ele>
        <time>2018-06-14T08:24:04Z</time>
      </trkpt>
      <trkpt lat="41.4939980" lon="2.0652960">
        <ele>186.0</ele>
        <time>2018-06-14T08:24:06Z</time>
      </trkpt>
      <trkpt lat="41.4941800" lon="2.0652420">
        <ele>186.6</ele>
        <time>2018-06-14T08:24:13Z</time>
      </trkpt>
      <trkpt lat="41.4943190" lon="2.0652310">
        <ele>186.0</ele>
        <time>2018-06-14T08:24:18Z</time>
      </trkpt>
      <trkpt lat="41.4944750" lon="2.0651970">
        <ele>186.4</ele>
        <time>2018-06-14T08:24:24Z</time>
      </trkpt>
      <trkpt lat="41.4946640" lon="2.0651580">
        <ele>187.2</ele>
        <time>2018-06-14T08:24:31Z</time>
      </trkpt>
      <trkpt lat="41.4947120" lon="2.0651410">
        <ele>187.2</ele>
        <time>2018-06-14T08:24:33Z</time>
      </trkpt>
      <trkpt lat="41.4948370" lon="2.0651160">
        <ele>186.8</ele>
        <time>2018-06-14T08:24:38Z</time>
      </trkpt>
      <trkpt lat="41.4950160" lon="2.0650800">
        <ele>187.4</ele>
        <time>2018-06-14T08:24:45Z</time>
      </trkpt>
      <trkpt lat="41.4951550" lon="2.0650410">
        <ele>187.2</ele>
        <time>2018-06-14T08:24:51Z</time>
      </trkpt>
      <trkpt lat="41.4953320" lon="2.0650040">
        <ele>188.0</ele>
        <time>2018-06-14T08:24:58Z</time>
      </trkpt>
      <trkpt lat="41.4955110" lon="2.0649690">
        <ele>187.8</ele>
        <time>2018-06-14T08:25:05Z</time>
      </trkpt>
      <trkpt lat="41.4956670" lon="2.0649420">
        <ele>187.8</ele>
        <time>2018-06-14T08:25:11Z</time>
      </trkpt>
      <trkpt lat="41.4957200" lon="2.0649340">
        <ele>188.4</ele>
        <time>2018-06-14T08:25:13Z</time>
      </trkpt>
      <trkpt lat="41.4958580" lon="2.0649160">
        <ele>188.8</ele>
        <time>2018-06-14T08:25:18Z</time>
      </trkpt>
      <trkpt lat="41.4960330" lon="2.0648430">
        <ele>188.8</ele>
        <time>2018-06-14T08:25:25Z</time>
      </trkpt>
      <trkpt lat="41.4961950" lon="2.0647200">
        <ele>188.8</ele>
        <time>2018-06-14T08:25:32Z</time>
      </trkpt>
      <trkpt lat="41.4962390" lon="2.0646880">
        <ele>189.4</ele>
        <time>2018-06-14T08:25:34Z</time>
      </trkpt>
      <trkpt lat="41.4963330" lon="2.0646220">
        <ele>190.0</ele>
        <time>2018-06-14T08:25:38Z</time>
      </trkpt>
      <trkpt lat="41.4964590" lon="2.0645130">
        <ele>190.0</ele>
        <time>2018-06-14T08:25:45Z</time>
      </trkpt>
      <trkpt lat="41.4965040" lon="2.0644690">
        <ele>190.8</ele>
        <time>2018-06-14T08:25:48Z</time>
      </trkpt>
      <trkpt lat="41.4965520" lon="2.0644230">
        <ele>191.4</ele>
        <time>2018-06-14T08:25:51Z</time>
      </trkpt>
      <trkpt lat="41.4965980" lon="2.0643720">
        <ele>192.0</ele>
        <time>2018-06-14T08:25:54Z</time>
      </trkpt>
      <trkpt lat="41.4966110" lon="2.0643560">
        <ele>192.0</ele>
        <time>2018-06-14T08:25:55Z</time>
      </trkpt>
      <trkpt lat="41.4966520" lon="2.0643000">
        <ele>192.8</ele>
        <time>2018-06-14T08:25:58Z</time>
      </trkpt>
      <trkpt lat="41.4966670" lon="2.0642850">
        <ele>193.2</ele>
        <time>2018-06-14T08:25:59Z</time>
      </trkpt>
      <trkpt lat="41.4967170" lon="2.0642180">
        <ele>194.2</ele>
        <time>2018-06-14T08:26:03Z</time>
      </trkpt>
      <trkpt lat="41.4967410" lon="2.0641860">
        <ele>194.6</ele>
        <time>2018-06-14T08:26:05Z</time>
      </trkpt>
      <trkpt lat="41.4967680" lon="2.0641700">
        <ele>194.8</ele>
        <time>2018-06-14T08:26:07Z</time>
      </trkpt>
      <trkpt lat="41.4968360" lon="2.0641900">
        <ele>195.0</ele>
        <time>2018-06-14T08:26:10Z</time>
      </trkpt>
      <trkpt lat="41.4969270" lon="2.0641790">
        <ele>195.2</ele>
        <time>2018-06-14T08:26:13Z</time>
      </trkpt>
      <trkpt lat="41.4969790" lon="2.0641530">
        <ele>195.8</ele>
        <time>2018-06-14T08:26:15Z</time>
      </trkpt>
      <trkpt lat="41.4970630" lon="2.0641030">
        <ele>196.4</ele>
        <time>2018-06-14T08:26:18Z</time>
      </trkpt>
      <trkpt lat="41.4971430" lon="2.0640590">
        <ele>197.2</ele>
        <time>2018-06-14T08:26:21Z</time>
      </trkpt>
      <trkpt lat="41.4972000" lon="2.0640300">
        <ele>197.6</ele>
        <time>2018-06-14T08:26:23Z</time>
      </trkpt>
      <trkpt lat="41.4972520" lon="2.0639990">
        <ele>198.4</ele>
        <time>2018-06-14T08:26:25Z</time>
      </trkpt>
      <trkpt lat="41.4972760" lon="2.0639820">
        <ele>198.8</ele>
        <time>2018-06-14T08:26:26Z</time>
      </trkpt>
      <trkpt lat="41.4973770" lon="2.0639440">
        <ele>199.8</ele>
        <time>2018-06-14T08:26:30Z</time>
      </trkpt>
      <trkpt lat="41.4975610" lon="2.0638840">
        <ele>199.4</ele>
        <time>2018-06-14T08:26:37Z</time>
      </trkpt>
      <trkpt lat="41.4975860" lon="2.0638790">
        <ele>199.6</ele>
        <time>2018-06-14T08:26:38Z</time>
      </trkpt>
      <trkpt lat="41.4976100" lon="2.0638710">
        <ele>200.0</ele>
        <time>2018-06-14T08:26:39Z</time>
      </trkpt>
      <trkpt lat="41.4977300" lon="2.0638140">
        <ele>200.8</ele>
        <time>2018-06-14T08:26:44Z</time>
      </trkpt>
      <trkpt lat="41.4977540" lon="2.0638110">
        <ele>201.0</ele>
        <time>2018-06-14T08:26:45Z</time>
      </trkpt>
      <trkpt lat="41.4978330" lon="2.0637810">
        <ele>201.6</ele>
        <time>2018-06-14T08:26:49Z</time>
      </trkpt>
      <trkpt lat="41.4978920" lon="2.0637510">
        <ele>202.0</ele>
        <time>2018-06-14T08:26:52Z</time>
      </trkpt>
      <trkpt lat="41.4979580" lon="2.0637200">
        <ele>203.0</ele>
        <time>2018-06-14T08:26:55Z</time>
      </trkpt>
      <trkpt lat="41.4979790" lon="2.0637080">
        <ele>203.2</ele>
        <time>2018-06-14T08:26:56Z</time>
      </trkpt>
      <trkpt lat="41.4980460" lon="2.0636570">
        <ele>203.4</ele>
        <time>2018-06-14T08:27:00Z</time>
      </trkpt>
      <trkpt lat="41.4981560" lon="2.0635630">
        <ele>203.4</ele>
        <time>2018-06-14T08:27:06Z</time>
      </trkpt>
      <trkpt lat="41.4982720" lon="2.0634830">
        <ele>203.6</ele>
        <time>2018-06-14T08:27:12Z</time>
      </trkpt>
      <trkpt lat="41.4984250" lon="2.0634360">
        <ele>203.8</ele>
        <time>2018-06-14T08:27:19Z</time>
      </trkpt>
      <trkpt lat="41.4985030" lon="2.0634360">
        <ele>204.0</ele>
        <time>2018-06-14T08:27:23Z</time>
      </trkpt>
      <trkpt lat="41.4985910" lon="2.0634520">
        <ele>204.2</ele>
        <time>2018-06-14T08:27:27Z</time>
      </trkpt>
      <trkpt lat="41.4986530" lon="2.0634670">
        <ele>204.2</ele>
        <time>2018-06-14T08:27:30Z</time>
      </trkpt>
      <trkpt lat="41.4987160" lon="2.0634760">
        <ele>204.4</ele>
        <time>2018-06-14T08:27:33Z</time>
      </trkpt>
      <trkpt lat="41.4988470" lon="2.0634680">
        <ele>204.6</ele>
        <time>2018-06-14T08:27:39Z</time>
      </trkpt>
      <trkpt lat="41.4989510" lon="2.0634710">
        <ele>205.0</ele>
        <time>2018-06-14T08:27:45Z</time>
      </trkpt>
      <trkpt lat="41.4990210" lon="2.0634600">
        <ele>205.4</ele>
        <time>2018-06-14T08:27:49Z</time>
      </trkpt>
      <trkpt lat="41.4990620" lon="2.0634510">
        <ele>205.4</ele>
        <time>2018-06-14T08:27:51Z</time>
      </trkpt>
      <trkpt lat="41.4991830" lon="2.0633770">
        <ele>206.0</ele>
        <time>2018-06-14T08:27:58Z</time>
      </trkpt>
      <trkpt lat="41.4992510" lon="2.0633380">
        <ele>206.4</ele>
        <time>2018-06-14T08:28:02Z</time>
      </trkpt>
      <trkpt lat="41.4992880" lon="2.0633130">
        <ele>206.6</ele>
        <time>2018-06-14T08:28:04Z</time>
      </trkpt>
      <trkpt lat="41.4994080" lon="2.0632820">
        <ele>207.0</ele>
        <time>2018-06-14T08:28:10Z</time>
      </trkpt>
      <trkpt lat="41.4995370" lon="2.0632950">
        <ele>207.4</ele>
        <time>2018-06-14T08:28:15Z</time>
      </trkpt>
      <trkpt lat="41.4996900" lon="2.0632960">
        <ele>208.0</ele>
        <time>2018-06-14T08:28:21Z</time>
      </trkpt>
      <trkpt lat="41.4998160" lon="2.0633010">
        <ele>208.2</ele>
        <time>2018-06-14T08:28:26Z</time>
      </trkpt>
      <trkpt lat="41.4998980" lon="2.0633140">
        <ele>208.4</ele>
        <time>2018-06-14T08:28:29Z</time>
      </trkpt>
      <trkpt lat="41.4999400" lon="2.0633150">
        <ele>208.6</ele>
        <time>2018-06-14T08:28:31Z</time>
      </trkpt>
      <trkpt lat="41.5001050" lon="2.0633240">
        <ele>209.0</ele>
        <time>2018-06-14T08:28:38Z</time>
      </trkpt>
      <trkpt lat="41.5001260" lon="2.0633190">
        <ele>209.2</ele>
        <time>2018-06-14T08:28:39Z</time>
      </trkpt>
      <trkpt lat="41.5001850" lon="2.0633190">
        <ele>209.4</ele>
        <time>2018-06-14T08:28:42Z</time>
      </trkpt>
      <trkpt lat="41.5002530" lon="2.0633170">
        <ele>209.6</ele>
        <time>2018-06-14T08:28:45Z</time>
      </trkpt>
      <trkpt lat="41.5003530" lon="2.0633140">
        <ele>209.8</ele>
        <time>2018-06-14T08:28:49Z</time>
      </trkpt>
      <trkpt lat="41.5005360" lon="2.0633180">
        <ele>210.2</ele>
        <time>2018-06-14T08:28:56Z</time>
      </trkpt>
      <trkpt lat="41.5006560" lon="2.0633140">
        <ele>210.4</ele>
        <time>2018-06-14T08:29:00Z</time>
      </trkpt>
      <trkpt lat="41.5007090" lon="2.0633100">
        <ele>210.6</ele>
        <time>2018-06-14T08:29:02Z</time>
      </trkpt>
      <trkpt lat="41.5008190" lon="2.0633200">
        <ele>210.8</ele>
        <time>2018-06-14T08:29:06Z</time>
      </trkpt>
      <trkpt lat="41.5010040" lon="2.0633320">
        <ele>211.0</ele>
        <time>2018-06-14T08:29:12Z</time>
      </trkpt>
      <trkpt lat="41.5010540" lon="2.0633370">
        <ele>211.0</ele>
        <time>2018-06-14T08:29:14Z</time>
      </trkpt>
      <trkpt lat="41.5011580" lon="2.0633500">
        <ele>211.2</ele>
        <time>2018-06-14T08:29:18Z</time>
      </trkpt>
      <trkpt lat="41.5013390" lon="2.0633580">
        <ele>211.4</ele>
        <time>2018-06-14T08:29:24Z</time>
      </trkpt>
      <trkpt lat="41.5015020" lon="2.0633600">
        <ele>211.6</ele>
        <time>2018-06-14T08:29:30Z</time>
      </trkpt>
      <trkpt lat="41.5015260" lon="2.0633600">
        <ele>211.6</ele>
        <time>2018-06-14T08:29:31Z</time>
      </trkpt>
      <trkpt lat="41.5016910" lon="2.0633430">
        <ele>212.0</ele>
        <time>2018-06-14T08:29:38Z</time>
      </trkpt>
      <trkpt lat="41.5018020" lon="2.0633140">
        <ele>212.2</ele>
        <time>2018-06-14T08:29:43Z</time>
      </trkpt>
      <trkpt lat="41.5018240" lon="2.0633140">
        <ele>212.2</ele>
        <time>2018-06-14T08:29:44Z</time>
      </trkpt>
      <trkpt lat="41.5019890" lon="2.0632820">
        <ele>212.6</ele>
        <time>2018-06-14T08:29:50Z</time>
      </trkpt>
      <trkpt lat="41.5020500" lon="2.0632520">
        <ele>212.6</ele>
        <time>2018-06-14T08:29:52Z</time>
      </trkpt>
      <trkpt lat="41.5021360" lon="2.0632230">
        <ele>212.8</ele>
        <time>2018-06-14T08:29:55Z</time>
      </trkpt>
      <trkpt lat="41.5022640" lon="2.0631850">
        <ele>213.0</ele>
        <time>2018-06-14T08:30:00Z</time>
      </trkpt>
      <trkpt lat="41.5023680" lon="2.0631560">
        <ele>213.4</ele>
        <time>2018-06-14T08:30:05Z</time>
      </trkpt>
      <trkpt lat="41.5024690" lon="2.0631130">
        <ele>213.6</ele>
        <time>2018-06-14T08:30:10Z</time>
      </trkpt>
      <trkpt lat="41.5025110" lon="2.0630990">
        <ele>213.8</ele>
        <time>2018-06-14T08:30:12Z</time>
      </trkpt>
      <trkpt lat="41.5025960" lon="2.0630480">
        <ele>214.2</ele>
        <time>2018-06-14T08:30:17Z</time>
      </trkpt>
      <trkpt lat="41.5027240" lon="2.0629870">
        <ele>214.6</ele>
        <time>2018-06-14T08:30:23Z</time>
      </trkpt>
      <trkpt lat="41.5027810" lon="2.0629650">
        <ele>214.8</ele>
        <time>2018-06-14T08:30:26Z</time>
      </trkpt>
      <trkpt lat="41.5028680" lon="2.0629440">
        <ele>215.0</ele>
        <time>2018-06-14T08:30:30Z</time>
      </trkpt>
      <trkpt lat="41.5029940" lon="2.0629570">
        <ele>215.4</ele>
        <time>2018-06-14T08:30:35Z</time>
      </trkpt>
      <trkpt lat="41.5030790" lon="2.0629770">
        <ele>215.8</ele>
        <time>2018-06-14T08:30:39Z</time>
      </trkpt>
      <trkpt lat="41.5031210" lon="2.0629920">
        <ele>216.0</ele>
        <time>2018-06-14T08:30:41Z</time>
      </trkpt>
      <trkpt lat="41.5032150" lon="2.0630290">
        <ele>216.4</ele>
        <time>2018-06-14T08:30:45Z</time>
      </trkpt>
      <trkpt lat="41.5033420" lon="2.0630780">
        <ele>216.8</ele>
        <time>2018-06-14T08:30:51Z</time>
      </trkpt>
      <trkpt lat="41.5034700" lon="2.0631230">
        <ele>217.4</ele>
        <time>2018-06-14T08:30:57Z</time>
      </trkpt>
      <trkpt lat="41.5034920" lon="2.0631280">
        <ele>221.6</ele>
        <time>2018-06-14T08:30:58Z</time>
      </trkpt>
      <trkpt lat="41.5035120" lon="2.0631330">
        <ele>224.0</ele>
        <time>2018-06-14T08:30:59Z</time>
      </trkpt>
      <trkpt lat="41.5035330" lon="2.0631370">
        <ele>225.0</ele>
        <time>2018-06-14T08:31:00Z</time>
      </trkpt>
      <trkpt lat="41.5035810" lon="2.0631470">
        <ele>226.0</ele>
        <time>2018-06-14T08:31:02Z</time>
      </trkpt>
      <trkpt lat="41.5036310" lon="2.0631580">
        <ele>226.6</ele>
        <time>2018-06-14T08:31:04Z</time>
      </trkpt>
      <trkpt lat="41.5037120" lon="2.0631740">
        <ele>227.4</ele>
        <time>2018-06-14T08:31:07Z</time>
      </trkpt>
      <trkpt lat="41.5038050" lon="2.0631890">
        <ele>228.2</ele>
        <time>2018-06-14T08:31:11Z</time>
      </trkpt>
      <trkpt lat="41.5039070" lon="2.0632190">
        <ele>228.2</ele>
        <time>2018-06-14T08:31:16Z</time>
      </trkpt>
      <trkpt lat="41.5039260" lon="2.0632180">
        <ele>228.0</ele>
        <time>2018-06-14T08:31:17Z</time>
      </trkpt>
      <trkpt lat="41.5040370" lon="2.0632270">
        <ele>228.6</ele>
        <time>2018-06-14T08:31:22Z</time>
      </trkpt>
      <trkpt lat="41.5040790" lon="2.0632350">
        <ele>229.0</ele>
        <time>2018-06-14T08:31:24Z</time>
      </trkpt>
      <trkpt lat="41.5042160" lon="2.0632640">
        <ele>229.8</ele>
        <time>2018-06-14T08:31:30Z</time>
      </trkpt>
      <trkpt lat="41.5043480" lon="2.0632880">
        <ele>231.0</ele>
        <time>2018-06-14T08:31:35Z</time>
      </trkpt>
      <trkpt lat="41.5044790" lon="2.0633140">
        <ele>231.0</ele>
        <time>2018-06-14T08:31:41Z</time>
      </trkpt>
      <trkpt lat="41.5045570" lon="2.0633360">
        <ele>232.0</ele>
        <time>2018-06-14T08:31:45Z</time>
      </trkpt>
      <trkpt lat="41.5045710" lon="2.0633510">
        <ele>232.2</ele>
        <time>2018-06-14T08:31:46Z</time>
      </trkpt>
      <trkpt lat="41.5046170" lon="2.0633820">
        <ele>233.0</ele>
        <time>2018-06-14T08:31:49Z</time>
      </trkpt>
      <trkpt lat="41.5046700" lon="2.0634060">
        <ele>233.8</ele>
        <time>2018-06-14T08:31:52Z</time>
      </trkpt>
      <trkpt lat="41.5047360" lon="2.0634520">
        <ele>234.4</ele>
        <time>2018-06-14T08:31:55Z</time>
      </trkpt>
      <trkpt lat="41.5047500" lon="2.0634640">
        <ele>234.4</ele>
        <time>2018-06-14T08:31:56Z</time>
      </trkpt>
      <trkpt lat="41.5048180" lon="2.0634990">
        <ele>235.6</ele>
        <time>2018-06-14T08:32:00Z</time>
      </trkpt>
      <trkpt lat="41.5048330" lon="2.0635170">
        <ele>236.0</ele>
        <time>2018-06-14T08:32:01Z</time>
      </trkpt>
      <trkpt lat="41.5048590" lon="2.0635370">
        <ele>236.6</ele>
        <time>2018-06-14T08:32:03Z</time>
      </trkpt>
      <trkpt lat="41.5048840" lon="2.0635380">
        <ele>237.2</ele>
        <time>2018-06-14T08:32:06Z</time>
      </trkpt>
      <trkpt lat="41.5049000" lon="2.0635320">
        <ele>237.6</ele>
        <time>2018-06-14T08:32:09Z</time>
      </trkpt>
      <trkpt lat="41.5049410" lon="2.0635610">
        <ele>237.8</ele>
        <time>2018-06-14T08:32:17Z</time>
      </trkpt>
      <trkpt lat="41.5049840" lon="2.0635900">
        <ele>238.0</ele>
        <time>2018-06-14T08:32:23Z</time>
      </trkpt>
      <trkpt lat="41.5050090" lon="2.0636060">
        <ele>238.0</ele>
        <time>2018-06-14T08:32:29Z</time>
      </trkpt>
      <trkpt lat="41.5050920" lon="2.0637180">
        <ele>238.2</ele>
        <time>2018-06-14T08:32:37Z</time>
      </trkpt>
      <trkpt lat="41.5051970" lon="2.0638150">
        <ele>238.4</ele>
        <time>2018-06-14T08:32:43Z</time>
      </trkpt>
      <trkpt lat="41.5052300" lon="2.0638380">
        <ele>238.4</ele>
        <time>2018-06-14T08:32:45Z</time>
      </trkpt>
      <trkpt lat="41.5053070" lon="2.0638870">
        <ele>238.6</ele>
        <time>2018-06-14T08:32:50Z</time>
      </trkpt>
      <trkpt lat="41.5053220" lon="2.0638960">
        <ele>238.8</ele>
        <time>2018-06-14T08:32:51Z</time>
      </trkpt>
      <trkpt lat="41.5054250" lon="2.0639540">
        <ele>239.0</ele>
        <time>2018-06-14T08:32:57Z</time>
      </trkpt>
      <trkpt lat="41.5055090" lon="2.0639830">
        <ele>239.4</ele>
        <time>2018-06-14T08:33:01Z</time>
      </trkpt>
      <trkpt lat="41.5056370" lon="2.0640010">
        <ele>239.8</ele>
        <time>2018-06-14T08:33:06Z</time>
      </trkpt>
      <trkpt lat="41.5056630" lon="2.0640000">
        <ele>239.8</ele>
        <time>2018-06-14T08:33:07Z</time>
      </trkpt>
      <trkpt lat="41.5057940" lon="2.0640320">
        <ele>240.2</ele>
        <time>2018-06-14T08:33:13Z</time>
      </trkpt>
      <trkpt lat="41.5059090" lon="2.0640880">
        <ele>240.8</ele>
        <time>2018-06-14T08:33:19Z</time>
      </trkpt>
      <trkpt lat="41.5060010" lon="2.0641480">
        <ele>241.4</ele>
        <time>2018-06-14T08:33:25Z</time>
      </trkpt>
      <trkpt lat="41.5061010" lon="2.0642040">
        <ele>241.8</ele>
        <time>2018-06-14T08:33:30Z</time>
      </trkpt>
      <trkpt lat="41.5062240" lon="2.0642700">
        <ele>242.2</ele>
        <time>2018-06-14T08:33:35Z</time>
      </trkpt>
      <trkpt lat="41.5063630" lon="2.0643700">
        <ele>242.6</ele>
        <time>2018-06-14T08:33:40Z</time>
      </trkpt>
      <trkpt lat="41.5064380" lon="2.0644160">
        <ele>242.8</ele>
        <time>2018-06-14T08:33:43Z</time>
      </trkpt>
      <trkpt lat="41.5066160" lon="2.0644880">
        <ele>242.2</ele>
        <time>2018-06-14T08:47:53Z</time>
      </trkpt>
      <trkpt lat="41.5066160" lon="2.0644900">
        <ele>242.2</ele>
        <time>2018-06-14T08:47:54Z</time>
      </trkpt>
      <trkpt lat="41.5066100" lon="2.0645770">
        <ele>242.2</ele>
        <time>2018-06-14T08:47:59Z</time>
      </trkpt>
      <trkpt lat="41.5066730" lon="2.0646630">
        <ele>242.2</ele>
        <time>2018-06-14T08:48:04Z</time>
      </trkpt>
      <trkpt lat="41.5067890" lon="2.0647590">
        <ele>243.4</ele>
        <time>2018-06-14T08:48:10Z</time>
      </trkpt>
      <trkpt lat="41.5068040" lon="2.0647720">
        <ele>243.8</ele>
        <time>2018-06-14T08:48:11Z</time>
      </trkpt>
      <trkpt lat="41.5068200" lon="2.0647870">
        <ele>244.2</ele>
        <time>2018-06-14T08:48:12Z</time>
      </trkpt>
      <trkpt lat="41.5068310" lon="2.0647990">
        <ele>244.6</ele>
        <time>2018-06-14T08:48:13Z</time>
      </trkpt>
      <trkpt lat="41.5068630" lon="2.0648360">
        <ele>244.8</ele>
        <time>2018-06-14T08:48:15Z</time>
      </trkpt>
      <trkpt lat="41.5068810" lon="2.0648560">
        <ele>244.8</ele>
        <time>2018-06-14T08:48:16Z</time>
      </trkpt>
      <trkpt lat="41.5069090" lon="2.0648860">
        <ele>245.0</ele>
        <time>2018-06-14T08:48:18Z</time>
      </trkpt>
      <trkpt lat="41.5069260" lon="2.0649050">
        <ele>245.2</ele>
        <time>2018-06-14T08:48:19Z</time>
      </trkpt>
      <trkpt lat="41.5070000" lon="2.0649700">
        <ele>245.4</ele>
        <time>2018-06-14T08:48:23Z</time>
      </trkpt>
      <trkpt lat="41.5070700" lon="2.0650240">
        <ele>246.2</ele>
        <time>2018-06-14T08:48:27Z</time>
      </trkpt>
      <trkpt lat="41.5070870" lon="2.0650390">
        <ele>246.2</ele>
        <time>2018-06-14T08:48:28Z</time>
      </trkpt>
      <trkpt lat="41.5071150" lon="2.0650760">
        <ele>246.4</ele>
        <time>2018-06-14T08:48:30Z</time>
      </trkpt>
      <trkpt lat="41.5071580" lon="2.0651320">
        <ele>247.0</ele>
        <time>2018-06-14T08:48:33Z</time>
      </trkpt>
      <trkpt lat="41.5071850" lon="2.0651690">
        <ele>247.2</ele>
        <time>2018-06-14T08:48:35Z</time>
      </trkpt>
      <trkpt lat="41.5072400" lon="2.0652440">
        <ele>247.8</ele>
        <time>2018-06-14T08:48:39Z</time>
      </trkpt>
      <trkpt lat="41.5072700" lon="2.0652860">
        <ele>248.2</ele>
        <time>2018-06-14T08:48:41Z</time>
      </trkpt>
      <trkpt lat="41.5072840" lon="2.0653070">
        <ele>248.2</ele>
        <time>2018-06-14T08:48:42Z</time>
      </trkpt>
      <trkpt lat="41.5073440" lon="2.0654520">
        <ele>248.8</ele>
        <time>2018-06-14T08:48:48Z</time>
      </trkpt>
      <trkpt lat="41.5073690" lon="2.0655370">
        <ele>249.4</ele>
        <time>2018-06-14T08:48:51Z</time>
      </trkpt>
      <trkpt lat="41.5073850" lon="2.0655940">
        <ele>249.6</ele>
        <time>2018-06-14T08:48:53Z</time>
      </trkpt>
      <trkpt lat="41.5074390" lon="2.0656980">
        <ele>250.4</ele>
        <time>2018-06-14T08:48:57Z</time>
      </trkpt>
      <trkpt lat="41.5074580" lon="2.0657280">
        <ele>250.6</ele>
        <time>2018-06-14T08:48:58Z</time>
      </trkpt>
      <trkpt lat="41.5075460" lon="2.0658070">
        <ele>251.0</ele>
        <time>2018-06-14T08:49:03Z</time>
      </trkpt>
      <trkpt lat="41.5076390" lon="2.0658990">
        <ele>251.4</ele>
        <time>2018-06-14T08:49:08Z</time>
      </trkpt>
      <trkpt lat="41.5076570" lon="2.0659260">
        <ele>251.6</ele>
        <time>2018-06-14T08:49:09Z</time>
      </trkpt>
      <trkpt lat="41.5076990" lon="2.0660910">
        <ele>251.8</ele>
        <time>2018-06-14T08:49:13Z</time>
      </trkpt>
      <trkpt lat="41.5076620" lon="2.0662150">
        <ele>251.6</ele>
        <time>2018-06-14T08:49:18Z</time>
      </trkpt>
      <trkpt lat="41.5076360" lon="2.0664010">
        <ele>252.0</ele>
        <time>2018-06-14T08:49:24Z</time>
      </trkpt>
      <trkpt lat="41.5076100" lon="2.0666040">
        <ele>251.8</ele>
        <time>2018-06-14T08:49:30Z</time>
      </trkpt>
      <trkpt lat="41.5076080" lon="2.0666330">
        <ele>252.0</ele>
        <time>2018-06-14T08:49:31Z</time>
      </trkpt>
      <trkpt lat="41.5076150" lon="2.0667540">
        <ele>252.4</ele>
        <time>2018-06-14T08:49:35Z</time>
      </trkpt>
      <trkpt lat="41.5076570" lon="2.0668710">
        <ele>252.2</ele>
        <time>2018-06-14T08:49:39Z</time>
      </trkpt>
      <trkpt lat="41.5076740" lon="2.0668880">
        <ele>252.2</ele>
        <time>2018-06-14T08:49:40Z</time>
      </trkpt>
      <trkpt lat="41.5077150" lon="2.0669160">
        <ele>252.6</ele>
        <time>2018-06-14T08:49:42Z</time>
      </trkpt>
      <trkpt lat="41.5077620" lon="2.0669500">
        <ele>253.0</ele>
        <time>2018-06-14T08:49:44Z</time>
      </trkpt>
      <trkpt lat="41.5078060" lon="2.0669730">
        <ele>253.8</ele>
        <time>2018-06-14T08:49:46Z</time>
      </trkpt>
      <trkpt lat="41.5078810" lon="2.0670120">
        <ele>254.6</ele>
        <time>2018-06-14T08:49:50Z</time>
      </trkpt>
      <trkpt lat="41.5079040" lon="2.0670230">
        <ele>254.8</ele>
        <time>2018-06-14T08:49:51Z</time>
      </trkpt>
      <trkpt lat="41.5080340" lon="2.0670770">
        <ele>255.4</ele>
        <time>2018-06-14T08:49:57Z</time>
      </trkpt>
      <trkpt lat="41.5080670" lon="2.0670930">
        <ele>255.8</ele>
        <time>2018-06-14T08:49:59Z</time>
      </trkpt>
      <trkpt lat="41.5080830" lon="2.0671110">
        <ele>256.2</ele>
        <time>2018-06-14T08:50:00Z</time>
      </trkpt>
      <trkpt lat="41.5081310" lon="2.0671370">
        <ele>256.6</ele>
        <time>2018-06-14T08:50:03Z</time>
      </trkpt>
      <trkpt lat="41.5081460" lon="2.0671520">
        <ele>257.0</ele>
        <time>2018-06-14T08:50:04Z</time>
      </trkpt>
      <trkpt lat="41.5082260" lon="2.0672480">
        <ele>258.4</ele>
        <time>2018-06-14T08:50:09Z</time>
      </trkpt>
      <trkpt lat="41.5082400" lon="2.0672720">
        <ele>258.6</ele>
        <time>2018-06-14T08:50:10Z</time>
      </trkpt>
      <trkpt lat="41.5082840" lon="2.0673600">
        <ele>258.8</ele>
        <time>2018-06-14T08:50:14Z</time>
      </trkpt>
      <trkpt lat="41.5083190" lon="2.0675050">
        <ele>258.8</ele>
        <time>2018-06-14T08:50:20Z</time>
      </trkpt>
      <trkpt lat="41.5083340" lon="2.0675830">
        <ele>259.4</ele>
        <time>2018-06-14T08:50:23Z</time>
      </trkpt>
      <trkpt lat="41.5083440" lon="2.0676330">
        <ele>259.8</ele>
        <time>2018-06-14T08:50:25Z</time>
      </trkpt>
      <trkpt lat="41.5083520" lon="2.0676600">
        <ele>259.8</ele>
        <time>2018-06-14T08:50:26Z</time>
      </trkpt>
      <trkpt lat="41.5084290" lon="2.0678150">
        <ele>260.0</ele>
        <time>2018-06-14T08:50:32Z</time>
      </trkpt>
      <trkpt lat="41.5084500" lon="2.0678900">
        <ele>260.4</ele>
        <time>2018-06-14T08:50:34Z</time>
      </trkpt>
      <trkpt lat="41.5084670" lon="2.0679500">
        <ele>260.6</ele>
        <time>2018-06-14T08:50:36Z</time>
      </trkpt>
      <trkpt lat="41.5084900" lon="2.0680220">
        <ele>261.8</ele>
        <time>2018-06-14T08:50:40Z</time>
      </trkpt>
      <trkpt lat="41.5084940" lon="2.0680470">
        <ele>262.2</ele>
        <time>2018-06-14T08:50:41Z</time>
      </trkpt>
      <trkpt lat="41.5085100" lon="2.0680980">
        <ele>262.8</ele>
        <time>2018-06-14T08:50:43Z</time>
      </trkpt>
      <trkpt lat="41.5085150" lon="2.0681230">
        <ele>262.8</ele>
        <time>2018-06-14T08:50:44Z</time>
      </trkpt>
      <trkpt lat="41.5085270" lon="2.0681690">
        <ele>262.6</ele>
        <time>2018-06-14T08:50:46Z</time>
      </trkpt>
      <trkpt lat="41.5085350" lon="2.0681940">
        <ele>262.4</ele>
        <time>2018-06-14T08:50:47Z</time>
      </trkpt>
      <trkpt lat="41.5085920" lon="2.0682900">
        <ele>262.2</ele>
        <time>2018-06-14T08:50:51Z</time>
      </trkpt>
      <trkpt lat="41.5086870" lon="2.0684110">
        <ele>262.4</ele>
        <time>2018-06-14T08:50:56Z</time>
      </trkpt>
      <trkpt lat="41.5087070" lon="2.0684350">
        <ele>261.8</ele>
        <time>2018-06-14T08:50:57Z</time>
      </trkpt>
      <trkpt lat="41.5087520" lon="2.0684750">
        <ele>261.4</ele>
        <time>2018-06-14T08:50:58Z</time>
      </trkpt>
      <trkpt lat="41.5088010" lon="2.0685210">
        <ele>261.4</ele>
        <time>2018-06-14T08:51:01Z</time>
      </trkpt>
      <trkpt lat="41.5088670" lon="2.0686050">
        <ele>261.8</ele>
        <time>2018-06-14T08:51:04Z</time>
      </trkpt>
      <trkpt lat="41.5089060" lon="2.0686290">
        <ele>262.2</ele>
        <time>2018-06-14T08:51:06Z</time>
      </trkpt>
      <trkpt lat="41.5089220" lon="2.0686230">
        <ele>262.0</ele>
        <time>2018-06-14T08:51:07Z</time>
      </trkpt>
      <trkpt lat="41.5090120" lon="2.0685140">
        <ele>262.4</ele>
        <time>2018-06-14T08:51:13Z</time>
      </trkpt>
      <trkpt lat="41.5090220" lon="2.0684920">
        <ele>262.4</ele>
        <time>2018-06-14T08:51:14Z</time>
      </trkpt>
      <trkpt lat="41.5090760" lon="2.0683500">
        <ele>262.6</ele>
        <time>2018-06-14T08:51:19Z</time>
      </trkpt>
      <trkpt lat="41.5091510" lon="2.0681740">
        <ele>262.8</ele>
        <time>2018-06-14T08:51:26Z</time>
      </trkpt>
      <trkpt lat="41.5091920" lon="2.0680370">
        <ele>262.8</ele>
        <time>2018-06-14T08:51:31Z</time>
      </trkpt>
      <trkpt lat="41.5092460" lon="2.0678590">
        <ele>262.2</ele>
        <time>2018-06-14T08:51:37Z</time>
      </trkpt>
      <trkpt lat="41.5092600" lon="2.0677760">
        <ele>261.8</ele>
        <time>2018-06-14T08:51:40Z</time>
      </trkpt>
      <trkpt lat="41.5092830" lon="2.0676440">
        <ele>261.8</ele>
        <time>2018-06-14T08:51:44Z</time>
      </trkpt>
      <trkpt lat="41.5093020" lon="2.0674080">
        <ele>262.6</ele>
        <time>2018-06-14T08:51:51Z</time>
      </trkpt>
      <trkpt lat="41.5093410" lon="2.0672140">
        <ele>263.6</ele>
        <time>2018-06-14T08:51:57Z</time>
      </trkpt>
      <trkpt lat="41.5093990" lon="2.0670450">
        <ele>263.8</ele>
        <time>2018-06-14T08:52:03Z</time>
      </trkpt>
      <trkpt lat="41.5094740" lon="2.0669080">
        <ele>264.2</ele>
        <time>2018-06-14T08:52:09Z</time>
      </trkpt>
      <trkpt lat="41.5095820" lon="2.0667720">
        <ele>264.4</ele>
        <time>2018-06-14T08:52:15Z</time>
      </trkpt>
      <trkpt lat="41.5097160" lon="2.0666630">
        <ele>264.2</ele>
        <time>2018-06-14T08:52:22Z</time>
      </trkpt>
      <trkpt lat="41.5098400" lon="2.0666250">
        <ele>263.8</ele>
        <time>2018-06-14T08:52:28Z</time>
      </trkpt>
      <trkpt lat="41.5099780" lon="2.0666420">
        <ele>264.4</ele>
        <time>2018-06-14T08:52:34Z</time>
      </trkpt>
      <trkpt lat="41.5100060" lon="2.0666520">
        <ele>264.8</ele>
        <time>2018-06-14T08:52:35Z</time>
      </trkpt>
      <trkpt lat="41.5100660" lon="2.0666880">
        <ele>265.0</ele>
        <time>2018-06-14T08:52:38Z</time>
      </trkpt>
      <trkpt lat="41.5100880" lon="2.0666920">
        <ele>265.0</ele>
        <time>2018-06-14T08:52:39Z</time>
      </trkpt>
      <trkpt lat="41.5101790" lon="2.0666360">
        <ele>264.6</ele>
        <time>2018-06-14T08:52:44Z</time>
      </trkpt>
      <trkpt lat="41.5102340" lon="2.0665750">
        <ele>265.8</ele>
        <time>2018-06-14T08:52:47Z</time>
      </trkpt>
      <trkpt lat="41.5103220" lon="2.0664950">
        <ele>265.8</ele>
        <time>2018-06-14T08:52:51Z</time>
      </trkpt>
      <trkpt lat="41.5104560" lon="2.0663420">
        <ele>265.4</ele>
        <time>2018-06-14T08:52:58Z</time>
      </trkpt>
      <trkpt lat="41.5106340" lon="2.0662730">
        <ele>266.0</ele>
        <time>2018-06-14T08:53:04Z</time>
      </trkpt>
      <trkpt lat="41.5107550" lon="2.0662430">
        <ele>265.2</ele>
        <time>2018-06-14T08:53:09Z</time>
      </trkpt>
      <trkpt lat="41.5107860" lon="2.0662280">
        <ele>265.2</ele>
        <time>2018-06-14T08:53:10Z</time>
      </trkpt>
      <trkpt lat="41.5109130" lon="2.0661410">
        <ele>264.8</ele>
        <time>2018-06-14T08:53:15Z</time>
      </trkpt>
      <trkpt lat="41.5109340" lon="2.0661220">
        <ele>264.4</ele>
        <time>2018-06-14T08:53:16Z</time>
      </trkpt>
      <trkpt lat="41.5110830" lon="2.0660010">
        <ele>263.6</ele>
        <time>2018-06-14T08:53:22Z</time>
      </trkpt>
      <trkpt lat="41.5111630" lon="2.0659370">
        <ele>263.4</ele>
        <time>2018-06-14T08:53:25Z</time>
      </trkpt>
      <trkpt lat="41.5112200" lon="2.0658820">
        <ele>262.6</ele>
        <time>2018-06-14T08:53:27Z</time>
      </trkpt>
      <trkpt lat="41.5113070" lon="2.0657940">
        <ele>261.6</ele>
        <time>2018-06-14T08:53:31Z</time>
      </trkpt>
      <trkpt lat="41.5114560" lon="2.0656350">
        <ele>260.4</ele>
        <time>2018-06-14T08:53:38Z</time>
      </trkpt>
      <trkpt lat="41.5114800" lon="2.0656230">
        <ele>260.2</ele>
        <time>2018-06-14T08:53:39Z</time>
      </trkpt>
      <trkpt lat="41.5116440" lon="2.0655510">
        <ele>260.4</ele>
        <time>2018-06-14T08:53:45Z</time>
      </trkpt>
      <trkpt lat="41.5118130" lon="2.0654490">
        <ele>261.2</ele>
        <time>2018-06-14T08:53:51Z</time>
      </trkpt>
      <trkpt lat="41.5118360" lon="2.0654360">
        <ele>261.4</ele>
        <time>2018-06-14T08:53:52Z</time>
      </trkpt>
      <trkpt lat="41.5119860" lon="2.0653040">
        <ele>262.0</ele>
        <time>2018-06-14T08:53:59Z</time>
      </trkpt>
      <trkpt lat="41.5121500" lon="2.0651550">
        <ele>261.6</ele>
        <time>2018-06-14T08:54:06Z</time>
      </trkpt>
      <trkpt lat="41.5122420" lon="2.0650810">
        <ele>262.6</ele>
        <time>2018-06-14T08:54:10Z</time>
      </trkpt>
      <trkpt lat="41.5123000" lon="2.0650220">
        <ele>263.2</ele>
        <time>2018-06-14T08:54:13Z</time>
      </trkpt>
      <trkpt lat="41.5123700" lon="2.0649450">
        <ele>263.6</ele>
        <time>2018-06-14T08:54:17Z</time>
      </trkpt>
      <trkpt lat="41.5124700" lon="2.0648620">
        <ele>264.6</ele>
        <time>2018-06-14T08:54:21Z</time>
      </trkpt>
      <trkpt lat="41.5126320" lon="2.0647380">
        <ele>265.2</ele>
        <time>2018-06-14T08:54:29Z</time>
      </trkpt>
      <trkpt lat="41.5127530" lon="2.0646460">
        <ele>265.8</ele>
        <time>2018-06-14T08:54:34Z</time>
      </trkpt>
      <trkpt lat="41.5127760" lon="2.0646280">
        <ele>265.6</ele>
        <time>2018-06-14T08:54:35Z</time>
      </trkpt>
      <trkpt lat="41.5129520" lon="2.0645610">
        <ele>265.2</ele>
        <time>2018-06-14T08:54:42Z</time>
      </trkpt>
      <trkpt lat="41.5130850" lon="2.0645250">
        <ele>264.6</ele>
        <time>2018-06-14T08:54:47Z</time>
      </trkpt>
      <trkpt lat="41.5131440" lon="2.0645110">
        <ele>264.6</ele>
        <time>2018-06-14T08:54:49Z</time>
      </trkpt>
      <trkpt lat="41.5133100" lon="2.0644880">
        <ele>263.4</ele>
        <time>2018-06-14T08:54:55Z</time>
      </trkpt>
      <trkpt lat="41.5133370" lon="2.0644850">
        <ele>263.4</ele>
        <time>2018-06-14T08:54:56Z</time>
      </trkpt>
      <trkpt lat="41.5134700" lon="2.0644760">
        <ele>262.4</ele>
        <time>2018-06-14T08:55:01Z</time>
      </trkpt>
      <trkpt lat="41.5134940" lon="2.0644760">
        <ele>261.8</ele>
        <time>2018-06-14T08:55:02Z</time>
      </trkpt>
      <trkpt lat="41.5135170" lon="2.0644760">
        <ele>261.2</ele>
        <time>2018-06-14T08:55:03Z</time>
      </trkpt>
      <trkpt lat="41.5136870" lon="2.0644870">
        <ele>260.0</ele>
        <time>2018-06-14T08:55:10Z</time>
      </trkpt>
      <trkpt lat="41.5137410" lon="2.0644960">
        <ele>259.2</ele>
        <time>2018-06-14T08:55:12Z</time>
      </trkpt>
      <trkpt lat="41.5137730" lon="2.0644980">
        <ele>258.8</ele>
        <time>2018-06-14T08:55:13Z</time>
      </trkpt>
      <trkpt lat="41.5138340" lon="2.0645020">
        <ele>257.8</ele>
        <time>2018-06-14T08:55:15Z</time>
      </trkpt>
      <trkpt lat="41.5139140" lon="2.0645200">
        <ele>256.6</ele>
        <time>2018-06-14T08:55:18Z</time>
      </trkpt>
      <trkpt lat="41.5139390" lon="2.0645270">
        <ele>256.4</ele>
        <time>2018-06-14T08:55:19Z</time>
      </trkpt>
      <trkpt lat="41.5140500" lon="2.0645490">
        <ele>255.4</ele>
        <time>2018-06-14T08:55:24Z</time>
      </trkpt>
      <trkpt lat="41.5141100" lon="2.0645590">
        <ele>254.4</ele>
        <time>2018-06-14T08:55:27Z</time>
      </trkpt>
      <trkpt lat="41.5142660" lon="2.0645750">
        <ele>253.4</ele>
        <time>2018-06-14T08:55:32Z</time>
      </trkpt>
      <trkpt lat="41.5143590" lon="2.0645780">
        <ele>252.4</ele>
        <time>2018-06-14T08:55:35Z</time>
      </trkpt>
      <trkpt lat="41.5143880" lon="2.0645860">
        <ele>252.0</ele>
        <time>2018-06-14T08:55:36Z</time>
      </trkpt>
      <trkpt lat="41.5144740" lon="2.0646040">
        <ele>250.8</ele>
        <time>2018-06-14T08:55:39Z</time>
      </trkpt>
      <trkpt lat="41.5145950" lon="2.0645970">
        <ele>249.6</ele>
        <time>2018-06-14T08:55:43Z</time>
      </trkpt>
      <trkpt lat="41.5147120" lon="2.0645860">
        <ele>248.2</ele>
        <time>2018-06-14T08:55:47Z</time>
      </trkpt>
      <trkpt lat="41.5147990" lon="2.0645920">
        <ele>247.0</ele>
        <time>2018-06-14T08:55:50Z</time>
      </trkpt>
      <trkpt lat="41.5149170" lon="2.0645970">
        <ele>246.0</ele>
        <time>2018-06-14T08:55:54Z</time>
      </trkpt>
      <trkpt lat="41.5150040" lon="2.0646050">
        <ele>244.8</ele>
        <time>2018-06-14T08:55:57Z</time>
      </trkpt>
      <trkpt lat="41.5151700" lon="2.0645970">
        <ele>243.6</ele>
        <time>2018-06-14T08:56:03Z</time>
      </trkpt>
      <trkpt lat="41.5151980" lon="2.0645950">
        <ele>243.6</ele>
        <time>2018-06-14T08:56:04Z</time>
      </trkpt>
      <trkpt lat="41.5152560" lon="2.0646070">
        <ele>243.0</ele>
        <time>2018-06-14T08:56:06Z</time>
      </trkpt>
      <trkpt lat="41.5153130" lon="2.0646160">
        <ele>242.6</ele>
        <time>2018-06-14T08:56:08Z</time>
      </trkpt>
      <trkpt lat="41.5153850" lon="2.0646200">
        <ele>242.0</ele>
        <time>2018-06-14T08:56:11Z</time>
      </trkpt>
      <trkpt lat="41.5155120" lon="2.0646140">
        <ele>241.2</ele>
        <time>2018-06-14T08:56:16Z</time>
      </trkpt>
      <trkpt lat="41.5155420" lon="2.0646130">
        <ele>241.0</ele>
        <time>2018-06-14T08:56:17Z</time>
      </trkpt>
      <trkpt lat="41.5156310" lon="2.0646080">
        <ele>240.2</ele>
        <time>2018-06-14T08:56:20Z</time>
      </trkpt>
      <trkpt lat="41.5156780" lon="2.0645890">
        <ele>240.4</ele>
        <time>2018-06-14T08:56:22Z</time>
      </trkpt>
      <trkpt lat="41.5157820" lon="2.0645520">
        <ele>241.4</ele>
        <time>2018-06-14T08:56:27Z</time>
      </trkpt>
      <trkpt lat="41.5158030" lon="2.0645460">
        <ele>241.4</ele>
        <time>2018-06-14T08:56:28Z</time>
      </trkpt>
      <trkpt lat="41.5158870" lon="2.0645340">
        <ele>241.4</ele>
        <time>2018-06-14T08:56:32Z</time>
      </trkpt>
      <trkpt lat="41.5159240" lon="2.0645340">
        <ele>241.4</ele>
        <time>2018-06-14T08:56:34Z</time>
      </trkpt>
      <trkpt lat="41.5160240" lon="2.0645260">
        <ele>241.4</ele>
        <time>2018-06-14T08:56:39Z</time>
      </trkpt>
      <trkpt lat="41.5161010" lon="2.0645200">
        <ele>241.6</ele>
        <time>2018-06-14T08:56:43Z</time>
      </trkpt>
      <trkpt lat="41.5161210" lon="2.0645160">
        <ele>241.6</ele>
        <time>2018-06-14T08:56:44Z</time>
      </trkpt>
      <trkpt lat="41.5162040" lon="2.0645030">
        <ele>241.8</ele>
        <time>2018-06-14T08:56:48Z</time>
      </trkpt>
      <trkpt lat="41.5163080" lon="2.0644840">
        <ele>242.0</ele>
        <time>2018-06-14T08:56:53Z</time>
      </trkpt>
      <trkpt lat="41.5163700" lon="2.0644780">
        <ele>242.2</ele>
        <time>2018-06-14T08:56:56Z</time>
      </trkpt>
      <trkpt lat="41.5164350" lon="2.0644730">
        <ele>242.2</ele>
        <time>2018-06-14T08:56:59Z</time>
      </trkpt>
      <trkpt lat="41.5164730" lon="2.0644630">
        <ele>242.4</ele>
        <time>2018-06-14T08:57:01Z</time>
      </trkpt>
      <trkpt lat="41.5165280" lon="2.0644580">
        <ele>242.6</ele>
        <time>2018-06-14T08:57:04Z</time>
      </trkpt>
      <trkpt lat="41.5166430" lon="2.0644430">
        <ele>243.0</ele>
        <time>2018-06-14T08:57:10Z</time>
      </trkpt>
      <trkpt lat="41.5167120" lon="2.0644280">
        <ele>243.4</ele>
        <time>2018-06-14T08:57:15Z</time>
      </trkpt>
      <trkpt lat="41.5167270" lon="2.0644270">
        <ele>243.4</ele>
        <time>2018-06-14T08:57:16Z</time>
      </trkpt>
      <trkpt lat="41.5167780" lon="2.0644240">
        <ele>243.8</ele>
        <time>2018-06-14T08:57:21Z</time>
      </trkpt>
      <trkpt lat="41.5168320" lon="2.0644350">
        <ele>244.4</ele>
        <time>2018-06-14T08:57:28Z</time>
      </trkpt>
      <trkpt lat="41.5169040" lon="2.0644390">
        <ele>245.4</ele>
        <time>2018-06-14T08:57:38Z</time>
      </trkpt>
      <trkpt lat="41.5169110" lon="2.0644400">
        <ele>245.4</ele>
        <time>2018-06-14T08:57:39Z</time>
      </trkpt>
      <trkpt lat="41.5169960" lon="2.0644160">
        <ele>246.2</ele>
        <time>2018-06-14T08:57:48Z</time>
      </trkpt>
      <trkpt lat="41.5170070" lon="2.0644150">
        <ele>246.4</ele>
        <time>2018-06-14T08:57:49Z</time>
      </trkpt>
      <trkpt lat="41.5170170" lon="2.0644130">
        <ele>246.4</ele>
        <time>2018-06-14T08:57:50Z</time>
      </trkpt>
      <trkpt lat="41.5171160" lon="2.0644320">
        <ele>247.4</ele>
        <time>2018-06-14T08:57:59Z</time>
      </trkpt>
      <trkpt lat="41.5171280" lon="2.0644400">
        <ele>247.6</ele>
        <time>2018-06-14T08:58:00Z</time>
      </trkpt>
      <trkpt lat="41.5171400" lon="2.0644430">
        <ele>247.6</ele>
        <time>2018-06-14T08:58:01Z</time>
      </trkpt>
      <trkpt lat="41.5172070" lon="2.0644640">
        <ele>248.6</ele>
        <time>2018-06-14T08:58:09Z</time>
      </trkpt>
      <trkpt lat="41.5172320" lon="2.0644680">
        <ele>248.8</ele>
        <time>2018-06-14T08:58:12Z</time>
      </trkpt>
      <trkpt lat="41.5172900" lon="2.0644870">
        <ele>249.6</ele>
        <time>2018-06-14T08:58:18Z</time>
      </trkpt>
      <trkpt lat="41.5173600" lon="2.0645110">
        <ele>250.0</ele>
        <time>2018-06-14T08:58:22Z</time>
      </trkpt>
      <trkpt lat="41.5174740" lon="2.0645510">
        <ele>250.6</ele>
        <time>2018-06-14T08:58:27Z</time>
      </trkpt>
      <trkpt lat="41.5175180" lon="2.0645600">
        <ele>250.8</ele>
        <time>2018-06-14T08:58:29Z</time>
      </trkpt>
      <trkpt lat="41.5176180" lon="2.0645080">
        <ele>251.4</ele>
        <time>2018-06-14T08:58:34Z</time>
      </trkpt>
      <trkpt lat="41.5176610" lon="2.0644400">
        <ele>251.6</ele>
        <time>2018-06-14T08:58:37Z</time>
      </trkpt>
      <trkpt lat="41.5177320" lon="2.0643240">
        <ele>252.2</ele>
        <time>2018-06-14T08:58:42Z</time>
      </trkpt>
      <trkpt lat="41.5178340" lon="2.0641730">
        <ele>252.8</ele>
        <time>2018-06-14T08:58:48Z</time>
      </trkpt>
      <trkpt lat="41.5178500" lon="2.0641510">
        <ele>252.8</ele>
        <time>2018-06-14T08:58:49Z</time>
      </trkpt>
      <trkpt lat="41.5179490" lon="2.0640170">
        <ele>253.4</ele>
        <time>2018-06-14T08:58:55Z</time>
      </trkpt>
      <trkpt lat="41.5179930" lon="2.0639440">
        <ele>253.8</ele>
        <time>2018-06-14T08:58:59Z</time>
      </trkpt>
      <trkpt lat="41.5180220" lon="2.0639070">
        <ele>254.0</ele>
        <time>2018-06-14T08:59:01Z</time>
      </trkpt>
      <trkpt lat="41.5180950" lon="2.0637760">
        <ele>254.6</ele>
        <time>2018-06-14T08:59:07Z</time>
      </trkpt>
      <trkpt lat="41.5181540" lon="2.0637080">
        <ele>254.8</ele>
        <time>2018-06-14T08:59:10Z</time>
      </trkpt>
      <trkpt lat="41.5182150" lon="2.0636360">
        <ele>255.0</ele>
        <time>2018-06-14T08:59:13Z</time>
      </trkpt>
      <trkpt lat="41.5183350" lon="2.0635270">
        <ele>255.6</ele>
        <time>2018-06-14T08:59:19Z</time>
      </trkpt>
      <trkpt lat="41.5184020" lon="2.0634570">
        <ele>255.8</ele>
        <time>2018-06-14T08:59:23Z</time>
      </trkpt>
      <trkpt lat="41.5184550" lon="2.0633950">
        <ele>256.2</ele>
        <time>2018-06-14T08:59:26Z</time>
      </trkpt>
      <trkpt lat="41.5185470" lon="2.0632600">
        <ele>256.8</ele>
        <time>2018-06-14T08:59:32Z</time>
      </trkpt>
      <trkpt lat="41.5185680" lon="2.0631990">
        <ele>257.0</ele>
        <time>2018-06-14T08:59:34Z</time>
      </trkpt>
      <trkpt lat="41.5185980" lon="2.0631190">
        <ele>257.4</ele>
        <time>2018-06-14T08:59:37Z</time>
      </trkpt>
      <trkpt lat="41.5186710" lon="2.0629670">
        <ele>258.0</ele>
        <time>2018-06-14T08:59:43Z</time>
      </trkpt>
      <trkpt lat="41.5186850" lon="2.0629470">
        <ele>258.0</ele>
        <time>2018-06-14T08:59:44Z</time>
      </trkpt>
      <trkpt lat="41.5188040" lon="2.0628440">
        <ele>258.8</ele>
        <time>2018-06-14T08:59:50Z</time>
      </trkpt>
      <trkpt lat="41.5188890" lon="2.0628340">
        <ele>259.2</ele>
        <time>2018-06-14T08:59:53Z</time>
      </trkpt>
      <trkpt lat="41.5189150" lon="2.0628420">
        <ele>259.2</ele>
        <time>2018-06-14T08:59:54Z</time>
      </trkpt>
      <trkpt lat="41.5190610" lon="2.0629750">
        <ele>260.0</ele>
        <time>2018-06-14T09:00:01Z</time>
      </trkpt>
      <trkpt lat="41.5190880" lon="2.0630200">
        <ele>260.2</ele>
        <time>2018-06-14T09:00:03Z</time>
      </trkpt>
      <trkpt lat="41.5191020" lon="2.0630380">
        <ele>260.2</ele>
        <time>2018-06-14T09:00:04Z</time>
      </trkpt>
      <trkpt lat="41.5191310" lon="2.0630770">
        <ele>260.4</ele>
        <time>2018-06-14T09:00:06Z</time>
      </trkpt>
      <trkpt lat="41.5192010" lon="2.0632260">
        <ele>261.0</ele>
        <time>2018-06-14T09:00:12Z</time>
      </trkpt>
      <trkpt lat="41.5192110" lon="2.0632550">
        <ele>261.2</ele>
        <time>2018-06-14T09:00:13Z</time>
      </trkpt>
      <trkpt lat="41.5192530" lon="2.0633880">
        <ele>261.6</ele>
        <time>2018-06-14T09:00:18Z</time>
      </trkpt>
      <trkpt lat="41.5192620" lon="2.0634140">
        <ele>261.8</ele>
        <time>2018-06-14T09:00:19Z</time>
      </trkpt>
      <trkpt lat="41.5192950" lon="2.0635090">
        <ele>262.2</ele>
        <time>2018-06-14T09:00:23Z</time>
      </trkpt>
      <trkpt lat="41.5193080" lon="2.0635310">
        <ele>262.4</ele>
        <time>2018-06-14T09:00:24Z</time>
      </trkpt>
      <trkpt lat="41.5193950" lon="2.0636370">
        <ele>263.0</ele>
        <time>2018-06-14T09:00:29Z</time>
      </trkpt>
      <trkpt lat="41.5194260" lon="2.0636790">
        <ele>263.2</ele>
        <time>2018-06-14T09:00:31Z</time>
      </trkpt>
      <trkpt lat="41.5194420" lon="2.0636960">
        <ele>263.2</ele>
        <time>2018-06-14T09:00:32Z</time>
      </trkpt>
      <trkpt lat="41.5194600" lon="2.0637130">
        <ele>263.4</ele>
        <time>2018-06-14T09:00:33Z</time>
      </trkpt>
      <trkpt lat="41.5196100" lon="2.0638150">
        <ele>264.4</ele>
        <time>2018-06-14T09:00:41Z</time>
      </trkpt>
      <trkpt lat="41.5196810" lon="2.0638200">
        <ele>265.0</ele>
        <time>2018-06-14T09:00:46Z</time>
      </trkpt>
      <trkpt lat="41.5197230" lon="2.0637710">
        <ele>265.4</ele>
        <time>2018-06-14T09:00:49Z</time>
      </trkpt>
      <trkpt lat="41.5197580" lon="2.0636960">
        <ele>265.8</ele>
        <time>2018-06-14T09:00:52Z</time>
      </trkpt>
      <trkpt lat="41.5198130" lon="2.0635610">
        <ele>266.4</ele>
        <time>2018-06-14T09:00:57Z</time>
      </trkpt>
      <trkpt lat="41.5198450" lon="2.0634720">
        <ele>266.8</ele>
        <time>2018-06-14T09:01:00Z</time>
      </trkpt>
      <trkpt lat="41.5199020" lon="2.0632840">
        <ele>267.6</ele>
        <time>2018-06-14T09:01:06Z</time>
      </trkpt>
      <trkpt lat="41.5199120" lon="2.0632540">
        <ele>267.6</ele>
        <time>2018-06-14T09:01:07Z</time>
      </trkpt>
      <trkpt lat="41.5199900" lon="2.0630760">
        <ele>268.4</ele>
        <time>2018-06-14T09:01:13Z</time>
      </trkpt>
      <trkpt lat="41.5200340" lon="2.0629880">
        <ele>268.6</ele>
        <time>2018-06-14T09:01:16Z</time>
      </trkpt>
      <trkpt lat="41.5200780" lon="2.0629020">
        <ele>269.0</ele>
        <time>2018-06-14T09:01:19Z</time>
      </trkpt>
      <trkpt lat="41.5201880" lon="2.0626850">
        <ele>269.6</ele>
        <time>2018-06-14T09:01:26Z</time>
      </trkpt>
      <trkpt lat="41.5202120" lon="2.0626250">
        <ele>269.8</ele>
        <time>2018-06-14T09:01:28Z</time>
      </trkpt>
      <trkpt lat="41.5202960" lon="2.0624570">
        <ele>270.4</ele>
        <time>2018-06-14T09:01:34Z</time>
      </trkpt>
      <trkpt lat="41.5203660" lon="2.0623560">
        <ele>270.8</ele>
        <time>2018-06-14T09:01:38Z</time>
      </trkpt>
      <trkpt lat="41.5204060" lon="2.0623120">
        <ele>270.8</ele>
        <time>2018-06-14T09:01:40Z</time>
      </trkpt>
      <trkpt lat="41.5205540" lon="2.0621790">
        <ele>271.4</ele>
        <time>2018-06-14T09:01:47Z</time>
      </trkpt>
      <trkpt lat="41.5206840" lon="2.0620670">
        <ele>271.8</ele>
        <time>2018-06-14T09:01:53Z</time>
      </trkpt>
      <trkpt lat="41.5207050" lon="2.0620480">
        <ele>271.8</ele>
        <time>2018-06-14T09:01:54Z</time>
      </trkpt>
      <trkpt lat="41.5208660" lon="2.0618760">
        <ele>272.2</ele>
        <time>2018-06-14T09:02:02Z</time>
      </trkpt>
      <trkpt lat="41.5209720" lon="2.0617270">
        <ele>272.6</ele>
        <time>2018-06-14T09:02:08Z</time>
      </trkpt>
      <trkpt lat="41.5210880" lon="2.0615890">
        <ele>272.8</ele>
        <time>2018-06-14T09:02:14Z</time>
      </trkpt>
      <trkpt lat="41.5212290" lon="2.0614420">
        <ele>273.0</ele>
        <time>2018-06-14T09:02:21Z</time>
      </trkpt>
      <trkpt lat="41.5213790" lon="2.0613000">
        <ele>273.4</ele>
        <time>2018-06-14T09:02:28Z</time>
      </trkpt>
      <trkpt lat="41.5214960" lon="2.0611280">
        <ele>273.8</ele>
        <time>2018-06-14T09:02:35Z</time>
      </trkpt>
      <trkpt lat="41.5215270" lon="2.0610770">
        <ele>273.8</ele>
        <time>2018-06-14T09:02:37Z</time>
      </trkpt>
      <trkpt lat="41.5215830" lon="2.0609700">
        <ele>274.0</ele>
        <time>2018-06-14T09:02:41Z</time>
      </trkpt>
      <trkpt lat="41.5217190" lon="2.0607890">
        <ele>274.2</ele>
        <time>2018-06-14T09:02:48Z</time>
      </trkpt>
      <trkpt lat="41.5218470" lon="2.0606420">
        <ele>274.4</ele>
        <time>2018-06-14T09:02:54Z</time>
      </trkpt>
      <trkpt lat="41.5219970" lon="2.0604740">
        <ele>274.6</ele>
        <time>2018-06-14T09:03:01Z</time>
      </trkpt>
      <trkpt lat="41.5221400" lon="2.0603260">
        <ele>274.6</ele>
        <time>2018-06-14T09:03:08Z</time>
      </trkpt>
      <trkpt lat="41.5221880" lon="2.0602810">
        <ele>274.8</ele>
        <time>2018-06-14T09:03:10Z</time>
      </trkpt>
      <trkpt lat="41.5222970" lon="2.0601090">
        <ele>274.8</ele>
        <time>2018-06-14T09:03:16Z</time>
      </trkpt>
      <trkpt lat="41.5223750" lon="2.0598930">
        <ele>274.6</ele>
        <time>2018-06-14T09:03:23Z</time>
      </trkpt>
      <trkpt lat="41.5224490" lon="2.0596700">
        <ele>274.6</ele>
        <time>2018-06-14T09:03:30Z</time>
      </trkpt>
      <trkpt lat="41.5225450" lon="2.0594690">
        <ele>274.6</ele>
        <time>2018-06-14T09:03:37Z</time>
      </trkpt>
      <trkpt lat="41.5226530" lon="2.0593000">
        <ele>274.4</ele>
        <time>2018-06-14T09:03:44Z</time>
      </trkpt>
      <trkpt lat="41.5227150" lon="2.0591740">
        <ele>274.4</ele>
        <time>2018-06-14T09:03:49Z</time>
      </trkpt>
      <trkpt lat="41.5227610" lon="2.0590240">
        <ele>274.4</ele>
        <time>2018-06-14T09:03:54Z</time>
      </trkpt>
      <trkpt lat="41.5227680" lon="2.0589380">
        <ele>274.4</ele>
        <time>2018-06-14T09:03:56Z</time>
      </trkpt>
      <trkpt lat="41.5227650" lon="2.0589090">
        <ele>275.0</ele>
        <time>2018-06-14T09:03:58Z</time>
      </trkpt>
      <trkpt lat="41.5227620" lon="2.0588580">
        <ele>275.8</ele>
        <time>2018-06-14T09:04:00Z</time>
      </trkpt>
      <trkpt lat="41.5227470" lon="2.0588070">
        <ele>276.2</ele>
        <time>2018-06-14T09:04:02Z</time>
      </trkpt>
      <trkpt lat="41.5227110" lon="2.0586960">
        <ele>277.2</ele>
        <time>2018-06-14T09:04:07Z</time>
      </trkpt>
      <trkpt lat="41.5227080" lon="2.0586690">
        <ele>277.2</ele>
        <time>2018-06-14T09:04:08Z</time>
      </trkpt>
      <trkpt lat="41.5226870" lon="2.0585810">
        <ele>278.8</ele>
        <time>2018-06-14T09:04:11Z</time>
      </trkpt>
      <trkpt lat="41.5226760" lon="2.0585560">
        <ele>279.4</ele>
        <time>2018-06-14T09:04:12Z</time>
      </trkpt>
      <trkpt lat="41.5226470" lon="2.0585130">
        <ele>279.8</ele>
        <time>2018-06-14T09:04:14Z</time>
      </trkpt>
      <trkpt lat="41.5225970" lon="2.0584450">
        <ele>280.0</ele>
        <time>2018-06-14T09:04:17Z</time>
      </trkpt>
      <trkpt lat="41.5225290" lon="2.0583200">
        <ele>280.4</ele>
        <time>2018-06-14T09:04:22Z</time>
      </trkpt>
      <trkpt lat="41.5225150" lon="2.0582960">
        <ele>280.4</ele>
        <time>2018-06-14T09:04:23Z</time>
      </trkpt>
      <trkpt lat="41.5224840" lon="2.0582190">
        <ele>281.2</ele>
        <time>2018-06-14T09:04:26Z</time>
      </trkpt>
      <trkpt lat="41.5224830" lon="2.0581680">
        <ele>281.6</ele>
        <time>2018-06-14T09:04:28Z</time>
      </trkpt>
      <trkpt lat="41.5224910" lon="2.0581470">
        <ele>281.8</ele>
        <time>2018-06-14T09:04:29Z</time>
      </trkpt>
      <trkpt lat="41.5225490" lon="2.0580740">
        <ele>282.2</ele>
        <time>2018-06-14T09:04:36Z</time>
      </trkpt>
      <trkpt lat="41.5225770" lon="2.0580580">
        <ele>282.6</ele>
        <time>2018-06-14T09:04:39Z</time>
      </trkpt>
      <trkpt lat="41.5226260" lon="2.0580580">
        <ele>284.0</ele>
        <time>2018-06-14T09:04:43Z</time>
      </trkpt>
      <trkpt lat="41.5226350" lon="2.0580580">
        <ele>285.0</ele>
        <time>2018-06-14T09:04:44Z</time>
      </trkpt>
      <trkpt lat="41.5226560" lon="2.0580680">
        <ele>284.8</ele>
        <time>2018-06-14T09:04:46Z</time>
      </trkpt>
      <trkpt lat="41.5226800" lon="2.0580980">
        <ele>284.4</ele>
        <time>2018-06-14T09:04:49Z</time>
      </trkpt>
      <trkpt lat="41.5227430" lon="2.0581300">
        <ele>284.4</ele>
        <time>2018-06-14T09:04:55Z</time>
      </trkpt>
      <trkpt lat="41.5228380" lon="2.0581280">
        <ele>284.4</ele>
        <time>2018-06-14T09:05:01Z</time>
      </trkpt>
      <trkpt lat="41.5229650" lon="2.0581010">
        <ele>284.4</ele>
        <time>2018-06-14T09:05:07Z</time>
      </trkpt>
      <trkpt lat="41.5230630" lon="2.0580280">
        <ele>284.6</ele>
        <time>2018-06-14T09:05:12Z</time>
      </trkpt>
      <trkpt lat="41.5231770" lon="2.0579040">
        <ele>284.8</ele>
        <time>2018-06-14T09:05:18Z</time>
      </trkpt>
      <trkpt lat="41.5232800" lon="2.0577540">
        <ele>285.0</ele>
        <time>2018-06-14T09:05:25Z</time>
      </trkpt>
      <trkpt lat="41.5234090" lon="2.0576050">
        <ele>285.4</ele>
        <time>2018-06-14T09:05:32Z</time>
      </trkpt>
      <trkpt lat="41.5235770" lon="2.0574740">
        <ele>285.6</ele>
        <time>2018-06-14T09:05:39Z</time>
      </trkpt>
      <trkpt lat="41.5237300" lon="2.0573430">
        <ele>285.8</ele>
        <time>2018-06-14T09:05:46Z</time>
      </trkpt>
      <trkpt lat="41.5238530" lon="2.0572270">
        <ele>286.0</ele>
        <time>2018-06-14T09:05:52Z</time>
      </trkpt>
      <trkpt lat="41.5238720" lon="2.0572080">
        <ele>286.0</ele>
        <time>2018-06-14T09:05:53Z</time>
      </trkpt>
      <trkpt lat="41.5239950" lon="2.0570830">
        <ele>286.2</ele>
        <time>2018-06-14T09:05:59Z</time>
      </trkpt>
      <trkpt lat="41.5241310" lon="2.0569800">
        <ele>286.4</ele>
        <time>2018-06-14T09:06:05Z</time>
      </trkpt>
      <trkpt lat="41.5242550" lon="2.0569510">
        <ele>286.6</ele>
        <time>2018-06-14T09:06:11Z</time>
      </trkpt>
      <trkpt lat="41.5243850" lon="2.0569790">
        <ele>286.8</ele>
        <time>2018-06-14T09:06:16Z</time>
      </trkpt>
      <trkpt lat="41.5245660" lon="2.0569930">
        <ele>287.0</ele>
        <time>2018-06-14T09:06:23Z</time>
      </trkpt>
      <trkpt lat="41.5245940" lon="2.0569990">
        <ele>287.0</ele>
        <time>2018-06-14T09:06:24Z</time>
      </trkpt>
      <trkpt lat="41.5247660" lon="2.0570270">
        <ele>287.2</ele>
        <time>2018-06-14T09:06:30Z</time>
      </trkpt>
      <trkpt lat="41.5249090" lon="2.0569870">
        <ele>287.4</ele>
        <time>2018-06-14T09:06:35Z</time>
      </trkpt>
      <trkpt lat="41.5250680" lon="2.0568320">
        <ele>287.4</ele>
        <time>2018-06-14T09:06:42Z</time>
      </trkpt>
      <trkpt lat="41.5252090" lon="2.0566350">
        <ele>287.4</ele>
        <time>2018-06-14T09:06:50Z</time>
      </trkpt>
      <trkpt lat="41.5253440" lon="2.0564540">
        <ele>287.4</ele>
        <time>2018-06-14T09:06:57Z</time>
      </trkpt>
      <trkpt lat="41.5253840" lon="2.0564050">
        <ele>287.4</ele>
        <time>2018-06-14T09:06:59Z</time>
      </trkpt>
      <trkpt lat="41.5255440" lon="2.0562400">
        <ele>287.4</ele>
        <time>2018-06-14T09:07:07Z</time>
      </trkpt>
      <trkpt lat="41.5257130" lon="2.0561500">
        <ele>287.2</ele>
        <time>2018-06-14T09:07:13Z</time>
      </trkpt>
      <trkpt lat="41.5259060" lon="2.0561120">
        <ele>287.0</ele>
        <time>2018-06-14T09:07:19Z</time>
      </trkpt>
      <trkpt lat="41.5261060" lon="2.0560760">
        <ele>286.8</ele>
        <time>2018-06-14T09:07:26Z</time>
      </trkpt>
      <trkpt lat="41.5261350" lon="2.0560710">
        <ele>286.8</ele>
        <time>2018-06-14T09:07:27Z</time>
      </trkpt>
      <trkpt lat="41.5263270" lon="2.0560590">
        <ele>286.6</ele>
        <time>2018-06-14T09:07:33Z</time>
      </trkpt>
      <trkpt lat="41.5265080" lon="2.0560540">
        <ele>286.4</ele>
        <time>2018-06-14T09:07:39Z</time>
      </trkpt>
      <trkpt lat="41.5266670" lon="2.0560410">
        <ele>286.2</ele>
        <time>2018-06-14T09:07:44Z</time>
      </trkpt>
      <trkpt lat="41.5267250" lon="2.0560360">
        <ele>286.0</ele>
        <time>2018-06-14T09:07:46Z</time>
      </trkpt>
      <trkpt lat="41.5268040" lon="2.0560340">
        <ele>285.8</ele>
        <time>2018-06-14T09:07:49Z</time>
      </trkpt>
      <trkpt lat="41.5269670" lon="2.0560410">
        <ele>285.4</ele>
        <time>2018-06-14T09:07:55Z</time>
      </trkpt>
      <trkpt lat="41.5269930" lon="2.0560400">
        <ele>285.4</ele>
        <time>2018-06-14T09:07:56Z</time>
      </trkpt>
      <trkpt lat="41.5271450" lon="2.0560080">
        <ele>285.0</ele>
        <time>2018-06-14T09:08:02Z</time>
      </trkpt>
      <trkpt lat="41.5271670" lon="2.0560010">
        <ele>285.0</ele>
        <time>2018-06-14T09:08:03Z</time>
      </trkpt>
      <trkpt lat="41.5273480" lon="2.0559130">
        <ele>284.6</ele>
        <time>2018-06-14T09:08:10Z</time>
      </trkpt>
      <trkpt lat="41.5275100" lon="2.0557910">
        <ele>284.0</ele>
        <time>2018-06-14T09:08:17Z</time>
      </trkpt>
      <trkpt lat="41.5275320" lon="2.0557720">
        <ele>284.0</ele>
        <time>2018-06-14T09:08:18Z</time>
      </trkpt>
      <trkpt lat="41.5276650" lon="2.0556550">
        <ele>283.6</ele>
        <time>2018-06-14T09:08:24Z</time>
      </trkpt>
      <trkpt lat="41.5277800" lon="2.0555640">
        <ele>283.4</ele>
        <time>2018-06-14T09:08:29Z</time>
      </trkpt>
      <trkpt lat="41.5279010" lon="2.0554330">
        <ele>283.2</ele>
        <time>2018-06-14T09:08:35Z</time>
      </trkpt>
      <trkpt lat="41.5280030" lon="2.0553420">
        <ele>283.0</ele>
        <time>2018-06-14T09:08:40Z</time>
      </trkpt>
      <trkpt lat="41.5280530" lon="2.0553220">
        <ele>283.0</ele>
        <time>2018-06-14T09:08:42Z</time>
      </trkpt>
      <trkpt lat="41.5281630" lon="2.0552930">
        <ele>282.8</ele>
        <time>2018-06-14T09:08:47Z</time>
      </trkpt>
      <trkpt lat="41.5281790" lon="2.0552880">
        <ele>282.8</ele>
        <time>2018-06-14T09:08:48Z</time>
      </trkpt>
      <trkpt lat="41.5282880" lon="2.0552660">
        <ele>282.8</ele>
        <time>2018-06-14T09:08:54Z</time>
      </trkpt>
      <trkpt lat="41.5283920" lon="2.0552790">
        <ele>283.0</ele>
        <time>2018-06-14T09:08:59Z</time>
      </trkpt>
      <trkpt lat="41.5285390" lon="2.0552380">
        <ele>283.2</ele>
        <time>2018-06-14T09:09:06Z</time>
      </trkpt>
      <trkpt lat="41.5286640" lon="2.0552040">
        <ele>283.2</ele>
        <time>2018-06-14T09:09:11Z</time>
      </trkpt>
      <trkpt lat="41.5288170" lon="2.0551250">
        <ele>283.4</ele>
        <time>2018-06-14T09:09:18Z</time>
      </trkpt>
      <trkpt lat="41.5289170" lon="2.0550740">
        <ele>285.8</ele>
        <time>2018-06-14T09:09:23Z</time>
      </trkpt>
      <trkpt lat="41.5289570" lon="2.0550540">
        <ele>287.4</ele>
        <time>2018-06-14T09:09:25Z</time>
      </trkpt>
      <trkpt lat="41.5289800" lon="2.0550460">
        <ele>287.6</ele>
        <time>2018-06-14T09:09:26Z</time>
      </trkpt>
      <trkpt lat="41.5290850" lon="2.0549940">
        <ele>288.6</ele>
        <time>2018-06-14T09:09:31Z</time>
      </trkpt>
      <trkpt lat="41.5291360" lon="2.0549790">
        <ele>289.2</ele>
        <time>2018-06-14T09:09:33Z</time>
      </trkpt>
      <trkpt lat="41.5292690" lon="2.0549370">
        <ele>289.2</ele>
        <time>2018-06-14T09:09:38Z</time>
      </trkpt>
      <trkpt lat="41.5293970" lon="2.0549140">
        <ele>289.2</ele>
        <time>2018-06-14T09:09:42Z</time>
      </trkpt>
      <trkpt lat="41.5295520" lon="2.0548730">
        <ele>289.2</ele>
        <time>2018-06-14T09:09:48Z</time>
      </trkpt>
      <trkpt lat="41.5297090" lon="2.0548180">
        <ele>288.8</ele>
        <time>2018-06-14T09:09:54Z</time>
      </trkpt>
      <trkpt lat="41.5298720" lon="2.0547580">
        <ele>288.8</ele>
        <time>2018-06-14T09:10:01Z</time>
      </trkpt>
      <trkpt lat="41.5299950" lon="2.0546800">
        <ele>287.8</ele>
        <time>2018-06-14T09:10:06Z</time>
      </trkpt>
      <trkpt lat="41.5300420" lon="2.0546450">
        <ele>287.4</ele>
        <time>2018-06-14T09:10:08Z</time>
      </trkpt>
      <trkpt lat="41.5300680" lon="2.0546270">
        <ele>287.2</ele>
        <time>2018-06-14T09:10:09Z</time>
      </trkpt>
      <trkpt lat="41.5301350" lon="2.0545700">
        <ele>286.2</ele>
        <time>2018-06-14T09:10:12Z</time>
      </trkpt>
      <trkpt lat="41.5302340" lon="2.0544650">
        <ele>285.8</ele>
        <time>2018-06-14T09:10:17Z</time>
      </trkpt>
      <trkpt lat="41.5303340" lon="2.0543310">
        <ele>284.8</ele>
        <time>2018-06-14T09:10:22Z</time>
      </trkpt>
      <trkpt lat="41.5303970" lon="2.0542420">
        <ele>284.6</ele>
        <time>2018-06-14T09:10:25Z</time>
      </trkpt>
      <trkpt lat="41.5304760" lon="2.0541240">
        <ele>283.8</ele>
        <time>2018-06-14T09:10:29Z</time>
      </trkpt>
      <trkpt lat="41.5305430" lon="2.0540070">
        <ele>283.4</ele>
        <time>2018-06-14T09:10:33Z</time>
      </trkpt>
      <trkpt lat="41.5306410" lon="2.0538110">
        <ele>283.0</ele>
        <time>2018-06-14T09:10:40Z</time>
      </trkpt>
      <trkpt lat="41.5307070" lon="2.0536570">
        <ele>282.6</ele>
        <time>2018-06-14T09:10:45Z</time>
      </trkpt>
      <trkpt lat="41.5307510" lon="2.0535680">
        <ele>283.4</ele>
        <time>2018-06-14T09:10:48Z</time>
      </trkpt>
      <trkpt lat="41.5307860" lon="2.0535120">
        <ele>283.8</ele>
        <time>2018-06-14T09:10:50Z</time>
      </trkpt>
      <trkpt lat="41.5308620" lon="2.0533520">
        <ele>284.0</ele>
        <time>2018-06-14T09:10:56Z</time>
      </trkpt>
      <trkpt lat="41.5309270" lon="2.0531710">
        <ele>284.2</ele>
        <time>2018-06-14T09:11:02Z</time>
      </trkpt>
      <trkpt lat="41.5309630" lon="2.0530860">
        <ele>284.8</ele>
        <time>2018-06-14T09:11:05Z</time>
      </trkpt>
      <trkpt lat="41.5310240" lon="2.0529050">
        <ele>284.8</ele>
        <time>2018-06-14T09:11:11Z</time>
      </trkpt>
      <trkpt lat="41.5310820" lon="2.0526940">
        <ele>284.8</ele>
        <time>2018-06-14T09:11:18Z</time>
      </trkpt>
      <trkpt lat="41.5311590" lon="2.0524530">
        <ele>285.2</ele>
        <time>2018-06-14T09:11:26Z</time>
      </trkpt>
      <trkpt lat="41.5312330" lon="2.0522850">
        <ele>285.2</ele>
        <time>2018-06-14T09:11:32Z</time>
      </trkpt>
      <trkpt lat="41.5313370" lon="2.0521240">
        <ele>285.2</ele>
        <time>2018-06-14T09:11:39Z</time>
      </trkpt>
      <trkpt lat="41.5313700" lon="2.0520380">
        <ele>286.0</ele>
        <time>2018-06-14T09:11:42Z</time>
      </trkpt>
      <trkpt lat="41.5313910" lon="2.0519760">
        <ele>286.4</ele>
        <time>2018-06-14T09:11:44Z</time>
      </trkpt>
      <trkpt lat="41.5314600" lon="2.0518140">
        <ele>287.2</ele>
        <time>2018-06-14T09:11:50Z</time>
      </trkpt>
      <trkpt lat="41.5314710" lon="2.0517890">
        <ele>287.0</ele>
        <time>2018-06-14T09:11:51Z</time>
      </trkpt>
      <trkpt lat="41.5315700" lon="2.0515680">
        <ele>287.2</ele>
        <time>2018-06-14T09:11:59Z</time>
      </trkpt>
      <trkpt lat="41.5315840" lon="2.0515360">
        <ele>287.2</ele>
        <time>2018-06-14T09:12:00Z</time>
      </trkpt>
      <trkpt lat="41.5316810" lon="2.0513120">
        <ele>286.4</ele>
        <time>2018-06-14T09:12:07Z</time>
      </trkpt>
      <trkpt lat="41.5316990" lon="2.0512490">
        <ele>286.2</ele>
        <time>2018-06-14T09:12:09Z</time>
      </trkpt>
      <trkpt lat="41.5317250" lon="2.0510750">
        <ele>285.6</ele>
        <time>2018-06-14T09:12:14Z</time>
      </trkpt>
      <trkpt lat="41.5317420" lon="2.0509670">
        <ele>285.2</ele>
        <time>2018-06-14T09:12:17Z</time>
      </trkpt>
      <trkpt lat="41.5317610" lon="2.0508620">
        <ele>285.4</ele>
        <time>2018-06-14T09:12:20Z</time>
      </trkpt>
      <trkpt lat="41.5318170" lon="2.0506090">
        <ele>285.2</ele>
        <time>2018-06-14T09:12:27Z</time>
      </trkpt>
      <trkpt lat="41.5318600" lon="2.0503670">
        <ele>285.2</ele>
        <time>2018-06-14T09:12:34Z</time>
      </trkpt>
      <trkpt lat="41.5318840" lon="2.0501460">
        <ele>284.8</ele>
        <time>2018-06-14T09:12:40Z</time>
      </trkpt>
      <trkpt lat="41.5319140" lon="2.0499020">
        <ele>285.0</ele>
        <time>2018-06-14T09:12:47Z</time>
      </trkpt>
      <trkpt lat="41.5319460" lon="2.0497000">
        <ele>285.2</ele>
        <time>2018-06-14T09:12:53Z</time>
      </trkpt>
      <trkpt lat="41.5320270" lon="2.0494780">
        <ele>284.6</ele>
        <time>2018-06-14T09:13:00Z</time>
      </trkpt>
      <trkpt lat="41.5321080" lon="2.0493430">
        <ele>283.8</ele>
        <time>2018-06-14T09:13:05Z</time>
      </trkpt>
      <trkpt lat="41.5321240" lon="2.0493200">
        <ele>283.6</ele>
        <time>2018-06-14T09:13:06Z</time>
      </trkpt>
      <trkpt lat="41.5321350" lon="2.0493020">
        <ele>283.2</ele>
        <time>2018-06-14T09:13:07Z</time>
      </trkpt>
      <trkpt lat="41.5321650" lon="2.0492080">
        <ele>283.0</ele>
        <time>2018-06-14T09:13:11Z</time>
      </trkpt>
      <trkpt lat="41.5321860" lon="2.0491000">
        <ele>282.8</ele>
        <time>2018-06-14T09:13:14Z</time>
      </trkpt>
      <trkpt lat="41.5322130" lon="2.0489850">
        <ele>281.8</ele>
        <time>2018-06-14T09:13:17Z</time>
      </trkpt>
      <trkpt lat="41.5322200" lon="2.0489470">
        <ele>281.4</ele>
        <time>2018-06-14T09:13:18Z</time>
      </trkpt>
      <trkpt lat="41.5322390" lon="2.0488420">
        <ele>280.8</ele>
        <time>2018-06-14T09:13:21Z</time>
      </trkpt>
      <trkpt lat="41.5322640" lon="2.0487310">
        <ele>279.4</ele>
        <time>2018-06-14T09:13:24Z</time>
      </trkpt>
      <trkpt lat="41.5322880" lon="2.0486200">
        <ele>278.2</ele>
        <time>2018-06-14T09:13:27Z</time>
      </trkpt>
      <trkpt lat="41.5323200" lon="2.0485240">
        <ele>276.8</ele>
        <time>2018-06-14T09:13:30Z</time>
      </trkpt>
      <trkpt lat="41.5323890" lon="2.0483910">
        <ele>275.8</ele>
        <time>2018-06-14T09:13:35Z</time>
      </trkpt>
      <trkpt lat="41.5324020" lon="2.0483630">
        <ele>275.8</ele>
        <time>2018-06-14T09:13:36Z</time>
      </trkpt>
      <trkpt lat="41.5325220" lon="2.0482980">
        <ele>274.6</ele>
        <time>2018-06-14T09:13:41Z</time>
      </trkpt>
      <trkpt lat="41.5326130" lon="2.0482950">
        <ele>273.4</ele>
        <time>2018-06-14T09:13:45Z</time>
      </trkpt>
      <trkpt lat="41.5326620" lon="2.0482920">
        <ele>273.0</ele>
        <time>2018-06-14T09:13:47Z</time>
      </trkpt>
      <trkpt lat="41.5327010" lon="2.0482970">
        <ele>272.4</ele>
        <time>2018-06-14T09:13:49Z</time>
      </trkpt>
      <trkpt lat="41.5327630" lon="2.0483010">
        <ele>271.8</ele>
        <time>2018-06-14T09:13:51Z</time>
      </trkpt>
      <trkpt lat="41.5327970" lon="2.0483070">
        <ele>271.4</ele>
        <time>2018-06-14T09:13:52Z</time>
      </trkpt>
      <trkpt lat="41.5328690" lon="2.0483170">
        <ele>270.4</ele>
        <time>2018-06-14T09:13:54Z</time>
      </trkpt>
      <trkpt lat="41.5329750" lon="2.0483330">
        <ele>269.0</ele>
        <time>2018-06-14T09:13:57Z</time>
      </trkpt>
      <trkpt lat="41.5330420" lon="2.0483350">
        <ele>268.0</ele>
        <time>2018-06-14T09:13:59Z</time>
      </trkpt>
      <trkpt lat="41.5331410" lon="2.0483290">
        <ele>267.2</ele>
        <time>2018-06-14T09:14:02Z</time>
      </trkpt>
      <trkpt lat="41.5331710" lon="2.0483250">
        <ele>267.0</ele>
        <time>2018-06-14T09:14:03Z</time>
      </trkpt>
      <trkpt lat="41.5332670" lon="2.0483200">
        <ele>265.8</ele>
        <time>2018-06-14T09:14:06Z</time>
      </trkpt>
      <trkpt lat="41.5333010" lon="2.0483180">
        <ele>265.6</ele>
        <time>2018-06-14T09:14:07Z</time>
      </trkpt>
      <trkpt lat="41.5333670" lon="2.0483160">
        <ele>264.4</ele>
        <time>2018-06-14T09:14:09Z</time>
      </trkpt>
      <trkpt lat="41.5334700" lon="2.0483200">
        <ele>263.2</ele>
        <time>2018-06-14T09:14:12Z</time>
      </trkpt>
      <trkpt lat="41.5335030" lon="2.0483210">
        <ele>263.0</ele>
        <time>2018-06-14T09:14:13Z</time>
      </trkpt>
      <trkpt lat="41.5335940" lon="2.0483050">
        <ele>262.2</ele>
        <time>2018-06-14T09:14:16Z</time>
      </trkpt>
      <trkpt lat="41.5336150" lon="2.0482780">
        <ele>261.8</ele>
        <time>2018-06-14T09:14:17Z</time>
      </trkpt>
      <trkpt lat="41.5336930" lon="2.0481670">
        <ele>260.8</ele>
        <time>2018-06-14T09:14:21Z</time>
      </trkpt>
      <trkpt lat="41.5337150" lon="2.0481520">
        <ele>260.6</ele>
        <time>2018-06-14T09:14:22Z</time>
      </trkpt>
      <trkpt lat="41.5338050" lon="2.0481110">
        <ele>259.6</ele>
        <time>2018-06-14T09:14:26Z</time>
      </trkpt>
      <trkpt lat="41.5338680" lon="2.0480980">
        <ele>258.6</ele>
        <time>2018-06-14T09:14:29Z</time>
      </trkpt>
      <trkpt lat="41.5339390" lon="2.0480980">
        <ele>257.2</ele>
        <time>2018-06-14T09:14:32Z</time>
      </trkpt>
      <trkpt lat="41.5340120" lon="2.0480920">
        <ele>255.8</ele>
        <time>2018-06-14T09:14:35Z</time>
      </trkpt>
      <trkpt lat="41.5340940" lon="2.0480590">
        <ele>254.6</ele>
        <time>2018-06-14T09:14:39Z</time>
      </trkpt>
      <trkpt lat="41.5341350" lon="2.0480540">
        <ele>253.6</ele>
        <time>2018-06-14T09:14:41Z</time>
      </trkpt>
      <trkpt lat="41.5341610" lon="2.0480540">
        <ele>253.2</ele>
        <time>2018-06-14T09:14:42Z</time>
      </trkpt>
      <trkpt lat="41.5342270" lon="2.0480630">
        <ele>252.4</ele>
        <time>2018-06-14T09:14:45Z</time>
      </trkpt>
      <trkpt lat="41.5344600" lon="2.0481570">
        <ele>252.2</ele>
        <time>2018-06-14T09:22:03Z</time>
      </trkpt>
      <trkpt lat="41.5344630" lon="2.0481570">
        <ele>252.2</ele>
        <time>2018-06-14T09:22:04Z</time>
      </trkpt>
      <trkpt lat="41.5345290" lon="2.0481880">
        <ele>252.2</ele>
        <time>2018-06-14T09:22:08Z</time>
      </trkpt>
      <trkpt lat="41.5345750" lon="2.0481840">
        <ele>252.2</ele>
        <time>2018-06-14T09:22:10Z</time>
      </trkpt>
      <trkpt lat="41.5346480" lon="2.0481790">
        <ele>251.2</ele>
        <time>2018-06-14T09:22:13Z</time>
      </trkpt>
      <trkpt lat="41.5346710" lon="2.0481790">
        <ele>250.6</ele>
        <time>2018-06-14T09:22:14Z</time>
      </trkpt>
      <trkpt lat="41.5346970" lon="2.0481850">
        <ele>250.2</ele>
        <time>2018-06-14T09:22:15Z</time>
      </trkpt>
      <trkpt lat="41.5347780" lon="2.0482320">
        <ele>249.2</ele>
        <time>2018-06-14T09:22:18Z</time>
      </trkpt>
      <trkpt lat="41.5348080" lon="2.0482450">
        <ele>249.0</ele>
        <time>2018-06-14T09:22:19Z</time>
      </trkpt>
      <trkpt lat="41.5348400" lon="2.0482530">
        <ele>248.8</ele>
        <time>2018-06-14T09:22:20Z</time>
      </trkpt>
      <trkpt lat="41.5349380" lon="2.0482680">
        <ele>248.0</ele>
        <time>2018-06-14T09:22:23Z</time>
      </trkpt>
      <trkpt lat="41.5349720" lon="2.0482670">
        <ele>247.8</ele>
        <time>2018-06-14T09:22:24Z</time>
      </trkpt>
      <trkpt lat="41.5350670" lon="2.0482670">
        <ele>247.2</ele>
        <time>2018-06-14T09:22:27Z</time>
      </trkpt>
      <trkpt lat="41.5351330" lon="2.0482630">
        <ele>246.8</ele>
        <time>2018-06-14T09:22:29Z</time>
      </trkpt>
      <trkpt lat="41.5351630" lon="2.0482640">
        <ele>246.4</ele>
        <time>2018-06-14T09:22:30Z</time>
      </trkpt>
      <trkpt lat="41.5352900" lon="2.0482740">
        <ele>244.8</ele>
        <time>2018-06-14T09:22:33Z</time>
      </trkpt>
      <trkpt lat="41.5353480" lon="2.0482720">
        <ele>244.0</ele>
        <time>2018-06-14T09:22:36Z</time>
      </trkpt>
      <trkpt lat="41.5354060" lon="2.0482700">
        <ele>243.8</ele>
        <time>2018-06-14T09:22:38Z</time>
      </trkpt>
      <trkpt lat="41.5354890" lon="2.0482620">
        <ele>243.2</ele>
        <time>2018-06-14T09:22:41Z</time>
      </trkpt>
      <trkpt lat="41.5355490" lon="2.0482630">
        <ele>242.4</ele>
        <time>2018-06-14T09:22:43Z</time>
      </trkpt>
      <trkpt lat="41.5357000" lon="2.0482660">
        <ele>241.4</ele>
        <time>2018-06-14T09:22:48Z</time>
      </trkpt>
      <trkpt lat="41.5357310" lon="2.0482660">
        <ele>241.2</ele>
        <time>2018-06-14T09:22:49Z</time>
      </trkpt>
      <trkpt lat="41.5358730" lon="2.0482640">
        <ele>240.8</ele>
        <time>2018-06-14T09:22:54Z</time>
      </trkpt>
      <trkpt lat="41.5359990" lon="2.0482610">
        <ele>240.2</ele>
        <time>2018-06-14T09:22:59Z</time>
      </trkpt>
      <trkpt lat="41.5360250" lon="2.0482600">
        <ele>240.0</ele>
        <time>2018-06-14T09:23:00Z</time>
      </trkpt>
      <trkpt lat="41.5361060" lon="2.0482550">
        <ele>239.6</ele>
        <time>2018-06-14T09:23:03Z</time>
      </trkpt>
      <trkpt lat="41.5361530" lon="2.0482520">
        <ele>239.6</ele>
        <time>2018-06-14T09:23:05Z</time>
      </trkpt>
      <trkpt lat="41.5362970" lon="2.0482470">
        <ele>240.6</ele>
        <time>2018-06-14T09:23:11Z</time>
      </trkpt>
      <trkpt lat="41.5364470" lon="2.0482560">
        <ele>241.2</ele>
        <time>2018-06-14T09:23:18Z</time>
      </trkpt>
      <trkpt lat="41.5365620" lon="2.0482530">
        <ele>242.2</ele>
        <time>2018-06-14T09:23:23Z</time>
      </trkpt>
      <trkpt lat="41.5365890" lon="2.0482510">
        <ele>242.6</ele>
        <time>2018-06-14T09:23:24Z</time>
      </trkpt>
      <trkpt lat="41.5366940" lon="2.0482510">
        <ele>243.8</ele>
        <time>2018-06-14T09:23:28Z</time>
      </trkpt>
      <trkpt lat="41.5367780" lon="2.0482500">
        <ele>244.8</ele>
        <time>2018-06-14T09:23:31Z</time>
      </trkpt>
      <trkpt lat="41.5368600" lon="2.0482490">
        <ele>245.2</ele>
        <time>2018-06-14T09:23:34Z</time>
      </trkpt>
      <trkpt lat="41.5369440" lon="2.0482450">
        <ele>246.0</ele>
        <time>2018-06-14T09:23:37Z</time>
      </trkpt>
      <trkpt lat="41.5370240" lon="2.0482320">
        <ele>246.6</ele>
        <time>2018-06-14T09:23:40Z</time>
      </trkpt>
      <trkpt lat="41.5370990" lon="2.0482190">
        <ele>247.0</ele>
        <time>2018-06-14T09:23:43Z</time>
      </trkpt>
      <trkpt lat="41.5371880" lon="2.0482160">
        <ele>246.6</ele>
        <time>2018-06-14T09:23:46Z</time>
      </trkpt>
      <trkpt lat="41.5372460" lon="2.0482150">
        <ele>246.0</ele>
        <time>2018-06-14T09:23:48Z</time>
      </trkpt>
      <trkpt lat="41.5373300" lon="2.0482150">
        <ele>245.8</ele>
        <time>2018-06-14T09:23:51Z</time>
      </trkpt>
      <trkpt lat="41.5373860" lon="2.0482200">
        <ele>245.4</ele>
        <time>2018-06-14T09:23:53Z</time>
      </trkpt>
      <trkpt lat="41.5374700" lon="2.0482250">
        <ele>244.4</ele>
        <time>2018-06-14T09:23:56Z</time>
      </trkpt>
      <trkpt lat="41.5375840" lon="2.0482170">
        <ele>243.6</ele>
        <time>2018-06-14T09:24:00Z</time>
      </trkpt>
      <trkpt lat="41.5376110" lon="2.0482170">
        <ele>243.4</ele>
        <time>2018-06-14T09:24:01Z</time>
      </trkpt>
      <trkpt lat="41.5377010" lon="2.0482190">
        <ele>242.2</ele>
        <time>2018-06-14T09:24:04Z</time>
      </trkpt>
      <trkpt lat="41.5377830" lon="2.0482160">
        <ele>241.0</ele>
        <time>2018-06-14T09:24:07Z</time>
      </trkpt>
      <trkpt lat="41.5378710" lon="2.0482130">
        <ele>240.0</ele>
        <time>2018-06-14T09:24:10Z</time>
      </trkpt>
      <trkpt lat="41.5379560" lon="2.0482010">
        <ele>238.8</ele>
        <time>2018-06-14T09:24:13Z</time>
      </trkpt>
      <trkpt lat="41.5381290" lon="2.0482010">
        <ele>237.6</ele>
        <time>2018-06-14T09:24:19Z</time>
      </trkpt>
      <trkpt lat="41.5381600" lon="2.0481990">
        <ele>237.4</ele>
        <time>2018-06-14T09:24:20Z</time>
      </trkpt>
      <trkpt lat="41.5382480" lon="2.0481960">
        <ele>236.6</ele>
        <time>2018-06-14T09:24:23Z</time>
      </trkpt>
      <trkpt lat="41.5383280" lon="2.0481930">
        <ele>235.4</ele>
        <time>2018-06-14T09:24:26Z</time>
      </trkpt>
      <trkpt lat="41.5384520" lon="2.0481910">
        <ele>234.8</ele>
        <time>2018-06-14T09:24:30Z</time>
      </trkpt>
      <trkpt lat="41.5385180" lon="2.0481870">
        <ele>234.0</ele>
        <time>2018-06-14T09:24:32Z</time>
      </trkpt>
      <trkpt lat="41.5386730" lon="2.0481810">
        <ele>233.0</ele>
        <time>2018-06-14T09:24:37Z</time>
      </trkpt>
      <trkpt lat="41.5387040" lon="2.0481830">
        <ele>232.6</ele>
        <time>2018-06-14T09:24:38Z</time>
      </trkpt>
      <trkpt lat="41.5388270" lon="2.0481830">
        <ele>231.6</ele>
        <time>2018-06-14T09:24:42Z</time>
      </trkpt>
      <trkpt lat="41.5389140" lon="2.0481840">
        <ele>231.0</ele>
        <time>2018-06-14T09:24:45Z</time>
      </trkpt>
      <trkpt lat="41.5389890" lon="2.0482200">
        <ele>230.6</ele>
        <time>2018-06-14T09:24:48Z</time>
      </trkpt>
      <trkpt lat="41.5390430" lon="2.0482540">
        <ele>230.2</ele>
        <time>2018-06-14T09:24:50Z</time>
      </trkpt>
      <trkpt lat="41.5391780" lon="2.0482840">
        <ele>229.4</ele>
        <time>2018-06-14T09:24:55Z</time>
      </trkpt>
      <trkpt lat="41.5392000" lon="2.0482860">
        <ele>229.2</ele>
        <time>2018-06-14T09:24:56Z</time>
      </trkpt>
      <trkpt lat="41.5392980" lon="2.0482820">
        <ele>229.2</ele>
        <time>2018-06-14T09:25:00Z</time>
      </trkpt>
      <trkpt lat="41.5393460" lon="2.0482760">
        <ele>229.4</ele>
        <time>2018-06-14T09:25:02Z</time>
      </trkpt>
      <trkpt lat="41.5395280" lon="2.0482990">
        <ele>229.6</ele>
        <time>2018-06-14T09:25:10Z</time>
      </trkpt>
      <trkpt lat="41.5396370" lon="2.0483620">
        <ele>230.0</ele>
        <time>2018-06-14T09:25:15Z</time>
      </trkpt>
      <trkpt lat="41.5396820" lon="2.0484030">
        <ele>230.4</ele>
        <time>2018-06-14T09:25:17Z</time>
      </trkpt>
      <trkpt lat="41.5397710" lon="2.0485410">
        <ele>231.4</ele>
        <time>2018-06-14T09:25:22Z</time>
      </trkpt>
      <trkpt lat="41.5397900" lon="2.0485740">
        <ele>231.6</ele>
        <time>2018-06-14T09:25:23Z</time>
      </trkpt>
      <trkpt lat="41.5398210" lon="2.0486310">
        <ele>231.8</ele>
        <time>2018-06-14T09:25:25Z</time>
      </trkpt>
      <trkpt lat="41.5399110" lon="2.0487870">
        <ele>231.6</ele>
        <time>2018-06-14T09:25:30Z</time>
      </trkpt>
      <trkpt lat="41.5399970" lon="2.0488780">
        <ele>231.4</ele>
        <time>2018-06-14T09:25:34Z</time>
      </trkpt>
      <trkpt lat="41.5401710" lon="2.0490100">
        <ele>231.2</ele>
        <time>2018-06-14T09:25:41Z</time>
      </trkpt>
      <trkpt lat="41.5402430" lon="2.0490580">
        <ele>230.4</ele>
        <time>2018-06-14T09:25:44Z</time>
      </trkpt>
      <trkpt lat="41.5402930" lon="2.0490880">
        <ele>230.0</ele>
        <time>2018-06-14T09:25:46Z</time>
      </trkpt>
      <trkpt lat="41.5403830" lon="2.0491480">
        <ele>229.2</ele>
        <time>2018-06-14T09:25:50Z</time>
      </trkpt>
      <trkpt lat="41.5404560" lon="2.0491940">
        <ele>229.0</ele>
        <time>2018-06-14T09:25:53Z</time>
      </trkpt>
      <trkpt lat="41.5406070" lon="2.0492890">
        <ele>228.2</ele>
        <time>2018-06-14T09:25:59Z</time>
      </trkpt>
      <trkpt lat="41.5406940" lon="2.0493330">
        <ele>227.2</ele>
        <time>2018-06-14T09:26:02Z</time>
      </trkpt>
      <trkpt lat="41.5407550" lon="2.0493600">
        <ele>227.0</ele>
        <time>2018-06-14T09:26:04Z</time>
      </trkpt>
      <trkpt lat="41.5408710" lon="2.0494270">
        <ele>226.0</ele>
        <time>2018-06-14T09:26:08Z</time>
      </trkpt>
      <trkpt lat="41.5409580" lon="2.0494780">
        <ele>225.4</ele>
        <time>2018-06-14T09:26:11Z</time>
      </trkpt>
      <trkpt lat="41.5410170" lon="2.0495120">
        <ele>224.8</ele>
        <time>2018-06-14T09:26:13Z</time>
      </trkpt>
      <trkpt lat="41.5411080" lon="2.0495640">
        <ele>224.2</ele>
        <time>2018-06-14T09:26:16Z</time>
      </trkpt>
      <trkpt lat="41.5411620" lon="2.0495940">
        <ele>223.6</ele>
        <time>2018-06-14T09:26:18Z</time>
      </trkpt>
      <trkpt lat="41.5412460" lon="2.0496440">
        <ele>223.0</ele>
        <time>2018-06-14T09:26:21Z</time>
      </trkpt>
      <trkpt lat="41.5413000" lon="2.0496760">
        <ele>222.4</ele>
        <time>2018-06-14T09:26:23Z</time>
      </trkpt>
      <trkpt lat="41.5414200" lon="2.0497790">
        <ele>221.6</ele>
        <time>2018-06-14T09:26:28Z</time>
      </trkpt>
      <trkpt lat="41.5414540" lon="2.0498360">
        <ele>221.2</ele>
        <time>2018-06-14T09:26:30Z</time>
      </trkpt>
      <trkpt lat="41.5414840" lon="2.0499300">
        <ele>220.4</ele>
        <time>2018-06-14T09:26:33Z</time>
      </trkpt>
      <trkpt lat="41.5414850" lon="2.0499650">
        <ele>220.2</ele>
        <time>2018-06-14T09:26:34Z</time>
      </trkpt>
      <trkpt lat="41.5414900" lon="2.0501120">
        <ele>219.8</ele>
        <time>2018-06-14T09:26:38Z</time>
      </trkpt>
      <trkpt lat="41.5415020" lon="2.0502300">
        <ele>219.2</ele>
        <time>2018-06-14T09:26:41Z</time>
      </trkpt>
      <trkpt lat="41.5415060" lon="2.0502670">
        <ele>219.2</ele>
        <time>2018-06-14T09:26:42Z</time>
      </trkpt>
      <trkpt lat="41.5415070" lon="2.0503040">
        <ele>219.0</ele>
        <time>2018-06-14T09:26:43Z</time>
      </trkpt>
      <trkpt lat="41.5415190" lon="2.0504520">
        <ele>218.6</ele>
        <time>2018-06-14T09:26:47Z</time>
      </trkpt>
      <trkpt lat="41.5415250" lon="2.0504870">
        <ele>218.4</ele>
        <time>2018-06-14T09:26:48Z</time>
      </trkpt>
      <trkpt lat="41.5415310" lon="2.0505220">
        <ele>218.4</ele>
        <time>2018-06-14T09:26:49Z</time>
      </trkpt>
      <trkpt lat="41.5415530" lon="2.0506670">
        <ele>218.0</ele>
        <time>2018-06-14T09:26:53Z</time>
      </trkpt>
      <trkpt lat="41.5415610" lon="2.0507040">
        <ele>218.0</ele>
        <time>2018-06-14T09:26:54Z</time>
      </trkpt>
      <trkpt lat="41.5416080" lon="2.0508810">
        <ele>217.4</ele>
        <time>2018-06-14T09:26:59Z</time>
      </trkpt>
      <trkpt lat="41.5416380" lon="2.0509540">
        <ele>217.0</ele>
        <time>2018-06-14T09:27:01Z</time>
      </trkpt>
      <trkpt lat="41.5417010" lon="2.0510500">
        <ele>216.6</ele>
        <time>2018-06-14T09:27:04Z</time>
      </trkpt>
      <trkpt lat="41.5418020" lon="2.0511420">
        <ele>216.2</ele>
        <time>2018-06-14T09:27:08Z</time>
      </trkpt>
      <trkpt lat="41.5418290" lon="2.0511590">
        <ele>216.0</ele>
        <time>2018-06-14T09:27:09Z</time>
      </trkpt>
      <trkpt lat="41.5419660" lon="2.0512500">
        <ele>215.0</ele>
        <time>2018-06-14T09:27:14Z</time>
      </trkpt>
      <trkpt lat="41.5419920" lon="2.0512720">
        <ele>215.0</ele>
        <time>2018-06-14T09:27:15Z</time>
      </trkpt>
      <trkpt lat="41.5420590" lon="2.0513930">
        <ele>214.0</ele>
        <time>2018-06-14T09:27:19Z</time>
      </trkpt>
      <trkpt lat="41.5420660" lon="2.0514300">
        <ele>213.8</ele>
        <time>2018-06-14T09:27:20Z</time>
      </trkpt>
      <trkpt lat="41.5420840" lon="2.0515720">
        <ele>213.4</ele>
        <time>2018-06-14T09:27:24Z</time>
      </trkpt>
      <trkpt lat="41.5420870" lon="2.0517610">
        <ele>213.0</ele>
        <time>2018-06-14T09:27:29Z</time>
      </trkpt>
      <trkpt lat="41.5420800" lon="2.0518040">
        <ele>212.8</ele>
        <time>2018-06-14T09:27:30Z</time>
      </trkpt>
      <trkpt lat="41.5420670" lon="2.0519720">
        <ele>212.2</ele>
        <time>2018-06-14T09:27:34Z</time>
      </trkpt>
      <trkpt lat="41.5420570" lon="2.0520510">
        <ele>211.8</ele>
        <time>2018-06-14T09:27:36Z</time>
      </trkpt>
      <trkpt lat="41.5420410" lon="2.0521660">
        <ele>211.8</ele>
        <time>2018-06-14T09:27:39Z</time>
      </trkpt>
      <trkpt lat="41.5420040" lon="2.0524140">
        <ele>210.4</ele>
        <time>2018-06-14T09:27:45Z</time>
      </trkpt>
      <trkpt lat="41.5420040" lon="2.0525010">
        <ele>209.2</ele>
        <time>2018-06-14T09:27:47Z</time>
      </trkpt>
      <trkpt lat="41.5420070" lon="2.0526230">
        <ele>208.2</ele>
        <time>2018-06-14T09:27:50Z</time>
      </trkpt>
      <trkpt lat="41.5420050" lon="2.0526630">
        <ele>208.0</ele>
        <time>2018-06-14T09:27:51Z</time>
      </trkpt>
      <trkpt lat="41.5419970" lon="2.0528150">
        <ele>207.2</ele>
        <time>2018-06-14T09:27:55Z</time>
      </trkpt>
      <trkpt lat="41.5419950" lon="2.0528540">
        <ele>206.8</ele>
        <time>2018-06-14T09:27:56Z</time>
      </trkpt>
      <trkpt lat="41.5419740" lon="2.0530150">
        <ele>206.0</ele>
        <time>2018-06-14T09:28:00Z</time>
      </trkpt>
      <trkpt lat="41.5419770" lon="2.0530950">
        <ele>205.8</ele>
        <time>2018-06-14T09:28:02Z</time>
      </trkpt>
      <trkpt lat="41.5419780" lon="2.0532090">
        <ele>204.8</ele>
        <time>2018-06-14T09:28:05Z</time>
      </trkpt>
      <trkpt lat="41.5419780" lon="2.0532440">
        <ele>204.6</ele>
        <time>2018-06-14T09:28:06Z</time>
      </trkpt>
      <trkpt lat="41.5419700" lon="2.0534710">
        <ele>203.2</ele>
        <time>2018-06-14T09:28:12Z</time>
      </trkpt>
      <trkpt lat="41.5419670" lon="2.0537360">
        <ele>202.8</ele>
        <time>2018-06-14T09:28:19Z</time>
      </trkpt>
      <trkpt lat="41.5419710" lon="2.0538560">
        <ele>202.2</ele>
        <time>2018-06-14T09:28:22Z</time>
      </trkpt>
      <trkpt lat="41.5419730" lon="2.0539730">
        <ele>202.0</ele>
        <time>2018-06-14T09:28:25Z</time>
      </trkpt>
      <trkpt lat="41.5419670" lon="2.0542480">
        <ele>201.0</ele>
        <time>2018-06-14T09:28:32Z</time>
      </trkpt>
      <trkpt lat="41.5419590" lon="2.0544120">
        <ele>200.6</ele>
        <time>2018-06-14T09:28:36Z</time>
      </trkpt>
      <trkpt lat="41.5419610" lon="2.0544480">
        <ele>200.2</ele>
        <time>2018-06-14T09:28:37Z</time>
      </trkpt>
      <trkpt lat="41.5419590" lon="2.0545230">
        <ele>200.0</ele>
        <time>2018-06-14T09:28:39Z</time>
      </trkpt>
      <trkpt lat="41.5419540" lon="2.0546460">
        <ele>199.4</ele>
        <time>2018-06-14T09:28:42Z</time>
      </trkpt>
      <trkpt lat="41.5419520" lon="2.0549220">
        <ele>198.8</ele>
        <time>2018-06-14T09:28:49Z</time>
      </trkpt>
      <trkpt lat="41.5419560" lon="2.0550740">
        <ele>197.8</ele>
        <time>2018-06-14T09:28:53Z</time>
      </trkpt>
      <trkpt lat="41.5419590" lon="2.0551120">
        <ele>197.6</ele>
        <time>2018-06-14T09:28:54Z</time>
      </trkpt>
      <trkpt lat="41.5419470" lon="2.0553550">
        <ele>197.4</ele>
        <time>2018-06-14T09:29:01Z</time>
      </trkpt>
      <trkpt lat="41.5419350" lon="2.0553860">
        <ele>197.4</ele>
        <time>2018-06-14T09:29:02Z</time>
      </trkpt>
      <trkpt lat="41.5418530" lon="2.0554770">
        <ele>197.2</ele>
        <time>2018-06-14T09:29:06Z</time>
      </trkpt>
      <trkpt lat="41.5418360" lon="2.0555010">
        <ele>196.6</ele>
        <time>2018-06-14T09:29:07Z</time>
      </trkpt>
      <trkpt lat="41.5418160" lon="2.0555620">
        <ele>195.6</ele>
        <time>2018-06-14T09:29:09Z</time>
      </trkpt>
      <trkpt lat="41.5418170" lon="2.0555980">
        <ele>195.2</ele>
        <time>2018-06-14T09:29:10Z</time>
      </trkpt>
      <trkpt lat="41.5418410" lon="2.0556630">
        <ele>194.2</ele>
        <time>2018-06-14T09:29:12Z</time>
      </trkpt>
      <trkpt lat="41.5418850" lon="2.0557430">
        <ele>192.8</ele>
        <time>2018-06-14T09:29:14Z</time>
      </trkpt>
      <trkpt lat="41.5419260" lon="2.0558150">
        <ele>191.4</ele>
        <time>2018-06-14T09:29:16Z</time>
      </trkpt>
      <trkpt lat="41.5419680" lon="2.0558830">
        <ele>190.2</ele>
        <time>2018-06-14T09:29:18Z</time>
      </trkpt>
      <trkpt lat="41.5420190" lon="2.0559370">
        <ele>189.4</ele>
        <time>2018-06-14T09:29:20Z</time>
      </trkpt>
      <trkpt lat="41.5420760" lon="2.0559620">
        <ele>189.0</ele>
        <time>2018-06-14T09:29:22Z</time>
      </trkpt>
      <trkpt lat="41.5421620" lon="2.0559870">
        <ele>188.8</ele>
        <time>2018-06-14T09:29:25Z</time>
      </trkpt>
      <trkpt lat="41.5422500" lon="2.0560130">
        <ele>188.8</ele>
        <time>2018-06-14T09:29:28Z</time>
      </trkpt>
      <trkpt lat="41.5423390" lon="2.0560370">
        <ele>188.6</ele>
        <time>2018-06-14T09:29:31Z</time>
      </trkpt>
      <trkpt lat="41.5423390" lon="2.0560370">
        <ele>188.2</ele>
        <time>2018-06-14T09:29:38Z</time>
      </trkpt>
      <trkpt lat="41.5423390" lon="2.0560370">
        <ele>188.8</ele>
        <time>2018-06-14T09:29:45Z</time>
      </trkpt>
      <trkpt lat="41.5426530" lon="2.0557320">
        <ele>188.8</ele>
        <time>2018-06-14T09:29:52Z</time>
      </trkpt>
      <trkpt lat="41.5427260" lon="2.0556570">
        <ele>189.4</ele>
        <time>2018-06-14T09:29:55Z</time>
      </trkpt>
      <trkpt lat="41.5427830" lon="2.0555600">
        <ele>189.4</ele>
        <time>2018-06-14T09:29:58Z</time>
      </trkpt>
      <trkpt lat="41.5428010" lon="2.0553900">
        <ele>190.0</ele>
        <time>2018-06-14T09:30:03Z</time>
      </trkpt>
      <trkpt lat="41.5427770" lon="2.0551540">
        <ele>190.6</ele>
        <time>2018-06-14T09:30:11Z</time>
      </trkpt>
      <trkpt lat="41.5427660" lon="2.0550940">
        <ele>191.2</ele>
        <time>2018-06-14T09:30:13Z</time>
      </trkpt>
      <trkpt lat="41.5427620" lon="2.0549700">
        <ele>192.6</ele>
        <time>2018-06-14T09:30:17Z</time>
      </trkpt>
      <trkpt lat="41.5427620" lon="2.0549380">
        <ele>192.8</ele>
        <time>2018-06-14T09:30:18Z</time>
      </trkpt>
      <trkpt lat="41.5427560" lon="2.0548170">
        <ele>193.6</ele>
        <time>2018-06-14T09:30:22Z</time>
      </trkpt>
      <trkpt lat="41.5427490" lon="2.0547280">
        <ele>194.0</ele>
        <time>2018-06-14T09:30:25Z</time>
      </trkpt>
      <trkpt lat="41.5427480" lon="2.0546290">
        <ele>194.8</ele>
        <time>2018-06-14T09:30:29Z</time>
      </trkpt>
      <trkpt lat="41.5427530" lon="2.0545780">
        <ele>195.4</ele>
        <time>2018-06-14T09:30:31Z</time>
      </trkpt>
      <trkpt lat="41.5427490" lon="2.0545300">
        <ele>196.0</ele>
        <time>2018-06-14T09:30:33Z</time>
      </trkpt>
      <trkpt lat="41.5427310" lon="2.0544610">
        <ele>197.2</ele>
        <time>2018-06-14T09:30:36Z</time>
      </trkpt>
      <trkpt lat="41.5427270" lon="2.0544350">
        <ele>197.4</ele>
        <time>2018-06-14T09:30:37Z</time>
      </trkpt>
      <trkpt lat="41.5427190" lon="2.0543050">
        <ele>198.0</ele>
        <time>2018-06-14T09:30:42Z</time>
      </trkpt>
      <trkpt lat="41.5427150" lon="2.0542800">
        <ele>198.4</ele>
        <time>2018-06-14T09:30:43Z</time>
      </trkpt>
      <trkpt lat="41.5427030" lon="2.0541930">
        <ele>199.6</ele>
        <time>2018-06-14T09:30:46Z</time>
      </trkpt>
      <trkpt lat="41.5426990" lon="2.0541070">
        <ele>200.2</ele>
        <time>2018-06-14T09:30:49Z</time>
      </trkpt>
      <trkpt lat="41.5427050" lon="2.0539540">
        <ele>200.2</ele>
        <time>2018-06-14T09:30:54Z</time>
      </trkpt>
      <trkpt lat="41.5427050" lon="2.0538670">
        <ele>200.8</ele>
        <time>2018-06-14T09:30:57Z</time>
      </trkpt>
      <trkpt lat="41.5427140" lon="2.0537690">
        <ele>201.0</ele>
        <time>2018-06-14T09:31:00Z</time>
      </trkpt>
      <trkpt lat="41.5427090" lon="2.0536430">
        <ele>201.4</ele>
        <time>2018-06-14T09:31:04Z</time>
      </trkpt>
      <trkpt lat="41.5427050" lon="2.0536160">
        <ele>201.6</ele>
        <time>2018-06-14T09:31:05Z</time>
      </trkpt>
      <trkpt lat="41.5427000" lon="2.0535820">
        <ele>201.8</ele>
        <time>2018-06-14T09:31:06Z</time>
      </trkpt>
      <trkpt lat="41.5426960" lon="2.0535150">
        <ele>202.4</ele>
        <time>2018-06-14T09:31:08Z</time>
      </trkpt>
      <trkpt lat="41.5426980" lon="2.0534070">
        <ele>203.0</ele>
        <time>2018-06-14T09:31:11Z</time>
      </trkpt>
      <trkpt lat="41.5426970" lon="2.0533070">
        <ele>203.4</ele>
        <time>2018-06-14T09:31:14Z</time>
      </trkpt>
      <trkpt lat="41.5426940" lon="2.0532770">
        <ele>203.0</ele>
        <time>2018-06-14T09:31:15Z</time>
      </trkpt>
      <trkpt lat="41.5426900" lon="2.0531230">
        <ele>203.4</ele>
        <time>2018-06-14T09:31:21Z</time>
      </trkpt>
      <trkpt lat="41.5427060" lon="2.0529810">
        <ele>204.0</ele>
        <time>2018-06-14T09:31:26Z</time>
      </trkpt>
      <trkpt lat="41.5427140" lon="2.0529180">
        <ele>204.4</ele>
        <time>2018-06-14T09:31:28Z</time>
      </trkpt>
      <trkpt lat="41.5427260" lon="2.0528290">
        <ele>205.2</ele>
        <time>2018-06-14T09:31:31Z</time>
      </trkpt>
      <trkpt lat="41.5427280" lon="2.0527630">
        <ele>205.8</ele>
        <time>2018-06-14T09:31:33Z</time>
      </trkpt>
      <trkpt lat="41.5427270" lon="2.0526430">
        <ele>206.2</ele>
        <time>2018-06-14T09:31:37Z</time>
      </trkpt>
      <trkpt lat="41.5427220" lon="2.0525270">
        <ele>206.0</ele>
        <time>2018-06-14T09:31:41Z</time>
      </trkpt>
      <trkpt lat="41.5427090" lon="2.0523880">
        <ele>206.2</ele>
        <time>2018-06-14T09:31:46Z</time>
      </trkpt>
      <trkpt lat="41.5427140" lon="2.0521630">
        <ele>207.0</ele>
        <time>2018-06-14T09:31:53Z</time>
      </trkpt>
      <trkpt lat="41.5427160" lon="2.0521050">
        <ele>207.4</ele>
        <time>2018-06-14T09:31:55Z</time>
      </trkpt>
      <trkpt lat="41.5427440" lon="2.0520200">
        <ele>207.8</ele>
        <time>2018-06-14T09:31:58Z</time>
      </trkpt>
      <trkpt lat="41.5428280" lon="2.0519400">
        <ele>208.4</ele>
        <time>2018-06-14T09:32:03Z</time>
      </trkpt>
      <trkpt lat="41.5429510" lon="2.0519770">
        <ele>208.0</ele>
        <time>2018-06-14T09:32:08Z</time>
      </trkpt>
      <trkpt lat="41.5431220" lon="2.0520750">
        <ele>207.4</ele>
        <time>2018-06-14T09:32:14Z</time>
      </trkpt>
      <trkpt lat="41.5432890" lon="2.0521490">
        <ele>206.4</ele>
        <time>2018-06-14T09:32:20Z</time>
      </trkpt>
      <trkpt lat="41.5433180" lon="2.0521510">
        <ele>206.4</ele>
        <time>2018-06-14T09:32:21Z</time>
      </trkpt>
      <trkpt lat="41.5434270" lon="2.0520860">
        <ele>206.4</ele>
        <time>2018-06-14T09:32:26Z</time>
      </trkpt>
      <trkpt lat="41.5434800" lon="2.0519260">
        <ele>206.6</ele>
        <time>2018-06-14T09:32:31Z</time>
      </trkpt>
      <trkpt lat="41.5435010" lon="2.0517680">
        <ele>206.2</ele>
        <time>2018-06-14T09:32:36Z</time>
      </trkpt>
      <trkpt lat="41.5434990" lon="2.0515750">
        <ele>207.2</ele>
        <time>2018-06-14T09:32:42Z</time>
      </trkpt>
      <trkpt lat="41.5434900" lon="2.0515110">
        <ele>207.4</ele>
        <time>2018-06-14T09:32:44Z</time>
      </trkpt>
      <trkpt lat="41.5434930" lon="2.0513260">
        <ele>207.6</ele>
        <time>2018-06-14T09:32:50Z</time>
      </trkpt>
      <trkpt lat="41.5434740" lon="2.0511570">
        <ele>207.4</ele>
        <time>2018-06-14T09:32:55Z</time>
      </trkpt>
      <trkpt lat="41.5434500" lon="2.0509630">
        <ele>208.2</ele>
        <time>2018-06-14T09:33:01Z</time>
      </trkpt>
      <trkpt lat="41.5434490" lon="2.0509290">
        <ele>208.4</ele>
        <time>2018-06-14T09:33:02Z</time>
      </trkpt>
      <trkpt lat="41.5434400" lon="2.0507690">
        <ele>208.6</ele>
        <time>2018-06-14T09:33:07Z</time>
      </trkpt>
      <trkpt lat="41.5434260" lon="2.0505620">
        <ele>208.8</ele>
        <time>2018-06-14T09:33:13Z</time>
      </trkpt>
      <trkpt lat="41.5434220" lon="2.0504950">
        <ele>209.6</ele>
        <time>2018-06-14T09:33:15Z</time>
      </trkpt>
      <trkpt lat="41.5434090" lon="2.0503040">
        <ele>210.0</ele>
        <time>2018-06-14T09:33:21Z</time>
      </trkpt>
      <trkpt lat="41.5433850" lon="2.0501010">
        <ele>210.6</ele>
        <time>2018-06-14T09:33:27Z</time>
      </trkpt>
      <trkpt lat="41.5433830" lon="2.0500660">
        <ele>210.8</ele>
        <time>2018-06-14T09:33:28Z</time>
      </trkpt>
      <trkpt lat="41.5433780" lon="2.0500130">
        <ele>211.0</ele>
        <time>2018-06-14T09:33:30Z</time>
      </trkpt>
      <trkpt lat="41.5433870" lon="2.0499950">
        <ele>211.2</ele>
        <time>2018-06-14T09:33:32Z</time>
      </trkpt>
      <trkpt lat="41.5434030" lon="2.0499950">
        <ele>211.2</ele>
        <time>2018-06-14T09:33:33Z</time>
      </trkpt>
      <trkpt lat="41.5434670" lon="2.0500410">
        <ele>210.4</ele>
        <time>2018-06-14T09:33:36Z</time>
      </trkpt>
      <trkpt lat="41.5435420" lon="2.0502040">
        <ele>210.0</ele>
        <time>2018-06-14T09:33:41Z</time>
      </trkpt>
      <trkpt lat="41.5435810" lon="2.0503340">
        <ele>210.0</ele>
        <time>2018-06-14T09:33:45Z</time>
      </trkpt>
      <trkpt lat="41.5436160" lon="2.0504910">
        <ele>210.0</ele>
        <time>2018-06-14T09:33:49Z</time>
      </trkpt>
      <trkpt lat="41.5436310" lon="2.0506140">
        <ele>210.0</ele>
        <time>2018-06-14T09:33:52Z</time>
      </trkpt>
      <trkpt lat="41.5436420" lon="2.0508290">
        <ele>209.8</ele>
        <time>2018-06-14T09:33:58Z</time>
      </trkpt>
      <trkpt lat="41.5436570" lon="2.0510340">
        <ele>209.6</ele>
        <time>2018-06-14T09:34:03Z</time>
      </trkpt>
      <trkpt lat="41.5436980" lon="2.0512250">
        <ele>209.4</ele>
        <time>2018-06-14T09:34:08Z</time>
      </trkpt>
      <trkpt lat="41.5437330" lon="2.0513640">
        <ele>209.2</ele>
        <time>2018-06-14T09:34:12Z</time>
      </trkpt>
      <trkpt lat="41.5437820" lon="2.0514550">
        <ele>209.0</ele>
        <time>2018-06-14T09:34:15Z</time>
      </trkpt>
      <trkpt lat="41.5438310" lon="2.0514990">
        <ele>209.0</ele>
        <time>2018-06-14T09:34:17Z</time>
      </trkpt>
      <trkpt lat="41.5439300" lon="2.0514840">
        <ele>208.8</ele>
        <time>2018-06-14T09:34:21Z</time>
      </trkpt>
      <trkpt lat="41.5440320" lon="2.0513580">
        <ele>208.6</ele>
        <time>2018-06-14T09:34:27Z</time>
      </trkpt>
      <trkpt lat="41.5440540" lon="2.0513480">
        <ele>207.0</ele>
        <time>2018-06-14T09:34:28Z</time>
      </trkpt>
      <trkpt lat="41.5441630" lon="2.0513240">
        <ele>206.4</ele>
        <time>2018-06-14T09:34:33Z</time>
      </trkpt>
      <trkpt lat="41.5443200" lon="2.0513140">
        <ele>207.6</ele>
        <time>2018-06-14T09:34:40Z</time>
      </trkpt>
      <trkpt lat="41.5443880" lon="2.0513090">
        <ele>208.6</ele>
        <time>2018-06-14T09:34:43Z</time>
      </trkpt>
      <trkpt lat="41.5444580" lon="2.0513020">
        <ele>209.2</ele>
        <time>2018-06-14T09:34:46Z</time>
      </trkpt>
      <trkpt lat="41.5445020" lon="2.0512950">
        <ele>209.6</ele>
        <time>2018-06-14T09:34:48Z</time>
      </trkpt>
      <trkpt lat="41.5445240" lon="2.0512900">
        <ele>209.6</ele>
        <time>2018-06-14T09:34:49Z</time>
      </trkpt>
      <trkpt lat="41.5446150" lon="2.0512610">
        <ele>210.0</ele>
        <time>2018-06-14T09:34:53Z</time>
      </trkpt>
      <trkpt lat="41.5446710" lon="2.0512260">
        <ele>210.6</ele>
        <time>2018-06-14T09:34:56Z</time>
      </trkpt>
      <trkpt lat="41.5447350" lon="2.0511940">
        <ele>211.6</ele>
        <time>2018-06-14T09:34:59Z</time>
      </trkpt>
      <trkpt lat="41.5447560" lon="2.0511820">
        <ele>211.6</ele>
        <time>2018-06-14T09:35:00Z</time>
      </trkpt>
      <trkpt lat="41.5448540" lon="2.0511180">
        <ele>212.6</ele>
        <time>2018-06-14T09:35:05Z</time>
      </trkpt>
      <trkpt lat="41.5448760" lon="2.0511100">
        <ele>212.8</ele>
        <time>2018-06-14T09:35:06Z</time>
      </trkpt>
      <trkpt lat="41.5449500" lon="2.0510690">
        <ele>213.6</ele>
        <time>2018-06-14T09:35:10Z</time>
      </trkpt>
      <trkpt lat="41.5449840" lon="2.0510560">
        <ele>214.4</ele>
        <time>2018-06-14T09:35:12Z</time>
      </trkpt>
      <trkpt lat="41.5450020" lon="2.0510460">
        <ele>214.8</ele>
        <time>2018-06-14T09:35:13Z</time>
      </trkpt>
      <trkpt lat="41.5450380" lon="2.0510290">
        <ele>215.0</ele>
        <time>2018-06-14T09:35:15Z</time>
      </trkpt>
      <trkpt lat="41.5450910" lon="2.0510000">
        <ele>216.0</ele>
        <time>2018-06-14T09:35:18Z</time>
      </trkpt>
      <trkpt lat="41.5451040" lon="2.0509890">
        <ele>216.2</ele>
        <time>2018-06-14T09:35:19Z</time>
      </trkpt>
      <trkpt lat="41.5452000" lon="2.0509540">
        <ele>217.0</ele>
        <time>2018-06-14T09:35:24Z</time>
      </trkpt>
      <trkpt lat="41.5453010" lon="2.0508830">
        <ele>218.4</ele>
        <time>2018-06-14T09:35:30Z</time>
      </trkpt>
      <trkpt lat="41.5453700" lon="2.0508340">
        <ele>219.0</ele>
        <time>2018-06-14T09:35:34Z</time>
      </trkpt>
      <trkpt lat="41.5453850" lon="2.0508200">
        <ele>219.4</ele>
        <time>2018-06-14T09:35:35Z</time>
      </trkpt>
      <trkpt lat="41.5454210" lon="2.0508000">
        <ele>220.0</ele>
        <time>2018-06-14T09:35:37Z</time>
      </trkpt>
      <trkpt lat="41.5454590" lon="2.0507820">
        <ele>220.6</ele>
        <time>2018-06-14T09:35:39Z</time>
      </trkpt>
      <trkpt lat="41.5454790" lon="2.0507750">
        <ele>220.6</ele>
        <time>2018-06-14T09:35:40Z</time>
      </trkpt>
      <trkpt lat="41.5455640" lon="2.0507400">
        <ele>221.2</ele>
        <time>2018-06-14T09:35:44Z</time>
      </trkpt>
      <trkpt lat="41.5456240" lon="2.0507160">
        <ele>221.6</ele>
        <time>2018-06-14T09:35:47Z</time>
      </trkpt>
      <trkpt lat="41.5456810" lon="2.0506860">
        <ele>222.0</ele>
        <time>2018-06-14T09:35:50Z</time>
      </trkpt>
      <trkpt lat="41.5457790" lon="2.0506250">
        <ele>222.6</ele>
        <time>2018-06-14T09:35:55Z</time>
      </trkpt>
      <trkpt lat="41.5458170" lon="2.0506110">
        <ele>223.0</ele>
        <time>2018-06-14T09:35:57Z</time>
      </trkpt>
      <trkpt lat="41.5458740" lon="2.0505890">
        <ele>223.8</ele>
        <time>2018-06-14T09:36:00Z</time>
      </trkpt>
      <trkpt lat="41.5459200" lon="2.0505830">
        <ele>224.0</ele>
        <time>2018-06-14T09:36:02Z</time>
      </trkpt>
      <trkpt lat="41.5460050" lon="2.0505640">
        <ele>224.8</ele>
        <time>2018-06-14T09:36:06Z</time>
      </trkpt>
      <trkpt lat="41.5460400" lon="2.0505450">
        <ele>224.6</ele>
        <time>2018-06-14T09:36:08Z</time>
      </trkpt>
      <trkpt lat="41.5461230" lon="2.0504650">
        <ele>224.8</ele>
        <time>2018-06-14T09:36:13Z</time>
      </trkpt>
      <trkpt lat="41.5461780" lon="2.0503430">
        <ele>224.6</ele>
        <time>2018-06-14T09:36:18Z</time>
      </trkpt>
      <trkpt lat="41.5461750" lon="2.0503140">
        <ele>224.8</ele>
        <time>2018-06-14T09:36:19Z</time>
      </trkpt>
      <trkpt lat="41.5461760" lon="2.0501140">
        <ele>225.6</ele>
        <time>2018-06-14T09:36:26Z</time>
      </trkpt>
      <trkpt lat="41.5461780" lon="2.0500870">
        <ele>225.6</ele>
        <time>2018-06-14T09:36:27Z</time>
      </trkpt>
      <trkpt lat="41.5461880" lon="2.0498780">
        <ele>225.8</ele>
        <time>2018-06-14T09:36:34Z</time>
      </trkpt>
      <trkpt lat="41.5461930" lon="2.0498210">
        <ele>225.8</ele>
        <time>2018-06-14T09:36:36Z</time>
      </trkpt>
      <trkpt lat="41.5462130" lon="2.0496940">
        <ele>225.8</ele>
        <time>2018-06-14T09:36:40Z</time>
      </trkpt>
      <trkpt lat="41.5462270" lon="2.0494810">
        <ele>226.0</ele>
        <time>2018-06-14T09:36:47Z</time>
      </trkpt>
      <trkpt lat="41.5462440" lon="2.0493130">
        <ele>226.0</ele>
        <time>2018-06-14T09:36:53Z</time>
      </trkpt>
      <trkpt lat="41.5463160" lon="2.0490840">
        <ele>226.4</ele>
        <time>2018-06-14T09:37:01Z</time>
      </trkpt>
      <trkpt lat="41.5463570" lon="2.0489330">
        <ele>226.6</ele>
        <time>2018-06-14T09:37:06Z</time>
      </trkpt>
      <trkpt lat="41.5463690" lon="2.0488740">
        <ele>226.6</ele>
        <time>2018-06-14T09:37:08Z</time>
      </trkpt>
      <trkpt lat="41.5463760" lon="2.0488430">
        <ele>226.6</ele>
        <time>2018-06-14T09:37:09Z</time>
      </trkpt>
      <trkpt lat="41.5463900" lon="2.0487550">
        <ele>226.8</ele>
        <time>2018-06-14T09:37:12Z</time>
      </trkpt>
      <trkpt lat="41.5464110" lon="2.0486660">
        <ele>227.0</ele>
        <time>2018-06-14T09:37:15Z</time>
      </trkpt>
      <trkpt lat="41.5464690" lon="2.0485050">
        <ele>227.2</ele>
        <time>2018-06-14T09:37:21Z</time>
      </trkpt>
      <trkpt lat="41.5465000" lon="2.0483940">
        <ele>227.4</ele>
        <time>2018-06-14T09:37:25Z</time>
      </trkpt>
      <trkpt lat="41.5465190" lon="2.0483440">
        <ele>227.6</ele>
        <time>2018-06-14T09:37:27Z</time>
      </trkpt>
      <trkpt lat="41.5465520" lon="2.0482710">
        <ele>227.8</ele>
        <time>2018-06-14T09:37:30Z</time>
      </trkpt>
      <trkpt lat="41.5465640" lon="2.0482490">
        <ele>227.8</ele>
        <time>2018-06-14T09:37:31Z</time>
      </trkpt>
      <trkpt lat="41.5465930" lon="2.0482090">
        <ele>228.0</ele>
        <time>2018-06-14T09:37:33Z</time>
      </trkpt>
      <trkpt lat="41.5466110" lon="2.0481900">
        <ele>228.0</ele>
        <time>2018-06-14T09:37:34Z</time>
      </trkpt>
      <trkpt lat="41.5466830" lon="2.0481330">
        <ele>228.2</ele>
        <time>2018-06-14T09:37:38Z</time>
      </trkpt>
      <trkpt lat="41.5467820" lon="2.0480170">
        <ele>228.6</ele>
        <time>2018-06-14T09:37:44Z</time>
      </trkpt>
      <trkpt lat="41.5468330" lon="2.0479570">
        <ele>228.8</ele>
        <time>2018-06-14T09:37:47Z</time>
      </trkpt>
      <trkpt lat="41.5468680" lon="2.0479090">
        <ele>229.0</ele>
        <time>2018-06-14T09:37:49Z</time>
      </trkpt>
      <trkpt lat="41.5469310" lon="2.0478100">
        <ele>229.4</ele>
        <time>2018-06-14T09:37:53Z</time>
      </trkpt>
      <trkpt lat="41.5470000" lon="2.0476690">
        <ele>229.8</ele>
        <time>2018-06-14T09:37:58Z</time>
      </trkpt>
      <trkpt lat="41.5470330" lon="2.0475790">
        <ele>230.0</ele>
        <time>2018-06-14T09:38:01Z</time>
      </trkpt>
      <trkpt lat="41.5470960" lon="2.0474710">
        <ele>230.4</ele>
        <time>2018-06-14T09:38:05Z</time>
      </trkpt>
      <trkpt lat="41.5471890" lon="2.0473170">
        <ele>230.8</ele>
        <time>2018-06-14T09:38:11Z</time>
      </trkpt>
      <trkpt lat="41.5472390" lon="2.0472450">
        <ele>231.0</ele>
        <time>2018-06-14T09:38:14Z</time>
      </trkpt>
      <trkpt lat="41.5473280" lon="2.0470920">
        <ele>231.6</ele>
        <time>2018-06-14T09:38:20Z</time>
      </trkpt>
      <trkpt lat="41.5473890" lon="2.0468770">
        <ele>232.2</ele>
        <time>2018-06-14T09:38:27Z</time>
      </trkpt>
      <trkpt lat="41.5473920" lon="2.0468430">
        <ele>232.2</ele>
        <time>2018-06-14T09:38:28Z</time>
      </trkpt>
      <trkpt lat="41.5474080" lon="2.0465790">
        <ele>232.8</ele>
        <time>2018-06-14T09:38:36Z</time>
      </trkpt>
      <trkpt lat="41.5474090" lon="2.0465470">
        <ele>233.0</ele>
        <time>2018-06-14T09:38:37Z</time>
      </trkpt>
      <trkpt lat="41.5474080" lon="2.0464870">
        <ele>233.2</ele>
        <time>2018-06-14T09:38:39Z</time>
      </trkpt>
      <trkpt lat="41.5474020" lon="2.0463620">
        <ele>233.4</ele>
        <time>2018-06-14T09:38:43Z</time>
      </trkpt>
      <trkpt lat="41.5473920" lon="2.0461840">
        <ele>234.0</ele>
        <time>2018-06-14T09:38:49Z</time>
      </trkpt>
      <trkpt lat="41.5473760" lon="2.0460980">
        <ele>234.2</ele>
        <time>2018-06-14T09:38:52Z</time>
      </trkpt>
      <trkpt lat="41.5473720" lon="2.0460390">
        <ele>234.4</ele>
        <time>2018-06-14T09:38:54Z</time>
      </trkpt>
      <trkpt lat="41.5474100" lon="2.0458350">
        <ele>235.0</ele>
        <time>2018-06-14T09:39:01Z</time>
      </trkpt>
      <trkpt lat="41.5474260" lon="2.0457750">
        <ele>235.2</ele>
        <time>2018-06-14T09:39:03Z</time>
      </trkpt>
      <trkpt lat="41.5474540" lon="2.0456940">
        <ele>235.6</ele>
        <time>2018-06-14T09:39:06Z</time>
      </trkpt>
      <trkpt lat="41.5475020" lon="2.0455960">
        <ele>236.0</ele>
        <time>2018-06-14T09:39:10Z</time>
      </trkpt>
      <trkpt lat="41.5475410" lon="2.0455230">
        <ele>236.2</ele>
        <time>2018-06-14T09:39:13Z</time>
      </trkpt>
      <trkpt lat="41.5475970" lon="2.0454330">
        <ele>236.8</ele>
        <time>2018-06-14T09:39:17Z</time>
      </trkpt>
      <trkpt lat="41.5476090" lon="2.0454100">
        <ele>236.8</ele>
        <time>2018-06-14T09:39:18Z</time>
      </trkpt>
      <trkpt lat="41.5476230" lon="2.0453860">
        <ele>237.0</ele>
        <time>2018-06-14T09:39:19Z</time>
      </trkpt>
      <trkpt lat="41.5476410" lon="2.0453630">
        <ele>237.0</ele>
        <time>2018-06-14T09:39:20Z</time>
      </trkpt>
      <trkpt lat="41.5476590" lon="2.0453420">
        <ele>237.2</ele>
        <time>2018-06-14T09:39:21Z</time>
      </trkpt>
      <trkpt lat="41.5476940" lon="2.0453010">
        <ele>237.4</ele>
        <time>2018-06-14T09:39:23Z</time>
      </trkpt>
      <trkpt lat="41.5477620" lon="2.0452190">
        <ele>237.8</ele>
        <time>2018-06-14T09:39:27Z</time>
      </trkpt>
      <trkpt lat="41.5478240" lon="2.0451680">
        <ele>238.2</ele>
        <time>2018-06-14T09:39:30Z</time>
      </trkpt>
      <trkpt lat="41.5478870" lon="2.0451200">
        <ele>238.4</ele>
        <time>2018-06-14T09:39:33Z</time>
      </trkpt>
      <trkpt lat="41.5479740" lon="2.0450630">
        <ele>238.8</ele>
        <time>2018-06-14T09:39:37Z</time>
      </trkpt>
      <trkpt lat="41.5479900" lon="2.0450510">
        <ele>238.8</ele>
        <time>2018-06-14T09:39:38Z</time>
      </trkpt>
      <trkpt lat="41.5480970" lon="2.0449850">
        <ele>243.8</ele>
        <time>2018-06-14T09:39:43Z</time>
      </trkpt>
      <trkpt lat="41.5481190" lon="2.0449720">
        <ele>246.0</ele>
        <time>2018-06-14T09:39:44Z</time>
      </trkpt>
      <trkpt lat="41.5481420" lon="2.0449600">
        <ele>247.2</ele>
        <time>2018-06-14T09:39:45Z</time>
      </trkpt>
      <trkpt lat="41.5482330" lon="2.0449090">
        <ele>248.2</ele>
        <time>2018-06-14T09:39:49Z</time>
      </trkpt>
      <trkpt lat="41.5483030" lon="2.0448650">
        <ele>249.0</ele>
        <time>2018-06-14T09:39:52Z</time>
      </trkpt>
      <trkpt lat="41.5484870" lon="2.0447860">
        <ele>249.0</ele>
        <time>2018-06-14T09:39:59Z</time>
      </trkpt>
      <trkpt lat="41.5486720" lon="2.0447170">
        <ele>248.8</ele>
        <time>2018-06-14T09:40:06Z</time>
      </trkpt>
      <trkpt lat="41.5486950" lon="2.0447080">
        <ele>248.8</ele>
        <time>2018-06-14T09:40:07Z</time>
      </trkpt>
      <trkpt lat="41.5488280" lon="2.0446520">
        <ele>249.0</ele>
        <time>2018-06-14T09:40:13Z</time>
      </trkpt>
      <trkpt lat="41.5488730" lon="2.0446380">
        <ele>249.2</ele>
        <time>2018-06-14T09:40:15Z</time>
      </trkpt>
      <trkpt lat="41.5490030" lon="2.0446020">
        <ele>250.2</ele>
        <time>2018-06-14T09:40:20Z</time>
      </trkpt>
      <trkpt lat="41.5490520" lon="2.0445910">
        <ele>250.4</ele>
        <time>2018-06-14T09:40:22Z</time>
      </trkpt>
      <trkpt lat="41.5491720" lon="2.0445610">
        <ele>251.2</ele>
        <time>2018-06-14T09:40:27Z</time>
      </trkpt>
      <trkpt lat="41.5492180" lon="2.0445360">
        <ele>251.4</ele>
        <time>2018-06-14T09:40:29Z</time>
      </trkpt>
      <trkpt lat="41.5493550" lon="2.0444300">
        <ele>251.4</ele>
        <time>2018-06-14T09:40:35Z</time>
      </trkpt>
      <trkpt lat="41.5494870" lon="2.0443290">
        <ele>251.6</ele>
        <time>2018-06-14T09:40:41Z</time>
      </trkpt>
      <trkpt lat="41.5496020" lon="2.0442430">
        <ele>251.6</ele>
        <time>2018-06-14T09:40:46Z</time>
      </trkpt>
      <trkpt lat="41.5496270" lon="2.0442230">
        <ele>251.4</ele>
        <time>2018-06-14T09:40:47Z</time>
      </trkpt>
      <trkpt lat="41.5497860" lon="2.0441190">
        <ele>250.4</ele>
        <time>2018-06-14T09:40:54Z</time>
      </trkpt>
      <trkpt lat="41.5498070" lon="2.0441070">
        <ele>250.4</ele>
        <time>2018-06-14T09:40:55Z</time>
      </trkpt>
      <trkpt lat="41.5499010" lon="2.0440420">
        <ele>250.2</ele>
        <time>2018-06-14T09:40:59Z</time>
      </trkpt>
      <trkpt lat="41.5500310" lon="2.0439540">
        <ele>249.6</ele>
        <time>2018-06-14T09:41:04Z</time>
      </trkpt>
      <trkpt lat="41.5501080" lon="2.0438950">
        <ele>249.4</ele>
        <time>2018-06-14T09:41:07Z</time>
      </trkpt>
      <trkpt lat="41.5501670" lon="2.0438160">
        <ele>249.0</ele>
        <time>2018-06-14T09:41:10Z</time>
      </trkpt>
      <trkpt lat="41.5502720" lon="2.0436320">
        <ele>248.8</ele>
        <time>2018-06-14T09:41:16Z</time>
      </trkpt>
      <trkpt lat="41.5503080" lon="2.0435840">
        <ele>248.2</ele>
        <time>2018-06-14T09:41:18Z</time>
      </trkpt>
      <trkpt lat="41.5503650" lon="2.0435160">
        <ele>247.6</ele>
        <time>2018-06-14T09:41:21Z</time>
      </trkpt>
      <trkpt lat="41.5505190" lon="2.0434240">
        <ele>249.2</ele>
        <time>2018-06-14T09:41:28Z</time>
      </trkpt>
      <trkpt lat="41.5505460" lon="2.0434170">
        <ele>249.2</ele>
        <time>2018-06-14T09:41:29Z</time>
      </trkpt>
      <trkpt lat="41.5506420" lon="2.0433840">
        <ele>249.0</ele>
        <time>2018-06-14T09:41:33Z</time>
      </trkpt>
      <trkpt lat="41.5507960" lon="2.0433520">
        <ele>249.2</ele>
        <time>2018-06-14T09:41:39Z</time>
      </trkpt>
      <trkpt lat="41.5508850" lon="2.0433270">
        <ele>250.4</ele>
        <time>2018-06-14T09:41:43Z</time>
      </trkpt>
      <trkpt lat="41.5509340" lon="2.0433060">
        <ele>250.4</ele>
        <time>2018-06-14T09:41:45Z</time>
      </trkpt>
      <trkpt lat="41.5510520" lon="2.0432500">
        <ele>250.4</ele>
        <time>2018-06-14T09:41:50Z</time>
      </trkpt>
      <trkpt lat="41.5511830" lon="2.0431730">
        <ele>251.4</ele>
        <time>2018-06-14T09:41:56Z</time>
      </trkpt>
      <trkpt lat="41.5512290" lon="2.0431490">
        <ele>251.6</ele>
        <time>2018-06-14T09:41:58Z</time>
      </trkpt>
      <trkpt lat="41.5514100" lon="2.0430660">
        <ele>251.4</ele>
        <time>2018-06-14T09:42:06Z</time>
      </trkpt>
      <trkpt lat="41.5515070" lon="2.0430440">
        <ele>252.4</ele>
        <time>2018-06-14T09:42:10Z</time>
      </trkpt>
      <trkpt lat="41.5515790" lon="2.0430550">
        <ele>253.0</ele>
        <time>2018-06-14T09:42:13Z</time>
      </trkpt>
      <trkpt lat="41.5516560" lon="2.0431130">
        <ele>253.0</ele>
        <time>2018-06-14T09:42:17Z</time>
      </trkpt>
      <trkpt lat="41.5516970" lon="2.0431510">
        <ele>253.4</ele>
        <time>2018-06-14T09:42:19Z</time>
      </trkpt>
      <trkpt lat="41.5517710" lon="2.0432180">
        <ele>254.2</ele>
        <time>2018-06-14T09:42:23Z</time>
      </trkpt>
      <trkpt lat="41.5518110" lon="2.0432480">
        <ele>254.4</ele>
        <time>2018-06-14T09:42:25Z</time>
      </trkpt>
      <trkpt lat="41.5518500" lon="2.0432830">
        <ele>254.6</ele>
        <time>2018-06-14T09:42:27Z</time>
      </trkpt>
      <trkpt lat="41.5518670" lon="2.0433000">
        <ele>254.6</ele>
        <time>2018-06-14T09:42:28Z</time>
      </trkpt>
      <trkpt lat="41.5519410" lon="2.0433650">
        <ele>254.8</ele>
        <time>2018-06-14T09:42:32Z</time>
      </trkpt>
      <trkpt lat="41.5519970" lon="2.0434050">
        <ele>255.6</ele>
        <time>2018-06-14T09:42:35Z</time>
      </trkpt>
      <trkpt lat="41.5520330" lon="2.0434310">
        <ele>256.2</ele>
        <time>2018-06-14T09:42:37Z</time>
      </trkpt>
      <trkpt lat="41.5520860" lon="2.0434630">
        <ele>256.8</ele>
        <time>2018-06-14T09:42:40Z</time>
      </trkpt>
      <trkpt lat="41.5521280" lon="2.0434750">
        <ele>257.8</ele>
        <time>2018-06-14T09:42:42Z</time>
      </trkpt>
      <trkpt lat="41.5521510" lon="2.0434790">
        <ele>258.2</ele>
        <time>2018-06-14T09:42:43Z</time>
      </trkpt>
      <trkpt lat="41.5522450" lon="2.0434960">
        <ele>259.4</ele>
        <time>2018-06-14T09:42:47Z</time>
      </trkpt>
      <trkpt lat="41.5523250" lon="2.0435070">
        <ele>259.4</ele>
        <time>2018-06-14T09:42:50Z</time>
      </trkpt>
      <trkpt lat="41.5524640" lon="2.0435490">
        <ele>258.6</ele>
        <time>2018-06-14T09:42:55Z</time>
      </trkpt>
      <trkpt lat="41.5526000" lon="2.0435990">
        <ele>258.4</ele>
        <time>2018-06-14T09:43:00Z</time>
      </trkpt>
      <trkpt lat="41.5526550" lon="2.0436280">
        <ele>258.2</ele>
        <time>2018-06-14T09:43:02Z</time>
      </trkpt>
      <trkpt lat="41.5527370" lon="2.0436540">
        <ele>258.2</ele>
        <time>2018-06-14T09:43:05Z</time>
      </trkpt>
      <trkpt lat="41.5528860" lon="2.0436770">
        <ele>258.4</ele>
        <time>2018-06-14T09:43:11Z</time>
      </trkpt>
      <trkpt lat="41.5530340" lon="2.0436790">
        <ele>258.2</ele>
        <time>2018-06-14T09:43:17Z</time>
      </trkpt>
      <trkpt lat="41.5531680" lon="2.0436790">
        <ele>259.0</ele>
        <time>2018-06-14T09:43:22Z</time>
      </trkpt>
      <trkpt lat="41.5532950" lon="2.0436960">
        <ele>258.4</ele>
        <time>2018-06-14T09:43:27Z</time>
      </trkpt>
      <trkpt lat="41.5534810" lon="2.0437060">
        <ele>258.0</ele>
        <time>2018-06-14T09:43:34Z</time>
      </trkpt>
      <trkpt lat="41.5536280" lon="2.0437110">
        <ele>258.8</ele>
        <time>2018-06-14T09:43:40Z</time>
      </trkpt>
      <trkpt lat="41.5537460" lon="2.0436960">
        <ele>258.2</ele>
        <time>2018-06-14T09:43:45Z</time>
      </trkpt>
      <trkpt lat="41.5538590" lon="2.0436690">
        <ele>259.2</ele>
        <time>2018-06-14T09:43:50Z</time>
      </trkpt>
      <trkpt lat="41.5538820" lon="2.0436580">
        <ele>259.4</ele>
        <time>2018-06-14T09:43:51Z</time>
      </trkpt>
      <trkpt lat="41.5540290" lon="2.0436210">
        <ele>259.4</ele>
        <time>2018-06-14T09:43:57Z</time>
      </trkpt>
      <trkpt lat="41.5541570" lon="2.0436030">
        <ele>259.6</ele>
        <time>2018-06-14T09:44:02Z</time>
      </trkpt>
      <trkpt lat="41.5542080" lon="2.0435840">
        <ele>259.6</ele>
        <time>2018-06-14T09:44:04Z</time>
      </trkpt>
      <trkpt lat="41.5543120" lon="2.0435440">
        <ele>259.8</ele>
        <time>2018-06-14T09:44:08Z</time>
      </trkpt>
      <trkpt lat="41.5544540" lon="2.0434660">
        <ele>258.6</ele>
        <time>2018-06-14T09:44:14Z</time>
      </trkpt>
      <trkpt lat="41.5544790" lon="2.0434460">
        <ele>258.0</ele>
        <time>2018-06-14T09:44:15Z</time>
      </trkpt>
      <trkpt lat="41.5545830" lon="2.0433240">
        <ele>257.4</ele>
        <time>2018-06-14T09:44:20Z</time>
      </trkpt>
      <trkpt lat="41.5546570" lon="2.0431850">
        <ele>256.6</ele>
        <time>2018-06-14T09:44:25Z</time>
      </trkpt>
      <trkpt lat="41.5546720" lon="2.0431600">
        <ele>256.6</ele>
        <time>2018-06-14T09:44:26Z</time>
      </trkpt>
      <trkpt lat="41.5547690" lon="2.0430540">
        <ele>256.4</ele>
        <time>2018-06-14T09:44:31Z</time>
      </trkpt>
      <trkpt lat="41.5548820" lon="2.0429740">
        <ele>256.4</ele>
        <time>2018-06-14T09:44:36Z</time>
      </trkpt>
      <trkpt lat="41.5550140" lon="2.0428550">
        <ele>256.6</ele>
        <time>2018-06-14T09:44:42Z</time>
      </trkpt>
      <trkpt lat="41.5551650" lon="2.0427720">
        <ele>256.2</ele>
        <time>2018-06-14T09:44:48Z</time>
      </trkpt>
      <trkpt lat="41.5553340" lon="2.0427150">
        <ele>256.4</ele>
        <time>2018-06-14T09:44:54Z</time>
      </trkpt>
      <trkpt lat="41.5554830" lon="2.0426380">
        <ele>256.6</ele>
        <time>2018-06-14T09:45:00Z</time>
      </trkpt>
      <trkpt lat="41.5556580" lon="2.0425150">
        <ele>256.8</ele>
        <time>2018-06-14T09:45:07Z</time>
      </trkpt>
      <trkpt lat="41.5558520" lon="2.0424130">
        <ele>256.2</ele>
        <time>2018-06-14T09:45:14Z</time>
      </trkpt>
      <trkpt lat="41.5559850" lon="2.0423860">
        <ele>255.8</ele>
        <time>2018-06-14T09:45:19Z</time>
      </trkpt>
      <trkpt lat="41.5560340" lon="2.0424140">
        <ele>256.2</ele>
        <time>2018-06-14T09:45:22Z</time>
      </trkpt>
      <trkpt lat="41.5560580" lon="2.0424640">
        <ele>256.2</ele>
        <time>2018-06-14T09:45:24Z</time>
      </trkpt>
      <trkpt lat="41.5560920" lon="2.0426320">
        <ele>256.2</ele>
        <time>2018-06-14T09:45:29Z</time>
      </trkpt>
      <trkpt lat="41.5561460" lon="2.0428510">
        <ele>256.4</ele>
        <time>2018-06-14T09:45:35Z</time>
      </trkpt>
      <trkpt lat="41.5561980" lon="2.0430590">
        <ele>256.8</ele>
        <time>2018-06-14T09:45:41Z</time>
      </trkpt>
      <trkpt lat="41.5562370" lon="2.0432130">
        <ele>257.0</ele>
        <time>2018-06-14T09:45:46Z</time>
      </trkpt>
      <trkpt lat="41.5562920" lon="2.0433570">
        <ele>257.0</ele>
        <time>2018-06-14T09:45:51Z</time>
      </trkpt>
      <trkpt lat="41.5563510" lon="2.0434560">
        <ele>257.8</ele>
        <time>2018-06-14T09:45:55Z</time>
      </trkpt>
      <trkpt lat="41.5563600" lon="2.0434790">
        <ele>258.0</ele>
        <time>2018-06-14T09:45:56Z</time>
      </trkpt>
      <trkpt lat="41.5563810" lon="2.0435660">
        <ele>258.0</ele>
        <time>2018-06-14T09:45:59Z</time>
      </trkpt>
      <trkpt lat="41.5563860" lon="2.0436400">
        <ele>257.4</ele>
        <time>2018-06-14T09:46:01Z</time>
      </trkpt>
      <trkpt lat="41.5563770" lon="2.0437140">
        <ele>256.8</ele>
        <time>2018-06-14T09:46:03Z</time>
      </trkpt>
      <trkpt lat="41.5562890" lon="2.0438870">
        <ele>257.8</ele>
        <time>2018-06-14T09:46:09Z</time>
      </trkpt>
      <trkpt lat="41.5561620" lon="2.0440240">
        <ele>258.0</ele>
        <time>2018-06-14T09:46:15Z</time>
      </trkpt>
      <trkpt lat="41.5561250" lon="2.0442000">
        <ele>259.0</ele>
        <time>2018-06-14T09:46:20Z</time>
      </trkpt>
      <trkpt lat="41.5561490" lon="2.0443300">
        <ele>260.0</ele>
        <time>2018-06-14T09:46:24Z</time>
      </trkpt>
      <trkpt lat="41.5562400" lon="2.0444590">
        <ele>260.0</ele>
        <time>2018-06-14T09:46:29Z</time>
      </trkpt>
      <trkpt lat="41.5563370" lon="2.0445180">
        <ele>260.6</ele>
        <time>2018-06-14T09:46:33Z</time>
      </trkpt>
      <trkpt lat="41.5563640" lon="2.0445270">
        <ele>261.2</ele>
        <time>2018-06-14T09:46:34Z</time>
      </trkpt>
      <trkpt lat="41.5564160" lon="2.0445520">
        <ele>261.6</ele>
        <time>2018-06-14T09:46:36Z</time>
      </trkpt>
      <trkpt lat="41.5564700" lon="2.0445650">
        <ele>261.8</ele>
        <time>2018-06-14T09:46:38Z</time>
      </trkpt>
      <trkpt lat="41.5566640" lon="2.0445700">
        <ele>261.8</ele>
        <time>2018-06-14T09:46:45Z</time>
      </trkpt>
      <trkpt lat="41.5566880" lon="2.0445650">
        <ele>262.0</ele>
        <time>2018-06-14T09:46:46Z</time>
      </trkpt>
      <trkpt lat="41.5567140" lon="2.0445570">
        <ele>262.2</ele>
        <time>2018-06-14T09:46:47Z</time>
      </trkpt>
      <trkpt lat="41.5568360" lon="2.0445090">
        <ele>262.4</ele>
        <time>2018-06-14T09:46:52Z</time>
      </trkpt>
      <trkpt lat="41.5569470" lon="2.0443580">
        <ele>262.8</ele>
        <time>2018-06-14T09:46:58Z</time>
      </trkpt>
      <trkpt lat="41.5569610" lon="2.0441580">
        <ele>262.6</ele>
        <time>2018-06-14T09:47:03Z</time>
      </trkpt>
      <trkpt lat="41.5568900" lon="2.0439090">
        <ele>262.0</ele>
        <time>2018-06-14T09:47:10Z</time>
      </trkpt>
      <trkpt lat="41.5568770" lon="2.0436680">
        <ele>261.0</ele>
        <time>2018-06-14T09:47:16Z</time>
      </trkpt>
      <trkpt lat="41.5568700" lon="2.0436320">
        <ele>261.2</ele>
        <time>2018-06-14T09:47:17Z</time>
      </trkpt>
      <trkpt lat="41.5568050" lon="2.0433950">
        <ele>260.0</ele>
        <time>2018-06-14T09:47:24Z</time>
      </trkpt>
      <trkpt lat="41.5568030" lon="2.0433650">
        <ele>259.6</ele>
        <time>2018-06-14T09:47:25Z</time>
      </trkpt>
      <trkpt lat="41.5567980" lon="2.0431270">
        <ele>259.2</ele>
        <time>2018-06-14T09:47:32Z</time>
      </trkpt>
      <trkpt lat="41.5568230" lon="2.0428780">
        <ele>259.0</ele>
        <time>2018-06-14T09:47:39Z</time>
      </trkpt>
      <trkpt lat="41.5568370" lon="2.0428150">
        <ele>259.0</ele>
        <time>2018-06-14T09:47:41Z</time>
      </trkpt>
      <trkpt lat="41.5568770" lon="2.0425650">
        <ele>258.8</ele>
        <time>2018-06-14T09:47:48Z</time>
      </trkpt>
      <trkpt lat="41.5568830" lon="2.0425290">
        <ele>258.4</ele>
        <time>2018-06-14T09:47:49Z</time>
      </trkpt>
      <trkpt lat="41.5569160" lon="2.0423200">
        <ele>259.0</ele>
        <time>2018-06-14T09:47:55Z</time>
      </trkpt>
      <trkpt lat="41.5569490" lon="2.0420880">
        <ele>259.0</ele>
        <time>2018-06-14T09:48:02Z</time>
      </trkpt>
      <trkpt lat="41.5569630" lon="2.0419990">
        <ele>259.4</ele>
        <time>2018-06-14T09:48:05Z</time>
      </trkpt>
      <trkpt lat="41.5569750" lon="2.0418680">
        <ele>259.6</ele>
        <time>2018-06-14T09:48:09Z</time>
      </trkpt>
      <trkpt lat="41.5569880" lon="2.0416510">
        <ele>259.4</ele>
        <time>2018-06-14T09:48:16Z</time>
      </trkpt>
      <trkpt lat="41.5570090" lon="2.0415140">
        <ele>258.2</ele>
        <time>2018-06-14T09:48:21Z</time>
      </trkpt>
      <trkpt lat="41.5570260" lon="2.0414550">
        <ele>257.8</ele>
        <time>2018-06-14T09:48:23Z</time>
      </trkpt>
      <trkpt lat="41.5570720" lon="2.0412110">
        <ele>257.6</ele>
        <time>2018-06-14T09:48:30Z</time>
      </trkpt>
      <trkpt lat="41.5570960" lon="2.0411350">
        <ele>257.2</ele>
        <time>2018-06-14T09:48:32Z</time>
      </trkpt>
      <trkpt lat="41.5571040" lon="2.0411030">
        <ele>257.0</ele>
        <time>2018-06-14T09:48:33Z</time>
      </trkpt>
      <trkpt lat="41.5571210" lon="2.0410340">
        <ele>256.4</ele>
        <time>2018-06-14T09:48:35Z</time>
      </trkpt>
      <trkpt lat="41.5571230" lon="2.0409840">
        <ele>256.2</ele>
        <time>2018-06-14T09:48:37Z</time>
      </trkpt>
      <trkpt lat="41.5571230" lon="2.0409760">
        <ele>256.2</ele>
        <time>2018-06-14T09:48:38Z</time>
      </trkpt>
      <trkpt lat="41.5571740" lon="2.0409740">
        <ele>256.6</ele>
        <time>2018-06-14T09:48:42Z</time>
      </trkpt>
      <trkpt lat="41.5572630" lon="2.0409590">
        <ele>258.2</ele>
        <time>2018-06-14T09:48:47Z</time>
      </trkpt>
      <trkpt lat="41.5572950" lon="2.0409410">
        <ele>258.6</ele>
        <time>2018-06-14T09:48:49Z</time>
      </trkpt>
      <trkpt lat="41.5573850" lon="2.0409190">
        <ele>259.2</ele>
        <time>2018-06-14T09:48:54Z</time>
      </trkpt>
      <trkpt lat="41.5574010" lon="2.0409160">
        <ele>259.2</ele>
        <time>2018-06-14T09:48:55Z</time>
      </trkpt>
      <trkpt lat="41.5574920" lon="2.0409210">
        <ele>260.4</ele>
        <time>2018-06-14T09:49:00Z</time>
      </trkpt>
      <trkpt lat="41.5575130" lon="2.0409250">
        <ele>261.0</ele>
        <time>2018-06-14T09:49:01Z</time>
      </trkpt>
      <trkpt lat="41.5575640" lon="2.0409270">
        <ele>261.6</ele>
        <time>2018-06-14T09:49:03Z</time>
      </trkpt>
      <trkpt lat="41.5576600" lon="2.0409450">
        <ele>261.8</ele>
        <time>2018-06-14T09:49:08Z</time>
      </trkpt>
      <trkpt lat="41.5577990" lon="2.0409370">
        <ele>262.6</ele>
        <time>2018-06-14T09:49:14Z</time>
      </trkpt>
      <trkpt lat="41.5578220" lon="2.0409190">
        <ele>263.0</ele>
        <time>2018-06-14T09:49:15Z</time>
      </trkpt>
      <trkpt lat="41.5579150" lon="2.0409200">
        <ele>263.4</ele>
        <time>2018-06-14T09:49:20Z</time>
      </trkpt>
      <trkpt lat="41.5579780" lon="2.0409210">
        <ele>264.0</ele>
        <time>2018-06-14T09:49:23Z</time>
      </trkpt>
      <trkpt lat="41.5580520" lon="2.0409090">
        <ele>265.0</ele>
        <time>2018-06-14T09:49:26Z</time>
      </trkpt>
      <trkpt lat="41.5582020" lon="2.0409120">
        <ele>266.0</ele>
        <time>2018-06-14T09:49:33Z</time>
      </trkpt>
      <trkpt lat="41.5583520" lon="2.0409460">
        <ele>266.6</ele>
        <time>2018-06-14T09:49:39Z</time>
      </trkpt>
      <trkpt lat="41.5584430" lon="2.0409660">
        <ele>267.2</ele>
        <time>2018-06-14T09:49:43Z</time>
      </trkpt>
      <trkpt lat="41.5584890" lon="2.0409760">
        <ele>267.8</ele>
        <time>2018-06-14T09:49:45Z</time>
      </trkpt>
      <trkpt lat="41.5585560" lon="2.0409820">
        <ele>268.0</ele>
        <time>2018-06-14T09:49:48Z</time>
      </trkpt>
      <trkpt lat="41.5585770" lon="2.0409860">
        <ele>268.4</ele>
        <time>2018-06-14T09:49:49Z</time>
      </trkpt>
      <trkpt lat="41.5586210" lon="2.0410030">
        <ele>268.6</ele>
        <time>2018-06-14T09:49:51Z</time>
      </trkpt>
      <trkpt lat="41.5587290" lon="2.0410260">
        <ele>269.0</ele>
        <time>2018-06-14T09:49:56Z</time>
      </trkpt>
      <trkpt lat="41.5587500" lon="2.0410260">
        <ele>269.4</ele>
        <time>2018-06-14T09:49:57Z</time>
      </trkpt>
      <trkpt lat="41.5588800" lon="2.0410460">
        <ele>270.0</ele>
        <time>2018-06-14T09:50:02Z</time>
      </trkpt>
      <trkpt lat="41.5589820" lon="2.0410280">
        <ele>270.6</ele>
        <time>2018-06-14T09:50:07Z</time>
      </trkpt>
      <trkpt lat="41.5590040" lon="2.0410300">
        <ele>270.6</ele>
        <time>2018-06-14T09:50:08Z</time>
      </trkpt>
      <trkpt lat="41.5591450" lon="2.0410210">
        <ele>270.8</ele>
        <time>2018-06-14T09:50:14Z</time>
      </trkpt>
      <trkpt lat="41.5592800" lon="2.0410330">
        <ele>271.6</ele>
        <time>2018-06-14T09:50:19Z</time>
      </trkpt>
      <trkpt lat="41.5594350" lon="2.0410230">
        <ele>272.2</ele>
        <time>2018-06-14T09:50:25Z</time>
      </trkpt>
      <trkpt lat="41.5596030" lon="2.0409950">
        <ele>272.0</ele>
        <time>2018-06-14T09:50:31Z</time>
      </trkpt>
      <trkpt lat="41.5597300" lon="2.0409810">
        <ele>272.8</ele>
        <time>2018-06-14T09:50:36Z</time>
      </trkpt>
      <trkpt lat="41.5597520" lon="2.0409770">
        <ele>272.8</ele>
        <time>2018-06-14T09:50:37Z</time>
      </trkpt>
      <trkpt lat="41.5599030" lon="2.0409540">
        <ele>274.0</ele>
        <time>2018-06-14T09:50:43Z</time>
      </trkpt>
      <trkpt lat="41.5600360" lon="2.0409710">
        <ele>274.6</ele>
        <time>2018-06-14T09:50:49Z</time>
      </trkpt>
      <trkpt lat="41.5602480" lon="2.0409830">
        <ele>275.2</ele>
        <time>2018-06-14T09:50:58Z</time>
      </trkpt>
      <trkpt lat="41.5602970" lon="2.0409640">
        <ele>275.4</ele>
        <time>2018-06-14T09:51:02Z</time>
      </trkpt>
      <trkpt lat="41.5603330" lon="2.0409400">
        <ele>275.4</ele>
        <time>2018-06-14T09:51:04Z</time>
      </trkpt>
      <trkpt lat="41.5604260" lon="2.0408810">
        <ele>275.4</ele>
        <time>2018-06-14T09:51:08Z</time>
      </trkpt>
      <trkpt lat="41.5604830" lon="2.0408850">
        <ele>275.4</ele>
        <time>2018-06-14T09:51:10Z</time>
      </trkpt>
      <trkpt lat="41.5606200" lon="2.0409120">
        <ele>275.4</ele>
        <time>2018-06-14T09:51:15Z</time>
      </trkpt>
      <trkpt lat="41.5607830" lon="2.0409070">
        <ele>275.4</ele>
        <time>2018-06-14T09:51:21Z</time>
      </trkpt>
      <trkpt lat="41.5609020" lon="2.0409180">
        <ele>276.0</ele>
        <time>2018-06-14T09:51:26Z</time>
      </trkpt>
      <trkpt lat="41.5610220" lon="2.0409080">
        <ele>276.2</ele>
        <time>2018-06-14T09:51:32Z</time>
      </trkpt>
      <trkpt lat="41.5611630" lon="2.0409090">
        <ele>276.2</ele>
        <time>2018-06-14T09:51:37Z</time>
      </trkpt>
      <trkpt lat="41.5613530" lon="2.0409140">
        <ele>275.8</ele>
        <time>2018-06-14T09:51:45Z</time>
      </trkpt>
      <trkpt lat="41.5614440" lon="2.0409180">
        <ele>276.6</ele>
        <time>2018-06-14T09:51:48Z</time>
      </trkpt>
      <trkpt lat="41.5615410" lon="2.0409100">
        <ele>276.8</ele>
        <time>2018-06-14T09:51:51Z</time>
      </trkpt>
      <trkpt lat="41.5617050" lon="2.0408960">
        <ele>276.6</ele>
        <time>2018-06-14T09:51:57Z</time>
      </trkpt>
      <trkpt lat="41.5619150" lon="2.0408940">
        <ele>276.2</ele>
        <time>2018-06-14T09:52:04Z</time>
      </trkpt>
      <trkpt lat="41.5621130" lon="2.0408860">
        <ele>276.6</ele>
        <time>2018-06-14T09:52:11Z</time>
      </trkpt>
      <trkpt lat="41.5619050" lon="2.0407850">
        <ele>276.8</ele>
        <time>2018-06-14T10:13:54Z</time>
      </trkpt>
      <trkpt lat="41.5619050" lon="2.0407840">
        <ele>276.8</ele>
        <time>2018-06-14T10:13:55Z</time>
      </trkpt>
      <trkpt lat="41.5619060" lon="2.0407860">
        <ele>276.8</ele>
        <time>2018-06-14T10:13:56Z</time>
      </trkpt>
      <trkpt lat="41.5619810" lon="2.0408790">
        <ele>276.6</ele>
        <time>2018-06-14T10:14:01Z</time>
      </trkpt>
      <trkpt lat="41.5621030" lon="2.0410280">
        <ele>276.4</ele>
        <time>2018-06-14T10:14:07Z</time>
      </trkpt>
      <trkpt lat="41.5621330" lon="2.0410610">
        <ele>276.6</ele>
        <time>2018-06-14T10:14:09Z</time>
      </trkpt>
      <trkpt lat="41.5621420" lon="2.0410600">
        <ele>276.6</ele>
        <time>2018-06-14T10:14:10Z</time>
      </trkpt>
      <trkpt lat="41.5621450" lon="2.0410600">
        <ele>276.6</ele>
        <time>2018-06-14T10:14:11Z</time>
      </trkpt>
      <trkpt lat="41.5621600" lon="2.0410740">
        <ele>276.4</ele>
        <time>2018-06-14T10:14:13Z</time>
      </trkpt>
      <trkpt lat="41.5621870" lon="2.0411000">
        <ele>276.4</ele>
        <time>2018-06-14T10:14:15Z</time>
      </trkpt>
      <trkpt lat="41.5622020" lon="2.0411180">
        <ele>276.2</ele>
        <time>2018-06-14T10:14:16Z</time>
      </trkpt>
      <trkpt lat="41.5622760" lon="2.0412340">
        <ele>276.0</ele>
        <time>2018-06-14T10:14:20Z</time>
      </trkpt>
      <trkpt lat="41.5623150" lon="2.0412870">
        <ele>275.8</ele>
        <time>2018-06-14T10:14:22Z</time>
      </trkpt>
      <trkpt lat="41.5623520" lon="2.0413330">
        <ele>275.8</ele>
        <time>2018-06-14T10:14:24Z</time>
      </trkpt>
      <trkpt lat="41.5623880" lon="2.0413810">
        <ele>275.6</ele>
        <time>2018-06-14T10:14:26Z</time>
      </trkpt>
      <trkpt lat="41.5624970" lon="2.0414890">
        <ele>275.8</ele>
        <time>2018-06-14T10:14:31Z</time>
      </trkpt>
      <trkpt lat="41.5625230" lon="2.0415110">
        <ele>275.4</ele>
        <time>2018-06-14T10:14:32Z</time>
      </trkpt>
      <trkpt lat="41.5626080" lon="2.0415980">
        <ele>275.6</ele>
        <time>2018-06-14T10:14:36Z</time>
      </trkpt>
      <trkpt lat="41.5626550" lon="2.0416290">
        <ele>275.8</ele>
        <time>2018-06-14T10:14:38Z</time>
      </trkpt>
      <trkpt lat="41.5627270" lon="2.0416560">
        <ele>276.0</ele>
        <time>2018-06-14T10:14:41Z</time>
      </trkpt>
      <trkpt lat="41.5627930" lon="2.0416700">
        <ele>275.8</ele>
        <time>2018-06-14T10:14:44Z</time>
      </trkpt>
      <trkpt lat="41.5628240" lon="2.0417380">
        <ele>276.4</ele>
        <time>2018-06-14T10:14:47Z</time>
      </trkpt>
      <trkpt lat="41.5628360" lon="2.0417580">
        <ele>276.6</ele>
        <time>2018-06-14T10:14:48Z</time>
      </trkpt>
      <trkpt lat="41.5629290" lon="2.0418580">
        <ele>277.0</ele>
        <time>2018-06-14T10:14:54Z</time>
      </trkpt>
      <trkpt lat="41.5629780" lon="2.0419050">
        <ele>277.0</ele>
        <time>2018-06-14T10:14:57Z</time>
      </trkpt>
      <trkpt lat="41.5629960" lon="2.0419180">
        <ele>277.2</ele>
        <time>2018-06-14T10:14:58Z</time>
      </trkpt>
      <trkpt lat="41.5630110" lon="2.0419340">
        <ele>277.4</ele>
        <time>2018-06-14T10:14:59Z</time>
      </trkpt>
      <trkpt lat="41.5630350" lon="2.0419560">
        <ele>277.8</ele>
        <time>2018-06-14T10:15:01Z</time>
      </trkpt>
      <trkpt lat="41.5630650" lon="2.0419280">
        <ele>278.0</ele>
        <time>2018-06-14T10:15:03Z</time>
      </trkpt>
      <trkpt lat="41.5631560" lon="2.0418770">
        <ele>278.6</ele>
        <time>2018-06-14T10:15:07Z</time>
      </trkpt>
      <trkpt lat="41.5631950" lon="2.0418650">
        <ele>278.4</ele>
        <time>2018-06-14T10:15:08Z</time>
      </trkpt>
      <trkpt lat="41.5633720" lon="2.0418600">
        <ele>279.6</ele>
        <time>2018-06-14T10:15:14Z</time>
      </trkpt>
      <trkpt lat="41.5634320" lon="2.0418610">
        <ele>280.0</ele>
        <time>2018-06-14T10:15:17Z</time>
      </trkpt>
      <trkpt lat="41.5634520" lon="2.0418680">
        <ele>280.0</ele>
        <time>2018-06-14T10:15:18Z</time>
      </trkpt>
      <trkpt lat="41.5634670" lon="2.0418830">
        <ele>280.0</ele>
        <time>2018-06-14T10:15:19Z</time>
      </trkpt>
      <trkpt lat="41.5634790" lon="2.0419110">
        <ele>280.0</ele>
        <time>2018-06-14T10:15:20Z</time>
      </trkpt>
      <trkpt lat="41.5635220" lon="2.0419870">
        <ele>280.0</ele>
        <time>2018-06-14T10:15:23Z</time>
      </trkpt>
      <trkpt lat="41.5635440" lon="2.0419990">
        <ele>280.2</ele>
        <time>2018-06-14T10:15:24Z</time>
      </trkpt>
      <trkpt lat="41.5635670" lon="2.0420020">
        <ele>280.2</ele>
        <time>2018-06-14T10:15:25Z</time>
      </trkpt>
      <trkpt lat="41.5635920" lon="2.0420090">
        <ele>280.2</ele>
        <time>2018-06-14T10:15:27Z</time>
      </trkpt>
      <trkpt lat="41.5635940" lon="2.0420310">
        <ele>280.2</ele>
        <time>2018-06-14T10:15:28Z</time>
      </trkpt>
      <trkpt lat="41.5636290" lon="2.0421490">
        <ele>280.6</ele>
        <time>2018-06-14T10:15:33Z</time>
      </trkpt>
      <trkpt lat="41.5636660" lon="2.0421630">
        <ele>280.8</ele>
        <time>2018-06-14T10:15:35Z</time>
      </trkpt>
      <trkpt lat="41.5637210" lon="2.0421700">
        <ele>281.2</ele>
        <time>2018-06-14T10:15:38Z</time>
      </trkpt>
      <trkpt lat="41.5637980" lon="2.0421660">
        <ele>281.8</ele>
        <time>2018-06-14T10:15:42Z</time>
      </trkpt>
      <trkpt lat="41.5638890" lon="2.0421700">
        <ele>281.6</ele>
        <time>2018-06-14T10:15:46Z</time>
      </trkpt>
      <trkpt lat="41.5640560" lon="2.0421690">
        <ele>281.6</ele>
        <time>2018-06-14T10:15:53Z</time>
      </trkpt>
      <trkpt lat="41.5641760" lon="2.0422030">
        <ele>281.8</ele>
        <time>2018-06-14T10:15:58Z</time>
      </trkpt>
      <trkpt lat="41.5643510" lon="2.0422700">
        <ele>281.8</ele>
        <time>2018-06-14T10:16:04Z</time>
      </trkpt>
      <trkpt lat="41.5644770" lon="2.0422930">
        <ele>282.2</ele>
        <time>2018-06-14T10:16:10Z</time>
      </trkpt>
      <trkpt lat="41.5645100" lon="2.0422960">
        <ele>282.8</ele>
        <time>2018-06-14T10:16:12Z</time>
      </trkpt>
      <trkpt lat="41.5645960" lon="2.0423140">
        <ele>282.6</ele>
        <time>2018-06-14T10:16:17Z</time>
      </trkpt>
      <trkpt lat="41.5647060" lon="2.0423230">
        <ele>282.8</ele>
        <time>2018-06-14T10:16:24Z</time>
      </trkpt>
      <trkpt lat="41.5647940" lon="2.0423250">
        <ele>282.6</ele>
        <time>2018-06-14T10:16:29Z</time>
      </trkpt>
      <trkpt lat="41.5648760" lon="2.0423420">
        <ele>282.6</ele>
        <time>2018-06-14T10:16:34Z</time>
      </trkpt>
      <trkpt lat="41.5649000" lon="2.0423460">
        <ele>282.6</ele>
        <time>2018-06-14T10:16:35Z</time>
      </trkpt>
      <trkpt lat="41.5650280" lon="2.0423660">
        <ele>281.4</ele>
        <time>2018-06-14T10:16:40Z</time>
      </trkpt>
      <trkpt lat="41.5650900" lon="2.0423800">
        <ele>280.4</ele>
        <time>2018-06-14T10:16:42Z</time>
      </trkpt>
      <trkpt lat="41.5651200" lon="2.0423820">
        <ele>280.2</ele>
        <time>2018-06-14T10:16:43Z</time>
      </trkpt>
      <trkpt lat="41.5652740" lon="2.0424110">
        <ele>279.4</ele>
        <time>2018-06-14T10:16:48Z</time>
      </trkpt>
      <trkpt lat="41.5653730" lon="2.0424700">
        <ele>279.0</ele>
        <time>2018-06-14T10:16:52Z</time>
      </trkpt>
      <trkpt lat="41.5654310" lon="2.0424810">
        <ele>279.2</ele>
        <time>2018-06-14T10:16:54Z</time>
      </trkpt>
      <trkpt lat="41.5656270" lon="2.0425210">
        <ele>279.6</ele>
        <time>2018-06-14T10:17:00Z</time>
      </trkpt>
      <trkpt lat="41.5656980" lon="2.0425320">
        <ele>280.2</ele>
        <time>2018-06-14T10:17:02Z</time>
      </trkpt>
      <trkpt lat="41.5658820" lon="2.0425540">
        <ele>280.2</ele>
        <time>2018-06-14T10:17:08Z</time>
      </trkpt>
      <trkpt lat="41.5660580" lon="2.0425950">
        <ele>280.0</ele>
        <time>2018-06-14T10:17:14Z</time>
      </trkpt>
      <trkpt lat="41.5661750" lon="2.0425640">
        <ele>280.0</ele>
        <time>2018-06-14T10:17:18Z</time>
      </trkpt>
      <trkpt lat="41.5661980" lon="2.0425520">
        <ele>280.2</ele>
        <time>2018-06-14T10:17:19Z</time>
      </trkpt>
      <trkpt lat="41.5662570" lon="2.0425190">
        <ele>280.8</ele>
        <time>2018-06-14T10:17:22Z</time>
      </trkpt>
      <trkpt lat="41.5662850" lon="2.0425020">
        <ele>281.0</ele>
        <time>2018-06-14T10:17:24Z</time>
      </trkpt>
      <trkpt lat="41.5662960" lon="2.0425020">
        <ele>281.4</ele>
        <time>2018-06-14T10:17:25Z</time>
      </trkpt>
      <trkpt lat="41.5663410" lon="2.0425110">
        <ele>281.6</ele>
        <time>2018-06-14T10:17:27Z</time>
      </trkpt>
      <trkpt lat="41.5663660" lon="2.0425180">
        <ele>281.6</ele>
        <time>2018-06-14T10:17:28Z</time>
      </trkpt>
      <trkpt lat="41.5665250" lon="2.0425440">
        <ele>281.8</ele>
        <time>2018-06-14T10:17:34Z</time>
      </trkpt>
      <trkpt lat="41.5665960" lon="2.0424790">
        <ele>281.6</ele>
        <time>2018-06-14T10:17:37Z</time>
      </trkpt>
      <trkpt lat="41.5666190" lon="2.0424220">
        <ele>281.2</ele>
        <time>2018-06-14T10:17:39Z</time>
      </trkpt>
      <trkpt lat="41.5665990" lon="2.0422500">
        <ele>281.6</ele>
        <time>2018-06-14T10:17:45Z</time>
      </trkpt>
      <trkpt lat="41.5665840" lon="2.0421750">
        <ele>281.8</ele>
        <time>2018-06-14T10:17:48Z</time>
      </trkpt>
      <trkpt lat="41.5665950" lon="2.0421500">
        <ele>282.0</ele>
        <time>2018-06-14T10:17:50Z</time>
      </trkpt>
      <trkpt lat="41.5666500" lon="2.0420620">
        <ele>282.4</ele>
        <time>2018-06-14T10:17:54Z</time>
      </trkpt>
      <trkpt lat="41.5666850" lon="2.0419620">
        <ele>283.6</ele>
        <time>2018-06-14T10:17:58Z</time>
      </trkpt>
      <trkpt lat="41.5666860" lon="2.0419050">
        <ele>284.0</ele>
        <time>2018-06-14T10:18:00Z</time>
      </trkpt>
      <trkpt lat="41.5666980" lon="2.0418770">
        <ele>284.4</ele>
        <time>2018-06-14T10:18:01Z</time>
      </trkpt>
      <trkpt lat="41.5667350" lon="2.0418390">
        <ele>284.6</ele>
        <time>2018-06-14T10:18:03Z</time>
      </trkpt>
      <trkpt lat="41.5667520" lon="2.0418290">
        <ele>284.8</ele>
        <time>2018-06-14T10:18:04Z</time>
      </trkpt>
      <trkpt lat="41.5668320" lon="2.0418090">
        <ele>284.8</ele>
        <time>2018-06-14T10:18:08Z</time>
      </trkpt>
      <trkpt lat="41.5668720" lon="2.0418080">
        <ele>285.2</ele>
        <time>2018-06-14T10:18:10Z</time>
      </trkpt>
      <trkpt lat="41.5669850" lon="2.0418380">
        <ele>285.2</ele>
        <time>2018-06-14T10:18:15Z</time>
      </trkpt>
      <trkpt lat="41.5671470" lon="2.0418970">
        <ele>285.2</ele>
        <time>2018-06-14T10:18:22Z</time>
      </trkpt>
      <trkpt lat="41.5672690" lon="2.0419220">
        <ele>285.8</ele>
        <time>2018-06-14T10:18:27Z</time>
      </trkpt>
      <trkpt lat="41.5672970" lon="2.0419240">
        <ele>286.0</ele>
        <time>2018-06-14T10:18:28Z</time>
      </trkpt>
      <trkpt lat="41.5674800" lon="2.0419750">
        <ele>286.0</ele>
        <time>2018-06-14T10:18:35Z</time>
      </trkpt>
      <trkpt lat="41.5675070" lon="2.0419780">
        <ele>285.6</ele>
        <time>2018-06-14T10:18:36Z</time>
      </trkpt>
      <trkpt lat="41.5676730" lon="2.0419560">
        <ele>285.4</ele>
        <time>2018-06-14T10:18:42Z</time>
      </trkpt>
      <trkpt lat="41.5678310" lon="2.0419390">
        <ele>285.6</ele>
        <time>2018-06-14T10:18:48Z</time>
      </trkpt>
      <trkpt lat="41.5679060" lon="2.0419770">
        <ele>284.8</ele>
        <time>2018-06-14T10:18:51Z</time>
      </trkpt>
      <trkpt lat="41.5679830" lon="2.0420170">
        <ele>284.6</ele>
        <time>2018-06-14T10:18:54Z</time>
      </trkpt>
      <trkpt lat="41.5681560" lon="2.0421380">
        <ele>284.4</ele>
        <time>2018-06-14T10:19:01Z</time>
      </trkpt>
      <trkpt lat="41.5681810" lon="2.0421540">
        <ele>284.2</ele>
        <time>2018-06-14T10:19:02Z</time>
      </trkpt>
      <trkpt lat="41.5683480" lon="2.0422620">
        <ele>284.4</ele>
        <time>2018-06-14T10:19:09Z</time>
      </trkpt>
      <trkpt lat="41.5684050" lon="2.0422820">
        <ele>284.2</ele>
        <time>2018-06-14T10:19:11Z</time>
      </trkpt>
      <trkpt lat="41.5684200" lon="2.0422800">
        <ele>283.8</ele>
        <time>2018-06-14T10:19:14Z</time>
      </trkpt>
      <trkpt lat="41.5684270" lon="2.0422880">
        <ele>283.8</ele>
        <time>2018-06-14T10:19:15Z</time>
      </trkpt>
      <trkpt lat="41.5684570" lon="2.0423050">
        <ele>283.8</ele>
        <time>2018-06-14T10:19:17Z</time>
      </trkpt>
      <trkpt lat="41.5684920" lon="2.0422940">
        <ele>284.0</ele>
        <time>2018-06-14T10:19:19Z</time>
      </trkpt>
      <trkpt lat="41.5686280" lon="2.0422210">
        <ele>285.4</ele>
        <time>2018-06-14T10:19:25Z</time>
      </trkpt>
      <trkpt lat="41.5686520" lon="2.0422130">
        <ele>285.6</ele>
        <time>2018-06-14T10:19:26Z</time>
      </trkpt>
      <trkpt lat="41.5686950" lon="2.0421950">
        <ele>285.8</ele>
        <time>2018-06-14T10:19:28Z</time>
      </trkpt>
      <trkpt lat="41.5687900" lon="2.0421780">
        <ele>286.4</ele>
        <time>2018-06-14T10:19:33Z</time>
      </trkpt>
      <trkpt lat="41.5688120" lon="2.0421860">
        <ele>286.8</ele>
        <time>2018-06-14T10:19:34Z</time>
      </trkpt>
      <trkpt lat="41.5688690" lon="2.0422110">
        <ele>288.0</ele>
        <time>2018-06-14T10:19:37Z</time>
      </trkpt>
      <trkpt lat="41.5688830" lon="2.0422180">
        <ele>288.2</ele>
        <time>2018-06-14T10:19:38Z</time>
      </trkpt>
      <trkpt lat="41.5688940" lon="2.0422400">
        <ele>287.8</ele>
        <time>2018-06-14T10:19:41Z</time>
      </trkpt>
      <trkpt lat="41.5689000" lon="2.0422490">
        <ele>286.2</ele>
        <time>2018-06-14T10:19:42Z</time>
      </trkpt>
      <trkpt lat="41.5689300" lon="2.0422670">
        <ele>287.2</ele>
        <time>2018-06-14T10:19:44Z</time>
      </trkpt>
      <trkpt lat="41.5689780" lon="2.0423110">
        <ele>287.4</ele>
        <time>2018-06-14T10:19:47Z</time>
      </trkpt>
      <trkpt lat="41.5690330" lon="2.0423380">
        <ele>288.2</ele>
        <time>2018-06-14T10:20:52Z</time>
      </trkpt>
      <trkpt lat="41.5690440" lon="2.0423320">
        <ele>288.0</ele>
        <time>2018-06-14T10:20:55Z</time>
      </trkpt>
      <trkpt lat="41.5691410" lon="2.0423140">
        <ele>287.4</ele>
        <time>2018-06-14T10:20:59Z</time>
      </trkpt>
      <trkpt lat="41.5692910" lon="2.0423030">
        <ele>286.4</ele>
        <time>2018-06-14T10:21:04Z</time>
      </trkpt>
      <trkpt lat="41.5693490" lon="2.0423130">
        <ele>286.0</ele>
        <time>2018-06-14T10:21:06Z</time>
      </trkpt>
      <trkpt lat="41.5694140" lon="2.0423200">
        <ele>285.0</ele>
        <time>2018-06-14T10:21:08Z</time>
      </trkpt>
      <trkpt lat="41.5695140" lon="2.0423230">
        <ele>284.0</ele>
        <time>2018-06-14T10:21:11Z</time>
      </trkpt>
      <trkpt lat="41.5695460" lon="2.0423230">
        <ele>284.0</ele>
        <time>2018-06-14T10:21:12Z</time>
      </trkpt>
      <trkpt lat="41.5696120" lon="2.0423250">
        <ele>283.6</ele>
        <time>2018-06-14T10:21:14Z</time>
      </trkpt>
      <trkpt lat="41.5696710" lon="2.0423230">
        <ele>283.6</ele>
        <time>2018-06-14T10:21:16Z</time>
      </trkpt>
      <trkpt lat="41.5697270" lon="2.0423230">
        <ele>283.4</ele>
        <time>2018-06-14T10:21:18Z</time>
      </trkpt>
      <trkpt lat="41.5697500" lon="2.0423310">
        <ele>283.2</ele>
        <time>2018-06-14T10:21:19Z</time>
      </trkpt>
      <trkpt lat="41.5698030" lon="2.0423560">
        <ele>282.8</ele>
        <time>2018-06-14T10:21:21Z</time>
      </trkpt>
      <trkpt lat="41.5698290" lon="2.0423670">
        <ele>282.8</ele>
        <time>2018-06-14T10:21:22Z</time>
      </trkpt>
      <trkpt lat="41.5699120" lon="2.0423970">
        <ele>282.8</ele>
        <time>2018-06-14T10:21:25Z</time>
      </trkpt>
      <trkpt lat="41.5699400" lon="2.0423990">
        <ele>282.8</ele>
        <time>2018-06-14T10:21:26Z</time>
      </trkpt>
      <trkpt lat="41.5701410" lon="2.0424310">
        <ele>283.0</ele>
        <time>2018-06-14T10:21:33Z</time>
      </trkpt>
      <trkpt lat="41.5702170" lon="2.0424260">
        <ele>282.4</ele>
        <time>2018-06-14T10:21:36Z</time>
      </trkpt>
      <trkpt lat="41.5703270" lon="2.0424090">
        <ele>282.8</ele>
        <time>2018-06-14T10:21:40Z</time>
      </trkpt>
      <trkpt lat="41.5704230" lon="2.0423980">
        <ele>284.0</ele>
        <time>2018-06-14T10:21:44Z</time>
      </trkpt>
      <trkpt lat="41.5705310" lon="2.0423880">
        <ele>284.0</ele>
        <time>2018-06-14T10:21:48Z</time>
      </trkpt>
      <trkpt lat="41.5706590" lon="2.0423400">
        <ele>283.6</ele>
        <time>2018-06-14T10:21:53Z</time>
      </trkpt>
      <trkpt lat="41.5706860" lon="2.0423290">
        <ele>283.8</ele>
        <time>2018-06-14T10:21:54Z</time>
      </trkpt>
      <trkpt lat="41.5707130" lon="2.0423180">
        <ele>283.6</ele>
        <time>2018-06-14T10:21:55Z</time>
      </trkpt>
      <trkpt lat="41.5707370" lon="2.0423100">
        <ele>283.8</ele>
        <time>2018-06-14T10:21:56Z</time>
      </trkpt>
      <trkpt lat="41.5708040" lon="2.0422870">
        <ele>284.4</ele>
        <time>2018-06-14T10:22:00Z</time>
      </trkpt>
      <trkpt lat="41.5708730" lon="2.0422560">
        <ele>285.0</ele>
        <time>2018-06-14T10:22:04Z</time>
      </trkpt>
      <trkpt lat="41.5709230" lon="2.0422410">
        <ele>285.6</ele>
        <time>2018-06-14T10:22:07Z</time>
      </trkpt>
      <trkpt lat="41.5709480" lon="2.0422380">
        <ele>285.8</ele>
        <time>2018-06-14T10:22:09Z</time>
      </trkpt>
      <trkpt lat="41.5709530" lon="2.0422230">
        <ele>286.0</ele>
        <time>2018-06-14T10:22:11Z</time>
      </trkpt>
      <trkpt lat="41.5709480" lon="2.0422100">
        <ele>286.2</ele>
        <time>2018-06-14T10:22:12Z</time>
      </trkpt>
      <trkpt lat="41.5708920" lon="2.0421010">
        <ele>286.8</ele>
        <time>2018-06-14T10:22:17Z</time>
      </trkpt>
      <trkpt lat="41.5708430" lon="2.0419220">
        <ele>287.0</ele>
        <time>2018-06-14T10:22:23Z</time>
      </trkpt>
      <trkpt lat="41.5708200" lon="2.0418620">
        <ele>287.4</ele>
        <time>2018-06-14T10:22:25Z</time>
      </trkpt>
      <trkpt lat="41.5707860" lon="2.0417410">
        <ele>288.6</ele>
        <time>2018-06-14T10:22:29Z</time>
      </trkpt>
      <trkpt lat="41.5707800" lon="2.0417140">
        <ele>288.4</ele>
        <time>2018-06-14T10:22:30Z</time>
      </trkpt>
      <trkpt lat="41.5707580" lon="2.0415940">
        <ele>289.8</ele>
        <time>2018-06-14T10:22:34Z</time>
      </trkpt>
      <trkpt lat="41.5707400" lon="2.0415300">
        <ele>290.4</ele>
        <time>2018-06-14T10:22:36Z</time>
      </trkpt>
      <trkpt lat="41.5706980" lon="2.0413740">
        <ele>290.8</ele>
        <time>2018-06-14T10:22:41Z</time>
      </trkpt>
      <trkpt lat="41.5706760" lon="2.0413090">
        <ele>291.0</ele>
        <time>2018-06-14T10:22:43Z</time>
      </trkpt>
      <trkpt lat="41.5706120" lon="2.0412050">
        <ele>292.0</ele>
        <time>2018-06-14T10:22:47Z</time>
      </trkpt>
      <trkpt lat="41.5705730" lon="2.0411310">
        <ele>293.0</ele>
        <time>2018-06-14T10:22:50Z</time>
      </trkpt>
      <trkpt lat="41.5705580" lon="2.0410780">
        <ele>293.2</ele>
        <time>2018-06-14T10:22:52Z</time>
      </trkpt>
      <trkpt lat="41.5705580" lon="2.0409640">
        <ele>294.2</ele>
        <time>2018-06-14T10:22:56Z</time>
      </trkpt>
      <trkpt lat="41.5705770" lon="2.0409250">
        <ele>294.6</ele>
        <time>2018-06-14T10:22:58Z</time>
      </trkpt>
      <trkpt lat="41.5705820" lon="2.0408190">
        <ele>295.6</ele>
        <time>2018-06-14T10:23:02Z</time>
      </trkpt>
      <trkpt lat="41.5705700" lon="2.0407960">
        <ele>295.6</ele>
        <time>2018-06-14T10:23:03Z</time>
      </trkpt>
      <trkpt lat="41.5705150" lon="2.0406160">
        <ele>296.0</ele>
        <time>2018-06-14T10:23:09Z</time>
      </trkpt>
      <trkpt lat="41.5704830" lon="2.0405200">
        <ele>296.8</ele>
        <time>2018-06-14T10:23:12Z</time>
      </trkpt>
      <trkpt lat="41.5704670" lon="2.0404190">
        <ele>297.4</ele>
        <time>2018-06-14T10:23:15Z</time>
      </trkpt>
      <trkpt lat="41.5704410" lon="2.0403590">
        <ele>297.8</ele>
        <time>2018-06-14T10:23:17Z</time>
      </trkpt>
      <trkpt lat="41.5704340" lon="2.0403290">
        <ele>298.0</ele>
        <time>2018-06-14T10:23:18Z</time>
      </trkpt>
      <trkpt lat="41.5704050" lon="2.0402350">
        <ele>297.6</ele>
        <time>2018-06-14T10:23:21Z</time>
      </trkpt>
      <trkpt lat="41.5703980" lon="2.0402050">
        <ele>297.4</ele>
        <time>2018-06-14T10:23:22Z</time>
      </trkpt>
      <trkpt lat="41.5703860" lon="2.0401760">
        <ele>297.6</ele>
        <time>2018-06-14T10:23:23Z</time>
      </trkpt>
      <trkpt lat="41.5703430" lon="2.0400340">
        <ele>298.0</ele>
        <time>2018-06-14T10:23:28Z</time>
      </trkpt>
      <trkpt lat="41.5703070" lon="2.0398890">
        <ele>297.8</ele>
        <time>2018-06-14T10:23:33Z</time>
      </trkpt>
      <trkpt lat="41.5702970" lon="2.0398300">
        <ele>298.0</ele>
        <time>2018-06-14T10:23:35Z</time>
      </trkpt>
      <trkpt lat="41.5702970" lon="2.0397340">
        <ele>298.2</ele>
        <time>2018-06-14T10:23:38Z</time>
      </trkpt>
      <trkpt lat="41.5703410" lon="2.0396500">
        <ele>298.2</ele>
        <time>2018-06-14T10:23:41Z</time>
      </trkpt>
      <trkpt lat="41.5704330" lon="2.0394760">
        <ele>298.2</ele>
        <time>2018-06-14T10:23:47Z</time>
      </trkpt>
      <trkpt lat="41.5705160" lon="2.0394270">
        <ele>298.2</ele>
        <time>2018-06-14T10:23:51Z</time>
      </trkpt>
      <trkpt lat="41.5705360" lon="2.0394300">
        <ele>298.2</ele>
        <time>2018-06-14T10:23:52Z</time>
      </trkpt>
      <trkpt lat="41.5706360" lon="2.0394200">
        <ele>298.2</ele>
        <time>2018-06-14T10:23:56Z</time>
      </trkpt>
      <trkpt lat="41.5706520" lon="2.0394240">
        <ele>298.2</ele>
        <time>2018-06-14T10:23:57Z</time>
      </trkpt>
      <trkpt lat="41.5707430" lon="2.0394290">
        <ele>298.2</ele>
        <time>2018-06-14T10:24:01Z</time>
      </trkpt>
      <trkpt lat="41.5707810" lon="2.0394040">
        <ele>298.2</ele>
        <time>2018-06-14T10:24:03Z</time>
      </trkpt>
      <trkpt lat="41.5708390" lon="2.0393420">
        <ele>298.2</ele>
        <time>2018-06-14T10:24:06Z</time>
      </trkpt>
      <trkpt lat="41.5708540" lon="2.0393180">
        <ele>298.2</ele>
        <time>2018-06-14T10:24:07Z</time>
      </trkpt>
      <trkpt lat="41.5708770" lon="2.0392660">
        <ele>298.2</ele>
        <time>2018-06-14T10:24:09Z</time>
      </trkpt>
      <trkpt lat="41.5709020" lon="2.0392260">
        <ele>298.2</ele>
        <time>2018-06-14T10:24:11Z</time>
      </trkpt>
      <trkpt lat="41.5709540" lon="2.0391450">
        <ele>298.2</ele>
        <time>2018-06-14T10:24:14Z</time>
      </trkpt>
      <trkpt lat="41.5709980" lon="2.0390270">
        <ele>298.2</ele>
        <time>2018-06-14T10:24:19Z</time>
      </trkpt>
      <trkpt lat="41.5710110" lon="2.0390030">
        <ele>298.2</ele>
        <time>2018-06-14T10:24:20Z</time>
      </trkpt>
      <trkpt lat="41.5710890" lon="2.0389140">
        <ele>298.2</ele>
        <time>2018-06-14T10:24:26Z</time>
      </trkpt>
      <trkpt lat="41.5711980" lon="2.0388770">
        <ele>298.2</ele>
        <time>2018-06-14T10:24:34Z</time>
      </trkpt>
      <trkpt lat="41.5712260" lon="2.0388800">
        <ele>298.2</ele>
        <time>2018-06-14T10:24:36Z</time>
      </trkpt>
      <trkpt lat="41.5712370" lon="2.0388900">
        <ele>298.2</ele>
        <time>2018-06-14T10:24:37Z</time>
      </trkpt>
      <trkpt lat="41.5713180" lon="2.0388770">
        <ele>298.2</ele>
        <time>2018-06-14T10:24:42Z</time>
      </trkpt>
      <trkpt lat="41.5714470" lon="2.0388680">
        <ele>298.2</ele>
        <time>2018-06-14T10:24:47Z</time>
      </trkpt>
      <trkpt lat="41.5715870" lon="2.0388920">
        <ele>298.2</ele>
        <time>2018-06-14T10:24:52Z</time>
      </trkpt>
      <trkpt lat="41.5716080" lon="2.0388990">
        <ele>299.2</ele>
        <time>2018-06-14T10:24:53Z</time>
      </trkpt>
      <trkpt lat="41.5716290" lon="2.0389030">
        <ele>299.6</ele>
        <time>2018-06-14T10:24:54Z</time>
      </trkpt>
      <trkpt lat="41.5717080" lon="2.0389160">
        <ele>300.2</ele>
        <time>2018-06-14T10:24:57Z</time>
      </trkpt>
      <trkpt lat="41.5717960" lon="2.0388820">
        <ele>300.4</ele>
        <time>2018-06-14T10:24:59Z</time>
      </trkpt>
      <trkpt lat="41.5718100" lon="2.0388680">
        <ele>300.6</ele>
        <time>2018-06-14T10:25:00Z</time>
      </trkpt>
      <trkpt lat="41.5718610" lon="2.0388100">
        <ele>300.8</ele>
        <time>2018-06-14T10:25:05Z</time>
      </trkpt>
      <trkpt lat="41.5719290" lon="2.0387140">
        <ele>301.2</ele>
        <time>2018-06-14T10:25:09Z</time>
      </trkpt>
      <trkpt lat="41.5719600" lon="2.0386540">
        <ele>301.2</ele>
        <time>2018-06-14T10:25:11Z</time>
      </trkpt>
      <trkpt lat="41.5719760" lon="2.0386260">
        <ele>301.2</ele>
        <time>2018-06-14T10:25:12Z</time>
      </trkpt>
      <trkpt lat="41.5720410" lon="2.0385600">
        <ele>300.4</ele>
        <time>2018-06-14T10:25:16Z</time>
      </trkpt>
      <trkpt lat="41.5720550" lon="2.0385560">
        <ele>300.2</ele>
        <time>2018-06-14T10:25:17Z</time>
      </trkpt>
      <trkpt lat="41.5721790" lon="2.0386040">
        <ele>300.8</ele>
        <time>2018-06-14T10:25:24Z</time>
      </trkpt>
      <trkpt lat="41.5723140" lon="2.0386840">
        <ele>301.2</ele>
        <time>2018-06-14T10:25:29Z</time>
      </trkpt>
      <trkpt lat="41.5723640" lon="2.0387120">
        <ele>301.8</ele>
        <time>2018-06-14T10:25:31Z</time>
      </trkpt>
      <trkpt lat="41.5724220" lon="2.0387600">
        <ele>302.0</ele>
        <time>2018-06-14T10:25:34Z</time>
      </trkpt>
      <trkpt lat="41.5724450" lon="2.0387650">
        <ele>302.2</ele>
        <time>2018-06-14T10:25:35Z</time>
      </trkpt>
      <trkpt lat="41.5724630" lon="2.0387800">
        <ele>302.2</ele>
        <time>2018-06-14T10:25:36Z</time>
      </trkpt>
      <trkpt lat="41.5725370" lon="2.0388440">
        <ele>302.8</ele>
        <time>2018-06-14T10:25:40Z</time>
      </trkpt>
      <trkpt lat="41.5725830" lon="2.0388740">
        <ele>303.0</ele>
        <time>2018-06-14T10:25:42Z</time>
      </trkpt>
      <trkpt lat="41.5727380" lon="2.0389670">
        <ele>302.8</ele>
        <time>2018-06-14T10:25:49Z</time>
      </trkpt>
      <trkpt lat="41.5728050" lon="2.0390490">
        <ele>303.2</ele>
        <time>2018-06-14T10:25:53Z</time>
      </trkpt>
      <trkpt lat="41.5728320" lon="2.0390780">
        <ele>303.2</ele>
        <time>2018-06-14T10:25:56Z</time>
      </trkpt>
      <trkpt lat="41.5729120" lon="2.0391580">
        <ele>303.0</ele>
        <time>2018-06-14T10:26:01Z</time>
      </trkpt>
      <trkpt lat="41.5729220" lon="2.0391690">
        <ele>303.2</ele>
        <time>2018-06-14T10:26:02Z</time>
      </trkpt>
      <trkpt lat="41.5729640" lon="2.0392100">
        <ele>303.2</ele>
        <time>2018-06-14T10:26:05Z</time>
      </trkpt>
      <trkpt lat="41.5730530" lon="2.0393120">
        <ele>303.6</ele>
        <time>2018-06-14T10:26:10Z</time>
      </trkpt>
      <trkpt lat="41.5731570" lon="2.0394320">
        <ele>304.0</ele>
        <time>2018-06-14T10:26:15Z</time>
      </trkpt>
      <trkpt lat="41.5732960" lon="2.0395270">
        <ele>304.4</ele>
        <time>2018-06-14T10:26:21Z</time>
      </trkpt>
      <trkpt lat="41.5733920" lon="2.0395710">
        <ele>304.8</ele>
        <time>2018-06-14T10:26:25Z</time>
      </trkpt>
      <trkpt lat="41.5734320" lon="2.0396030">
        <ele>304.6</ele>
        <time>2018-06-14T10:26:27Z</time>
      </trkpt>
      <trkpt lat="41.5735040" lon="2.0396660">
        <ele>304.4</ele>
        <time>2018-06-14T10:26:31Z</time>
      </trkpt>
      <trkpt lat="41.5735760" lon="2.0397310">
        <ele>304.4</ele>
        <time>2018-06-14T10:26:33Z</time>
      </trkpt>
      <trkpt lat="41.5737430" lon="2.0398730">
        <ele>303.6</ele>
        <time>2018-06-14T10:26:39Z</time>
      </trkpt>
      <trkpt lat="41.5737620" lon="2.0398900">
        <ele>303.4</ele>
        <time>2018-06-14T10:26:40Z</time>
      </trkpt>
      <trkpt lat="41.5738290" lon="2.0399440">
        <ele>303.0</ele>
        <time>2018-06-14T10:26:44Z</time>
      </trkpt>
      <trkpt lat="41.5738800" lon="2.0400250">
        <ele>302.8</ele>
        <time>2018-06-14T10:26:47Z</time>
      </trkpt>
      <trkpt lat="41.5739480" lon="2.0401240">
        <ele>302.6</ele>
        <time>2018-06-14T10:26:51Z</time>
      </trkpt>
      <trkpt lat="41.5739640" lon="2.0401480">
        <ele>302.2</ele>
        <time>2018-06-14T10:26:52Z</time>
      </trkpt>
      <trkpt lat="41.5741070" lon="2.0402220">
        <ele>301.6</ele>
        <time>2018-06-14T10:26:58Z</time>
      </trkpt>
      <trkpt lat="41.5742300" lon="2.0403430">
        <ele>301.8</ele>
        <time>2018-06-14T10:27:05Z</time>
      </trkpt>
      <trkpt lat="41.5743230" lon="2.0404590">
        <ele>301.4</ele>
        <time>2018-06-14T10:27:11Z</time>
      </trkpt>
      <trkpt lat="41.5743480" lon="2.0405000">
        <ele>301.2</ele>
        <time>2018-06-14T10:27:13Z</time>
      </trkpt>
      <trkpt lat="41.5744220" lon="2.0406180">
        <ele>301.0</ele>
        <time>2018-06-14T10:27:17Z</time>
      </trkpt>
      <trkpt lat="41.5745600" lon="2.0406880">
        <ele>301.2</ele>
        <time>2018-06-14T10:27:21Z</time>
      </trkpt>
      <trkpt lat="41.5745840" lon="2.0407030">
        <ele>301.2</ele>
        <time>2018-06-14T10:27:22Z</time>
      </trkpt>
      <trkpt lat="41.5746860" lon="2.0408300">
        <ele>301.0</ele>
        <time>2018-06-14T10:27:28Z</time>
      </trkpt>
      <trkpt lat="41.5747860" lon="2.0409110">
        <ele>300.6</ele>
        <time>2018-06-14T10:27:33Z</time>
      </trkpt>
      <trkpt lat="41.5748950" lon="2.0408900">
        <ele>302.2</ele>
        <time>2018-06-14T10:27:38Z</time>
      </trkpt>
      <trkpt lat="41.5749470" lon="2.0408840">
        <ele>302.4</ele>
        <time>2018-06-14T10:27:40Z</time>
      </trkpt>
      <trkpt lat="41.5751240" lon="2.0408240">
        <ele>302.8</ele>
        <time>2018-06-14T10:27:47Z</time>
      </trkpt>
      <trkpt lat="41.5752010" lon="2.0408070">
        <ele>303.4</ele>
        <time>2018-06-14T10:27:50Z</time>
      </trkpt>
      <trkpt lat="41.5752480" lon="2.0407980">
        <ele>303.6</ele>
        <time>2018-06-14T10:27:52Z</time>
      </trkpt>
      <trkpt lat="41.5752710" lon="2.0407910">
        <ele>303.6</ele>
        <time>2018-06-14T10:27:53Z</time>
      </trkpt>
      <trkpt lat="41.5753700" lon="2.0407590">
        <ele>303.4</ele>
        <time>2018-06-14T10:27:57Z</time>
      </trkpt>
      <trkpt lat="41.5753950" lon="2.0407500">
        <ele>303.6</ele>
        <time>2018-06-14T10:27:58Z</time>
      </trkpt>
      <trkpt lat="41.5755080" lon="2.0407170">
        <ele>304.2</ele>
        <time>2018-06-14T10:28:03Z</time>
      </trkpt>
      <trkpt lat="41.5755330" lon="2.0407120">
        <ele>304.4</ele>
        <time>2018-06-14T10:28:04Z</time>
      </trkpt>
      <trkpt lat="41.5756930" lon="2.0406540">
        <ele>305.2</ele>
        <time>2018-06-14T10:28:11Z</time>
      </trkpt>
      <trkpt lat="41.5757140" lon="2.0406430">
        <ele>305.4</ele>
        <time>2018-06-14T10:28:12Z</time>
      </trkpt>
      <trkpt lat="41.5757840" lon="2.0405610">
        <ele>306.0</ele>
        <time>2018-06-14T10:28:16Z</time>
      </trkpt>
      <trkpt lat="41.5757890" lon="2.0405380">
        <ele>305.8</ele>
        <time>2018-06-14T10:28:17Z</time>
      </trkpt>
      <trkpt lat="41.5758100" lon="2.0404580">
        <ele>306.2</ele>
        <time>2018-06-14T10:28:20Z</time>
      </trkpt>
      <trkpt lat="41.5758490" lon="2.0403760">
        <ele>306.4</ele>
        <time>2018-06-14T10:28:23Z</time>
      </trkpt>
      <trkpt lat="41.5758930" lon="2.0402990">
        <ele>307.6</ele>
        <time>2018-06-14T10:28:26Z</time>
      </trkpt>
      <trkpt lat="41.5759360" lon="2.0402330">
        <ele>307.8</ele>
        <time>2018-06-14T10:28:29Z</time>
      </trkpt>
      <trkpt lat="41.5759940" lon="2.0401460">
        <ele>308.0</ele>
        <time>2018-06-14T10:28:33Z</time>
      </trkpt>
      <trkpt lat="41.5760300" lon="2.0400400">
        <ele>308.6</ele>
        <time>2018-06-14T10:28:37Z</time>
      </trkpt>
      <trkpt lat="41.5760440" lon="2.0399950">
        <ele>309.0</ele>
        <time>2018-06-14T10:28:39Z</time>
      </trkpt>
      <trkpt lat="41.5760660" lon="2.0399280">
        <ele>309.8</ele>
        <time>2018-06-14T10:28:42Z</time>
      </trkpt>
      <trkpt lat="41.5761020" lon="2.0398510">
        <ele>310.6</ele>
        <time>2018-06-14T10:28:46Z</time>
      </trkpt>
      <trkpt lat="41.5761070" lon="2.0398370">
        <ele>310.8</ele>
        <time>2018-06-14T10:28:47Z</time>
      </trkpt>
      <trkpt lat="41.5761390" lon="2.0397930">
        <ele>311.4</ele>
        <time>2018-06-14T10:28:50Z</time>
      </trkpt>
      <trkpt lat="41.5761470" lon="2.0397710">
        <ele>312.2</ele>
        <time>2018-06-14T10:28:52Z</time>
      </trkpt>
      <trkpt lat="41.5761530" lon="2.0397670">
        <ele>312.4</ele>
        <time>2018-06-14T10:28:53Z</time>
      </trkpt>
      <trkpt lat="41.5761650" lon="2.0397630">
        <ele>312.6</ele>
        <time>2018-06-14T10:28:55Z</time>
      </trkpt>
      <trkpt lat="41.5761640" lon="2.0397550">
        <ele>312.8</ele>
        <time>2018-06-14T10:28:58Z</time>
      </trkpt>
      <trkpt lat="41.5761630" lon="2.0397550">
        <ele>312.8</ele>
        <time>2018-06-14T10:28:59Z</time>
      </trkpt>
      <trkpt lat="41.5761620" lon="2.0397550">
        <ele>312.8</ele>
        <time>2018-06-14T10:29:00Z</time>
      </trkpt>
      <trkpt lat="41.5761710" lon="2.0397260">
        <ele>313.2</ele>
        <time>2018-06-14T10:29:08Z</time>
      </trkpt>
      <trkpt lat="41.5761760" lon="2.0397180">
        <ele>313.2</ele>
        <time>2018-06-14T10:29:09Z</time>
      </trkpt>
      <trkpt lat="41.5801940" lon="2.0377080">
        <ele>329.0</ele>
        <time>2018-06-14T10:33:20Z</time>
      </trkpt>
      <trkpt lat="41.5801940" lon="2.0377060">
        <ele>329.0</ele>
        <time>2018-06-14T10:33:21Z</time>
      </trkpt>
      <trkpt lat="41.5802270" lon="2.0377020">
        <ele>329.0</ele>
        <time>2018-06-14T10:33:25Z</time>
      </trkpt>
      <trkpt lat="41.5803270" lon="2.0376790">
        <ele>330.0</ele>
        <time>2018-06-14T10:33:30Z</time>
      </trkpt>
      <trkpt lat="41.5803730" lon="2.0376790">
        <ele>330.2</ele>
        <time>2018-06-14T10:33:32Z</time>
      </trkpt>
      <trkpt lat="41.5804130" lon="2.0376910">
        <ele>330.6</ele>
        <time>2018-06-14T10:33:34Z</time>
      </trkpt>
      <trkpt lat="41.5804500" lon="2.0377040">
        <ele>330.6</ele>
        <time>2018-06-14T10:33:36Z</time>
      </trkpt>
      <trkpt lat="41.5804740" lon="2.0377130">
        <ele>330.4</ele>
        <time>2018-06-14T10:33:37Z</time>
      </trkpt>
      <trkpt lat="41.5806350" lon="2.0377060">
        <ele>329.2</ele>
        <time>2018-06-14T10:33:44Z</time>
      </trkpt>
      <trkpt lat="41.5806950" lon="2.0376910">
        <ele>329.6</ele>
        <time>2018-06-14T10:33:46Z</time>
      </trkpt>
      <trkpt lat="41.5807280" lon="2.0376840">
        <ele>329.8</ele>
        <time>2018-06-14T10:33:47Z</time>
      </trkpt>
      <trkpt lat="41.5807570" lon="2.0376800">
        <ele>330.0</ele>
        <time>2018-06-14T10:33:48Z</time>
      </trkpt>
      <trkpt lat="41.5807860" lon="2.0376730">
        <ele>330.2</ele>
        <time>2018-06-14T10:33:49Z</time>
      </trkpt>
      <trkpt lat="41.5808330" lon="2.0376670">
        <ele>330.0</ele>
        <time>2018-06-14T10:33:51Z</time>
      </trkpt>
      <trkpt lat="41.5808850" lon="2.0376580">
        <ele>330.0</ele>
        <time>2018-06-14T10:33:53Z</time>
      </trkpt>
      <trkpt lat="41.5809360" lon="2.0376450">
        <ele>329.6</ele>
        <time>2018-06-14T10:33:55Z</time>
      </trkpt>
      <trkpt lat="41.5809940" lon="2.0376230">
        <ele>329.2</ele>
        <time>2018-06-14T10:33:57Z</time>
      </trkpt>
      <trkpt lat="41.5810430" lon="2.0376010">
        <ele>328.8</ele>
        <time>2018-06-14T10:33:59Z</time>
      </trkpt>
      <trkpt lat="41.5810660" lon="2.0375880">
        <ele>328.8</ele>
        <time>2018-06-14T10:34:00Z</time>
      </trkpt>
      <trkpt lat="41.5811340" lon="2.0375270">
        <ele>329.2</ele>
        <time>2018-06-14T10:34:04Z</time>
      </trkpt>
      <trkpt lat="41.5812560" lon="2.0374290">
        <ele>329.6</ele>
        <time>2018-06-14T10:34:10Z</time>
      </trkpt>
      <trkpt lat="41.5812860" lon="2.0373850">
        <ele>329.6</ele>
        <time>2018-06-14T10:34:12Z</time>
      </trkpt>
      <trkpt lat="41.5813530" lon="2.0373420">
        <ele>329.6</ele>
        <time>2018-06-14T10:34:15Z</time>
      </trkpt>
      <trkpt lat="41.5814020" lon="2.0373100">
        <ele>329.8</ele>
        <time>2018-06-14T10:34:17Z</time>
      </trkpt>
      <trkpt lat="41.5814590" lon="2.0372750">
        <ele>330.4</ele>
        <time>2018-06-14T10:34:19Z</time>
      </trkpt>
      <trkpt lat="41.5815520" lon="2.0371930">
        <ele>330.6</ele>
        <time>2018-06-14T10:34:23Z</time>
      </trkpt>
      <trkpt lat="41.5816880" lon="2.0371400">
        <ele>330.2</ele>
        <time>2018-06-14T10:34:29Z</time>
      </trkpt>
      <trkpt lat="41.5817120" lon="2.0371270">
        <ele>330.2</ele>
        <time>2018-06-14T10:34:30Z</time>
      </trkpt>
      <trkpt lat="41.5818100" lon="2.0370210">
        <ele>329.8</ele>
        <time>2018-06-14T10:34:35Z</time>
      </trkpt>
      <trkpt lat="41.5818250" lon="2.0369840">
        <ele>329.6</ele>
        <time>2018-06-14T10:34:38Z</time>
      </trkpt>
      <trkpt lat="41.5818280" lon="2.0369560">
        <ele>329.6</ele>
        <time>2018-06-14T10:34:39Z</time>
      </trkpt>
      <trkpt lat="41.5818320" lon="2.0367540">
        <ele>330.6</ele>
        <time>2018-06-14T10:34:44Z</time>
      </trkpt>
      <trkpt lat="41.5818590" lon="2.0366140">
        <ele>331.0</ele>
        <time>2018-06-14T10:34:48Z</time>
      </trkpt>
      <trkpt lat="41.5818850" lon="2.0365550">
        <ele>331.0</ele>
        <time>2018-06-14T10:34:50Z</time>
      </trkpt>
      <trkpt lat="41.5819490" lon="2.0364150">
        <ele>331.0</ele>
        <time>2018-06-14T10:34:55Z</time>
      </trkpt>
      <trkpt lat="41.5820220" lon="2.0362410">
        <ele>331.4</ele>
        <time>2018-06-14T10:35:01Z</time>
      </trkpt>
      <trkpt lat="41.5820980" lon="2.0360930">
        <ele>331.8</ele>
        <time>2018-06-14T10:35:07Z</time>
      </trkpt>
      <trkpt lat="41.5821900" lon="2.0359420">
        <ele>331.4</ele>
        <time>2018-06-14T10:35:13Z</time>
      </trkpt>
      <trkpt lat="41.5823010" lon="2.0357310">
        <ele>331.6</ele>
        <time>2018-06-14T10:35:21Z</time>
      </trkpt>
      <trkpt lat="41.5824060" lon="2.0355360">
        <ele>331.6</ele>
        <time>2018-06-14T10:35:28Z</time>
      </trkpt>
      <trkpt lat="41.5825140" lon="2.0353170">
        <ele>331.8</ele>
        <time>2018-06-14T10:35:36Z</time>
      </trkpt>
      <trkpt lat="41.5825260" lon="2.0352890">
        <ele>331.8</ele>
        <time>2018-06-14T10:35:37Z</time>
      </trkpt>
      <trkpt lat="41.5826130" lon="2.0350840">
        <ele>331.8</ele>
        <time>2018-06-14T10:35:44Z</time>
      </trkpt>
      <trkpt lat="41.5826950" lon="2.0349260">
        <ele>331.8</ele>
        <time>2018-06-14T10:35:50Z</time>
      </trkpt>
      <trkpt lat="41.5827510" lon="2.0347960">
        <ele>332.0</ele>
        <time>2018-06-14T10:35:55Z</time>
      </trkpt>
      <trkpt lat="41.5827770" lon="2.0347430">
        <ele>332.0</ele>
        <time>2018-06-14T10:35:57Z</time>
      </trkpt>
      <trkpt lat="41.5828550" lon="2.0345740">
        <ele>332.2</ele>
        <time>2018-06-14T10:36:03Z</time>
      </trkpt>
      <trkpt lat="41.5829360" lon="2.0344000">
        <ele>332.2</ele>
        <time>2018-06-14T10:36:09Z</time>
      </trkpt>
      <trkpt lat="41.5830460" lon="2.0341890">
        <ele>332.4</ele>
        <time>2018-06-14T10:36:17Z</time>
      </trkpt>
      <trkpt lat="41.5831100" lon="2.0339500">
        <ele>332.8</ele>
        <time>2018-06-14T10:36:25Z</time>
      </trkpt>
      <trkpt lat="41.5831710" lon="2.0337900">
        <ele>332.8</ele>
        <time>2018-06-14T10:36:31Z</time>
      </trkpt>
      <trkpt lat="41.5831940" lon="2.0337130">
        <ele>333.0</ele>
        <time>2018-06-14T10:36:34Z</time>
      </trkpt>
      <trkpt lat="41.5831980" lon="2.0337010">
        <ele>333.0</ele>
        <time>2018-06-14T10:36:35Z</time>
      </trkpt>
      <trkpt lat="41.5832100" lon="2.0337630">
        <ele>333.0</ele>
        <time>2018-06-14T10:39:17Z</time>
      </trkpt>
      <trkpt lat="41.5832090" lon="2.0336970">
        <ele>333.0</ele>
        <time>2018-06-14T10:39:21Z</time>
      </trkpt>
      <trkpt lat="41.5832100" lon="2.0336350">
        <ele>333.0</ele>
        <time>2018-06-14T10:39:23Z</time>
      </trkpt>
      <trkpt lat="41.5832720" lon="2.0334610">
        <ele>333.0</ele>
        <time>2018-06-14T10:39:29Z</time>
      </trkpt>
      <trkpt lat="41.5833540" lon="2.0333160">
        <ele>333.0</ele>
        <time>2018-06-14T10:39:34Z</time>
      </trkpt>
      <trkpt lat="41.5833680" lon="2.0332900">
        <ele>333.0</ele>
        <time>2018-06-14T10:39:35Z</time>
      </trkpt>
      <trkpt lat="41.5834640" lon="2.0330900">
        <ele>333.0</ele>
        <time>2018-06-14T10:39:43Z</time>
      </trkpt>
      <trkpt lat="41.5835190" lon="2.0329620">
        <ele>333.2</ele>
        <time>2018-06-14T10:39:48Z</time>
      </trkpt>
      <trkpt lat="41.5835400" lon="2.0329140">
        <ele>333.2</ele>
        <time>2018-06-14T10:39:50Z</time>
      </trkpt>
      <trkpt lat="41.5835840" lon="2.0328570">
        <ele>333.2</ele>
        <time>2018-06-14T10:41:01Z</time>
      </trkpt>
      <trkpt lat="41.5835960" lon="2.0328360">
        <ele>333.2</ele>
        <time>2018-06-14T10:41:03Z</time>
      </trkpt>
      <trkpt lat="41.5836210" lon="2.0327710">
        <ele>333.2</ele>
        <time>2018-06-14T10:41:06Z</time>
      </trkpt>
      <trkpt lat="41.5836320" lon="2.0327440">
        <ele>333.2</ele>
        <time>2018-06-14T10:41:07Z</time>
      </trkpt>
      <trkpt lat="41.5836410" lon="2.0327170">
        <ele>333.2</ele>
        <time>2018-06-14T10:41:08Z</time>
      </trkpt>
      <trkpt lat="41.5836460" lon="2.0326900">
        <ele>333.2</ele>
        <time>2018-06-14T10:41:09Z</time>
      </trkpt>
      <trkpt lat="41.5836620" lon="2.0326580">
        <ele>333.2</ele>
        <time>2018-06-14T10:41:10Z</time>
      </trkpt>
      <trkpt lat="41.5836880" lon="2.0326000">
        <ele>333.2</ele>
        <time>2018-06-14T10:41:12Z</time>
      </trkpt>
      <trkpt lat="41.5837170" lon="2.0325430">
        <ele>333.2</ele>
        <time>2018-06-14T10:41:14Z</time>
      </trkpt>
      <trkpt lat="41.5837620" lon="2.0324630">
        <ele>333.4</ele>
        <time>2018-06-14T10:41:17Z</time>
      </trkpt>
      <trkpt lat="41.5837800" lon="2.0324380">
        <ele>333.4</ele>
        <time>2018-06-14T10:41:18Z</time>
      </trkpt>
      <trkpt lat="41.5838110" lon="2.0323970">
        <ele>333.4</ele>
        <time>2018-06-14T10:41:20Z</time>
      </trkpt>
      <trkpt lat="41.5838330" lon="2.0323820">
        <ele>333.4</ele>
        <time>2018-06-14T10:41:21Z</time>
      </trkpt>
      <trkpt lat="41.5839380" lon="2.0323250">
        <ele>333.4</ele>
        <time>2018-06-14T10:41:25Z</time>
      </trkpt>
      <trkpt lat="41.5840760" lon="2.0322240">
        <ele>333.6</ele>
        <time>2018-06-14T10:41:31Z</time>
      </trkpt>
      <trkpt lat="41.5841640" lon="2.0321520">
        <ele>333.6</ele>
        <time>2018-06-14T10:41:35Z</time>
      </trkpt>
      <trkpt lat="41.5842600" lon="2.0320990">
        <ele>333.8</ele>
        <time>2018-06-14T10:41:39Z</time>
      </trkpt>
      <trkpt lat="41.5842830" lon="2.0320920">
        <ele>333.8</ele>
        <time>2018-06-14T10:41:40Z</time>
      </trkpt>
      <trkpt lat="41.5843410" lon="2.0320730">
        <ele>333.8</ele>
        <time>2018-06-14T10:41:43Z</time>
      </trkpt>
      <trkpt lat="41.5843790" lon="2.0320660">
        <ele>333.8</ele>
        <time>2018-06-14T10:41:45Z</time>
      </trkpt>
      <trkpt lat="41.5845180" lon="2.0320420">
        <ele>334.0</ele>
        <time>2018-06-14T10:41:52Z</time>
      </trkpt>
      <trkpt lat="41.5845740" lon="2.0320290">
        <ele>334.0</ele>
        <time>2018-06-14T10:41:55Z</time>
      </trkpt>
      <trkpt lat="41.5846290" lon="2.0320170">
        <ele>334.0</ele>
        <time>2018-06-14T10:41:58Z</time>
      </trkpt>
      <trkpt lat="41.5847080" lon="2.0320090">
        <ele>334.2</ele>
        <time>2018-06-14T10:42:03Z</time>
      </trkpt>
      <trkpt lat="41.5847810" lon="2.0319830">
        <ele>334.4</ele>
        <time>2018-06-14T10:42:07Z</time>
      </trkpt>
      <trkpt lat="41.5847960" lon="2.0319830">
        <ele>334.4</ele>
        <time>2018-06-14T10:42:08Z</time>
      </trkpt>
      <trkpt lat="41.5848070" lon="2.0319850">
        <ele>334.6</ele>
        <time>2018-06-14T10:42:09Z</time>
      </trkpt>
      <trkpt lat="41.5849000" lon="2.0320180">
        <ele>334.8</ele>
        <time>2018-06-14T10:42:15Z</time>
      </trkpt>
      <trkpt lat="41.5849440" lon="2.0320240">
        <ele>335.0</ele>
        <time>2018-06-14T10:42:17Z</time>
      </trkpt>
      <trkpt lat="41.5850610" lon="2.0320310">
        <ele>335.4</ele>
        <time>2018-06-14T10:42:22Z</time>
      </trkpt>
      <trkpt lat="41.5851800" lon="2.0320200">
        <ele>335.8</ele>
        <time>2018-06-14T10:42:27Z</time>
      </trkpt>
      <trkpt lat="41.5852710" lon="2.0319970">
        <ele>336.0</ele>
        <time>2018-06-14T10:42:31Z</time>
      </trkpt>
      <trkpt lat="41.5852910" lon="2.0319900">
        <ele>336.2</ele>
        <time>2018-06-14T10:42:32Z</time>
      </trkpt>
      <trkpt lat="41.5854050" lon="2.0319760">
        <ele>336.6</ele>
        <time>2018-06-14T10:42:37Z</time>
      </trkpt>
      <trkpt lat="41.5854650" lon="2.0320010">
        <ele>336.8</ele>
        <time>2018-06-14T10:42:41Z</time>
      </trkpt>
      <trkpt lat="41.5854670" lon="2.0320130">
        <ele>336.8</ele>
        <time>2018-06-14T10:42:42Z</time>
      </trkpt>
      <trkpt lat="41.5854490" lon="2.0320480">
        <ele>337.0</ele>
        <time>2018-06-14T10:42:44Z</time>
      </trkpt>
      <trkpt lat="41.5854360" lon="2.0320660">
        <ele>337.0</ele>
        <time>2018-06-14T10:42:45Z</time>
      </trkpt>
      <trkpt lat="41.5854000" lon="2.0320950">
        <ele>337.2</ele>
        <time>2018-06-14T10:42:47Z</time>
      </trkpt>
      <trkpt lat="41.5852540" lon="2.0321760">
        <ele>337.8</ele>
        <time>2018-06-14T10:42:53Z</time>
      </trkpt>
      <trkpt lat="41.5852340" lon="2.0322620">
        <ele>338.2</ele>
        <time>2018-06-14T10:42:57Z</time>
      </trkpt>
      <trkpt lat="41.5852470" lon="2.0322730">
        <ele>338.2</ele>
        <time>2018-06-14T10:42:58Z</time>
      </trkpt>
      <trkpt lat="41.5852910" lon="2.0322900">
        <ele>338.4</ele>
        <time>2018-06-14T10:43:00Z</time>
      </trkpt>
      <trkpt lat="41.5853130" lon="2.0322990">
        <ele>338.4</ele>
        <time>2018-06-14T10:43:01Z</time>
      </trkpt>
      <trkpt lat="41.5854130" lon="2.0323320">
        <ele>339.0</ele>
        <time>2018-06-14T10:43:05Z</time>
      </trkpt>
      <trkpt lat="41.5854790" lon="2.0323600">
        <ele>339.2</ele>
        <time>2018-06-14T10:43:08Z</time>
      </trkpt>
      <trkpt lat="41.5855920" lon="2.0324050">
        <ele>339.8</ele>
        <time>2018-06-14T10:43:13Z</time>
      </trkpt>
      <trkpt lat="41.5856430" lon="2.0324230">
        <ele>340.0</ele>
        <time>2018-06-14T10:43:16Z</time>
      </trkpt>
      <trkpt lat="41.5856730" lon="2.0324340">
        <ele>340.2</ele>
        <time>2018-06-14T10:43:18Z</time>
      </trkpt>
      <trkpt lat="41.5856860" lon="2.0324470">
        <ele>340.4</ele>
        <time>2018-06-14T10:43:20Z</time>
      </trkpt>
      <trkpt lat="41.5856990" lon="2.0324560">
        <ele>340.8</ele>
        <time>2018-06-14T10:43:22Z</time>
      </trkpt>
      <trkpt lat="41.5857410" lon="2.0324810">
        <ele>341.2</ele>
        <time>2018-06-14T10:43:27Z</time>
      </trkpt>
      <trkpt lat="41.5857940" lon="2.0325080">
        <ele>341.8</ele>
        <time>2018-06-14T10:43:32Z</time>
      </trkpt>
      <trkpt lat="41.5858610" lon="2.0325170">
        <ele>342.2</ele>
        <time>2018-06-14T10:43:35Z</time>
      </trkpt>
      <trkpt lat="41.5858810" lon="2.0325230">
        <ele>342.4</ele>
        <time>2018-06-14T10:43:36Z</time>
      </trkpt>
      <trkpt lat="41.5858990" lon="2.0325250">
        <ele>342.4</ele>
        <time>2018-06-14T10:43:37Z</time>
      </trkpt>
      <trkpt lat="41.5859940" lon="2.0325730">
        <ele>343.0</ele>
        <time>2018-06-14T10:43:42Z</time>
      </trkpt>
      <trkpt lat="41.5860570" lon="2.0325940">
        <ele>343.4</ele>
        <time>2018-06-14T10:43:45Z</time>
      </trkpt>
      <trkpt lat="41.5860810" lon="2.0325970">
        <ele>343.6</ele>
        <time>2018-06-14T10:43:46Z</time>
      </trkpt>
      <trkpt lat="41.5861540" lon="2.0325960">
        <ele>344.0</ele>
        <time>2018-06-14T10:43:49Z</time>
      </trkpt>
      <trkpt lat="41.5862250" lon="2.0325750">
        <ele>344.4</ele>
        <time>2018-06-14T10:43:52Z</time>
      </trkpt>
      <trkpt lat="41.5862510" lon="2.0325600">
        <ele>344.6</ele>
        <time>2018-06-14T10:43:53Z</time>
      </trkpt>
      <trkpt lat="41.5862710" lon="2.0325430">
        <ele>344.6</ele>
        <time>2018-06-14T10:43:54Z</time>
      </trkpt>
      <trkpt lat="41.5863280" lon="2.0324850">
        <ele>345.0</ele>
        <time>2018-06-14T10:43:57Z</time>
      </trkpt>
      <trkpt lat="41.5864070" lon="2.0323950">
        <ele>345.6</ele>
        <time>2018-06-14T10:44:01Z</time>
      </trkpt>
      <trkpt lat="41.5864260" lon="2.0323680">
        <ele>345.6</ele>
        <time>2018-06-14T10:44:02Z</time>
      </trkpt>
      <trkpt lat="41.5864850" lon="2.0322910">
        <ele>346.0</ele>
        <time>2018-06-14T10:44:05Z</time>
      </trkpt>
      <trkpt lat="41.5865110" lon="2.0322440">
        <ele>346.2</ele>
        <time>2018-06-14T10:44:07Z</time>
      </trkpt>
      <trkpt lat="41.5865300" lon="2.0321940">
        <ele>346.4</ele>
        <time>2018-06-14T10:44:09Z</time>
      </trkpt>
      <trkpt lat="41.5865630" lon="2.0321110">
        <ele>346.8</ele>
        <time>2018-06-14T10:44:12Z</time>
      </trkpt>
      <trkpt lat="41.5865750" lon="2.0320830">
        <ele>346.8</ele>
        <time>2018-06-14T10:44:13Z</time>
      </trkpt>
      <trkpt lat="41.5866290" lon="2.0319440">
        <ele>347.4</ele>
        <time>2018-06-14T10:44:18Z</time>
      </trkpt>
      <trkpt lat="41.5866630" lon="2.0317870">
        <ele>347.8</ele>
        <time>2018-06-14T10:44:23Z</time>
      </trkpt>
      <trkpt lat="41.5866690" lon="2.0317540">
        <ele>347.8</ele>
        <time>2018-06-14T10:44:24Z</time>
      </trkpt>
      <trkpt lat="41.5867130" lon="2.0316120">
        <ele>348.4</ele>
        <time>2018-06-14T10:44:29Z</time>
      </trkpt>
      <trkpt lat="41.5867480" lon="2.0315550">
        <ele>348.6</ele>
        <time>2018-06-14T10:44:32Z</time>
      </trkpt>
      <trkpt lat="41.5867880" lon="2.0315500">
        <ele>348.8</ele>
        <time>2018-06-14T10:44:34Z</time>
      </trkpt>
      <trkpt lat="41.5868060" lon="2.0315550">
        <ele>349.0</ele>
        <time>2018-06-14T10:44:35Z</time>
      </trkpt>
      <trkpt lat="41.5868600" lon="2.0316030">
        <ele>349.2</ele>
        <time>2018-06-14T10:44:38Z</time>
      </trkpt>
      <trkpt lat="41.5868980" lon="2.0316470">
        <ele>349.4</ele>
        <time>2018-06-14T10:44:40Z</time>
      </trkpt>
      <trkpt lat="41.5869680" lon="2.0317550">
        <ele>350.0</ele>
        <time>2018-06-14T10:44:44Z</time>
      </trkpt>
      <trkpt lat="41.5870040" lon="2.0318030">
        <ele>350.2</ele>
        <time>2018-06-14T10:44:46Z</time>
      </trkpt>
      <trkpt lat="41.5870540" lon="2.0318790">
        <ele>350.4</ele>
        <time>2018-06-14T10:44:49Z</time>
      </trkpt>
      <trkpt lat="41.5871220" lon="2.0319870">
        <ele>350.8</ele>
        <time>2018-06-14T10:44:53Z</time>
      </trkpt>
      <trkpt lat="41.5871390" lon="2.0320100">
        <ele>351.0</ele>
        <time>2018-06-14T10:44:54Z</time>
      </trkpt>
      <trkpt lat="41.5872260" lon="2.0321390">
        <ele>351.4</ele>
        <time>2018-06-14T10:44:59Z</time>
      </trkpt>
      <trkpt lat="41.5872920" lon="2.0322420">
        <ele>356.4</ele>
        <time>2018-06-14T10:45:03Z</time>
      </trkpt>
      <trkpt lat="41.5873080" lon="2.0322680">
        <ele>358.8</ele>
        <time>2018-06-14T10:45:04Z</time>
      </trkpt>
      <trkpt lat="41.5873390" lon="2.0323080">
        <ele>360.2</ele>
        <time>2018-06-14T10:45:06Z</time>
      </trkpt>
      <trkpt lat="41.5873560" lon="2.0323260">
        <ele>360.4</ele>
        <time>2018-06-14T10:45:07Z</time>
      </trkpt>
      <trkpt lat="41.5874130" lon="2.0323960">
        <ele>360.2</ele>
        <time>2018-06-14T10:45:10Z</time>
      </trkpt>
      <trkpt lat="41.5874580" lon="2.0324150">
        <ele>360.0</ele>
        <time>2018-06-14T10:45:12Z</time>
      </trkpt>
      <trkpt lat="41.5875430" lon="2.0324020">
        <ele>359.8</ele>
        <time>2018-06-14T10:45:17Z</time>
      </trkpt>
      <trkpt lat="41.5876210" lon="2.0323550">
        <ele>360.2</ele>
        <time>2018-06-14T10:45:21Z</time>
      </trkpt>
      <trkpt lat="41.5877250" lon="2.0322490">
        <ele>361.0</ele>
        <time>2018-06-14T10:45:27Z</time>
      </trkpt>
      <trkpt lat="41.5877640" lon="2.0322110">
        <ele>361.4</ele>
        <time>2018-06-14T10:45:29Z</time>
      </trkpt>
      <trkpt lat="41.5878040" lon="2.0321710">
        <ele>361.2</ele>
        <time>2018-06-14T10:45:31Z</time>
      </trkpt>
      <trkpt lat="41.5878990" lon="2.0320810">
        <ele>361.2</ele>
        <time>2018-06-14T10:45:36Z</time>
      </trkpt>
      <trkpt lat="41.5880210" lon="2.0319540">
        <ele>362.0</ele>
        <time>2018-06-14T10:45:42Z</time>
      </trkpt>
      <trkpt lat="41.5880920" lon="2.0318630">
        <ele>361.8</ele>
        <time>2018-06-14T10:45:46Z</time>
      </trkpt>
      <trkpt lat="41.5881690" lon="2.0317460">
        <ele>362.6</ele>
        <time>2018-06-14T10:45:51Z</time>
      </trkpt>
      <trkpt lat="41.5881840" lon="2.0317210">
        <ele>362.8</ele>
        <time>2018-06-14T10:45:52Z</time>
      </trkpt>
      <trkpt lat="41.5882570" lon="2.0316160">
        <ele>363.0</ele>
        <time>2018-06-14T10:45:56Z</time>
      </trkpt>
      <trkpt lat="41.5883460" lon="2.0314710">
        <ele>363.2</ele>
        <time>2018-06-14T10:46:02Z</time>
      </trkpt>
      <trkpt lat="41.5883960" lon="2.0313780">
        <ele>363.6</ele>
        <time>2018-06-14T10:46:06Z</time>
      </trkpt>
      <trkpt lat="41.5884220" lon="2.0313300">
        <ele>364.2</ele>
        <time>2018-06-14T10:46:08Z</time>
      </trkpt>
      <trkpt lat="41.5884590" lon="2.0312580">
        <ele>365.0</ele>
        <time>2018-06-14T10:46:11Z</time>
      </trkpt>
      <trkpt lat="41.5884930" lon="2.0312080">
        <ele>365.2</ele>
        <time>2018-06-14T10:46:13Z</time>
      </trkpt>
      <trkpt lat="41.5885820" lon="2.0310500">
        <ele>365.4</ele>
        <time>2018-06-14T10:46:19Z</time>
      </trkpt>
      <trkpt lat="41.5886650" lon="2.0309120">
        <ele>366.2</ele>
        <time>2018-06-14T10:46:25Z</time>
      </trkpt>
      <trkpt lat="41.5887330" lon="2.0307780">
        <ele>367.0</ele>
        <time>2018-06-14T10:46:30Z</time>
      </trkpt>
      <trkpt lat="41.5888020" lon="2.0306060">
        <ele>366.8</ele>
        <time>2018-06-14T10:46:36Z</time>
      </trkpt>
      <trkpt lat="41.5888500" lon="2.0304500">
        <ele>367.0</ele>
        <time>2018-06-14T10:46:41Z</time>
      </trkpt>
      <trkpt lat="41.5888640" lon="2.0304180">
        <ele>366.8</ele>
        <time>2018-06-14T10:46:42Z</time>
      </trkpt>
      <trkpt lat="41.5889170" lon="2.0302650">
        <ele>367.4</ele>
        <time>2018-06-14T10:46:47Z</time>
      </trkpt>
      <trkpt lat="41.5889980" lon="2.0300630">
        <ele>368.0</ele>
        <time>2018-06-14T10:46:54Z</time>
      </trkpt>
      <trkpt lat="41.5890500" lon="2.0298930">
        <ele>368.0</ele>
        <time>2018-06-14T10:47:00Z</time>
      </trkpt>
      <trkpt lat="41.5890730" lon="2.0298260">
        <ele>368.6</ele>
        <time>2018-06-14T10:47:02Z</time>
      </trkpt>
      <trkpt lat="41.5891190" lon="2.0297050">
        <ele>369.0</ele>
        <time>2018-06-14T10:47:06Z</time>
      </trkpt>
      <trkpt lat="41.5891970" lon="2.0295100">
        <ele>368.6</ele>
        <time>2018-06-14T10:47:12Z</time>
      </trkpt>
      <trkpt lat="41.5892080" lon="2.0294650">
        <ele>367.6</ele>
        <time>2018-06-14T10:47:19Z</time>
      </trkpt>
      <trkpt lat="41.5892100" lon="2.0294610">
        <ele>367.6</ele>
        <time>2018-06-14T10:47:21Z</time>
      </trkpt>
      <trkpt lat="41.5892420" lon="2.0293870">
        <ele>368.0</ele>
        <time>2018-06-14T10:47:25Z</time>
      </trkpt>
      <trkpt lat="41.5892520" lon="2.0293590">
        <ele>368.2</ele>
        <time>2018-06-14T10:47:26Z</time>
      </trkpt>
      <trkpt lat="41.5893120" lon="2.0292590">
        <ele>368.4</ele>
        <time>2018-06-14T10:47:30Z</time>
      </trkpt>
      <trkpt lat="41.5893630" lon="2.0291720">
        <ele>368.2</ele>
        <time>2018-06-14T10:47:33Z</time>
      </trkpt>
      <trkpt lat="41.5893750" lon="2.0291420">
        <ele>367.8</ele>
        <time>2018-06-14T10:47:34Z</time>
      </trkpt>
      <trkpt lat="41.5894000" lon="2.0290800">
        <ele>367.4</ele>
        <time>2018-06-14T10:47:36Z</time>
      </trkpt>
      <trkpt lat="41.5894490" lon="2.0289880">
        <ele>367.2</ele>
        <time>2018-06-14T10:47:39Z</time>
      </trkpt>
      <trkpt lat="41.5895730" lon="2.0287810">
        <ele>366.8</ele>
        <time>2018-06-14T10:47:46Z</time>
      </trkpt>
      <trkpt lat="41.5895920" lon="2.0287540">
        <ele>366.8</ele>
        <time>2018-06-14T10:47:47Z</time>
      </trkpt>
      <trkpt lat="41.5896820" lon="2.0285670">
        <ele>367.4</ele>
        <time>2018-06-14T10:47:53Z</time>
      </trkpt>
      <trkpt lat="41.5897180" lon="2.0284240">
        <ele>367.6</ele>
        <time>2018-06-14T10:47:59Z</time>
      </trkpt>
      <trkpt lat="41.5897780" lon="2.0282680">
        <ele>368.0</ele>
        <time>2018-06-14T10:48:05Z</time>
      </trkpt>
      <trkpt lat="41.5897870" lon="2.0281880">
        <ele>368.6</ele>
        <time>2018-06-14T10:48:08Z</time>
      </trkpt>
      <trkpt lat="41.5898090" lon="2.0280700">
        <ele>369.4</ele>
        <time>2018-06-14T10:48:12Z</time>
      </trkpt>
      <trkpt lat="41.5898940" lon="2.0278430">
        <ele>368.8</ele>
        <time>2018-06-14T10:48:19Z</time>
      </trkpt>
      <trkpt lat="41.5899040" lon="2.0278080">
        <ele>369.0</ele>
        <time>2018-06-14T10:48:20Z</time>
      </trkpt>
      <trkpt lat="41.5899240" lon="2.0275830">
        <ele>369.4</ele>
        <time>2018-06-14T10:48:27Z</time>
      </trkpt>
      <trkpt lat="41.5899220" lon="2.0275530">
        <ele>369.6</ele>
        <time>2018-06-14T10:48:28Z</time>
      </trkpt>
      <trkpt lat="41.5899300" lon="2.0273670">
        <ele>370.2</ele>
        <time>2018-06-14T10:48:34Z</time>
      </trkpt>
      <trkpt lat="41.5899340" lon="2.0272660">
        <ele>370.6</ele>
        <time>2018-06-14T10:48:38Z</time>
      </trkpt>
      <trkpt lat="41.5899360" lon="2.0272090">
        <ele>371.0</ele>
        <time>2018-06-14T10:48:40Z</time>
      </trkpt>
      <trkpt lat="41.5899350" lon="2.0271790">
        <ele>371.2</ele>
        <time>2018-06-14T10:48:41Z</time>
      </trkpt>
      <trkpt lat="41.5899430" lon="2.0271160">
        <ele>371.8</ele>
        <time>2018-06-14T10:48:43Z</time>
      </trkpt>
      <trkpt lat="41.5899790" lon="2.0270030">
        <ele>373.0</ele>
        <time>2018-06-14T10:48:47Z</time>
      </trkpt>
      <trkpt lat="41.5900550" lon="2.0268330">
        <ele>374.0</ele>
        <time>2018-06-14T10:48:54Z</time>
      </trkpt>
      <trkpt lat="41.5900970" lon="2.0267270">
        <ele>374.4</ele>
        <time>2018-06-14T10:48:58Z</time>
      </trkpt>
      <trkpt lat="41.5901300" lon="2.0266440">
        <ele>374.4</ele>
        <time>2018-06-14T10:49:01Z</time>
      </trkpt>
      <trkpt lat="41.5902150" lon="2.0264670">
        <ele>375.0</ele>
        <time>2018-06-14T10:49:07Z</time>
      </trkpt>
      <trkpt lat="41.5902280" lon="2.0264340">
        <ele>375.0</ele>
        <time>2018-06-14T10:49:08Z</time>
      </trkpt>
      <trkpt lat="41.5903250" lon="2.0262660">
        <ele>374.6</ele>
        <time>2018-06-14T10:49:14Z</time>
      </trkpt>
      <trkpt lat="41.5904770" lon="2.0261320">
        <ele>374.6</ele>
        <time>2018-06-14T10:49:21Z</time>
      </trkpt>
      <trkpt lat="41.5906240" lon="2.0260320">
        <ele>375.0</ele>
        <time>2018-06-14T10:49:28Z</time>
      </trkpt>
      <trkpt lat="41.5907330" lon="2.0259260">
        <ele>375.6</ele>
        <time>2018-06-14T10:49:35Z</time>
      </trkpt>
      <trkpt lat="41.5908000" lon="2.0258560">
        <ele>376.0</ele>
        <time>2018-06-14T10:49:39Z</time>
      </trkpt>
      <trkpt lat="41.5908280" lon="2.0258230">
        <ele>376.4</ele>
        <time>2018-06-14T10:49:41Z</time>
      </trkpt>
      <trkpt lat="41.5908430" lon="2.0258070">
        <ele>376.6</ele>
        <time>2018-06-14T10:49:42Z</time>
      </trkpt>
      <trkpt lat="41.5909030" lon="2.0257580">
        <ele>377.2</ele>
        <time>2018-06-14T10:49:45Z</time>
      </trkpt>
      <trkpt lat="41.5909610" lon="2.0256930">
        <ele>377.4</ele>
        <time>2018-06-14T10:49:48Z</time>
      </trkpt>
      <trkpt lat="41.5910950" lon="2.0255590">
        <ele>377.8</ele>
        <time>2018-06-14T10:49:55Z</time>
      </trkpt>
      <trkpt lat="41.5911310" lon="2.0255120">
        <ele>378.0</ele>
        <time>2018-06-14T10:49:57Z</time>
      </trkpt>
      <trkpt lat="41.5911470" lon="2.0254910">
        <ele>378.0</ele>
        <time>2018-06-14T10:49:58Z</time>
      </trkpt>
      <trkpt lat="41.5911910" lon="2.0254210">
        <ele>378.2</ele>
        <time>2018-06-14T10:50:01Z</time>
      </trkpt>
      <trkpt lat="41.5912060" lon="2.0253960">
        <ele>378.4</ele>
        <time>2018-06-14T10:50:02Z</time>
      </trkpt>
      <trkpt lat="41.5912230" lon="2.0253740">
        <ele>378.2</ele>
        <time>2018-06-14T10:50:03Z</time>
      </trkpt>
      <trkpt lat="41.5913020" lon="2.0252350">
        <ele>379.2</ele>
        <time>2018-06-14T10:50:08Z</time>
      </trkpt>
      <trkpt lat="41.5913140" lon="2.0252060">
        <ele>379.6</ele>
        <time>2018-06-14T10:50:09Z</time>
      </trkpt>
      <trkpt lat="41.5914020" lon="2.0250410">
        <ele>380.0</ele>
        <time>2018-06-14T10:50:15Z</time>
      </trkpt>
      <trkpt lat="41.5914490" lon="2.0249420">
        <ele>379.8</ele>
        <time>2018-06-14T10:50:19Z</time>
      </trkpt>
      <trkpt lat="41.5914750" lon="2.0248890">
        <ele>379.8</ele>
        <time>2018-06-14T10:50:21Z</time>
      </trkpt>
      <trkpt lat="41.5915200" lon="2.0248070">
        <ele>380.4</ele>
        <time>2018-06-14T10:50:24Z</time>
      </trkpt>
      <trkpt lat="41.5915340" lon="2.0247810">
        <ele>380.6</ele>
        <time>2018-06-14T10:50:25Z</time>
      </trkpt>
      <trkpt lat="41.5916330" lon="2.0246040">
        <ele>381.2</ele>
        <time>2018-06-14T10:50:31Z</time>
      </trkpt>
      <trkpt lat="41.5916880" lon="2.0244540">
        <ele>381.4</ele>
        <time>2018-06-14T10:50:37Z</time>
      </trkpt>
      <trkpt lat="41.5916930" lon="2.0244210">
        <ele>381.8</ele>
        <time>2018-06-14T10:50:38Z</time>
      </trkpt>
      <trkpt lat="41.5917020" lon="2.0243300">
        <ele>382.4</ele>
        <time>2018-06-14T10:50:41Z</time>
      </trkpt>
      <trkpt lat="41.5917340" lon="2.0242780">
        <ele>382.8</ele>
        <time>2018-06-14T10:54:15Z</time>
      </trkpt>
      <trkpt lat="41.5917340" lon="2.0242780">
        <ele>382.8</ele>
        <time>2018-06-14T10:54:16Z</time>
      </trkpt>
      <trkpt lat="41.5917930" lon="2.0242650">
        <ele>382.4</ele>
        <time>2018-06-14T10:54:23Z</time>
      </trkpt>
      <trkpt lat="41.5918590" lon="2.0241670">
        <ele>382.0</ele>
        <time>2018-06-14T10:54:27Z</time>
      </trkpt>
      <trkpt lat="41.5918770" lon="2.0241380">
        <ele>382.0</ele>
        <time>2018-06-14T10:54:28Z</time>
      </trkpt>
      <trkpt lat="41.5918930" lon="2.0241090">
        <ele>382.0</ele>
        <time>2018-06-14T10:54:29Z</time>
      </trkpt>
      <trkpt lat="41.5919110" lon="2.0240780">
        <ele>382.0</ele>
        <time>2018-06-14T10:54:30Z</time>
      </trkpt>
      <trkpt lat="41.5919340" lon="2.0240500">
        <ele>382.0</ele>
        <time>2018-06-14T10:54:31Z</time>
      </trkpt>
      <trkpt lat="41.5919490" lon="2.0240240">
        <ele>382.2</ele>
        <time>2018-06-14T10:54:32Z</time>
      </trkpt>
      <trkpt lat="41.5919860" lon="2.0239760">
        <ele>382.2</ele>
        <time>2018-06-14T10:54:34Z</time>
      </trkpt>
      <trkpt lat="41.5920290" lon="2.0239320">
        <ele>382.2</ele>
        <time>2018-06-14T10:54:36Z</time>
      </trkpt>
      <trkpt lat="41.5920720" lon="2.0238880">
        <ele>382.2</ele>
        <time>2018-06-14T10:54:38Z</time>
      </trkpt>
      <trkpt lat="41.5921110" lon="2.0238510">
        <ele>382.2</ele>
        <time>2018-06-14T10:54:40Z</time>
      </trkpt>
      <trkpt lat="41.5921900" lon="2.0237820">
        <ele>382.4</ele>
        <time>2018-06-14T10:54:44Z</time>
      </trkpt>
      <trkpt lat="41.5922700" lon="2.0237470">
        <ele>382.4</ele>
        <time>2018-06-14T10:54:48Z</time>
      </trkpt>
      <trkpt lat="41.5924450" lon="2.0237150">
        <ele>382.6</ele>
        <time>2018-06-14T10:54:56Z</time>
      </trkpt>
      <trkpt lat="41.5925340" lon="2.0237040">
        <ele>382.8</ele>
        <time>2018-06-14T10:54:59Z</time>
      </trkpt>
      <trkpt lat="41.5926220" lon="2.0236850">
        <ele>382.8</ele>
        <time>2018-06-14T10:55:02Z</time>
      </trkpt>
      <trkpt lat="41.5927180" lon="2.0236660">
        <ele>383.0</ele>
        <time>2018-06-14T10:55:06Z</time>
      </trkpt>
      <trkpt lat="41.5928220" lon="2.0236430">
        <ele>383.2</ele>
        <time>2018-06-14T10:55:10Z</time>
      </trkpt>
      <trkpt lat="41.5929980" lon="2.0235930">
        <ele>383.4</ele>
        <time>2018-06-14T10:55:17Z</time>
      </trkpt>
      <trkpt lat="41.5931770" lon="2.0235520">
        <ele>383.6</ele>
        <time>2018-06-14T10:55:24Z</time>
      </trkpt>
      <trkpt lat="41.5932240" lon="2.0235480">
        <ele>383.6</ele>
        <time>2018-06-14T10:55:26Z</time>
      </trkpt>
      <trkpt lat="41.5932720" lon="2.0235480">
        <ele>383.8</ele>
        <time>2018-06-14T10:55:28Z</time>
      </trkpt>
      <trkpt lat="41.5933360" lon="2.0235490">
        <ele>384.0</ele>
        <time>2018-06-14T10:55:31Z</time>
      </trkpt>
      <trkpt lat="41.5933530" lon="2.0235420">
        <ele>384.0</ele>
        <time>2018-06-14T10:55:32Z</time>
      </trkpt>
      <trkpt lat="41.5933560" lon="2.0235260">
        <ele>384.0</ele>
        <time>2018-06-14T10:55:33Z</time>
      </trkpt>
      <trkpt lat="41.5933490" lon="2.0234800">
        <ele>384.0</ele>
        <time>2018-06-14T10:55:36Z</time>
      </trkpt>
      <trkpt lat="41.5933500" lon="2.0234480">
        <ele>384.2</ele>
        <time>2018-06-14T10:55:38Z</time>
      </trkpt>
      <trkpt lat="41.5933540" lon="2.0234280">
        <ele>384.2</ele>
        <time>2018-06-14T10:55:39Z</time>
      </trkpt>
      <trkpt lat="41.5933610" lon="2.0234140">
        <ele>384.2</ele>
        <time>2018-06-14T10:55:40Z</time>
      </trkpt>
      <trkpt lat="41.5933830" lon="2.0233710">
        <ele>384.2</ele>
        <time>2018-06-14T10:55:41Z</time>
      </trkpt>
      <trkpt lat="41.5934390" lon="2.0233340">
        <ele>384.4</ele>
        <time>2018-06-14T10:55:46Z</time>
      </trkpt>
      <trkpt lat="41.5934190" lon="2.0232850">
        <ele>384.4</ele>
        <time>2018-06-14T10:55:49Z</time>
      </trkpt>
      <trkpt lat="41.5933580" lon="2.0232400">
        <ele>384.4</ele>
        <time>2018-06-14T10:55:52Z</time>
      </trkpt>
      <trkpt lat="41.5932360" lon="2.0231720">
        <ele>384.4</ele>
        <time>2018-06-14T10:55:57Z</time>
      </trkpt>
      <trkpt lat="41.5931150" lon="2.0231420">
        <ele>384.4</ele>
        <time>2018-06-14T10:56:02Z</time>
      </trkpt>
      <trkpt lat="41.5930940" lon="2.0231340">
        <ele>384.4</ele>
        <time>2018-06-14T10:56:03Z</time>
      </trkpt>
      <trkpt lat="41.5930230" lon="2.0230710">
        <ele>384.4</ele>
        <time>2018-06-14T10:56:07Z</time>
      </trkpt>
      <trkpt lat="41.5930210" lon="2.0229990">
        <ele>384.4</ele>
        <time>2018-06-14T10:56:09Z</time>
      </trkpt>
      <trkpt lat="41.5930530" lon="2.0229490">
        <ele>384.4</ele>
        <time>2018-06-14T10:56:11Z</time>
      </trkpt>
      <trkpt lat="41.5930750" lon="2.0229380">
        <ele>384.4</ele>
        <time>2018-06-14T10:56:12Z</time>
      </trkpt>
      <trkpt lat="41.5930910" lon="2.0229340">
        <ele>384.4</ele>
        <time>2018-06-14T10:56:13Z</time>
      </trkpt>
      <trkpt lat="41.5932490" lon="2.0229730">
        <ele>384.2</ele>
        <time>2018-06-14T10:56:20Z</time>
      </trkpt>
      <trkpt lat="41.5934290" lon="2.0230200">
        <ele>384.2</ele>
        <time>2018-06-14T10:56:28Z</time>
      </trkpt>
      <trkpt lat="41.5935850" lon="2.0230890">
        <ele>383.4</ele>
        <time>2018-06-14T10:56:35Z</time>
      </trkpt>
      <trkpt lat="41.5937060" lon="2.0231410">
        <ele>384.0</ele>
        <time>2018-06-14T10:56:40Z</time>
      </trkpt>
      <trkpt lat="41.5937470" lon="2.0231570">
        <ele>384.4</ele>
        <time>2018-06-14T10:56:42Z</time>
      </trkpt>
      <trkpt lat="41.5939270" lon="2.0232170">
        <ele>384.6</ele>
        <time>2018-06-14T10:56:50Z</time>
      </trkpt>
      <trkpt lat="41.5939780" lon="2.0232310">
        <ele>385.0</ele>
        <time>2018-06-14T10:56:52Z</time>
      </trkpt>
      <trkpt lat="41.5941010" lon="2.0232370">
        <ele>385.6</ele>
        <time>2018-06-14T10:56:57Z</time>
      </trkpt>
      <trkpt lat="41.5942370" lon="2.0232510">
        <ele>385.8</ele>
        <time>2018-06-14T10:57:04Z</time>
      </trkpt>
      <trkpt lat="41.5943810" lon="2.0233510">
        <ele>385.2</ele>
        <time>2018-06-14T10:57:11Z</time>
      </trkpt>
      <trkpt lat="41.5944410" lon="2.0233900">
        <ele>386.2</ele>
        <time>2018-06-14T10:57:14Z</time>
      </trkpt>
      <trkpt lat="41.5945220" lon="2.0234450">
        <ele>387.2</ele>
        <time>2018-06-14T10:57:18Z</time>
      </trkpt>
      <trkpt lat="41.5945430" lon="2.0234560">
        <ele>387.6</ele>
        <time>2018-06-14T10:57:19Z</time>
      </trkpt>
      <trkpt lat="41.5946970" lon="2.0235360">
        <ele>387.8</ele>
        <time>2018-06-14T10:57:27Z</time>
      </trkpt>
      <trkpt lat="41.5948770" lon="2.0236200">
        <ele>388.0</ele>
        <time>2018-06-14T10:57:35Z</time>
      </trkpt>
      <trkpt lat="41.5950300" lon="2.0236550">
        <ele>388.4</ele>
        <time>2018-06-14T10:57:41Z</time>
      </trkpt>
      <trkpt lat="41.5950790" lon="2.0236720">
        <ele>388.4</ele>
        <time>2018-06-14T10:57:43Z</time>
      </trkpt>
      <trkpt lat="41.5952310" lon="2.0237520">
        <ele>389.2</ele>
        <time>2018-06-14T10:57:50Z</time>
      </trkpt>
      <trkpt lat="41.5952530" lon="2.0237690">
        <ele>389.6</ele>
        <time>2018-06-14T10:57:51Z</time>
      </trkpt>
      <trkpt lat="41.5953520" lon="2.0237970">
        <ele>390.0</ele>
        <time>2018-06-14T10:57:55Z</time>
      </trkpt>
      <trkpt lat="41.5955010" lon="2.0238910">
        <ele>389.8</ele>
        <time>2018-06-14T10:58:01Z</time>
      </trkpt>
      <trkpt lat="41.5956990" lon="2.0239610">
        <ele>390.4</ele>
        <time>2018-06-14T10:58:08Z</time>
      </trkpt>
      <trkpt lat="41.5957530" lon="2.0239790">
        <ele>390.8</ele>
        <time>2018-06-14T10:58:10Z</time>
      </trkpt>
      <trkpt lat="41.5958770" lon="2.0240660">
        <ele>392.0</ele>
        <time>2018-06-14T10:58:16Z</time>
      </trkpt>
      <trkpt lat="41.5960400" lon="2.0241940">
        <ele>392.6</ele>
        <time>2018-06-14T10:58:24Z</time>
      </trkpt>
      <trkpt lat="41.5962190" lon="2.0242970">
        <ele>392.8</ele>
        <time>2018-06-14T10:58:32Z</time>
      </trkpt>
      <trkpt lat="41.5962390" lon="2.0243120">
        <ele>393.2</ele>
        <time>2018-06-14T10:58:33Z</time>
      </trkpt>
      <trkpt lat="41.5964210" lon="2.0244120">
        <ele>393.4</ele>
        <time>2018-06-14T10:58:41Z</time>
      </trkpt>
      <trkpt lat="41.5965780" lon="2.0244750">
        <ele>394.0</ele>
        <time>2018-06-14T10:58:48Z</time>
      </trkpt>
      <trkpt lat="41.5966220" lon="2.0244910">
        <ele>394.4</ele>
        <time>2018-06-14T10:58:50Z</time>
      </trkpt>
      <trkpt lat="41.5967240" lon="2.0245220">
        <ele>395.6</ele>
        <time>2018-06-14T10:58:54Z</time>
      </trkpt>
      <trkpt lat="41.5967730" lon="2.0245360">
        <ele>395.6</ele>
        <time>2018-06-14T10:58:56Z</time>
      </trkpt>
      <trkpt lat="41.5969590" lon="2.0245950">
        <ele>395.2</ele>
        <time>2018-06-14T10:59:04Z</time>
      </trkpt>
      <trkpt lat="41.5971200" lon="2.0246470">
        <ele>396.0</ele>
        <time>2018-06-14T10:59:11Z</time>
      </trkpt>
      <trkpt lat="41.5972360" lon="2.0246540">
        <ele>396.8</ele>
        <time>2018-06-14T10:59:16Z</time>
      </trkpt>
      <trkpt lat="41.5972820" lon="2.0246630">
        <ele>397.4</ele>
        <time>2018-06-14T10:59:18Z</time>
      </trkpt>
      <trkpt lat="41.5974000" lon="2.0246860">
        <ele>397.8</ele>
        <time>2018-06-14T10:59:23Z</time>
      </trkpt>
      <trkpt lat="41.5974880" lon="2.0246960">
        <ele>397.8</ele>
        <time>2018-06-14T10:59:27Z</time>
      </trkpt>
      <trkpt lat="41.5976530" lon="2.0247190">
        <ele>398.0</ele>
        <time>2018-06-14T10:59:35Z</time>
      </trkpt>
      <trkpt lat="41.5978190" lon="2.0247380">
        <ele>398.4</ele>
        <time>2018-06-14T10:59:42Z</time>
      </trkpt>
      <trkpt lat="41.5979280" lon="2.0247370">
        <ele>399.0</ele>
        <time>2018-06-14T10:59:46Z</time>
      </trkpt>
      <trkpt lat="41.5979750" lon="2.0247410">
        <ele>399.4</ele>
        <time>2018-06-14T10:59:48Z</time>
      </trkpt>
      <trkpt lat="41.5980200" lon="2.0247430">
        <ele>399.6</ele>
        <time>2018-06-14T10:59:50Z</time>
      </trkpt>
      <trkpt lat="41.5980970" lon="2.0247510">
        <ele>400.0</ele>
        <time>2018-06-14T10:59:54Z</time>
      </trkpt>
      <trkpt lat="41.5981810" lon="2.0247440">
        <ele>400.4</ele>
        <time>2018-06-14T10:59:58Z</time>
      </trkpt>
      <trkpt lat="41.5983150" lon="2.0247620">
        <ele>400.2</ele>
        <time>2018-06-14T11:00:05Z</time>
      </trkpt>
      <trkpt lat="41.5983510" lon="2.0247620">
        <ele>399.8</ele>
        <time>2018-06-14T11:00:07Z</time>
      </trkpt>
      <trkpt lat="41.5985240" lon="2.0247560">
        <ele>400.6</ele>
        <time>2018-06-14T11:00:15Z</time>
      </trkpt>
      <trkpt lat="41.5985970" lon="2.0247640">
        <ele>401.2</ele>
        <time>2018-06-14T11:00:18Z</time>
      </trkpt>
      <trkpt lat="41.5986630" lon="2.0247800">
        <ele>401.6</ele>
        <time>2018-06-14T11:00:21Z</time>
      </trkpt>
      <trkpt lat="41.5987760" lon="2.0247730">
        <ele>402.2</ele>
        <time>2018-06-14T11:00:26Z</time>
      </trkpt>
      <trkpt lat="41.5988600" lon="2.0247570">
        <ele>402.2</ele>
        <time>2018-06-14T11:00:29Z</time>
      </trkpt>
      <trkpt lat="41.5990030" lon="2.0247330">
        <ele>402.2</ele>
        <time>2018-06-14T11:00:35Z</time>
      </trkpt>
      <trkpt lat="41.5991870" lon="2.0247200">
        <ele>403.4</ele>
        <time>2018-06-14T11:00:42Z</time>
      </trkpt>
      <trkpt lat="41.5993060" lon="2.0246970">
        <ele>404.6</ele>
        <time>2018-06-14T11:00:47Z</time>
      </trkpt>
      <trkpt lat="41.5993750" lon="2.0246780">
        <ele>405.2</ele>
        <time>2018-06-14T11:00:50Z</time>
      </trkpt>
      <trkpt lat="41.5994490" lon="2.0246600">
        <ele>405.6</ele>
        <time>2018-06-14T11:00:54Z</time>
      </trkpt>
      <trkpt lat="41.5995050" lon="2.0246380">
        <ele>405.4</ele>
        <time>2018-06-14T11:00:57Z</time>
      </trkpt>
      <trkpt lat="41.5996810" lon="2.0245750">
        <ele>406.4</ele>
        <time>2018-06-14T11:01:05Z</time>
      </trkpt>
      <trkpt lat="41.5998090" lon="2.0245170">
        <ele>405.8</ele>
        <time>2018-06-14T11:01:11Z</time>
      </trkpt>
      <trkpt lat="41.5999630" lon="2.0244660">
        <ele>405.6</ele>
        <time>2018-06-14T11:01:18Z</time>
      </trkpt>
      <trkpt lat="41.6000710" lon="2.0244360">
        <ele>406.6</ele>
        <time>2018-06-14T11:01:23Z</time>
      </trkpt>
      <trkpt lat="41.6000920" lon="2.0244310">
        <ele>406.8</ele>
        <time>2018-06-14T11:01:24Z</time>
      </trkpt>
      <trkpt lat="41.6002140" lon="2.0243910">
        <ele>407.8</ele>
        <time>2018-06-14T11:01:29Z</time>
      </trkpt>
      <trkpt lat="41.6003550" lon="2.0243310">
        <ele>407.8</ele>
        <time>2018-06-14T11:01:35Z</time>
      </trkpt>
      <trkpt lat="41.6005120" lon="2.0242740">
        <ele>407.8</ele>
        <time>2018-06-14T11:01:42Z</time>
      </trkpt>
      <trkpt lat="41.6005960" lon="2.0242280">
        <ele>409.0</ele>
        <time>2018-06-14T11:01:46Z</time>
      </trkpt>
      <trkpt lat="41.6006690" lon="2.0241950">
        <ele>409.2</ele>
        <time>2018-06-14T11:01:49Z</time>
      </trkpt>
      <trkpt lat="41.6008210" lon="2.0241070">
        <ele>408.8</ele>
        <time>2018-06-14T11:01:56Z</time>
      </trkpt>
      <trkpt lat="41.6009550" lon="2.0240220">
        <ele>409.8</ele>
        <time>2018-06-14T11:02:03Z</time>
      </trkpt>
      <trkpt lat="41.6009930" lon="2.0239990">
        <ele>410.0</ele>
        <time>2018-06-14T11:02:05Z</time>
      </trkpt>
      <trkpt lat="41.6010640" lon="2.0239480">
        <ele>410.4</ele>
        <time>2018-06-14T11:02:09Z</time>
      </trkpt>
      <trkpt lat="41.6011620" lon="2.0238790">
        <ele>411.4</ele>
        <time>2018-06-14T11:02:14Z</time>
      </trkpt>
      <trkpt lat="41.6012060" lon="2.0238540">
        <ele>412.0</ele>
        <time>2018-06-14T11:02:16Z</time>
      </trkpt>
      <trkpt lat="41.6012470" lon="2.0238260">
        <ele>412.6</ele>
        <time>2018-06-14T11:02:18Z</time>
      </trkpt>
      <trkpt lat="41.6013760" lon="2.0237290">
        <ele>412.4</ele>
        <time>2018-06-14T11:02:25Z</time>
      </trkpt>
      <trkpt lat="41.6015130" lon="2.0236570">
        <ele>412.4</ele>
        <time>2018-06-14T11:02:32Z</time>
      </trkpt>
      <trkpt lat="41.6016430" lon="2.0235880">
        <ele>413.0</ele>
        <time>2018-06-14T11:02:39Z</time>
      </trkpt>
      <trkpt lat="41.6017370" lon="2.0235470">
        <ele>413.6</ele>
        <time>2018-06-14T11:02:43Z</time>
      </trkpt>
      <trkpt lat="41.6017620" lon="2.0235380">
        <ele>413.8</ele>
        <time>2018-06-14T11:02:44Z</time>
      </trkpt>
      <trkpt lat="41.6018200" lon="2.0234960">
        <ele>414.8</ele>
        <time>2018-06-14T11:02:48Z</time>
      </trkpt>
      <trkpt lat="41.6018340" lon="2.0234880">
        <ele>415.0</ele>
        <time>2018-06-14T11:02:49Z</time>
      </trkpt>
      <trkpt lat="41.6019390" lon="2.0234100">
        <ele>415.6</ele>
        <time>2018-06-14T11:02:55Z</time>
      </trkpt>
      <trkpt lat="41.6019620" lon="2.0234080">
        <ele>415.8</ele>
        <time>2018-06-14T11:02:56Z</time>
      </trkpt>
      <trkpt lat="41.6020790" lon="2.0233580">
        <ele>416.0</ele>
        <time>2018-06-14T11:03:02Z</time>
      </trkpt>
      <trkpt lat="41.6021960" lon="2.0232980">
        <ele>416.4</ele>
        <time>2018-06-14T11:03:08Z</time>
      </trkpt>
      <trkpt lat="41.6022610" lon="2.0232840">
        <ele>416.6</ele>
        <time>2018-06-14T11:03:11Z</time>
      </trkpt>
      <trkpt lat="41.6024970" lon="2.0233410">
        <ele>417.8</ele>
        <time>2018-06-14T11:06:30Z</time>
      </trkpt>
      <trkpt lat="41.6025010" lon="2.0233440">
        <ele>417.8</ele>
        <time>2018-06-14T11:06:31Z</time>
      </trkpt>
      <trkpt lat="41.6025560" lon="2.0234430">
        <ele>417.8</ele>
        <time>2018-06-14T11:06:37Z</time>
      </trkpt>
      <trkpt lat="41.6025920" lon="2.0235140">
        <ele>417.8</ele>
        <time>2018-06-14T11:06:41Z</time>
      </trkpt>
      <trkpt lat="41.6025940" lon="2.0235410">
        <ele>417.8</ele>
        <time>2018-06-14T11:06:42Z</time>
      </trkpt>
      <trkpt lat="41.6026150" lon="2.0237000">
        <ele>418.6</ele>
        <time>2018-06-14T11:06:47Z</time>
      </trkpt>
      <trkpt lat="41.6026220" lon="2.0237220">
        <ele>418.8</ele>
        <time>2018-06-14T11:06:48Z</time>
      </trkpt>
      <trkpt lat="41.6026230" lon="2.0237570">
        <ele>419.0</ele>
        <time>2018-06-14T11:06:51Z</time>
      </trkpt>
      <trkpt lat="41.6026280" lon="2.0237660">
        <ele>419.0</ele>
        <time>2018-06-14T11:06:52Z</time>
      </trkpt>
      <trkpt lat="41.6026590" lon="2.0238150">
        <ele>419.0</ele>
        <time>2018-06-14T11:06:56Z</time>
      </trkpt>
      <trkpt lat="41.6027190" lon="2.0238650">
        <ele>419.0</ele>
        <time>2018-06-14T11:06:59Z</time>
      </trkpt>
      <trkpt lat="41.6027750" lon="2.0238970">
        <ele>418.8</ele>
        <time>2018-06-14T11:07:01Z</time>
      </trkpt>
      <trkpt lat="41.6028510" lon="2.0239150">
        <ele>419.2</ele>
        <time>2018-06-14T11:07:04Z</time>
      </trkpt>
      <trkpt lat="41.6029380" lon="2.0239220">
        <ele>419.8</ele>
        <time>2018-06-14T11:07:08Z</time>
      </trkpt>
      <trkpt lat="41.6029600" lon="2.0239280">
        <ele>420.0</ele>
        <time>2018-06-14T11:07:09Z</time>
      </trkpt>
      <trkpt lat="41.6030820" lon="2.0239870">
        <ele>420.0</ele>
        <time>2018-06-14T11:07:15Z</time>
      </trkpt>
      <trkpt lat="41.6031800" lon="2.0240680">
        <ele>420.4</ele>
        <time>2018-06-14T11:07:19Z</time>
      </trkpt>
      <trkpt lat="41.6032240" lon="2.0241080">
        <ele>420.8</ele>
        <time>2018-06-14T11:07:21Z</time>
      </trkpt>
      <trkpt lat="41.6032430" lon="2.0241290">
        <ele>420.8</ele>
        <time>2018-06-14T11:07:22Z</time>
      </trkpt>
      <trkpt lat="41.6032610" lon="2.0241490">
        <ele>421.0</ele>
        <time>2018-06-14T11:07:23Z</time>
      </trkpt>
      <trkpt lat="41.6033310" lon="2.0241720">
        <ele>421.6</ele>
        <time>2018-06-14T11:07:26Z</time>
      </trkpt>
      <trkpt lat="41.6033750" lon="2.0241880">
        <ele>421.8</ele>
        <time>2018-06-14T11:07:28Z</time>
      </trkpt>
      <trkpt lat="41.6034630" lon="2.0242320">
        <ele>421.6</ele>
        <time>2018-06-14T11:07:32Z</time>
      </trkpt>
      <trkpt lat="41.6035880" lon="2.0242740">
        <ele>421.2</ele>
        <time>2018-06-14T11:07:38Z</time>
      </trkpt>
      <trkpt lat="41.6036470" lon="2.0241950">
        <ele>421.6</ele>
        <time>2018-06-14T11:07:42Z</time>
      </trkpt>
      <trkpt lat="41.6036780" lon="2.0241320">
        <ele>421.8</ele>
        <time>2018-06-14T11:07:45Z</time>
      </trkpt>
      <trkpt lat="41.6036890" lon="2.0241100">
        <ele>422.0</ele>
        <time>2018-06-14T11:07:46Z</time>
      </trkpt>
      <trkpt lat="41.6037210" lon="2.0240420">
        <ele>421.8</ele>
        <time>2018-06-14T11:07:49Z</time>
      </trkpt>
      <trkpt lat="41.6037380" lon="2.0239980">
        <ele>421.8</ele>
        <time>2018-06-14T11:07:51Z</time>
      </trkpt>
      <trkpt lat="41.6037520" lon="2.0239470">
        <ele>421.8</ele>
        <time>2018-06-14T11:07:53Z</time>
      </trkpt>
      <trkpt lat="41.6037790" lon="2.0238700">
        <ele>422.4</ele>
        <time>2018-06-14T11:07:56Z</time>
      </trkpt>
      <trkpt lat="41.6038840" lon="2.0237310">
        <ele>423.2</ele>
        <time>2018-06-14T11:08:01Z</time>
      </trkpt>
      <trkpt lat="41.6039170" lon="2.0236810">
        <ele>423.4</ele>
        <time>2018-06-14T11:08:03Z</time>
      </trkpt>
      <trkpt lat="41.6040230" lon="2.0235440">
        <ele>423.6</ele>
        <time>2018-06-14T11:08:09Z</time>
      </trkpt>
      <trkpt lat="41.6040680" lon="2.0234650">
        <ele>424.2</ele>
        <time>2018-06-14T11:08:12Z</time>
      </trkpt>
      <trkpt lat="41.6041310" lon="2.0233620">
        <ele>424.8</ele>
        <time>2018-06-14T11:08:16Z</time>
      </trkpt>
      <trkpt lat="41.6042400" lon="2.0232310">
        <ele>425.0</ele>
        <time>2018-06-14T11:08:22Z</time>
      </trkpt>
      <trkpt lat="41.6043070" lon="2.0231820">
        <ele>425.0</ele>
        <time>2018-06-14T11:08:25Z</time>
      </trkpt>
      <trkpt lat="41.6043330" lon="2.0231530">
        <ele>425.0</ele>
        <time>2018-06-14T11:08:27Z</time>
      </trkpt>
      <trkpt lat="41.6043390" lon="2.0231490">
        <ele>425.0</ele>
        <time>2018-06-14T11:08:28Z</time>
      </trkpt>
      <trkpt lat="41.6043620" lon="2.0231490">
        <ele>425.0</ele>
        <time>2018-06-14T11:08:31Z</time>
      </trkpt>
      <trkpt lat="41.6043720" lon="2.0231510">
        <ele>425.0</ele>
        <time>2018-06-14T11:08:32Z</time>
      </trkpt>
      <trkpt lat="41.6044640" lon="2.0231640">
        <ele>425.0</ele>
        <time>2018-06-14T11:08:37Z</time>
      </trkpt>
      <trkpt lat="41.6044830" lon="2.0231790">
        <ele>425.0</ele>
        <time>2018-06-14T11:08:38Z</time>
      </trkpt>
      <trkpt lat="41.6046400" lon="2.0232870">
        <ele>425.2</ele>
        <time>2018-06-14T11:08:44Z</time>
      </trkpt>
      <trkpt lat="41.6047610" lon="2.0233930">
        <ele>425.2</ele>
        <time>2018-06-14T11:08:49Z</time>
      </trkpt>
      <trkpt lat="41.6048970" lon="2.0235370">
        <ele>425.2</ele>
        <time>2018-06-14T11:08:55Z</time>
      </trkpt>
      <trkpt lat="41.6049970" lon="2.0237120">
        <ele>425.2</ele>
        <time>2018-06-14T11:09:02Z</time>
      </trkpt>
      <trkpt lat="41.6050780" lon="2.0238650">
        <ele>425.2</ele>
        <time>2018-06-14T11:09:08Z</time>
      </trkpt>
      <trkpt lat="41.6051910" lon="2.0240870">
        <ele>425.2</ele>
        <time>2018-06-14T11:09:16Z</time>
      </trkpt>
      <trkpt lat="41.6052750" lon="2.0242690">
        <ele>425.2</ele>
        <time>2018-06-14T11:09:22Z</time>
      </trkpt>
      <trkpt lat="41.6053480" lon="2.0244240">
        <ele>425.2</ele>
        <time>2018-06-14T11:09:28Z</time>
      </trkpt>
      <trkpt lat="41.6054430" lon="2.0246100">
        <ele>425.2</ele>
        <time>2018-06-14T11:09:35Z</time>
      </trkpt>
      <trkpt lat="41.6055290" lon="2.0247380">
        <ele>425.2</ele>
        <time>2018-06-14T11:09:40Z</time>
      </trkpt>
      <trkpt lat="41.6055970" lon="2.0247980">
        <ele>425.2</ele>
        <time>2018-06-14T11:09:43Z</time>
      </trkpt>
      <trkpt lat="41.6056530" lon="2.0248590">
        <ele>425.2</ele>
        <time>2018-06-14T11:09:46Z</time>
      </trkpt>
      <trkpt lat="41.6056780" lon="2.0249120">
        <ele>425.2</ele>
        <time>2018-06-14T11:09:48Z</time>
      </trkpt>
      <trkpt lat="41.6057400" lon="2.0250560">
        <ele>425.2</ele>
        <time>2018-06-14T11:09:53Z</time>
      </trkpt>
      <trkpt lat="41.6057560" lon="2.0250830">
        <ele>425.2</ele>
        <time>2018-06-14T11:09:54Z</time>
      </trkpt>
      <trkpt lat="41.6058230" lon="2.0252310">
        <ele>425.4</ele>
        <time>2018-06-14T11:10:00Z</time>
      </trkpt>
      <trkpt lat="41.6058630" lon="2.0253150">
        <ele>425.4</ele>
        <time>2018-06-14T11:10:03Z</time>
      </trkpt>
      <trkpt lat="41.6059040" lon="2.0253900">
        <ele>425.4</ele>
        <time>2018-06-14T11:10:06Z</time>
      </trkpt>
      <trkpt lat="41.6059860" lon="2.0255130">
        <ele>425.6</ele>
        <time>2018-06-14T11:10:13Z</time>
      </trkpt>
      <trkpt lat="41.6060330" lon="2.0256470">
        <ele>425.8</ele>
        <time>2018-06-14T11:10:18Z</time>
      </trkpt>
      <trkpt lat="41.6060820" lon="2.0257310">
        <ele>425.8</ele>
        <time>2018-06-14T11:10:23Z</time>
      </trkpt>
      <trkpt lat="41.6060920" lon="2.0257250">
        <ele>426.0</ele>
        <time>2018-06-14T11:10:26Z</time>
      </trkpt>
      <trkpt lat="41.6061020" lon="2.0257080">
        <ele>426.2</ele>
        <time>2018-06-14T11:10:30Z</time>
      </trkpt>
      <trkpt lat="41.6061060" lon="2.0257030">
        <ele>426.2</ele>
        <time>2018-06-14T11:10:31Z</time>
      </trkpt>
      <trkpt lat="41.6061770" lon="2.0256120">
        <ele>426.6</ele>
        <time>2018-06-14T11:10:38Z</time>
      </trkpt>
      <trkpt lat="41.6062890" lon="2.0254670">
        <ele>426.8</ele>
        <time>2018-06-14T11:10:45Z</time>
      </trkpt>
      <trkpt lat="41.6063950" lon="2.0253270">
        <ele>427.2</ele>
        <time>2018-06-14T11:10:51Z</time>
      </trkpt>
      <trkpt lat="41.6064400" lon="2.0252670">
        <ele>427.4</ele>
        <time>2018-06-14T11:10:54Z</time>
      </trkpt>
      <trkpt lat="41.6065570" lon="2.0251050">
        <ele>427.8</ele>
        <time>2018-06-14T11:11:01Z</time>
      </trkpt>
      <trkpt lat="41.6066170" lon="2.0249780">
        <ele>428.2</ele>
        <time>2018-06-14T11:11:06Z</time>
      </trkpt>
      <trkpt lat="41.6066570" lon="2.0248990">
        <ele>428.4</ele>
        <time>2018-06-14T11:11:09Z</time>
      </trkpt>
      <trkpt lat="41.6067290" lon="2.0247330">
        <ele>429.0</ele>
        <time>2018-06-14T11:11:15Z</time>
      </trkpt>
      <trkpt lat="41.6067890" lon="2.0246330">
        <ele>429.4</ele>
        <time>2018-06-14T11:11:19Z</time>
      </trkpt>
      <trkpt lat="41.6068130" lon="2.0245520">
        <ele>429.6</ele>
        <time>2018-06-14T11:11:22Z</time>
      </trkpt>
      <trkpt lat="41.6068630" lon="2.0244990">
        <ele>430.0</ele>
        <time>2018-06-14T11:11:28Z</time>
      </trkpt>
      <trkpt lat="41.6068690" lon="2.0244890">
        <ele>430.2</ele>
        <time>2018-06-14T11:11:30Z</time>
      </trkpt>
      <trkpt lat="41.6068840" lon="2.0244810">
        <ele>430.4</ele>
        <time>2018-06-14T11:11:32Z</time>
      </trkpt>
      <trkpt lat="41.6069050" lon="2.0244830">
        <ele>430.6</ele>
        <time>2018-06-14T11:11:34Z</time>
      </trkpt>
      <trkpt lat="41.6069790" lon="2.0244830">
        <ele>431.0</ele>
        <time>2018-06-14T11:11:39Z</time>
      </trkpt>
      <trkpt lat="41.6069870" lon="2.0244720">
        <ele>431.0</ele>
        <time>2018-06-14T11:11:40Z</time>
      </trkpt>
      <trkpt lat="41.6070280" lon="2.0243910">
        <ele>431.4</ele>
        <time>2018-06-14T11:11:45Z</time>
      </trkpt>
      <trkpt lat="41.6070490" lon="2.0243620">
        <ele>431.6</ele>
        <time>2018-06-14T11:11:47Z</time>
      </trkpt>
      <trkpt lat="41.6071350" lon="2.0242990">
        <ele>432.2</ele>
        <time>2018-06-14T11:11:54Z</time>
      </trkpt>
      <trkpt lat="41.6071570" lon="2.0242790">
        <ele>436.2</ele>
        <time>2018-06-14T11:11:58Z</time>
      </trkpt>
      <trkpt lat="41.6071640" lon="2.0242740">
        <ele>438.0</ele>
        <time>2018-06-14T11:11:59Z</time>
      </trkpt>
      <trkpt lat="41.6071820" lon="2.0242530">
        <ele>439.6</ele>
        <time>2018-06-14T11:12:01Z</time>
      </trkpt>
      <trkpt lat="41.6072460" lon="2.0242040">
        <ele>440.6</ele>
        <time>2018-06-14T11:12:05Z</time>
      </trkpt>
      <trkpt lat="41.6072780" lon="2.0241890">
        <ele>441.2</ele>
        <time>2018-06-14T11:12:07Z</time>
      </trkpt>
      <trkpt lat="41.6073260" lon="2.0241790">
        <ele>441.6</ele>
        <time>2018-06-14T11:12:09Z</time>
      </trkpt>
      <trkpt lat="41.6074140" lon="2.0241760">
        <ele>442.8</ele>
        <time>2018-06-14T11:12:13Z</time>
      </trkpt>
      <trkpt lat="41.6074550" lon="2.0241730">
        <ele>443.0</ele>
        <time>2018-06-14T11:12:15Z</time>
      </trkpt>
      <trkpt lat="41.6074850" lon="2.0241740">
        <ele>444.0</ele>
        <time>2018-06-14T11:12:18Z</time>
      </trkpt>
      <trkpt lat="41.6074950" lon="2.0241690">
        <ele>444.2</ele>
        <time>2018-06-14T11:12:19Z</time>
      </trkpt>
      <trkpt lat="41.6075120" lon="2.0241560">
        <ele>444.6</ele>
        <time>2018-06-14T11:12:21Z</time>
      </trkpt>
      <trkpt lat="41.6075900" lon="2.0241150">
        <ele>445.0</ele>
        <time>2018-06-14T11:12:25Z</time>
      </trkpt>
      <trkpt lat="41.6077280" lon="2.0240720">
        <ele>446.4</ele>
        <time>2018-06-14T11:12:30Z</time>
      </trkpt>
      <trkpt lat="41.6077580" lon="2.0240600">
        <ele>447.2</ele>
        <time>2018-06-14T11:12:32Z</time>
      </trkpt>
      <trkpt lat="41.6077820" lon="2.0240520">
        <ele>447.6</ele>
        <time>2018-06-14T11:12:33Z</time>
      </trkpt>
      <trkpt lat="41.6078420" lon="2.0240210">
        <ele>447.8</ele>
        <time>2018-06-14T11:12:37Z</time>
      </trkpt>
      <trkpt lat="41.6079120" lon="2.0239960">
        <ele>448.6</ele>
        <time>2018-06-14T11:12:41Z</time>
      </trkpt>
      <trkpt lat="41.6079170" lon="2.0239890">
        <ele>448.6</ele>
        <time>2018-06-14T11:12:42Z</time>
      </trkpt>
      <trkpt lat="41.6079190" lon="2.0239850">
        <ele>448.8</ele>
        <time>2018-06-14T11:12:43Z</time>
      </trkpt>
      <trkpt lat="41.6079570" lon="2.0239720">
        <ele>449.8</ele>
        <time>2018-06-14T11:12:48Z</time>
      </trkpt>
      <trkpt lat="41.6080180" lon="2.0239220">
        <ele>450.0</ele>
        <time>2018-06-14T11:12:55Z</time>
      </trkpt>
      <trkpt lat="41.6080530" lon="2.0238660">
        <ele>450.8</ele>
        <time>2018-06-14T11:12:58Z</time>
      </trkpt>
      <trkpt lat="41.6080690" lon="2.0238510">
        <ele>451.0</ele>
        <time>2018-06-14T11:12:59Z</time>
      </trkpt>
      <trkpt lat="41.6081680" lon="2.0238050">
        <ele>451.8</ele>
        <time>2018-06-14T11:13:04Z</time>
      </trkpt>
      <trkpt lat="41.6081920" lon="2.0238010">
        <ele>452.2</ele>
        <time>2018-06-14T11:13:05Z</time>
      </trkpt>
      <trkpt lat="41.6082980" lon="2.0237700">
        <ele>453.4</ele>
        <time>2018-06-14T11:13:10Z</time>
      </trkpt>
      <trkpt lat="41.6083160" lon="2.0237650">
        <ele>453.8</ele>
        <time>2018-06-14T11:13:11Z</time>
      </trkpt>
      <trkpt lat="41.6083790" lon="2.0237460">
        <ele>454.6</ele>
        <time>2018-06-14T11:13:14Z</time>
      </trkpt>
      <trkpt lat="41.6084300" lon="2.0237250">
        <ele>455.6</ele>
        <time>2018-06-14T11:13:17Z</time>
      </trkpt>
      <trkpt lat="41.6084520" lon="2.0237240">
        <ele>455.8</ele>
        <time>2018-06-14T11:13:18Z</time>
      </trkpt>
      <trkpt lat="41.6085510" lon="2.0237230">
        <ele>457.0</ele>
        <time>2018-06-14T11:13:22Z</time>
      </trkpt>
      <trkpt lat="41.6085940" lon="2.0237140">
        <ele>457.8</ele>
        <time>2018-06-14T11:13:24Z</time>
      </trkpt>
      <trkpt lat="41.6086310" lon="2.0237100">
        <ele>458.0</ele>
        <time>2018-06-14T11:13:26Z</time>
      </trkpt>
      <trkpt lat="41.6086850" lon="2.0236590">
        <ele>458.0</ele>
        <time>2018-06-14T11:13:30Z</time>
      </trkpt>
      <trkpt lat="41.6087700" lon="2.0235460">
        <ele>457.0</ele>
        <time>2018-06-14T11:13:35Z</time>
      </trkpt>
      <trkpt lat="41.6087890" lon="2.0235170">
        <ele>456.6</ele>
        <time>2018-06-14T11:13:36Z</time>
      </trkpt>
      <trkpt lat="41.6088270" lon="2.0234570">
        <ele>455.8</ele>
        <time>2018-06-14T11:13:38Z</time>
      </trkpt>
      <trkpt lat="41.6088700" lon="2.0233970">
        <ele>455.2</ele>
        <time>2018-06-14T11:13:40Z</time>
      </trkpt>
      <trkpt lat="41.6089130" lon="2.0233500">
        <ele>454.6</ele>
        <time>2018-06-14T11:13:42Z</time>
      </trkpt>
      <trkpt lat="41.6089590" lon="2.0233130">
        <ele>454.4</ele>
        <time>2018-06-14T11:13:44Z</time>
      </trkpt>
      <trkpt lat="41.6090450" lon="2.0232670">
        <ele>454.4</ele>
        <time>2018-06-14T11:13:48Z</time>
      </trkpt>
      <trkpt lat="41.6091920" lon="2.0232500">
        <ele>454.2</ele>
        <time>2018-06-14T11:13:54Z</time>
      </trkpt>
      <trkpt lat="41.6093320" lon="2.0232410">
        <ele>455.2</ele>
        <time>2018-06-14T11:14:00Z</time>
      </trkpt>
      <trkpt lat="41.6094720" lon="2.0232330">
        <ele>455.6</ele>
        <time>2018-06-14T11:14:06Z</time>
      </trkpt>
      <trkpt lat="41.6095660" lon="2.0232340">
        <ele>455.6</ele>
        <time>2018-06-14T11:14:11Z</time>
      </trkpt>
      <trkpt lat="41.6095880" lon="2.0232350">
        <ele>455.8</ele>
        <time>2018-06-14T11:14:12Z</time>
      </trkpt>
      <trkpt lat="41.6096970" lon="2.0232620">
        <ele>456.4</ele>
        <time>2018-06-14T11:14:18Z</time>
      </trkpt>
      <trkpt lat="41.6097490" lon="2.0232660">
        <ele>457.0</ele>
        <time>2018-06-14T11:14:22Z</time>
      </trkpt>
      <trkpt lat="41.6097820" lon="2.0232700">
        <ele>457.8</ele>
        <time>2018-06-14T11:14:25Z</time>
      </trkpt>
      <trkpt lat="41.6097890" lon="2.0232670">
        <ele>458.2</ele>
        <time>2018-06-14T11:14:26Z</time>
      </trkpt>
      <trkpt lat="41.6098060" lon="2.0232510">
        <ele>458.8</ele>
        <time>2018-06-14T11:14:28Z</time>
      </trkpt>
      <trkpt lat="41.6098620" lon="2.0232340">
        <ele>459.2</ele>
        <time>2018-06-14T11:14:31Z</time>
      </trkpt>
      <trkpt lat="41.6098870" lon="2.0232330">
        <ele>459.2</ele>
        <time>2018-06-14T11:14:32Z</time>
      </trkpt>
      <trkpt lat="41.6100770" lon="2.0232090">
        <ele>460.4</ele>
        <time>2018-06-14T11:14:40Z</time>
      </trkpt>
      <trkpt lat="41.6101920" lon="2.0232610">
        <ele>460.6</ele>
        <time>2018-06-14T11:14:45Z</time>
      </trkpt>
      <trkpt lat="41.6102710" lon="2.0233260">
        <ele>460.6</ele>
        <time>2018-06-14T11:14:49Z</time>
      </trkpt>
      <trkpt lat="41.6102900" lon="2.0233420">
        <ele>460.8</ele>
        <time>2018-06-14T11:14:50Z</time>
      </trkpt>
      <trkpt lat="41.6103640" lon="2.0234000">
        <ele>461.4</ele>
        <time>2018-06-14T11:14:54Z</time>
      </trkpt>
      <trkpt lat="41.6103900" lon="2.0234250">
        <ele>462.0</ele>
        <time>2018-06-14T11:14:56Z</time>
      </trkpt>
      <trkpt lat="41.6104260" lon="2.0234580">
        <ele>462.6</ele>
        <time>2018-06-14T11:15:00Z</time>
      </trkpt>
      <trkpt lat="41.6104370" lon="2.0234550">
        <ele>462.8</ele>
        <time>2018-06-14T11:15:01Z</time>
      </trkpt>
      <trkpt lat="41.6104830" lon="2.0234580">
        <ele>463.8</ele>
        <time>2018-06-14T11:15:04Z</time>
      </trkpt>
      <trkpt lat="41.6105330" lon="2.0234390">
        <ele>464.4</ele>
        <time>2018-06-14T11:15:08Z</time>
      </trkpt>
      <trkpt lat="41.6106680" lon="2.0234080">
        <ele>464.2</ele>
        <time>2018-06-14T11:15:14Z</time>
      </trkpt>
      <trkpt lat="41.6108180" lon="2.0233400">
        <ele>464.2</ele>
        <time>2018-06-14T11:15:20Z</time>
      </trkpt>
      <trkpt lat="41.6109300" lon="2.0232790">
        <ele>464.4</ele>
        <time>2018-06-14T11:15:26Z</time>
      </trkpt>
      <trkpt lat="41.6110660" lon="2.0231960">
        <ele>464.8</ele>
        <time>2018-06-14T11:15:34Z</time>
      </trkpt>
      <trkpt lat="41.6110850" lon="2.0231850">
        <ele>464.8</ele>
        <time>2018-06-14T11:15:35Z</time>
      </trkpt>
      <trkpt lat="41.6112300" lon="2.0231320">
        <ele>464.8</ele>
        <time>2018-06-14T11:15:41Z</time>
      </trkpt>
      <trkpt lat="41.6114420" lon="2.0230960">
        <ele>465.8</ele>
        <time>2018-06-14T11:15:48Z</time>
      </trkpt>
      <trkpt lat="41.6114620" lon="2.0230930">
        <ele>465.6</ele>
        <time>2018-06-14T11:15:49Z</time>
      </trkpt>
      <trkpt lat="41.6115870" lon="2.0230960">
        <ele>465.4</ele>
        <time>2018-06-14T11:15:55Z</time>
      </trkpt>
      <trkpt lat="41.6116010" lon="2.0230930">
        <ele>465.6</ele>
        <time>2018-06-14T11:15:57Z</time>
      </trkpt>
      <trkpt lat="41.6116090" lon="2.0230920">
        <ele>465.6</ele>
        <time>2018-06-14T11:16:01Z</time>
      </trkpt>
      <trkpt lat="41.6116370" lon="2.0230770">
        <ele>465.8</ele>
        <time>2018-06-14T11:16:05Z</time>
      </trkpt>
      <trkpt lat="41.6116510" lon="2.0230730">
        <ele>466.2</ele>
        <time>2018-06-14T11:16:10Z</time>
      </trkpt>
      <trkpt lat="41.6116490" lon="2.0230700">
        <ele>466.2</ele>
        <time>2018-06-14T11:16:15Z</time>
      </trkpt>
      <trkpt lat="41.6116550" lon="2.0230610">
        <ele>466.4</ele>
        <time>2018-06-14T11:16:19Z</time>
      </trkpt>
      <trkpt lat="41.6116790" lon="2.0230600">
        <ele>466.2</ele>
        <time>2018-06-14T11:16:23Z</time>
      </trkpt>
      <trkpt lat="41.6117480" lon="2.0230630">
        <ele>466.2</ele>
        <time>2018-06-14T11:16:26Z</time>
      </trkpt>
      <trkpt lat="41.6117660" lon="2.0230670">
        <ele>466.2</ele>
        <time>2018-06-14T11:16:27Z</time>
      </trkpt>
      <trkpt lat="41.6118060" lon="2.0230930">
        <ele>467.0</ele>
        <time>2018-06-14T11:16:30Z</time>
      </trkpt>
      <trkpt lat="41.6118370" lon="2.0231140">
        <ele>467.0</ele>
        <time>2018-06-14T11:16:32Z</time>
      </trkpt>
      <trkpt lat="41.6118790" lon="2.0231490">
        <ele>467.0</ele>
        <time>2018-06-14T11:16:34Z</time>
      </trkpt>
      <trkpt lat="41.6119300" lon="2.0232060">
        <ele>466.8</ele>
        <time>2018-06-14T11:16:37Z</time>
      </trkpt>
      <trkpt lat="41.6119610" lon="2.0232530">
        <ele>467.2</ele>
        <time>2018-06-14T11:16:39Z</time>
      </trkpt>
      <trkpt lat="41.6119950" lon="2.0233340">
        <ele>468.0</ele>
        <time>2018-06-14T11:16:42Z</time>
      </trkpt>
      <trkpt lat="41.6120080" lon="2.0233570">
        <ele>468.0</ele>
        <time>2018-06-14T11:16:43Z</time>
      </trkpt>
      <trkpt lat="41.6120300" lon="2.0233980">
        <ele>468.4</ele>
        <time>2018-06-14T11:16:45Z</time>
      </trkpt>
      <trkpt lat="41.6120350" lon="2.0234210">
        <ele>468.6</ele>
        <time>2018-06-14T11:16:46Z</time>
      </trkpt>
      <trkpt lat="41.6120460" lon="2.0234620">
        <ele>469.0</ele>
        <time>2018-06-14T11:16:48Z</time>
      </trkpt>
      <trkpt lat="41.6120530" lon="2.0234800">
        <ele>469.4</ele>
        <time>2018-06-14T11:16:49Z</time>
      </trkpt>
      <trkpt lat="41.6120650" lon="2.0234950">
        <ele>470.0</ele>
        <time>2018-06-14T11:16:50Z</time>
      </trkpt>
      <trkpt lat="41.6120800" lon="2.0235090">
        <ele>470.2</ele>
        <time>2018-06-14T11:16:51Z</time>
      </trkpt>
      <trkpt lat="41.6121210" lon="2.0235330">
        <ele>470.8</ele>
        <time>2018-06-14T11:16:54Z</time>
      </trkpt>
      <trkpt lat="41.6121510" lon="2.0235780">
        <ele>470.8</ele>
        <time>2018-06-14T11:16:57Z</time>
      </trkpt>
      <trkpt lat="41.6121730" lon="2.0235980">
        <ele>471.0</ele>
        <time>2018-06-14T11:16:59Z</time>
      </trkpt>
      <trkpt lat="41.6122110" lon="2.0236100">
        <ele>471.2</ele>
        <time>2018-06-14T11:17:01Z</time>
      </trkpt>
      <trkpt lat="41.6122980" lon="2.0236420">
        <ele>471.8</ele>
        <time>2018-06-14T11:17:06Z</time>
      </trkpt>
      <trkpt lat="41.6123710" lon="2.0236570">
        <ele>472.4</ele>
        <time>2018-06-14T11:17:10Z</time>
      </trkpt>
      <trkpt lat="41.6123970" lon="2.0236600">
        <ele>472.8</ele>
        <time>2018-06-14T11:17:11Z</time>
      </trkpt>
      <trkpt lat="41.6124100" lon="2.0236780">
        <ele>473.2</ele>
        <time>2018-06-14T11:17:12Z</time>
      </trkpt>
      <trkpt lat="41.6124330" lon="2.0237100">
        <ele>473.6</ele>
        <time>2018-06-14T11:17:14Z</time>
      </trkpt>
      <trkpt lat="41.6124430" lon="2.0237180">
        <ele>473.8</ele>
        <time>2018-06-14T11:17:15Z</time>
      </trkpt>
      <trkpt lat="41.6124830" lon="2.0237300">
        <ele>474.0</ele>
        <time>2018-06-14T11:17:17Z</time>
      </trkpt>
      <trkpt lat="41.6125280" lon="2.0237460">
        <ele>474.2</ele>
        <time>2018-06-14T11:17:20Z</time>
      </trkpt>
      <trkpt lat="41.6125750" lon="2.0237800">
        <ele>474.2</ele>
        <time>2018-06-14T11:17:23Z</time>
      </trkpt>
      <trkpt lat="41.6126100" lon="2.0237910">
        <ele>475.0</ele>
        <time>2018-06-14T11:17:26Z</time>
      </trkpt>
      <trkpt lat="41.6126340" lon="2.0237990">
        <ele>475.8</ele>
        <time>2018-06-14T11:17:28Z</time>
      </trkpt>
      <trkpt lat="41.6126450" lon="2.0237990">
        <ele>476.2</ele>
        <time>2018-06-14T11:17:29Z</time>
      </trkpt>
      <trkpt lat="41.6126620" lon="2.0237960">
        <ele>477.4</ele>
        <time>2018-06-14T11:17:32Z</time>
      </trkpt>
      <trkpt lat="41.6126690" lon="2.0237960">
        <ele>478.2</ele>
        <time>2018-06-14T11:17:35Z</time>
      </trkpt>
      <trkpt lat="41.6126780" lon="2.0238000">
        <ele>478.4</ele>
        <time>2018-06-14T11:17:36Z</time>
      </trkpt>
      <trkpt lat="41.6126840" lon="2.0238040">
        <ele>478.4</ele>
        <time>2018-06-14T11:17:37Z</time>
      </trkpt>
      <trkpt lat="41.6127480" lon="2.0238200">
        <ele>478.6</ele>
        <time>2018-06-14T11:17:41Z</time>
      </trkpt>
      <trkpt lat="41.6127670" lon="2.0238310">
        <ele>478.6</ele>
        <time>2018-06-14T11:17:43Z</time>
      </trkpt>
      <trkpt lat="41.6127820" lon="2.0238390">
        <ele>479.0</ele>
        <time>2018-06-14T11:17:46Z</time>
      </trkpt>
      <trkpt lat="41.6127880" lon="2.0238320">
        <ele>479.2</ele>
        <time>2018-06-14T11:17:48Z</time>
      </trkpt>
      <trkpt lat="41.6128260" lon="2.0238100">
        <ele>479.6</ele>
        <time>2018-06-14T11:17:51Z</time>
      </trkpt>
      <trkpt lat="41.6128780" lon="2.0237970">
        <ele>479.8</ele>
        <time>2018-06-14T11:17:53Z</time>
      </trkpt>
      <trkpt lat="41.6129580" lon="2.0237790">
        <ele>480.4</ele>
        <time>2018-06-14T11:17:56Z</time>
      </trkpt>
      <trkpt lat="41.6130010" lon="2.0237550">
        <ele>480.8</ele>
        <time>2018-06-14T11:17:58Z</time>
      </trkpt>
      <trkpt lat="41.6130240" lon="2.0237460">
        <ele>481.0</ele>
        <time>2018-06-14T11:17:59Z</time>
      </trkpt>
      <trkpt lat="41.6131890" lon="2.0236890">
        <ele>481.0</ele>
        <time>2018-06-14T11:18:05Z</time>
      </trkpt>
      <trkpt lat="41.6133720" lon="2.0236770">
        <ele>481.2</ele>
        <time>2018-06-14T11:18:11Z</time>
      </trkpt>
      <trkpt lat="41.6134750" lon="2.0237010">
        <ele>481.8</ele>
        <time>2018-06-14T11:18:15Z</time>
      </trkpt>
      <trkpt lat="41.6135790" lon="2.0237550">
        <ele>482.0</ele>
        <time>2018-06-14T11:18:18Z</time>
      </trkpt>
      <trkpt lat="41.6136750" lon="2.0238270">
        <ele>482.4</ele>
        <time>2018-06-14T11:18:22Z</time>
      </trkpt>
      <trkpt lat="41.6136950" lon="2.0238440">
        <ele>482.6</ele>
        <time>2018-06-14T11:18:23Z</time>
      </trkpt>
      <trkpt lat="41.6137700" lon="2.0239030">
        <ele>483.0</ele>
        <time>2018-06-14T11:18:27Z</time>
      </trkpt>
      <trkpt lat="41.6137860" lon="2.0239140">
        <ele>483.0</ele>
        <time>2018-06-14T11:18:28Z</time>
      </trkpt>
      <trkpt lat="41.6138520" lon="2.0240040">
        <ele>483.8</ele>
        <time>2018-06-14T11:18:33Z</time>
      </trkpt>
      <trkpt lat="41.6139330" lon="2.0241430">
        <ele>483.6</ele>
        <time>2018-06-14T11:18:39Z</time>
      </trkpt>
      <trkpt lat="41.6139670" lon="2.0242100">
        <ele>484.0</ele>
        <time>2018-06-14T11:18:42Z</time>
      </trkpt>
      <trkpt lat="41.6140390" lon="2.0242620">
        <ele>484.6</ele>
        <time>2018-06-14T11:18:46Z</time>
      </trkpt>
      <trkpt lat="41.6141230" lon="2.0242990">
        <ele>485.0</ele>
        <time>2018-06-14T11:18:51Z</time>
      </trkpt>
      <trkpt lat="41.6141330" lon="2.0243010">
        <ele>485.2</ele>
        <time>2018-06-14T11:18:52Z</time>
      </trkpt>
      <trkpt lat="41.6141400" lon="2.0243030">
        <ele>485.4</ele>
        <time>2018-06-14T11:18:53Z</time>
      </trkpt>
      <trkpt lat="41.6141560" lon="2.0243200">
        <ele>485.8</ele>
        <time>2018-06-14T11:18:56Z</time>
      </trkpt>
      <trkpt lat="41.6141710" lon="2.0243350">
        <ele>486.0</ele>
        <time>2018-06-14T11:18:58Z</time>
      </trkpt>
      <trkpt lat="41.6141710" lon="2.0243530">
        <ele>486.4</ele>
        <time>2018-06-14T11:18:59Z</time>
      </trkpt>
      <trkpt lat="41.6141710" lon="2.0243770">
        <ele>486.8</ele>
        <time>2018-06-14T11:19:01Z</time>
      </trkpt>
      <trkpt lat="41.6141780" lon="2.0243870">
        <ele>487.2</ele>
        <time>2018-06-14T11:19:02Z</time>
      </trkpt>
      <trkpt lat="41.6141840" lon="2.0244040">
        <ele>487.4</ele>
        <time>2018-06-14T11:19:04Z</time>
      </trkpt>
      <trkpt lat="41.6141840" lon="2.0244130">
        <ele>487.4</ele>
        <time>2018-06-14T11:19:05Z</time>
      </trkpt>
      <trkpt lat="41.6141840" lon="2.0244230">
        <ele>487.4</ele>
        <time>2018-06-14T11:19:06Z</time>
      </trkpt>
      <trkpt lat="41.6141870" lon="2.0244540">
        <ele>487.6</ele>
        <time>2018-06-14T11:19:09Z</time>
      </trkpt>
      <trkpt lat="41.6141810" lon="2.0244660">
        <ele>487.6</ele>
        <time>2018-06-14T11:19:11Z</time>
      </trkpt>
      <trkpt lat="41.6141730" lon="2.0244770">
        <ele>487.8</ele>
        <time>2018-06-14T11:19:12Z</time>
      </trkpt>
      <trkpt lat="41.6141610" lon="2.0245280">
        <ele>488.4</ele>
        <time>2018-06-14T11:19:16Z</time>
      </trkpt>
      <trkpt lat="41.6141720" lon="2.0245490">
        <ele>488.6</ele>
        <time>2018-06-14T11:19:18Z</time>
      </trkpt>
      <trkpt lat="41.6141710" lon="2.0245560">
        <ele>488.8</ele>
        <time>2018-06-14T11:19:19Z</time>
      </trkpt>
      <trkpt lat="41.6141520" lon="2.0245920">
        <ele>489.4</ele>
        <time>2018-06-14T11:19:22Z</time>
      </trkpt>
      <trkpt lat="41.6141430" lon="2.0246100">
        <ele>489.6</ele>
        <time>2018-06-14T11:19:23Z</time>
      </trkpt>
      <trkpt lat="41.6141370" lon="2.0246240">
        <ele>489.8</ele>
        <time>2018-06-14T11:19:24Z</time>
      </trkpt>
      <trkpt lat="41.6140800" lon="2.0246860">
        <ele>490.2</ele>
        <time>2018-06-14T11:19:29Z</time>
      </trkpt>
      <trkpt lat="41.6140710" lon="2.0246980">
        <ele>490.4</ele>
        <time>2018-06-14T11:19:30Z</time>
      </trkpt>
      <trkpt lat="41.6140650" lon="2.0247150">
        <ele>490.6</ele>
        <time>2018-06-14T11:19:31Z</time>
      </trkpt>
      <trkpt lat="41.6140650" lon="2.0247540">
        <ele>491.4</ele>
        <time>2018-06-14T11:19:34Z</time>
      </trkpt>
      <trkpt lat="41.6140690" lon="2.0247680">
        <ele>491.8</ele>
        <time>2018-06-14T11:19:35Z</time>
      </trkpt>
      <trkpt lat="41.6140730" lon="2.0247930">
        <ele>492.8</ele>
        <time>2018-06-14T11:19:38Z</time>
      </trkpt>
      <trkpt lat="41.6140790" lon="2.0248010">
        <ele>492.8</ele>
        <time>2018-06-14T11:19:39Z</time>
      </trkpt>
      <trkpt lat="41.6140880" lon="2.0248190">
        <ele>493.2</ele>
        <time>2018-06-14T11:19:41Z</time>
      </trkpt>
      <trkpt lat="41.6140810" lon="2.0248580">
        <ele>493.8</ele>
        <time>2018-06-14T11:19:47Z</time>
      </trkpt>
      <trkpt lat="41.6140830" lon="2.0248630">
        <ele>493.8</ele>
        <time>2018-06-14T11:19:48Z</time>
      </trkpt>
      <trkpt lat="41.6141020" lon="2.0249030">
        <ele>493.8</ele>
        <time>2018-06-14T11:19:52Z</time>
      </trkpt>
      <trkpt lat="41.6141340" lon="2.0249200">
        <ele>494.0</ele>
        <time>2018-06-14T11:19:55Z</time>
      </trkpt>
      <trkpt lat="41.6141830" lon="2.0249780">
        <ele>495.6</ele>
        <time>2018-06-14T11:21:14Z</time>
      </trkpt>
      <trkpt lat="41.6141830" lon="2.0249780">
        <ele>495.6</ele>
        <time>2018-06-14T11:21:15Z</time>
      </trkpt>
      <trkpt lat="41.6141830" lon="2.0249780">
        <ele>495.6</ele>
        <time>2018-06-14T11:21:16Z</time>
      </trkpt>
      <trkpt lat="41.6141860" lon="2.0250010">
        <ele>495.6</ele>
        <time>2018-06-14T11:21:18Z</time>
      </trkpt>
      <trkpt lat="41.6141980" lon="2.0250540">
        <ele>495.4</ele>
        <time>2018-06-14T11:21:21Z</time>
      </trkpt>
      <trkpt lat="41.6142510" lon="2.0251300">
        <ele>496.8</ele>
        <time>2018-06-14T11:21:25Z</time>
      </trkpt>
      <trkpt lat="41.6142470" lon="2.0251560">
        <ele>497.0</ele>
        <time>2018-06-14T11:21:26Z</time>
      </trkpt>
      <trkpt lat="41.6142800" lon="2.0252280">
        <ele>497.6</ele>
        <time>2018-06-14T11:21:29Z</time>
      </trkpt>
      <trkpt lat="41.6143130" lon="2.0252580">
        <ele>498.0</ele>
        <time>2018-06-14T11:21:31Z</time>
      </trkpt>
      <trkpt lat="41.6143220" lon="2.0252730">
        <ele>498.0</ele>
        <time>2018-06-14T11:21:32Z</time>
      </trkpt>
      <trkpt lat="41.6143430" lon="2.0252850">
        <ele>498.4</ele>
        <time>2018-06-14T11:21:34Z</time>
      </trkpt>
      <trkpt lat="41.6143630" lon="2.0252810">
        <ele>498.6</ele>
        <time>2018-06-14T11:21:35Z</time>
      </trkpt>
      <trkpt lat="41.6143800" lon="2.0252820">
        <ele>498.8</ele>
        <time>2018-06-14T11:21:36Z</time>
      </trkpt>
      <trkpt lat="41.6143950" lon="2.0252820">
        <ele>499.0</ele>
        <time>2018-06-14T11:21:37Z</time>
      </trkpt>
      <trkpt lat="41.6144320" lon="2.0252820">
        <ele>499.6</ele>
        <time>2018-06-14T11:21:39Z</time>
      </trkpt>
      <trkpt lat="41.6144650" lon="2.0252730">
        <ele>500.0</ele>
        <time>2018-06-14T11:21:41Z</time>
      </trkpt>
      <trkpt lat="41.6144800" lon="2.0252700">
        <ele>500.2</ele>
        <time>2018-06-14T11:21:42Z</time>
      </trkpt>
      <trkpt lat="41.6145130" lon="2.0252680">
        <ele>501.0</ele>
        <time>2018-06-14T11:21:44Z</time>
      </trkpt>
      <trkpt lat="41.6145390" lon="2.0252670">
        <ele>501.4</ele>
        <time>2018-06-14T11:21:45Z</time>
      </trkpt>
      <trkpt lat="41.6146360" lon="2.0252490">
        <ele>502.2</ele>
        <time>2018-06-14T11:21:49Z</time>
      </trkpt>
      <trkpt lat="41.6146570" lon="2.0252500">
        <ele>502.4</ele>
        <time>2018-06-14T11:21:50Z</time>
      </trkpt>
      <trkpt lat="41.6148010" lon="2.0252470">
        <ele>502.4</ele>
        <time>2018-06-14T11:21:56Z</time>
      </trkpt>
      <trkpt lat="41.6149160" lon="2.0252270">
        <ele>503.2</ele>
        <time>2018-06-14T11:22:02Z</time>
      </trkpt>
      <trkpt lat="41.6149440" lon="2.0252220">
        <ele>503.2</ele>
        <time>2018-06-14T11:22:03Z</time>
      </trkpt>
      <trkpt lat="41.6149650" lon="2.0252330">
        <ele>503.4</ele>
        <time>2018-06-14T11:22:06Z</time>
      </trkpt>
      <trkpt lat="41.6149870" lon="2.0252360">
        <ele>504.2</ele>
        <time>2018-06-14T11:22:08Z</time>
      </trkpt>
      <trkpt lat="41.6150160" lon="2.0252490">
        <ele>504.8</ele>
        <time>2018-06-14T11:22:10Z</time>
      </trkpt>
      <trkpt lat="41.6150670" lon="2.0252700">
        <ele>505.2</ele>
        <time>2018-06-14T11:22:13Z</time>
      </trkpt>
      <trkpt lat="41.6151440" lon="2.0253140">
        <ele>506.2</ele>
        <time>2018-06-14T11:22:18Z</time>
      </trkpt>
      <trkpt lat="41.6151990" lon="2.0253180">
        <ele>507.0</ele>
        <time>2018-06-14T11:22:21Z</time>
      </trkpt>
      <trkpt lat="41.6152150" lon="2.0253270">
        <ele>507.2</ele>
        <time>2018-06-14T11:22:22Z</time>
      </trkpt>
      <trkpt lat="41.6152450" lon="2.0253240">
        <ele>507.2</ele>
        <time>2018-06-14T11:22:24Z</time>
      </trkpt>
      <trkpt lat="41.6153480" lon="2.0253530">
        <ele>508.2</ele>
        <time>2018-06-14T11:22:28Z</time>
      </trkpt>
      <trkpt lat="41.6153680" lon="2.0253640">
        <ele>508.6</ele>
        <time>2018-06-14T11:22:29Z</time>
      </trkpt>
      <trkpt lat="41.6154310" lon="2.0253650">
        <ele>509.2</ele>
        <time>2018-06-14T11:22:33Z</time>
      </trkpt>
      <trkpt lat="41.6154600" lon="2.0253640">
        <ele>509.6</ele>
        <time>2018-06-14T11:22:35Z</time>
      </trkpt>
      <trkpt lat="41.6154930" lon="2.0253640">
        <ele>510.2</ele>
        <time>2018-06-14T11:22:37Z</time>
      </trkpt>
      <trkpt lat="41.6155230" lon="2.0253650">
        <ele>510.6</ele>
        <time>2018-06-14T11:22:39Z</time>
      </trkpt>
      <trkpt lat="41.6155590" lon="2.0253780">
        <ele>511.0</ele>
        <time>2018-06-14T11:22:42Z</time>
      </trkpt>
      <trkpt lat="41.6155740" lon="2.0253730">
        <ele>511.4</ele>
        <time>2018-06-14T11:22:43Z</time>
      </trkpt>
      <trkpt lat="41.6155890" lon="2.0253720">
        <ele>511.4</ele>
        <time>2018-06-14T11:22:44Z</time>
      </trkpt>
      <trkpt lat="41.6156050" lon="2.0253660">
        <ele>511.8</ele>
        <time>2018-06-14T11:22:45Z</time>
      </trkpt>
      <trkpt lat="41.6156320" lon="2.0253240">
        <ele>512.6</ele>
        <time>2018-06-14T11:22:48Z</time>
      </trkpt>
      <trkpt lat="41.6156450" lon="2.0253090">
        <ele>512.8</ele>
        <time>2018-06-14T11:22:49Z</time>
      </trkpt>
      <trkpt lat="41.6156960" lon="2.0252340">
        <ele>513.8</ele>
        <time>2018-06-14T11:22:53Z</time>
      </trkpt>
      <trkpt lat="41.6157170" lon="2.0252040">
        <ele>514.2</ele>
        <time>2018-06-14T11:22:55Z</time>
      </trkpt>
      <trkpt lat="41.6157520" lon="2.0251670">
        <ele>514.8</ele>
        <time>2018-06-14T11:22:58Z</time>
      </trkpt>
      <trkpt lat="41.6158220" lon="2.0250920">
        <ele>516.0</ele>
        <time>2018-06-14T11:23:03Z</time>
      </trkpt>
      <trkpt lat="41.6158990" lon="2.0250030">
        <ele>516.8</ele>
        <time>2018-06-14T11:23:10Z</time>
      </trkpt>
      <trkpt lat="41.6159180" lon="2.0249820">
        <ele>517.0</ele>
        <time>2018-06-14T11:23:11Z</time>
      </trkpt>
      <trkpt lat="41.6159600" lon="2.0249160">
        <ele>517.6</ele>
        <time>2018-06-14T11:23:14Z</time>
      </trkpt>
      <trkpt lat="41.6159870" lon="2.0248450">
        <ele>518.2</ele>
        <time>2018-06-14T11:23:17Z</time>
      </trkpt>
      <trkpt lat="41.6159900" lon="2.0248170">
        <ele>518.4</ele>
        <time>2018-06-14T11:23:18Z</time>
      </trkpt>
      <trkpt lat="41.6160000" lon="2.0247620">
        <ele>518.8</ele>
        <time>2018-06-14T11:23:20Z</time>
      </trkpt>
      <trkpt lat="41.6160390" lon="2.0246150">
        <ele>518.8</ele>
        <time>2018-06-14T11:23:24Z</time>
      </trkpt>
      <trkpt lat="41.6160610" lon="2.0245550">
        <ele>518.2</ele>
        <time>2018-06-14T11:23:26Z</time>
      </trkpt>
      <trkpt lat="41.6160930" lon="2.0244790">
        <ele>517.0</ele>
        <time>2018-06-14T11:23:29Z</time>
      </trkpt>
      <trkpt lat="41.6161060" lon="2.0244520">
        <ele>516.8</ele>
        <time>2018-06-14T11:23:30Z</time>
      </trkpt>
      <trkpt lat="41.6161380" lon="2.0243690">
        <ele>517.0</ele>
        <time>2018-06-14T11:23:33Z</time>
      </trkpt>
      <trkpt lat="41.6161860" lon="2.0242690">
        <ele>517.6</ele>
        <time>2018-06-14T11:23:37Z</time>
      </trkpt>
      <trkpt lat="41.6162440" lon="2.0241450">
        <ele>518.0</ele>
        <time>2018-06-14T11:23:43Z</time>
      </trkpt>
      <trkpt lat="41.6162580" lon="2.0241240">
        <ele>517.8</ele>
        <time>2018-06-14T11:23:44Z</time>
      </trkpt>
      <trkpt lat="41.6162930" lon="2.0240490">
        <ele>517.6</ele>
        <time>2018-06-14T11:23:47Z</time>
      </trkpt>
      <trkpt lat="41.6163030" lon="2.0240290">
        <ele>517.4</ele>
        <time>2018-06-14T11:23:48Z</time>
      </trkpt>
      <trkpt lat="41.6163740" lon="2.0239920">
        <ele>517.8</ele>
        <time>2018-06-14T11:23:53Z</time>
      </trkpt>
      <trkpt lat="41.6164200" lon="2.0239810">
        <ele>518.4</ele>
        <time>2018-06-14T11:23:55Z</time>
      </trkpt>
      <trkpt lat="41.6164790" lon="2.0239520">
        <ele>518.6</ele>
        <time>2018-06-14T11:23:58Z</time>
      </trkpt>
      <trkpt lat="41.6164830" lon="2.0239340">
        <ele>518.6</ele>
        <time>2018-06-14T11:23:59Z</time>
      </trkpt>
      <trkpt lat="41.6164910" lon="2.0239200">
        <ele>518.6</ele>
        <time>2018-06-14T11:24:00Z</time>
      </trkpt>
      <trkpt lat="41.6165190" lon="2.0238830">
        <ele>519.4</ele>
        <time>2018-06-14T11:24:03Z</time>
      </trkpt>
      <trkpt lat="41.6165260" lon="2.0238710">
        <ele>519.8</ele>
        <time>2018-06-14T11:24:04Z</time>
      </trkpt>
      <trkpt lat="41.6165380" lon="2.0238410">
        <ele>520.2</ele>
        <time>2018-06-14T11:24:06Z</time>
      </trkpt>
      <trkpt lat="41.6165950" lon="2.0237550">
        <ele>520.4</ele>
        <time>2018-06-14T11:24:12Z</time>
      </trkpt>
      <trkpt lat="41.6166080" lon="2.0237440">
        <ele>520.4</ele>
        <time>2018-06-14T11:24:13Z</time>
      </trkpt>
      <trkpt lat="41.6166330" lon="2.0237310">
        <ele>520.4</ele>
        <time>2018-06-14T11:24:15Z</time>
      </trkpt>
      <trkpt lat="41.6166610" lon="2.0237230">
        <ele>520.6</ele>
        <time>2018-06-14T11:24:17Z</time>
      </trkpt>
      <trkpt lat="41.6166730" lon="2.0237120">
        <ele>520.6</ele>
        <time>2018-06-14T11:24:18Z</time>
      </trkpt>
      <trkpt lat="41.6167830" lon="2.0236830">
        <ele>520.8</ele>
        <time>2018-06-14T11:24:24Z</time>
      </trkpt>
      <trkpt lat="41.6169010" lon="2.0236420">
        <ele>521.2</ele>
        <time>2018-06-14T11:24:31Z</time>
      </trkpt>
      <trkpt lat="41.6169370" lon="2.0236100">
        <ele>521.4</ele>
        <time>2018-06-14T11:24:35Z</time>
      </trkpt>
      <trkpt lat="41.6169550" lon="2.0236000">
        <ele>521.6</ele>
        <time>2018-06-14T11:24:36Z</time>
      </trkpt>
      <trkpt lat="41.6170860" lon="2.0235220">
        <ele>522.0</ele>
        <time>2018-06-14T11:24:43Z</time>
      </trkpt>
      <trkpt lat="41.6171980" lon="2.0234180">
        <ele>522.6</ele>
        <time>2018-06-14T11:24:49Z</time>
      </trkpt>
      <trkpt lat="41.6172090" lon="2.0233910">
        <ele>522.6</ele>
        <time>2018-06-14T11:24:50Z</time>
      </trkpt>
      <trkpt lat="41.6172240" lon="2.0232520">
        <ele>523.0</ele>
        <time>2018-06-14T11:24:55Z</time>
      </trkpt>
      <trkpt lat="41.6172240" lon="2.0232080">
        <ele>523.2</ele>
        <time>2018-06-14T11:24:57Z</time>
      </trkpt>
      <trkpt lat="41.6172270" lon="2.0231650">
        <ele>523.4</ele>
        <time>2018-06-14T11:25:00Z</time>
      </trkpt>
      <trkpt lat="41.6172320" lon="2.0231360">
        <ele>523.4</ele>
        <time>2018-06-14T11:25:02Z</time>
      </trkpt>
      <trkpt lat="41.6172370" lon="2.0231260">
        <ele>523.6</ele>
        <time>2018-06-14T11:25:03Z</time>
      </trkpt>
      <trkpt lat="41.6172510" lon="2.0231060">
        <ele>523.8</ele>
        <time>2018-06-14T11:25:05Z</time>
      </trkpt>
      <trkpt lat="41.6172850" lon="2.0230500">
        <ele>524.2</ele>
        <time>2018-06-14T11:25:12Z</time>
      </trkpt>
      <trkpt lat="41.6172960" lon="2.0230380">
        <ele>524.4</ele>
        <time>2018-06-14T11:25:14Z</time>
      </trkpt>
      <trkpt lat="41.6173050" lon="2.0230320">
        <ele>524.6</ele>
        <time>2018-06-14T11:25:16Z</time>
      </trkpt>
      <trkpt lat="41.6173370" lon="2.0230160">
        <ele>524.8</ele>
        <time>2018-06-14T11:25:19Z</time>
      </trkpt>
      <trkpt lat="41.6173870" lon="2.0229520">
        <ele>525.4</ele>
        <time>2018-06-14T11:25:25Z</time>
      </trkpt>
      <trkpt lat="41.6174110" lon="2.0229270">
        <ele>525.6</ele>
        <time>2018-06-14T11:25:28Z</time>
      </trkpt>
      <trkpt lat="41.6174280" lon="2.0229040">
        <ele>525.8</ele>
        <time>2018-06-14T11:25:31Z</time>
      </trkpt>
      <trkpt lat="41.6174310" lon="2.0228960">
        <ele>526.0</ele>
        <time>2018-06-14T11:25:32Z</time>
      </trkpt>
      <trkpt lat="41.6174400" lon="2.0228900">
        <ele>526.0</ele>
        <time>2018-06-14T11:25:33Z</time>
      </trkpt>
      <trkpt lat="41.6174720" lon="2.0228600">
        <ele>526.6</ele>
        <time>2018-06-14T11:25:38Z</time>
      </trkpt>
      <trkpt lat="41.6174840" lon="2.0228410">
        <ele>526.8</ele>
        <time>2018-06-14T11:25:40Z</time>
      </trkpt>
      <trkpt lat="41.6175010" lon="2.0228310">
        <ele>526.8</ele>
        <time>2018-06-14T11:25:42Z</time>
      </trkpt>
      <trkpt lat="41.6175250" lon="2.0228050">
        <ele>527.2</ele>
        <time>2018-06-14T11:25:45Z</time>
      </trkpt>
      <trkpt lat="41.6175350" lon="2.0227860">
        <ele>527.4</ele>
        <time>2018-06-14T11:25:47Z</time>
      </trkpt>
      <trkpt lat="41.6175530" lon="2.0227620">
        <ele>527.6</ele>
        <time>2018-06-14T11:25:49Z</time>
      </trkpt>
      <trkpt lat="41.6175760" lon="2.0227500">
        <ele>527.8</ele>
        <time>2018-06-14T11:25:51Z</time>
      </trkpt>
      <trkpt lat="41.6175970" lon="2.0227440">
        <ele>528.0</ele>
        <time>2018-06-14T11:25:54Z</time>
      </trkpt>
      <trkpt lat="41.6176350" lon="2.0227250">
        <ele>528.4</ele>
        <time>2018-06-14T11:25:58Z</time>
      </trkpt>
      <trkpt lat="41.6176580" lon="2.0227030">
        <ele>528.8</ele>
        <time>2018-06-14T11:26:01Z</time>
      </trkpt>
      <trkpt lat="41.6176850" lon="2.0226870">
        <ele>529.2</ele>
        <time>2018-06-14T11:26:05Z</time>
      </trkpt>
      <trkpt lat="41.6177000" lon="2.0226880">
        <ele>529.4</ele>
        <time>2018-06-14T11:26:08Z</time>
      </trkpt>
      <trkpt lat="41.6177080" lon="2.0226890">
        <ele>529.8</ele>
        <time>2018-06-14T11:26:11Z</time>
      </trkpt>
      <trkpt lat="41.6177990" lon="2.0226740">
        <ele>530.8</ele>
        <time>2018-06-14T11:26:20Z</time>
      </trkpt>
      <trkpt lat="41.6178040" lon="2.0226850">
        <ele>530.8</ele>
        <time>2018-06-14T11:26:21Z</time>
      </trkpt>
      <trkpt lat="41.6178100" lon="2.0227010">
        <ele>531.0</ele>
        <time>2018-06-14T11:26:22Z</time>
      </trkpt>
      <trkpt lat="41.6178170" lon="2.0227250">
        <ele>531.2</ele>
        <time>2018-06-14T11:26:24Z</time>
      </trkpt>
      <trkpt lat="41.6178200" lon="2.0227460">
        <ele>531.4</ele>
        <time>2018-06-14T11:26:26Z</time>
      </trkpt>
      <trkpt lat="41.6178120" lon="2.0227730">
        <ele>531.6</ele>
        <time>2018-06-14T11:26:28Z</time>
      </trkpt>
      <trkpt lat="41.6178070" lon="2.0227850">
        <ele>531.6</ele>
        <time>2018-06-14T11:26:29Z</time>
      </trkpt>
      <trkpt lat="41.6177930" lon="2.0228090">
        <ele>532.0</ele>
        <time>2018-06-14T11:26:31Z</time>
      </trkpt>
      <trkpt lat="41.6177690" lon="2.0228740">
        <ele>532.4</ele>
        <time>2018-06-14T11:26:36Z</time>
      </trkpt>
      <trkpt lat="41.6177480" lon="2.0229050">
        <ele>532.6</ele>
        <time>2018-06-14T11:26:38Z</time>
      </trkpt>
      <trkpt lat="41.6177300" lon="2.0229460">
        <ele>533.0</ele>
        <time>2018-06-14T11:26:40Z</time>
      </trkpt>
      <trkpt lat="41.6176910" lon="2.0230520">
        <ele>533.6</ele>
        <time>2018-06-14T11:26:45Z</time>
      </trkpt>
      <trkpt lat="41.6176540" lon="2.0231100">
        <ele>534.0</ele>
        <time>2018-06-14T11:26:48Z</time>
      </trkpt>
      <trkpt lat="41.6176120" lon="2.0231750">
        <ele>534.6</ele>
        <time>2018-06-14T11:26:52Z</time>
      </trkpt>
      <trkpt lat="41.6175850" lon="2.0232310">
        <ele>535.0</ele>
        <time>2018-06-14T11:26:55Z</time>
      </trkpt>
      <trkpt lat="41.6175770" lon="2.0232560">
        <ele>535.0</ele>
        <time>2018-06-14T11:26:56Z</time>
      </trkpt>
      <trkpt lat="41.6175660" lon="2.0233070">
        <ele>535.4</ele>
        <time>2018-06-14T11:26:58Z</time>
      </trkpt>
      <trkpt lat="41.6175640" lon="2.0233260">
        <ele>535.6</ele>
        <time>2018-06-14T11:26:59Z</time>
      </trkpt>
      <trkpt lat="41.6175640" lon="2.0233440">
        <ele>535.6</ele>
        <time>2018-06-14T11:27:00Z</time>
      </trkpt>
      <trkpt lat="41.6175690" lon="2.0233900">
        <ele>536.0</ele>
        <time>2018-06-14T11:27:02Z</time>
      </trkpt>
      <trkpt lat="41.6175770" lon="2.0234290">
        <ele>536.2</ele>
        <time>2018-06-14T11:27:04Z</time>
      </trkpt>
      <trkpt lat="41.6175950" lon="2.0235060">
        <ele>536.8</ele>
        <time>2018-06-14T11:27:08Z</time>
      </trkpt>
      <trkpt lat="41.6176050" lon="2.0235390">
        <ele>537.0</ele>
        <time>2018-06-14T11:27:10Z</time>
      </trkpt>
      <trkpt lat="41.6176110" lon="2.0235700">
        <ele>537.4</ele>
        <time>2018-06-14T11:27:12Z</time>
      </trkpt>
      <trkpt lat="41.6176150" lon="2.0236090">
        <ele>537.8</ele>
        <time>2018-06-14T11:27:15Z</time>
      </trkpt>
      <trkpt lat="41.6176150" lon="2.0236180">
        <ele>537.8</ele>
        <time>2018-06-14T11:27:16Z</time>
      </trkpt>
      <trkpt lat="41.6176010" lon="2.0236520">
        <ele>538.2</ele>
        <time>2018-06-14T11:27:18Z</time>
      </trkpt>
      <trkpt lat="41.6175830" lon="2.0237000">
        <ele>538.4</ele>
        <time>2018-06-14T11:27:20Z</time>
      </trkpt>
      <trkpt lat="41.6175800" lon="2.0237320">
        <ele>538.6</ele>
        <time>2018-06-14T11:27:21Z</time>
      </trkpt>
      <trkpt lat="41.6175320" lon="2.0238050">
        <ele>539.2</ele>
        <time>2018-06-14T11:27:25Z</time>
      </trkpt>
      <trkpt lat="41.6175170" lon="2.0238350">
        <ele>539.4</ele>
        <time>2018-06-14T11:27:27Z</time>
      </trkpt>
      <trkpt lat="41.6174940" lon="2.0238690">
        <ele>539.8</ele>
        <time>2018-06-14T11:27:30Z</time>
      </trkpt>
      <trkpt lat="41.6174880" lon="2.0238770">
        <ele>540.0</ele>
        <time>2018-06-14T11:27:31Z</time>
      </trkpt>
      <trkpt lat="41.6174840" lon="2.0238910">
        <ele>540.2</ele>
        <time>2018-06-14T11:27:32Z</time>
      </trkpt>
      <trkpt lat="41.6174750" lon="2.0239370">
        <ele>540.6</ele>
        <time>2018-06-14T11:27:35Z</time>
      </trkpt>
      <trkpt lat="41.6174480" lon="2.0239970">
        <ele>541.4</ele>
        <time>2018-06-14T11:27:40Z</time>
      </trkpt>
      <trkpt lat="41.6174390" lon="2.0240180">
        <ele>541.6</ele>
        <time>2018-06-14T11:27:42Z</time>
      </trkpt>
      <trkpt lat="41.6174250" lon="2.0240680">
        <ele>542.4</ele>
        <time>2018-06-14T11:27:47Z</time>
      </trkpt>
      <trkpt lat="41.6174360" lon="2.0241020">
        <ele>542.6</ele>
        <time>2018-06-14T11:27:49Z</time>
      </trkpt>
      <trkpt lat="41.6174490" lon="2.0241800">
        <ele>543.8</ele>
        <time>2018-06-14T11:27:56Z</time>
      </trkpt>
      <trkpt lat="41.6174540" lon="2.0241900">
        <ele>544.0</ele>
        <time>2018-06-14T11:27:57Z</time>
      </trkpt>
      <trkpt lat="41.6174560" lon="2.0242070">
        <ele>544.2</ele>
        <time>2018-06-14T11:27:58Z</time>
      </trkpt>
      <trkpt lat="41.6174660" lon="2.0242640">
        <ele>545.0</ele>
        <time>2018-06-14T11:28:03Z</time>
      </trkpt>
      <trkpt lat="41.6174800" lon="2.0243320">
        <ele>545.8</ele>
        <time>2018-06-14T11:28:08Z</time>
      </trkpt>
      <trkpt lat="41.6174880" lon="2.0243550">
        <ele>546.0</ele>
        <time>2018-06-14T11:28:10Z</time>
      </trkpt>
      <trkpt lat="41.6175070" lon="2.0244480">
        <ele>547.0</ele>
        <time>2018-06-14T11:28:16Z</time>
      </trkpt>
      <trkpt lat="41.6175260" lon="2.0244910">
        <ele>547.4</ele>
        <time>2018-06-14T11:28:18Z</time>
      </trkpt>
      <trkpt lat="41.6175590" lon="2.0245660">
        <ele>548.2</ele>
        <time>2018-06-14T11:28:22Z</time>
      </trkpt>
      <trkpt lat="41.6175700" lon="2.0245830">
        <ele>548.2</ele>
        <time>2018-06-14T11:28:23Z</time>
      </trkpt>
      <trkpt lat="41.6175870" lon="2.0246870">
        <ele>549.0</ele>
        <time>2018-06-14T11:28:27Z</time>
      </trkpt>
      <trkpt lat="41.6175890" lon="2.0247180">
        <ele>549.2</ele>
        <time>2018-06-14T11:28:28Z</time>
      </trkpt>
      <trkpt lat="41.6176020" lon="2.0248130">
        <ele>550.0</ele>
        <time>2018-06-14T11:28:32Z</time>
      </trkpt>
      <trkpt lat="41.6176170" lon="2.0248580">
        <ele>550.4</ele>
        <time>2018-06-14T11:28:34Z</time>
      </trkpt>
      <trkpt lat="41.6176480" lon="2.0249720">
        <ele>551.0</ele>
        <time>2018-06-14T11:28:38Z</time>
      </trkpt>
      <trkpt lat="41.6176810" lon="2.0250140">
        <ele>551.4</ele>
        <time>2018-06-14T11:28:40Z</time>
      </trkpt>
      <trkpt lat="41.6177050" lon="2.0250490">
        <ele>551.8</ele>
        <time>2018-06-14T11:28:42Z</time>
      </trkpt>
      <trkpt lat="41.6177100" lon="2.0250660">
        <ele>552.0</ele>
        <time>2018-06-14T11:28:43Z</time>
      </trkpt>
      <trkpt lat="41.6177090" lon="2.0251080">
        <ele>552.6</ele>
        <time>2018-06-14T11:28:46Z</time>
      </trkpt>
      <trkpt lat="41.6177110" lon="2.0251240">
        <ele>552.8</ele>
        <time>2018-06-14T11:28:47Z</time>
      </trkpt>
      <trkpt lat="41.6177200" lon="2.0251360">
        <ele>553.0</ele>
        <time>2018-06-14T11:28:48Z</time>
      </trkpt>
      <trkpt lat="41.6177480" lon="2.0251890">
        <ele>553.6</ele>
        <time>2018-06-14T11:28:52Z</time>
      </trkpt>
      <trkpt lat="41.6177660" lon="2.0252060">
        <ele>554.0</ele>
        <time>2018-06-14T11:28:54Z</time>
      </trkpt>
      <trkpt lat="41.6177780" lon="2.0252300">
        <ele>554.6</ele>
        <time>2018-06-14T11:28:57Z</time>
      </trkpt>
      <trkpt lat="41.6177850" lon="2.0252360">
        <ele>554.8</ele>
        <time>2018-06-14T11:28:58Z</time>
      </trkpt>
      <trkpt lat="41.6178060" lon="2.0252580">
        <ele>555.4</ele>
        <time>2018-06-14T11:29:01Z</time>
      </trkpt>
      <trkpt lat="41.6178240" lon="2.0252720">
        <ele>555.8</ele>
        <time>2018-06-14T11:29:03Z</time>
      </trkpt>
      <trkpt lat="41.6178260" lon="2.0252870">
        <ele>556.0</ele>
        <time>2018-06-14T11:29:04Z</time>
      </trkpt>
      <trkpt lat="41.6178640" lon="2.0252810">
        <ele>557.0</ele>
        <time>2018-06-14T11:29:10Z</time>
      </trkpt>
      <trkpt lat="41.6178800" lon="2.0252650">
        <ele>557.4</ele>
        <time>2018-06-14T11:29:12Z</time>
      </trkpt>
      <trkpt lat="41.6179020" lon="2.0252480">
        <ele>558.2</ele>
        <time>2018-06-14T11:29:16Z</time>
      </trkpt>
      <trkpt lat="41.6179390" lon="2.0252230">
        <ele>558.8</ele>
        <time>2018-06-14T11:29:20Z</time>
      </trkpt>
      <trkpt lat="41.6179520" lon="2.0252090">
        <ele>559.2</ele>
        <time>2018-06-14T11:29:22Z</time>
      </trkpt>
      <trkpt lat="41.6179600" lon="2.0251940">
        <ele>559.6</ele>
        <time>2018-06-14T11:29:24Z</time>
      </trkpt>
      <trkpt lat="41.6179800" lon="2.0251640">
        <ele>560.2</ele>
        <time>2018-06-14T11:29:27Z</time>
      </trkpt>
      <trkpt lat="41.6179870" lon="2.0251530">
        <ele>560.4</ele>
        <time>2018-06-14T11:29:28Z</time>
      </trkpt>
      <trkpt lat="41.6180340" lon="2.0250590">
        <ele>561.6</ele>
        <time>2018-06-14T11:29:34Z</time>
      </trkpt>
      <trkpt lat="41.6180460" lon="2.0250360">
        <ele>561.8</ele>
        <time>2018-06-14T11:29:36Z</time>
      </trkpt>
      <trkpt lat="41.6180550" lon="2.0250090">
        <ele>562.4</ele>
        <time>2018-06-14T11:29:39Z</time>
      </trkpt>
      <trkpt lat="41.6180590" lon="2.0250000">
        <ele>562.6</ele>
        <time>2018-06-14T11:29:40Z</time>
      </trkpt>
      <trkpt lat="41.6180610" lon="2.0249270">
        <ele>563.8</ele>
        <time>2018-06-14T11:29:46Z</time>
      </trkpt>
      <trkpt lat="41.6180630" lon="2.0249000">
        <ele>564.4</ele>
        <time>2018-06-14T11:29:49Z</time>
      </trkpt>
      <trkpt lat="41.6180690" lon="2.0248680">
        <ele>565.0</ele>
        <time>2018-06-14T11:29:52Z</time>
      </trkpt>
      <trkpt lat="41.6180740" lon="2.0248590">
        <ele>565.4</ele>
        <time>2018-06-14T11:29:54Z</time>
      </trkpt>
      <trkpt lat="41.6180880" lon="2.0248240">
        <ele>566.2</ele>
        <time>2018-06-14T11:29:58Z</time>
      </trkpt>
      <trkpt lat="41.6180900" lon="2.0248000">
        <ele>566.6</ele>
        <time>2018-06-14T11:30:00Z</time>
      </trkpt>
      <trkpt lat="41.6181080" lon="2.0247780">
        <ele>567.4</ele>
        <time>2018-06-14T11:30:04Z</time>
      </trkpt>
      <trkpt lat="41.6181350" lon="2.0247510">
        <ele>568.2</ele>
        <time>2018-06-14T11:30:09Z</time>
      </trkpt>
      <trkpt lat="41.6181450" lon="2.0247460">
        <ele>568.4</ele>
        <time>2018-06-14T11:30:10Z</time>
      </trkpt>
      <trkpt lat="41.6181450" lon="2.0247370">
        <ele>568.6</ele>
        <time>2018-06-14T11:30:11Z</time>
      </trkpt>
      <trkpt lat="41.6181580" lon="2.0246960">
        <ele>569.6</ele>
        <time>2018-06-14T11:30:16Z</time>
      </trkpt>
      <trkpt lat="41.6181710" lon="2.0246890">
        <ele>570.0</ele>
        <time>2018-06-14T11:30:18Z</time>
      </trkpt>
      <trkpt lat="41.6181930" lon="2.0246740">
        <ele>570.6</ele>
        <time>2018-06-14T11:30:21Z</time>
      </trkpt>
      <trkpt lat="41.6181990" lon="2.0246620">
        <ele>570.8</ele>
        <time>2018-06-14T11:30:22Z</time>
      </trkpt>
      <trkpt lat="41.6182370" lon="2.0246150">
        <ele>571.8</ele>
        <time>2018-06-14T11:30:27Z</time>
      </trkpt>
      <trkpt lat="41.6182470" lon="2.0246040">
        <ele>572.0</ele>
        <time>2018-06-14T11:30:28Z</time>
      </trkpt>
      <trkpt lat="41.6183070" lon="2.0245370">
        <ele>573.2</ele>
        <time>2018-06-14T11:30:34Z</time>
      </trkpt>
      <trkpt lat="41.6183530" lon="2.0245010">
        <ele>573.8</ele>
        <time>2018-06-14T11:30:38Z</time>
      </trkpt>
      <trkpt lat="41.6183780" lon="2.0244850">
        <ele>574.2</ele>
        <time>2018-06-14T11:30:40Z</time>
      </trkpt>
      <trkpt lat="41.6184540" lon="2.0244410">
        <ele>575.4</ele>
        <time>2018-06-14T11:30:46Z</time>
      </trkpt>
      <trkpt lat="41.6185130" lon="2.0244030">
        <ele>576.2</ele>
        <time>2018-06-14T11:30:51Z</time>
      </trkpt>
      <trkpt lat="41.6185290" lon="2.0243890">
        <ele>576.4</ele>
        <time>2018-06-14T11:30:52Z</time>
      </trkpt>
      <trkpt lat="41.6186050" lon="2.0243140">
        <ele>577.2</ele>
        <time>2018-06-14T11:30:57Z</time>
      </trkpt>
      <trkpt lat="41.6186220" lon="2.0242980">
        <ele>577.4</ele>
        <time>2018-06-14T11:30:58Z</time>
      </trkpt>
      <trkpt lat="41.6187110" lon="2.0242220">
        <ele>578.4</ele>
        <time>2018-06-14T11:31:03Z</time>
      </trkpt>
      <trkpt lat="41.6187330" lon="2.0242080">
        <ele>578.6</ele>
        <time>2018-06-14T11:31:04Z</time>
      </trkpt>
      <trkpt lat="41.6187950" lon="2.0241710">
        <ele>579.0</ele>
        <time>2018-06-14T11:31:07Z</time>
      </trkpt>
      <trkpt lat="41.6188380" lon="2.0241480">
        <ele>579.4</ele>
        <time>2018-06-14T11:31:09Z</time>
      </trkpt>
      <trkpt lat="41.6188560" lon="2.0241360">
        <ele>579.6</ele>
        <time>2018-06-14T11:31:10Z</time>
      </trkpt>
      <trkpt lat="41.6189920" lon="2.0240310">
        <ele>580.6</ele>
        <time>2018-06-14T11:31:17Z</time>
      </trkpt>
      <trkpt lat="41.6191020" lon="2.0239930">
        <ele>581.6</ele>
        <time>2018-06-14T11:31:23Z</time>
      </trkpt>
      <trkpt lat="41.6191230" lon="2.0239820">
        <ele>581.8</ele>
        <time>2018-06-14T11:31:24Z</time>
      </trkpt>
      <trkpt lat="41.6191850" lon="2.0239640">
        <ele>582.2</ele>
        <time>2018-06-14T11:31:27Z</time>
      </trkpt>
      <trkpt lat="41.6192280" lon="2.0239450">
        <ele>582.8</ele>
        <time>2018-06-14T11:31:30Z</time>
      </trkpt>
      <trkpt lat="41.6192400" lon="2.0239370">
        <ele>582.8</ele>
        <time>2018-06-14T11:31:31Z</time>
      </trkpt>
      <trkpt lat="41.6192760" lon="2.0239150">
        <ele>583.4</ele>
        <time>2018-06-14T11:31:34Z</time>
      </trkpt>
      <trkpt lat="41.6193000" lon="2.0238940">
        <ele>583.6</ele>
        <time>2018-06-14T11:31:36Z</time>
      </trkpt>
      <trkpt lat="41.6193200" lon="2.0238750">
        <ele>584.0</ele>
        <time>2018-06-14T11:31:38Z</time>
      </trkpt>
      <trkpt lat="41.6193280" lon="2.0238590">
        <ele>584.4</ele>
        <time>2018-06-14T11:31:40Z</time>
      </trkpt>
      <trkpt lat="41.6193300" lon="2.0238390">
        <ele>584.6</ele>
        <time>2018-06-14T11:31:42Z</time>
      </trkpt>
      <trkpt lat="41.6193270" lon="2.0238110">
        <ele>585.2</ele>
        <time>2018-06-14T11:31:45Z</time>
      </trkpt>
      <trkpt lat="41.6193330" lon="2.0237960">
        <ele>585.6</ele>
        <time>2018-06-14T11:31:48Z</time>
      </trkpt>
      <trkpt lat="41.6193600" lon="2.0237700">
        <ele>586.2</ele>
        <time>2018-06-14T11:31:52Z</time>
      </trkpt>
      <trkpt lat="41.6193970" lon="2.0237290">
        <ele>587.4</ele>
        <time>2018-06-14T11:31:59Z</time>
      </trkpt>
      <trkpt lat="41.6194110" lon="2.0236960">
        <ele>588.2</ele>
        <time>2018-06-14T11:32:04Z</time>
      </trkpt>
      <trkpt lat="41.6194210" lon="2.0236830">
        <ele>588.6</ele>
        <time>2018-06-14T11:32:06Z</time>
      </trkpt>
      <trkpt lat="41.6194610" lon="2.0236420">
        <ele>589.6</ele>
        <time>2018-06-14T11:32:12Z</time>
      </trkpt>
      <trkpt lat="41.6194850" lon="2.0236210">
        <ele>590.2</ele>
        <time>2018-06-14T11:32:16Z</time>
      </trkpt>
      <trkpt lat="41.6194880" lon="2.0236180">
        <ele>590.4</ele>
        <time>2018-06-14T11:32:17Z</time>
      </trkpt>
      <trkpt lat="41.6194930" lon="2.0236160">
        <ele>590.6</ele>
        <time>2018-06-14T11:32:18Z</time>
      </trkpt>
      <trkpt lat="41.6195160" lon="2.0236000">
        <ele>591.0</ele>
        <time>2018-06-14T11:32:22Z</time>
      </trkpt>
      <trkpt lat="41.6194800" lon="2.0235710">
        <ele>591.0</ele>
        <time>2018-06-14T11:33:23Z</time>
      </trkpt>
      <trkpt lat="41.6194770" lon="2.0235690">
        <ele>591.0</ele>
        <time>2018-06-14T11:33:24Z</time>
      </trkpt>
      <trkpt lat="41.6194810" lon="2.0235700">
        <ele>591.0</ele>
        <time>2018-06-14T11:33:26Z</time>
      </trkpt>
      <trkpt lat="41.6195560" lon="2.0235460">
        <ele>591.0</ele>
        <time>2018-06-14T11:33:34Z</time>
      </trkpt>
      <trkpt lat="41.6195760" lon="2.0235260">
        <ele>591.0</ele>
        <time>2018-06-14T11:33:36Z</time>
      </trkpt>
      <trkpt lat="41.6196410" lon="2.0234070">
        <ele>591.4</ele>
        <time>2018-06-14T11:33:44Z</time>
      </trkpt>
      <trkpt lat="41.6196490" lon="2.0233750">
        <ele>591.6</ele>
        <time>2018-06-14T11:33:46Z</time>
      </trkpt>
      <trkpt lat="41.6196520" lon="2.0233660">
        <ele>591.6</ele>
        <time>2018-06-14T11:33:47Z</time>
      </trkpt>
      <trkpt lat="41.6196590" lon="2.0233330">
        <ele>591.8</ele>
        <time>2018-06-14T11:33:50Z</time>
      </trkpt>
      <trkpt lat="41.6196790" lon="2.0232740">
        <ele>592.0</ele>
        <time>2018-06-14T11:33:55Z</time>
      </trkpt>
      <trkpt lat="41.6196990" lon="2.0232360">
        <ele>592.2</ele>
        <time>2018-06-14T11:33:58Z</time>
      </trkpt>
      <trkpt lat="41.6197420" lon="2.0231330">
        <ele>592.6</ele>
        <time>2018-06-14T11:34:04Z</time>
      </trkpt>
      <trkpt lat="41.6197640" lon="2.0230930">
        <ele>592.8</ele>
        <time>2018-06-14T11:34:06Z</time>
      </trkpt>
      <trkpt lat="41.6198290" lon="2.0229810">
        <ele>593.2</ele>
        <time>2018-06-14T11:34:12Z</time>
      </trkpt>
      <trkpt lat="41.6198490" lon="2.0229450">
        <ele>593.4</ele>
        <time>2018-06-14T11:34:14Z</time>
      </trkpt>
      <trkpt lat="41.6198560" lon="2.0229240">
        <ele>593.4</ele>
        <time>2018-06-14T11:34:15Z</time>
      </trkpt>
      <trkpt lat="41.6198640" lon="2.0228750">
        <ele>593.6</ele>
        <time>2018-06-14T11:34:17Z</time>
      </trkpt>
      <trkpt lat="41.6198700" lon="2.0228520">
        <ele>593.6</ele>
        <time>2018-06-14T11:34:18Z</time>
      </trkpt>
      <trkpt lat="41.6198790" lon="2.0228140">
        <ele>593.8</ele>
        <time>2018-06-14T11:34:20Z</time>
      </trkpt>
      <trkpt lat="41.6199420" lon="2.0226600">
        <ele>594.6</ele>
        <time>2018-06-14T11:34:28Z</time>
      </trkpt>
      <trkpt lat="41.6199630" lon="2.0226200">
        <ele>594.8</ele>
        <time>2018-06-14T11:34:30Z</time>
      </trkpt>
      <trkpt lat="41.6199690" lon="2.0226010">
        <ele>594.8</ele>
        <time>2018-06-14T11:34:31Z</time>
      </trkpt>
      <trkpt lat="41.6200480" lon="2.0224500">
        <ele>596.0</ele>
        <time>2018-06-14T11:35:00Z</time>
      </trkpt>
      <trkpt lat="41.6200480" lon="2.0224690">
        <ele>596.0</ele>
        <time>2018-06-14T11:35:02Z</time>
      </trkpt>
      <trkpt lat="41.6200520" lon="2.0225430">
        <ele>596.2</ele>
        <time>2018-06-14T11:35:07Z</time>
      </trkpt>
      <trkpt lat="41.6200580" lon="2.0225810">
        <ele>596.8</ele>
        <time>2018-06-14T11:35:09Z</time>
      </trkpt>
      <trkpt lat="41.6200680" lon="2.0225940">
        <ele>597.2</ele>
        <time>2018-06-14T11:35:10Z</time>
      </trkpt>
      <trkpt lat="41.6200700" lon="2.0226100">
        <ele>597.8</ele>
        <time>2018-06-14T11:35:13Z</time>
      </trkpt>
      <trkpt lat="41.6200750" lon="2.0226480">
        <ele>597.8</ele>
        <time>2018-06-14T11:35:16Z</time>
      </trkpt>
      <trkpt lat="41.6200820" lon="2.0226810">
        <ele>597.8</ele>
        <time>2018-06-14T11:35:18Z</time>
      </trkpt>
      <trkpt lat="41.6201110" lon="2.0227540">
        <ele>598.0</ele>
        <time>2018-06-14T11:35:24Z</time>
      </trkpt>
      <trkpt lat="41.6201520" lon="2.0228640">
        <ele>598.2</ele>
        <time>2018-06-14T11:35:34Z</time>
      </trkpt>
      <trkpt lat="41.6201530" lon="2.0228810">
        <ele>598.2</ele>
        <time>2018-06-14T11:35:36Z</time>
      </trkpt>
      <trkpt lat="41.6201530" lon="2.0228890">
        <ele>598.2</ele>
        <time>2018-06-14T11:35:37Z</time>
      </trkpt>
      <trkpt lat="41.6201550" lon="2.0229040">
        <ele>598.4</ele>
        <time>2018-06-14T11:35:39Z</time>
      </trkpt>
      <trkpt lat="41.6201690" lon="2.0229520">
        <ele>598.6</ele>
        <time>2018-06-14T11:35:44Z</time>
      </trkpt>
      <trkpt lat="41.6202060" lon="2.0230850">
        <ele>599.0</ele>
        <time>2018-06-14T11:35:53Z</time>
      </trkpt>
      <trkpt lat="41.6202270" lon="2.0231480">
        <ele>599.4</ele>
        <time>2018-06-14T11:35:57Z</time>
      </trkpt>
      <trkpt lat="41.6202640" lon="2.0232020">
        <ele>599.6</ele>
        <time>2018-06-14T11:36:03Z</time>
      </trkpt>
      <trkpt lat="41.6203090" lon="2.0232170">
        <ele>600.4</ele>
        <time>2018-06-14T11:36:11Z</time>
      </trkpt>
      <trkpt lat="41.6203440" lon="2.0232140">
        <ele>600.4</ele>
        <time>2018-06-14T11:36:13Z</time>
      </trkpt>
      <trkpt lat="41.6204500" lon="2.0231660">
        <ele>601.2</ele>
        <time>2018-06-14T11:36:20Z</time>
      </trkpt>
      <trkpt lat="41.6204780" lon="2.0231580">
        <ele>601.4</ele>
        <time>2018-06-14T11:36:22Z</time>
      </trkpt>
      <trkpt lat="41.6204960" lon="2.0231510">
        <ele>601.4</ele>
        <time>2018-06-14T11:36:23Z</time>
      </trkpt>
      <trkpt lat="41.6205280" lon="2.0231250">
        <ele>601.8</ele>
        <time>2018-06-14T11:36:25Z</time>
      </trkpt>
      <trkpt lat="41.6206060" lon="2.0230880">
        <ele>602.4</ele>
        <time>2018-06-14T11:36:31Z</time>
      </trkpt>
      <trkpt lat="41.6206310" lon="2.0230750">
        <ele>602.6</ele>
        <time>2018-06-14T11:36:33Z</time>
      </trkpt>
      <trkpt lat="41.6206530" lon="2.0230610">
        <ele>602.8</ele>
        <time>2018-06-14T11:36:35Z</time>
      </trkpt>
      <trkpt lat="41.6207080" lon="2.0230210">
        <ele>603.4</ele>
        <time>2018-06-14T11:36:39Z</time>
      </trkpt>
      <trkpt lat="41.6207240" lon="2.0230180">
        <ele>603.6</ele>
        <time>2018-06-14T11:36:40Z</time>
      </trkpt>
      <trkpt lat="41.6208040" lon="2.0229880">
        <ele>604.2</ele>
        <time>2018-06-14T11:36:45Z</time>
      </trkpt>
      <trkpt lat="41.6208500" lon="2.0229620">
        <ele>604.6</ele>
        <time>2018-06-14T11:36:48Z</time>
      </trkpt>
      <trkpt lat="41.6208990" lon="2.0229310">
        <ele>605.0</ele>
        <time>2018-06-14T11:36:51Z</time>
      </trkpt>
      <trkpt lat="41.6209710" lon="2.0229090">
        <ele>605.6</ele>
        <time>2018-06-14T11:36:56Z</time>
      </trkpt>
      <trkpt lat="41.6209790" lon="2.0229080">
        <ele>605.8</ele>
        <time>2018-06-14T11:36:57Z</time>
      </trkpt>
      <trkpt lat="41.6210210" lon="2.0229050">
        <ele>606.4</ele>
        <time>2018-06-14T11:37:02Z</time>
      </trkpt>
      <trkpt lat="41.6210410" lon="2.0229090">
        <ele>606.6</ele>
        <time>2018-06-14T11:37:04Z</time>
      </trkpt>
      <trkpt lat="41.6210520" lon="2.0229100">
        <ele>606.8</ele>
        <time>2018-06-14T11:37:05Z</time>
      </trkpt>
      <trkpt lat="41.6211090" lon="2.0229130">
        <ele>607.4</ele>
        <time>2018-06-14T11:37:10Z</time>
      </trkpt>
      <trkpt lat="41.6211290" lon="2.0229140">
        <ele>607.8</ele>
        <time>2018-06-14T11:37:12Z</time>
      </trkpt>
      <trkpt lat="41.6211890" lon="2.0229110">
        <ele>608.4</ele>
        <time>2018-06-14T11:37:18Z</time>
      </trkpt>
      <trkpt lat="41.6212050" lon="2.0229110">
        <ele>608.8</ele>
        <time>2018-06-14T11:37:20Z</time>
      </trkpt>
      <trkpt lat="41.6212720" lon="2.0229120">
        <ele>609.4</ele>
        <time>2018-06-14T11:37:25Z</time>
      </trkpt>
      <trkpt lat="41.6213100" lon="2.0229110">
        <ele>609.8</ele>
        <time>2018-06-14T11:37:28Z</time>
      </trkpt>
      <trkpt lat="41.6213330" lon="2.0229020">
        <ele>610.2</ele>
        <time>2018-06-14T11:37:31Z</time>
      </trkpt>
      <trkpt lat="41.6213530" lon="2.0228990">
        <ele>610.6</ele>
        <time>2018-06-14T11:37:34Z</time>
      </trkpt>
      <trkpt lat="41.6213590" lon="2.0228950">
        <ele>610.6</ele>
        <time>2018-06-14T11:37:35Z</time>
      </trkpt>
      <trkpt lat="41.6213890" lon="2.0228460">
        <ele>610.6</ele>
        <time>2018-06-14T11:45:01Z</time>
      </trkpt>
      <trkpt lat="41.6213920" lon="2.0228430">
        <ele>610.6</ele>
        <time>2018-06-14T11:45:02Z</time>
      </trkpt>
      <trkpt lat="41.6214210" lon="2.0228380">
        <ele>610.6</ele>
        <time>2018-06-14T11:45:05Z</time>
      </trkpt>
      <trkpt lat="41.6214700" lon="2.0228230">
        <ele>610.6</ele>
        <time>2018-06-14T11:45:09Z</time>
      </trkpt>
      <trkpt lat="41.6215310" lon="2.0228050">
        <ele>610.8</ele>
        <time>2018-06-14T11:45:14Z</time>
      </trkpt>
      <trkpt lat="41.6215920" lon="2.0227850">
        <ele>611.0</ele>
        <time>2018-06-14T11:45:18Z</time>
      </trkpt>
      <trkpt lat="41.6216460" lon="2.0227870">
        <ele>611.0</ele>
        <time>2018-06-14T11:45:21Z</time>
      </trkpt>
      <trkpt lat="41.6216620" lon="2.0227830">
        <ele>611.2</ele>
        <time>2018-06-14T11:45:22Z</time>
      </trkpt>
      <trkpt lat="41.6217010" lon="2.0227660">
        <ele>611.4</ele>
        <time>2018-06-14T11:45:25Z</time>
      </trkpt>
      <trkpt lat="41.6217970" lon="2.0227340">
        <ele>611.6</ele>
        <time>2018-06-14T11:45:31Z</time>
      </trkpt>
      <trkpt lat="41.6218280" lon="2.0227220">
        <ele>611.8</ele>
        <time>2018-06-14T11:45:33Z</time>
      </trkpt>
      <trkpt lat="41.6218680" lon="2.0227110">
        <ele>612.0</ele>
        <time>2018-06-14T11:45:36Z</time>
      </trkpt>
      <trkpt lat="41.6218820" lon="2.0227040">
        <ele>612.2</ele>
        <time>2018-06-14T11:45:37Z</time>
      </trkpt>
      <trkpt lat="41.6218950" lon="2.0227000">
        <ele>612.2</ele>
        <time>2018-06-14T11:45:38Z</time>
      </trkpt>
      <trkpt lat="41.6219550" lon="2.0226880">
        <ele>612.6</ele>
        <time>2018-06-14T11:45:42Z</time>
      </trkpt>
      <trkpt lat="41.6219970" lon="2.0226710">
        <ele>612.8</ele>
        <time>2018-06-14T11:45:46Z</time>
      </trkpt>
      <trkpt lat="41.6220090" lon="2.0226770">
        <ele>613.0</ele>
        <time>2018-06-14T11:45:47Z</time>
      </trkpt>
      <trkpt lat="41.6221030" lon="2.0226580">
        <ele>613.6</ele>
        <time>2018-06-14T11:45:53Z</time>
      </trkpt>
      <trkpt lat="41.6221680" lon="2.0226480">
        <ele>614.0</ele>
        <time>2018-06-14T11:45:57Z</time>
      </trkpt>
      <trkpt lat="41.6221840" lon="2.0226470">
        <ele>614.0</ele>
        <time>2018-06-14T11:45:58Z</time>
      </trkpt>
      <trkpt lat="41.6222890" lon="2.0226510">
        <ele>614.6</ele>
        <time>2018-06-14T11:46:04Z</time>
      </trkpt>
      <trkpt lat="41.6223380" lon="2.0226560">
        <ele>615.0</ele>
        <time>2018-06-14T11:46:07Z</time>
      </trkpt>
      <trkpt lat="41.6224180" lon="2.0226720">
        <ele>615.4</ele>
        <time>2018-06-14T11:46:12Z</time>
      </trkpt>
      <trkpt lat="41.6224960" lon="2.0226910">
        <ele>616.0</ele>
        <time>2018-06-14T11:46:17Z</time>
      </trkpt>
      <trkpt lat="41.6225110" lon="2.0226960">
        <ele>616.2</ele>
        <time>2018-06-14T11:46:18Z</time>
      </trkpt>
      <trkpt lat="41.6225760" lon="2.0227370">
        <ele>616.6</ele>
        <time>2018-06-14T11:46:23Z</time>
      </trkpt>
      <trkpt lat="41.6225880" lon="2.0227400">
        <ele>616.8</ele>
        <time>2018-06-14T11:46:24Z</time>
      </trkpt>
      <trkpt lat="41.6226160" lon="2.0227540">
        <ele>617.0</ele>
        <time>2018-06-14T11:46:26Z</time>
      </trkpt>
      <trkpt lat="41.6226260" lon="2.0227580">
        <ele>617.0</ele>
        <time>2018-06-14T11:46:27Z</time>
      </trkpt>
      <trkpt lat="41.6226540" lon="2.0227730">
        <ele>617.4</ele>
        <time>2018-06-14T11:46:29Z</time>
      </trkpt>
      <trkpt lat="41.6226850" lon="2.0227720">
        <ele>617.6</ele>
        <time>2018-06-14T11:46:32Z</time>
      </trkpt>
      <trkpt lat="41.6227320" lon="2.0227760">
        <ele>618.0</ele>
        <time>2018-06-14T11:46:35Z</time>
      </trkpt>
      <trkpt lat="41.6227430" lon="2.0227780">
        <ele>618.2</ele>
        <time>2018-06-14T11:46:36Z</time>
      </trkpt>
      <trkpt lat="41.6227530" lon="2.0227810">
        <ele>618.2</ele>
        <time>2018-06-14T11:46:37Z</time>
      </trkpt>
      <trkpt lat="41.6227770" lon="2.0227880">
        <ele>618.6</ele>
        <time>2018-06-14T11:46:39Z</time>
      </trkpt>
      <trkpt lat="41.6228130" lon="2.0227790">
        <ele>618.8</ele>
        <time>2018-06-14T11:46:42Z</time>
      </trkpt>
      <trkpt lat="41.6228600" lon="2.0227700">
        <ele>619.2</ele>
        <time>2018-06-14T11:46:45Z</time>
      </trkpt>
      <trkpt lat="41.6229230" lon="2.0227590">
        <ele>619.6</ele>
        <time>2018-06-14T11:46:48Z</time>
      </trkpt>
      <trkpt lat="41.6230580" lon="2.0227070">
        <ele>620.2</ele>
        <time>2018-06-14T11:46:54Z</time>
      </trkpt>
      <trkpt lat="41.6231600" lon="2.0226230">
        <ele>620.8</ele>
        <time>2018-06-14T11:46:59Z</time>
      </trkpt>
      <trkpt lat="41.6231970" lon="2.0225890">
        <ele>621.0</ele>
        <time>2018-06-14T11:47:01Z</time>
      </trkpt>
      <trkpt lat="41.6232190" lon="2.0225780">
        <ele>621.0</ele>
        <time>2018-06-14T11:47:02Z</time>
      </trkpt>
      <trkpt lat="41.6232640" lon="2.0225620">
        <ele>621.2</ele>
        <time>2018-06-14T11:47:04Z</time>
      </trkpt>
      <trkpt lat="41.6232870" lon="2.0225580">
        <ele>621.2</ele>
        <time>2018-06-14T11:47:05Z</time>
      </trkpt>
      <trkpt lat="41.6233080" lon="2.0225540">
        <ele>621.4</ele>
        <time>2018-06-14T11:47:06Z</time>
      </trkpt>
      <trkpt lat="41.6234820" lon="2.0224970">
        <ele>621.8</ele>
        <time>2018-06-14T11:47:14Z</time>
      </trkpt>
      <trkpt lat="41.6236190" lon="2.0224860">
        <ele>622.2</ele>
        <time>2018-06-14T11:47:20Z</time>
      </trkpt>
      <trkpt lat="41.6236710" lon="2.0224910">
        <ele>622.2</ele>
        <time>2018-06-14T11:47:22Z</time>
      </trkpt>
      <trkpt lat="41.6237450" lon="2.0224990">
        <ele>622.4</ele>
        <time>2018-06-14T11:47:25Z</time>
      </trkpt>
      <trkpt lat="41.6237820" lon="2.0224970">
        <ele>622.4</ele>
        <time>2018-06-14T11:47:27Z</time>
      </trkpt>
      <trkpt lat="41.6238040" lon="2.0224960">
        <ele>622.4</ele>
        <time>2018-06-14T11:47:29Z</time>
      </trkpt>
      <trkpt lat="41.6238360" lon="2.0224860">
        <ele>622.4</ele>
        <time>2018-06-14T11:47:32Z</time>
      </trkpt>
      <trkpt lat="41.6238780" lon="2.0224570">
        <ele>622.4</ele>
        <time>2018-06-14T11:47:36Z</time>
      </trkpt>
      <trkpt lat="41.6239490" lon="2.0224360">
        <ele>623.4</ele>
        <time>2018-06-14T11:48:18Z</time>
      </trkpt>
      <trkpt lat="41.6239520" lon="2.0224380">
        <ele>623.4</ele>
        <time>2018-06-14T11:48:20Z</time>
      </trkpt>
      <trkpt lat="41.6239570" lon="2.0224480">
        <ele>623.4</ele>
        <time>2018-06-14T11:48:21Z</time>
      </trkpt>
      <trkpt lat="41.6240260" lon="2.0224770">
        <ele>623.6</ele>
        <time>2018-06-14T11:48:25Z</time>
      </trkpt>
      <trkpt lat="41.6241100" lon="2.0224700">
        <ele>624.4</ele>
        <time>2018-06-14T11:48:29Z</time>
      </trkpt>
      <trkpt lat="41.6241290" lon="2.0224750">
        <ele>624.8</ele>
        <time>2018-06-14T11:48:30Z</time>
      </trkpt>
      <trkpt lat="41.6242040" lon="2.0224570">
        <ele>625.8</ele>
        <time>2018-06-14T11:48:34Z</time>
      </trkpt>
      <trkpt lat="41.6242670" lon="2.0224500">
        <ele>626.8</ele>
        <time>2018-06-14T11:48:38Z</time>
      </trkpt>
      <trkpt lat="41.6243150" lon="2.0224580">
        <ele>627.4</ele>
        <time>2018-06-14T11:48:42Z</time>
      </trkpt>
      <trkpt lat="41.6243400" lon="2.0224670">
        <ele>628.2</ele>
        <time>2018-06-14T11:48:44Z</time>
      </trkpt>
      <trkpt lat="41.6243820" lon="2.0224730">
        <ele>629.0</ele>
        <time>2018-06-14T11:48:48Z</time>
      </trkpt>
      <trkpt lat="41.6243920" lon="2.0224760">
        <ele>629.2</ele>
        <time>2018-06-14T11:48:49Z</time>
      </trkpt>
      <trkpt lat="41.6243990" lon="2.0224760">
        <ele>629.4</ele>
        <time>2018-06-14T11:48:50Z</time>
      </trkpt>
      <trkpt lat="41.6244280" lon="2.0224560">
        <ele>629.8</ele>
        <time>2018-06-14T11:48:55Z</time>
      </trkpt>
      <trkpt lat="41.6244470" lon="2.0224460">
        <ele>630.2</ele>
        <time>2018-06-14T11:48:57Z</time>
      </trkpt>
      <trkpt lat="41.6245260" lon="2.0224440">
        <ele>631.4</ele>
        <time>2018-06-14T11:49:03Z</time>
      </trkpt>
      <trkpt lat="41.6245670" lon="2.0224400">
        <ele>632.8</ele>
        <time>2018-06-14T11:49:06Z</time>
      </trkpt>
      <trkpt lat="41.6246170" lon="2.0224020">
        <ele>633.8</ele>
        <time>2018-06-14T11:49:11Z</time>
      </trkpt>
      <trkpt lat="41.6246230" lon="2.0223890">
        <ele>634.0</ele>
        <time>2018-06-14T11:49:12Z</time>
      </trkpt>
      <trkpt lat="41.6246280" lon="2.0223780">
        <ele>634.2</ele>
        <time>2018-06-14T11:49:13Z</time>
      </trkpt>
      <trkpt lat="41.6246310" lon="2.0223720">
        <ele>634.4</ele>
        <time>2018-06-14T11:49:14Z</time>
      </trkpt>
      <trkpt lat="41.6246520" lon="2.0223650">
        <ele>634.8</ele>
        <time>2018-06-14T11:49:17Z</time>
      </trkpt>
      <trkpt lat="41.6246760" lon="2.0223700">
        <ele>635.2</ele>
        <time>2018-06-14T11:49:20Z</time>
      </trkpt>
      <trkpt lat="41.6246800" lon="2.0223760">
        <ele>635.4</ele>
        <time>2018-06-14T11:49:21Z</time>
      </trkpt>
      <trkpt lat="41.6246930" lon="2.0223690">
        <ele>636.0</ele>
        <time>2018-06-14T11:49:24Z</time>
      </trkpt>
      <trkpt lat="41.6247070" lon="2.0223780">
        <ele>636.6</ele>
        <time>2018-06-14T11:49:27Z</time>
      </trkpt>
      <trkpt lat="41.6247130" lon="2.0223760">
        <ele>636.6</ele>
        <time>2018-06-14T11:49:28Z</time>
      </trkpt>
      <trkpt lat="41.6247180" lon="2.0223620">
        <ele>637.2</ele>
        <time>2018-06-14T11:49:30Z</time>
      </trkpt>
      <trkpt lat="41.6247360" lon="2.0223320">
        <ele>638.2</ele>
        <time>2018-06-14T11:49:35Z</time>
      </trkpt>
      <trkpt lat="41.6247520" lon="2.0223270">
        <ele>639.0</ele>
        <time>2018-06-14T11:49:38Z</time>
      </trkpt>
      <trkpt lat="41.6247680" lon="2.0223210">
        <ele>639.4</ele>
        <time>2018-06-14T11:49:40Z</time>
      </trkpt>
      <trkpt lat="41.6247920" lon="2.0223110">
        <ele>640.4</ele>
        <time>2018-06-14T11:49:44Z</time>
      </trkpt>
      <trkpt lat="41.6247970" lon="2.0223110">
        <ele>640.4</ele>
        <time>2018-06-14T11:49:45Z</time>
      </trkpt>
      <trkpt lat="41.6248270" lon="2.0222970">
        <ele>641.4</ele>
        <time>2018-06-14T11:49:49Z</time>
      </trkpt>
      <trkpt lat="41.6248630" lon="2.0222860">
        <ele>642.6</ele>
        <time>2018-06-14T11:49:54Z</time>
      </trkpt>
      <trkpt lat="41.6248920" lon="2.0222930">
        <ele>643.6</ele>
        <time>2018-06-14T11:49:59Z</time>
      </trkpt>
      <trkpt lat="41.6249160" lon="2.0223130">
        <ele>644.4</ele>
        <time>2018-06-14T11:50:03Z</time>
      </trkpt>
      <trkpt lat="41.6249350" lon="2.0223230">
        <ele>644.8</ele>
        <time>2018-06-14T11:50:06Z</time>
      </trkpt>
      <trkpt lat="41.6249540" lon="2.0223320">
        <ele>645.2</ele>
        <time>2018-06-14T11:50:09Z</time>
      </trkpt>
      <trkpt lat="41.6250050" lon="2.0223150">
        <ele>646.0</ele>
        <time>2018-06-14T11:50:15Z</time>
      </trkpt>
      <trkpt lat="41.6250130" lon="2.0223050">
        <ele>646.2</ele>
        <time>2018-06-14T11:50:16Z</time>
      </trkpt>
      <trkpt lat="41.6250380" lon="2.0222850">
        <ele>647.2</ele>
        <time>2018-06-14T11:50:20Z</time>
      </trkpt>
      <trkpt lat="41.6250750" lon="2.0222460">
        <ele>648.2</ele>
        <time>2018-06-14T11:50:26Z</time>
      </trkpt>
      <trkpt lat="41.6251010" lon="2.0222170">
        <ele>649.2</ele>
        <time>2018-06-14T11:50:30Z</time>
      </trkpt>
      <trkpt lat="41.6251060" lon="2.0222090">
        <ele>649.4</ele>
        <time>2018-06-14T11:50:31Z</time>
      </trkpt>
      <trkpt lat="41.6251240" lon="2.0221780">
        <ele>650.2</ele>
        <time>2018-06-14T11:50:35Z</time>
      </trkpt>
      <trkpt lat="41.6251590" lon="2.0221410">
        <ele>651.4</ele>
        <time>2018-06-14T11:50:40Z</time>
      </trkpt>
      <trkpt lat="41.6251830" lon="2.0221340">
        <ele>651.6</ele>
        <time>2018-06-14T11:50:42Z</time>
      </trkpt>
      <trkpt lat="41.6252060" lon="2.0221290">
        <ele>651.8</ele>
        <time>2018-06-14T11:50:44Z</time>
      </trkpt>
      <trkpt lat="41.6252250" lon="2.0221080">
        <ele>652.6</ele>
        <time>2018-06-14T11:50:47Z</time>
      </trkpt>
      <trkpt lat="41.6252550" lon="2.0220700">
        <ele>653.2</ele>
        <time>2018-06-14T11:50:51Z</time>
      </trkpt>
      <trkpt lat="41.6252720" lon="2.0220500">
        <ele>653.8</ele>
        <time>2018-06-14T11:50:53Z</time>
      </trkpt>
      <trkpt lat="41.6252760" lon="2.0220310">
        <ele>654.2</ele>
        <time>2018-06-14T11:50:55Z</time>
      </trkpt>
      <trkpt lat="41.6252930" lon="2.0220000">
        <ele>654.8</ele>
        <time>2018-06-14T11:51:00Z</time>
      </trkpt>
      <trkpt lat="41.6253030" lon="2.0219710">
        <ele>656.0</ele>
        <time>2018-06-14T11:51:05Z</time>
      </trkpt>
      <trkpt lat="41.6253070" lon="2.0219550">
        <ele>656.8</ele>
        <time>2018-06-14T11:51:08Z</time>
      </trkpt>
      <trkpt lat="41.6253170" lon="2.0219460">
        <ele>657.0</ele>
        <time>2018-06-14T11:51:10Z</time>
      </trkpt>
      <trkpt lat="41.6253350" lon="2.0219250">
        <ele>658.2</ele>
        <time>2018-06-14T11:51:15Z</time>
      </trkpt>
      <trkpt lat="41.6253600" lon="2.0218790">
        <ele>659.4</ele>
        <time>2018-06-14T11:51:20Z</time>
      </trkpt>
      <trkpt lat="41.6253660" lon="2.0218750">
        <ele>659.6</ele>
        <time>2018-06-14T11:51:21Z</time>
      </trkpt>
      <trkpt lat="41.6254010" lon="2.0218630">
        <ele>660.4</ele>
        <time>2018-06-14T11:51:26Z</time>
      </trkpt>
      <trkpt lat="41.6254220" lon="2.0218300">
        <ele>661.6</ele>
        <time>2018-06-14T11:51:32Z</time>
      </trkpt>
      <trkpt lat="41.6254290" lon="2.0218270">
        <ele>661.8</ele>
        <time>2018-06-14T11:51:33Z</time>
      </trkpt>
      <trkpt lat="41.6254520" lon="2.0218100">
        <ele>662.8</ele>
        <time>2018-06-14T11:51:37Z</time>
      </trkpt>
      <trkpt lat="41.6254790" lon="2.0217850">
        <ele>663.8</ele>
        <time>2018-06-14T11:51:44Z</time>
      </trkpt>
      <trkpt lat="41.6254830" lon="2.0217770">
        <ele>664.0</ele>
        <time>2018-06-14T11:51:45Z</time>
      </trkpt>
      <trkpt lat="41.6255050" lon="2.0217420">
        <ele>665.0</ele>
        <time>2018-06-14T11:51:50Z</time>
      </trkpt>
      <trkpt lat="41.6255320" lon="2.0217080">
        <ele>666.0</ele>
        <time>2018-06-14T11:51:57Z</time>
      </trkpt>
      <trkpt lat="41.6255680" lon="2.0216850">
        <ele>667.0</ele>
        <time>2018-06-14T11:52:03Z</time>
      </trkpt>
      <trkpt lat="41.6256060" lon="2.0216550">
        <ele>668.0</ele>
        <time>2018-06-14T11:52:08Z</time>
      </trkpt>
      <trkpt lat="41.6256170" lon="2.0216450">
        <ele>668.0</ele>
        <time>2018-06-14T11:52:09Z</time>
      </trkpt>
      <trkpt lat="41.6256510" lon="2.0216230">
        <ele>669.2</ele>
        <time>2018-06-14T11:52:13Z</time>
      </trkpt>
      <trkpt lat="41.6256920" lon="2.0216130">
        <ele>669.8</ele>
        <time>2018-06-14T11:52:17Z</time>
      </trkpt>
      <trkpt lat="41.6257160" lon="2.0216130">
        <ele>670.2</ele>
        <time>2018-06-14T11:52:20Z</time>
      </trkpt>
      <trkpt lat="41.6257260" lon="2.0216130">
        <ele>670.4</ele>
        <time>2018-06-14T11:52:21Z</time>
      </trkpt>
      <trkpt lat="41.6258010" lon="2.0216010">
        <ele>671.6</ele>
        <time>2018-06-14T11:52:28Z</time>
      </trkpt>
      <trkpt lat="41.6258230" lon="2.0215850">
        <ele>672.0</ele>
        <time>2018-06-14T11:52:31Z</time>
      </trkpt>
      <trkpt lat="41.6258720" lon="2.0215800">
        <ele>672.2</ele>
        <time>2018-06-14T11:52:35Z</time>
      </trkpt>
      <trkpt lat="41.6259210" lon="2.0215770">
        <ele>672.6</ele>
        <time>2018-06-14T11:52:38Z</time>
      </trkpt>
      <trkpt lat="41.6259530" lon="2.0215830">
        <ele>673.2</ele>
        <time>2018-06-14T11:52:40Z</time>
      </trkpt>
      <trkpt lat="41.6259710" lon="2.0215830">
        <ele>673.8</ele>
        <time>2018-06-14T11:52:41Z</time>
      </trkpt>
      <trkpt lat="41.6260560" lon="2.0215700">
        <ele>674.8</ele>
        <time>2018-06-14T11:52:45Z</time>
      </trkpt>
      <trkpt lat="41.6260780" lon="2.0215670">
        <ele>674.8</ele>
        <time>2018-06-14T11:52:46Z</time>
      </trkpt>
      <trkpt lat="41.6261000" lon="2.0215640">
        <ele>675.0</ele>
        <time>2018-06-14T11:52:47Z</time>
      </trkpt>
      <trkpt lat="41.6261410" lon="2.0215520">
        <ele>675.2</ele>
        <time>2018-06-14T11:52:49Z</time>
      </trkpt>
      <trkpt lat="41.6261990" lon="2.0215380">
        <ele>675.0</ele>
        <time>2018-06-14T11:52:52Z</time>
      </trkpt>
      <trkpt lat="41.6262200" lon="2.0215330">
        <ele>675.2</ele>
        <time>2018-06-14T11:52:53Z</time>
      </trkpt>
      <trkpt lat="41.6262630" lon="2.0215270">
        <ele>675.2</ele>
        <time>2018-06-14T11:52:55Z</time>
      </trkpt>
      <trkpt lat="41.6263730" lon="2.0215280">
        <ele>675.4</ele>
        <time>2018-06-14T11:53:00Z</time>
      </trkpt>
      <trkpt lat="41.6265240" lon="2.0215300">
        <ele>675.0</ele>
        <time>2018-06-14T11:53:07Z</time>
      </trkpt>
      <trkpt lat="41.6265480" lon="2.0215220">
        <ele>675.2</ele>
        <time>2018-06-14T11:53:08Z</time>
      </trkpt>
      <trkpt lat="41.6266560" lon="2.0215180">
        <ele>675.6</ele>
        <time>2018-06-14T11:53:13Z</time>
      </trkpt>
      <trkpt lat="41.6267830" lon="2.0215070">
        <ele>675.6</ele>
        <time>2018-06-14T11:53:19Z</time>
      </trkpt>
      <trkpt lat="41.6268500" lon="2.0214920">
        <ele>675.8</ele>
        <time>2018-06-14T11:53:22Z</time>
      </trkpt>
      <trkpt lat="41.6269180" lon="2.0214760">
        <ele>676.2</ele>
        <time>2018-06-14T11:53:25Z</time>
      </trkpt>
      <trkpt lat="41.6269950" lon="2.0214380">
        <ele>676.6</ele>
        <time>2018-06-14T11:53:30Z</time>
      </trkpt>
      <trkpt lat="41.6270110" lon="2.0214310">
        <ele>677.0</ele>
        <time>2018-06-14T11:53:31Z</time>
      </trkpt>
      <trkpt lat="41.6270870" lon="2.0213940">
        <ele>678.0</ele>
        <time>2018-06-14T11:53:35Z</time>
      </trkpt>
      <trkpt lat="41.6271220" lon="2.0213750">
        <ele>678.2</ele>
        <time>2018-06-14T11:53:37Z</time>
      </trkpt>
      <trkpt lat="41.6272200" lon="2.0213570">
        <ele>678.8</ele>
        <time>2018-06-14T11:53:43Z</time>
      </trkpt>
      <trkpt lat="41.6272540" lon="2.0213360">
        <ele>679.0</ele>
        <time>2018-06-14T11:53:45Z</time>
      </trkpt>
      <trkpt lat="41.6273290" lon="2.0212940">
        <ele>679.8</ele>
        <time>2018-06-14T11:53:49Z</time>
      </trkpt>
      <trkpt lat="41.6273770" lon="2.0212700">
        <ele>680.4</ele>
        <time>2018-06-14T11:53:52Z</time>
      </trkpt>
      <trkpt lat="41.6274220" lon="2.0212470">
        <ele>681.4</ele>
        <time>2018-06-14T11:53:55Z</time>
      </trkpt>
      <trkpt lat="41.6274350" lon="2.0212400">
        <ele>681.6</ele>
        <time>2018-06-14T11:53:56Z</time>
      </trkpt>
      <trkpt lat="41.6274490" lon="2.0212280">
        <ele>681.8</ele>
        <time>2018-06-14T11:53:57Z</time>
      </trkpt>
      <trkpt lat="41.6274830" lon="2.0212050">
        <ele>682.6</ele>
        <time>2018-06-14T11:54:00Z</time>
      </trkpt>
      <trkpt lat="41.6275100" lon="2.0211910">
        <ele>683.0</ele>
        <time>2018-06-14T11:54:02Z</time>
      </trkpt>
      <trkpt lat="41.6275400" lon="2.0211850">
        <ele>683.6</ele>
        <time>2018-06-14T11:54:04Z</time>
      </trkpt>
      <trkpt lat="41.6275980" lon="2.0211450">
        <ele>684.6</ele>
        <time>2018-06-14T11:54:09Z</time>
      </trkpt>
      <trkpt lat="41.6276310" lon="2.0211210">
        <ele>684.8</ele>
        <time>2018-06-14T11:54:12Z</time>
      </trkpt>
      <trkpt lat="41.6276710" lon="2.0210800">
        <ele>684.8</ele>
        <time>2018-06-14T11:54:16Z</time>
      </trkpt>
      <trkpt lat="41.6276970" lon="2.0210610">
        <ele>685.8</ele>
        <time>2018-06-14T11:54:20Z</time>
      </trkpt>
      <trkpt lat="41.6277100" lon="2.0210560">
        <ele>686.0</ele>
        <time>2018-06-14T11:54:21Z</time>
      </trkpt>
      <trkpt lat="41.6277220" lon="2.0210520">
        <ele>686.4</ele>
        <time>2018-06-14T11:54:22Z</time>
      </trkpt>
      <trkpt lat="41.6277370" lon="2.0210430">
        <ele>687.2</ele>
        <time>2018-06-14T11:54:24Z</time>
      </trkpt>
      <trkpt lat="41.6277550" lon="2.0210300">
        <ele>687.8</ele>
        <time>2018-06-14T11:54:26Z</time>
      </trkpt>
      <trkpt lat="41.6277600" lon="2.0210200">
        <ele>688.0</ele>
        <time>2018-06-14T11:54:27Z</time>
      </trkpt>
      <trkpt lat="41.6277640" lon="2.0209990">
        <ele>688.2</ele>
        <time>2018-06-14T11:54:29Z</time>
      </trkpt>
      <trkpt lat="41.6277880" lon="2.0209690">
        <ele>688.8</ele>
        <time>2018-06-14T11:54:34Z</time>
      </trkpt>
      <trkpt lat="41.6278090" lon="2.0209620">
        <ele>689.0</ele>
        <time>2018-06-14T11:54:37Z</time>
      </trkpt>
      <trkpt lat="41.6278200" lon="2.0209590">
        <ele>689.0</ele>
        <time>2018-06-14T11:54:39Z</time>
      </trkpt>
      <trkpt lat="41.6291470" lon="2.0203930">
        <ele>829.4</ele>
        <time>2018-06-14T11:58:03Z</time>
      </trkpt>
      <trkpt lat="41.6291420" lon="2.0204560">
        <ele>825.9</ele>
        <time>2018-06-14T11:58:05Z</time>
      </trkpt>
      <trkpt lat="41.6291410" lon="2.0205030">
        <ele>826.1</ele>
        <time>2018-06-14T11:58:06Z</time>
      </trkpt>
      <trkpt lat="41.6291170" lon="2.0205390">
        <ele>826.3</ele>
        <time>2018-06-14T11:58:08Z</time>
      </trkpt>
      <trkpt lat="41.6290920" lon="2.0205780">
        <ele>827.0</ele>
        <time>2018-06-14T11:58:10Z</time>
      </trkpt>
      <trkpt lat="41.6291000" lon="2.0206130">
        <ele>827.6</ele>
        <time>2018-06-14T11:58:13Z</time>
      </trkpt>
      <trkpt lat="41.6291270" lon="2.0206080">
        <ele>828.2</ele>
        <time>2018-06-14T11:58:16Z</time>
      </trkpt>
      <trkpt lat="41.6291220" lon="2.0206500">
        <ele>828.9</ele>
        <time>2018-06-14T11:58:21Z</time>
      </trkpt>
      <trkpt lat="41.6291450" lon="2.0206700">
        <ele>829.3</ele>
        <time>2018-06-14T11:58:24Z</time>
      </trkpt>
      <trkpt lat="41.6291760" lon="2.0206390">
        <ele>829.9</ele>
        <time>2018-06-14T11:58:28Z</time>
      </trkpt>
      <trkpt lat="41.6292140" lon="2.0206350">
        <ele>830.5</ele>
        <time>2018-06-14T11:58:33Z</time>
      </trkpt>
      <trkpt lat="41.6292530" lon="2.0206250">
        <ele>831.0</ele>
        <time>2018-06-14T11:58:35Z</time>
      </trkpt>
      <trkpt lat="41.6292840" lon="2.0206050">
        <ele>831.5</ele>
        <time>2018-06-14T11:58:37Z</time>
      </trkpt>
      <trkpt lat="41.6293180" lon="2.0205940">
        <ele>831.9</ele>
        <time>2018-06-14T11:58:39Z</time>
      </trkpt>
      <trkpt lat="41.6293300" lon="2.0206330">
        <ele>832.3</ele>
        <time>2018-06-14T11:58:42Z</time>
      </trkpt>
      <trkpt lat="41.6293490" lon="2.0205950">
        <ele>832.5</ele>
        <time>2018-06-14T11:58:44Z</time>
      </trkpt>
      <trkpt lat="41.6293840" lon="2.0206160">
        <ele>832.8</ele>
        <time>2018-06-14T11:58:46Z</time>
      </trkpt>
      <trkpt lat="41.6294180" lon="2.0206050">
        <ele>833.0</ele>
        <time>2018-06-14T11:58:48Z</time>
      </trkpt>
      <trkpt lat="41.6294590" lon="2.0206120">
        <ele>833.3</ele>
        <time>2018-06-14T11:58:51Z</time>
      </trkpt>
      <trkpt lat="41.6294900" lon="2.0206260">
        <ele>833.9</ele>
        <time>2018-06-14T11:58:53Z</time>
      </trkpt>
      <trkpt lat="41.6295220" lon="2.0206520">
        <ele>834.5</ele>
        <time>2018-06-14T11:58:55Z</time>
      </trkpt>
      <trkpt lat="41.6295600" lon="2.0206600">
        <ele>835.1</ele>
        <time>2018-06-14T11:58:58Z</time>
      </trkpt>
      <trkpt lat="41.6295780" lon="2.0206270">
        <ele>835.4</ele>
        <time>2018-06-14T11:59:08Z</time>
      </trkpt>
      <trkpt lat="41.6296000" lon="2.0205930">
        <ele>835.7</ele>
        <time>2018-06-14T11:59:11Z</time>
      </trkpt>
      <trkpt lat="41.6295970" lon="2.0205450">
        <ele>842.0</ele>
        <time>2018-06-14T11:59:16Z</time>
      </trkpt>
      <trkpt lat="41.6295660" lon="2.0205310">
        <ele>842.0</ele>
        <time>2018-06-14T11:59:19Z</time>
      </trkpt>
      <trkpt lat="41.6295850" lon="2.0204950">
        <ele>842.0</ele>
        <time>2018-06-14T11:59:22Z</time>
      </trkpt>
      <trkpt lat="41.6296050" lon="2.0204690">
        <ele>842.0</ele>
        <time>2018-06-14T11:59:24Z</time>
      </trkpt>
      <trkpt lat="41.6296130" lon="2.0204300">
        <ele>844.3</ele>
        <time>2018-06-14T11:59:27Z</time>
      </trkpt>
      <trkpt lat="41.6296540" lon="2.0204530">
        <ele>844.3</ele>
        <time>2018-06-14T11:59:33Z</time>
      </trkpt>
      <trkpt lat="41.6296640" lon="2.0204880">
        <ele>844.3</ele>
        <time>2018-06-14T11:59:36Z</time>
      </trkpt>
      <trkpt lat="41.6296930" lon="2.0205070">
        <ele>844.2</ele>
        <time>2018-06-14T11:59:38Z</time>
      </trkpt>
      <trkpt lat="41.6297200" lon="2.0205440">
        <ele>844.0</ele>
        <time>2018-06-14T11:59:39Z</time>
      </trkpt>
      <trkpt lat="41.6297540" lon="2.0205470">
        <ele>843.7</ele>
        <time>2018-06-14T11:59:41Z</time>
      </trkpt>
      <trkpt lat="41.6297670" lon="2.0205000">
        <ele>843.4</ele>
        <time>2018-06-14T11:59:44Z</time>
      </trkpt>
      <trkpt lat="41.6298030" lon="2.0204780">
        <ele>843.1</ele>
        <time>2018-06-14T11:59:46Z</time>
      </trkpt>
      <trkpt lat="41.6298410" lon="2.0204840">
        <ele>842.8</ele>
        <time>2018-06-14T11:59:48Z</time>
      </trkpt>
      <trkpt lat="41.6298250" lon="2.0204540">
        <ele>842.4</ele>
        <time>2018-06-14T11:59:53Z</time>
      </trkpt>
      <trkpt lat="41.6297870" lon="2.0204200">
        <ele>841.7</ele>
        <time>2018-06-14T11:59:55Z</time>
      </trkpt>
      <trkpt lat="41.6297600" lon="2.0205230">
        <ele>840.4</ele>
        <time>2018-06-14T11:59:57Z</time>
      </trkpt>
      <trkpt lat="41.6297620" lon="2.0206460">
        <ele>838.8</ele>
        <time>2018-06-14T12:00:18Z</time>
      </trkpt>
      <trkpt lat="41.6297650" lon="2.0207680">
        <ele>836.6</ele>
        <time>2018-06-14T12:00:20Z</time>
      </trkpt>
      <trkpt lat="41.6297560" lon="2.0208230">
        <ele>836.6</ele>
        <time>2018-06-14T12:00:21Z</time>
      </trkpt>
      <trkpt lat="41.6297190" lon="2.0208260">
        <ele>836.5</ele>
        <time>2018-06-14T12:00:22Z</time>
      </trkpt>
      <trkpt lat="41.6296660" lon="2.0208060">
        <ele>836.5</ele>
        <time>2018-06-14T12:00:23Z</time>
      </trkpt>
      <trkpt lat="41.6296020" lon="2.0207290">
        <ele>836.4</ele>
        <time>2018-06-14T12:00:25Z</time>
      </trkpt>
      <trkpt lat="41.6295950" lon="2.0207910">
        <ele>836.2</ele>
        <time>2018-06-14T12:00:27Z</time>
      </trkpt>
      <trkpt lat="41.6295690" lon="2.0207790">
        <ele>836.0</ele>
        <time>2018-06-14T12:00:28Z</time>
      </trkpt>
      <trkpt lat="41.6295540" lon="2.0207370">
        <ele>835.9</ele>
        <time>2018-06-14T12:00:30Z</time>
      </trkpt>
      <trkpt lat="41.6295270" lon="2.0207240">
        <ele>835.7</ele>
        <time>2018-06-14T12:00:32Z</time>
      </trkpt>
      <trkpt lat="41.6295470" lon="2.0206730">
        <ele>835.5</ele>
        <time>2018-06-14T12:00:35Z</time>
      </trkpt>
      <trkpt lat="41.6295690" lon="2.0206250">
        <ele>835.3</ele>
        <time>2018-06-14T12:00:36Z</time>
      </trkpt>
      <trkpt lat="41.6295830" lon="2.0205660">
        <ele>834.9</ele>
        <time>2018-06-14T12:00:37Z</time>
      </trkpt>
      <trkpt lat="41.6294930" lon="2.0206200">
        <ele>834.0</ele>
        <time>2018-06-14T12:00:47Z</time>
      </trkpt>
      <trkpt lat="41.6294720" lon="2.0206660">
        <ele>833.6</ele>
        <time>2018-06-14T12:00:48Z</time>
      </trkpt>
      <trkpt lat="41.6294040" lon="2.0207460">
        <ele>833.0</ele>
        <time>2018-06-14T12:00:49Z</time>
      </trkpt>
      <trkpt lat="41.6293730" lon="2.0207920">
        <ele>832.9</ele>
        <time>2018-06-14T12:00:50Z</time>
      </trkpt>
      <trkpt lat="41.6293910" lon="2.0207590">
        <ele>832.8</ele>
        <time>2018-06-14T12:00:54Z</time>
      </trkpt>
      <trkpt lat="41.6293830" lon="2.0207150">
        <ele>832.6</ele>
        <time>2018-06-14T12:00:55Z</time>
      </trkpt>
      <trkpt lat="41.6293900" lon="2.0206750">
        <ele>832.5</ele>
        <time>2018-06-14T12:00:56Z</time>
      </trkpt>
      <trkpt lat="41.6293950" lon="2.0206350">
        <ele>832.4</ele>
        <time>2018-06-14T12:00:57Z</time>
      </trkpt>
      <trkpt lat="41.6294040" lon="2.0205940">
        <ele>837.9</ele>
        <time>2018-06-14T12:00:58Z</time>
      </trkpt>
      <trkpt lat="41.6294160" lon="2.0205440">
        <ele>842.0</ele>
        <time>2018-06-14T12:00:59Z</time>
      </trkpt>
      <trkpt lat="41.6294210" lon="2.0204980">
        <ele>842.0</ele>
        <time>2018-06-14T12:01:01Z</time>
      </trkpt>
      <trkpt lat="41.6294250" lon="2.0204510">
        <ele>842.0</ele>
        <time>2018-06-14T12:01:03Z</time>
      </trkpt>
      <trkpt lat="41.6294480" lon="2.0204070">
        <ele>842.0</ele>
        <time>2018-06-14T12:01:05Z</time>
      </trkpt>
      <trkpt lat="41.6294510" lon="2.0203710">
        <ele>842.0</ele>
        <time>2018-06-14T12:01:07Z</time>
      </trkpt>
      <trkpt lat="41.6294350" lon="2.0203240">
        <ele>842.0</ele>
        <time>2018-06-14T12:01:10Z</time>
      </trkpt>
      <trkpt lat="41.6294280" lon="2.0202810">
        <ele>842.0</ele>
        <time>2018-06-14T12:01:12Z</time>
      </trkpt>
      <trkpt lat="41.6294170" lon="2.0202430">
        <ele>842.0</ele>
        <time>2018-06-14T12:01:17Z</time>
      </trkpt>
      <trkpt lat="41.6294280" lon="2.0202030">
        <ele>842.0</ele>
        <time>2018-06-14T12:01:20Z</time>
      </trkpt>
      <trkpt lat="41.6294430" lon="2.0201690">
        <ele>835.2</ele>
        <time>2018-06-14T12:01:22Z</time>
      </trkpt>
      <trkpt lat="41.6293980" lon="2.0201730">
        <ele>832.7</ele>
        <time>2018-06-14T12:01:29Z</time>
      </trkpt>
      <trkpt lat="41.6293690" lon="2.0201670">
        <ele>831.1</ele>
        <time>2018-06-14T12:01:31Z</time>
      </trkpt>
      <trkpt lat="41.6293560" lon="2.0201320">
        <ele>829.1</ele>
        <time>2018-06-14T12:01:36Z</time>
      </trkpt>
      <trkpt lat="41.6293270" lon="2.0200990">
        <ele>826.5</ele>
        <time>2018-06-14T12:01:39Z</time>
      </trkpt>
      <trkpt lat="41.6292990" lon="2.0201150">
        <ele>824.0</ele>
        <time>2018-06-14T12:01:43Z</time>
      </trkpt>
      <trkpt lat="41.6292790" lon="2.0200770">
        <ele>820.2</ele>
        <time>2018-06-14T12:01:46Z</time>
      </trkpt>
      <trkpt lat="41.6292470" lon="2.0200680">
        <ele>816.5</ele>
        <time>2018-06-14T12:01:53Z</time>
      </trkpt>
      <trkpt lat="41.6292250" lon="2.0200450">
        <ele>813.3</ele>
        <time>2018-06-14T12:01:55Z</time>
      </trkpt>
      <trkpt lat="41.6292060" lon="2.0200120">
        <ele>810.4</ele>
        <time>2018-06-14T12:01:58Z</time>
      </trkpt>
      <trkpt lat="41.6291830" lon="2.0199690">
        <ele>807.1</ele>
        <time>2018-06-14T12:02:01Z</time>
      </trkpt>
      <trkpt lat="41.6291540" lon="2.0199500">
        <ele>804.7</ele>
        <time>2018-06-14T12:02:10Z</time>
      </trkpt>
      <trkpt lat="41.6291340" lon="2.0199170">
        <ele>802.4</ele>
        <time>2018-06-14T12:02:12Z</time>
      </trkpt>
      <trkpt lat="41.6291480" lon="2.0198770">
        <ele>800.1</ele>
        <time>2018-06-14T12:02:14Z</time>
      </trkpt>
      <trkpt lat="41.6291680" lon="2.0198400">
        <ele>803.8</ele>
        <time>2018-06-14T12:02:17Z</time>
      </trkpt>
      <trkpt lat="41.6291710" lon="2.0198000">
        <ele>806.5</ele>
        <time>2018-06-14T12:02:21Z</time>
      </trkpt>
      <trkpt lat="41.6291750" lon="2.0197530">
        <ele>809.6</ele>
        <time>2018-06-14T12:02:25Z</time>
      </trkpt>
      <trkpt lat="41.6291780" lon="2.0197150">
        <ele>812.0</ele>
        <time>2018-06-14T12:02:28Z</time>
      </trkpt>
      <trkpt lat="41.6292190" lon="2.0196860">
        <ele>815.6</ele>
        <time>2018-06-14T12:02:34Z</time>
      </trkpt>
      <trkpt lat="41.6292920" lon="2.0196720">
        <ele>819.8</ele>
        <time>2018-06-14T12:03:04Z</time>
      </trkpt>
      <trkpt lat="41.6293190" lon="2.0196560">
        <ele>821.3</ele>
        <time>2018-06-14T12:03:06Z</time>
      </trkpt>
      <trkpt lat="41.6293200" lon="2.0196110">
        <ele>823.0</ele>
        <time>2018-06-14T12:03:10Z</time>
      </trkpt>
      <trkpt lat="41.6293510" lon="2.0195950">
        <ele>824.7</ele>
        <time>2018-06-14T12:03:13Z</time>
      </trkpt>
      <trkpt lat="41.6293750" lon="2.0195780">
        <ele>826.0</ele>
        <time>2018-06-14T12:03:16Z</time>
      </trkpt>
      <trkpt lat="41.6294070" lon="2.0195570">
        <ele>827.7</ele>
        <time>2018-06-14T12:03:20Z</time>
      </trkpt>
      <trkpt lat="41.6294480" lon="2.0195630">
        <ele>829.4</ele>
        <time>2018-06-14T12:03:26Z</time>
      </trkpt>
      <trkpt lat="41.6294730" lon="2.0195760">
        <ele>830.5</ele>
        <time>2018-06-14T12:03:29Z</time>
      </trkpt>
      <trkpt lat="41.6295050" lon="2.0195750">
        <ele>831.9</ele>
        <time>2018-06-14T12:03:31Z</time>
      </trkpt>
      <trkpt lat="41.6295410" lon="2.0195720">
        <ele>833.5</ele>
        <time>2018-06-14T12:03:34Z</time>
      </trkpt>
      <trkpt lat="41.6295780" lon="2.0195850">
        <ele>835.1</ele>
        <time>2018-06-14T12:03:37Z</time>
      </trkpt>
      <trkpt lat="41.6296080" lon="2.0195630">
        <ele>836.5</ele>
        <time>2018-06-14T12:03:40Z</time>
      </trkpt>
      <trkpt lat="41.6296510" lon="2.0195700">
        <ele>839.5</ele>
        <time>2018-06-14T12:03:43Z</time>
      </trkpt>
      <trkpt lat="41.6296980" lon="2.0195590">
        <ele>842.5</ele>
        <time>2018-06-14T12:03:45Z</time>
      </trkpt>
      <trkpt lat="41.6297400" lon="2.0195550">
        <ele>844.8</ele>
        <time>2018-06-14T12:03:47Z</time>
      </trkpt>
      <trkpt lat="41.6297870" lon="2.0195440">
        <ele>847.4</ele>
        <time>2018-06-14T12:03:49Z</time>
      </trkpt>
      <trkpt lat="41.6298270" lon="2.0195100">
        <ele>849.0</ele>
        <time>2018-06-14T12:03:51Z</time>
      </trkpt>
      <trkpt lat="41.6298720" lon="2.0195140">
        <ele>849.0</ele>
        <time>2018-06-14T12:03:53Z</time>
      </trkpt>
      <trkpt lat="41.6299100" lon="2.0195190">
        <ele>851.1</ele>
        <time>2018-06-14T12:03:55Z</time>
      </trkpt>
      <trkpt lat="41.6299480" lon="2.0195280">
        <ele>854.4</ele>
        <time>2018-06-14T12:03:57Z</time>
      </trkpt>
      <trkpt lat="41.6300080" lon="2.0195550">
        <ele>859.7</ele>
        <time>2018-06-14T12:03:59Z</time>
      </trkpt>
      <trkpt lat="41.6300520" lon="2.0195570">
        <ele>863.4</ele>
        <time>2018-06-14T12:04:01Z</time>
      </trkpt>
      <trkpt lat="41.6300850" lon="2.0195570">
        <ele>865.9</ele>
        <time>2018-06-14T12:04:03Z</time>
      </trkpt>
      <trkpt lat="41.6301120" lon="2.0195510">
        <ele>865.8</ele>
        <time>2018-06-14T12:04:04Z</time>
      </trkpt>
      <trkpt lat="41.6301440" lon="2.0195420">
        <ele>865.6</ele>
        <time>2018-06-14T12:04:07Z</time>
      </trkpt>
      <trkpt lat="41.6301720" lon="2.0195440">
        <ele>865.5</ele>
        <time>2018-06-14T12:04:09Z</time>
      </trkpt>
      <trkpt lat="41.6302080" lon="2.0195350">
        <ele>865.3</ele>
        <time>2018-06-14T12:04:12Z</time>
      </trkpt>
      <trkpt lat="41.6302410" lon="2.0195470">
        <ele>865.1</ele>
        <time>2018-06-14T12:04:15Z</time>
      </trkpt>
      <trkpt lat="41.6306140" lon="2.0196820">
        <ele>865.6</ele>
        <time>2018-06-14T12:04:53Z</time>
      </trkpt>
      <trkpt lat="41.6306450" lon="2.0196930">
        <ele>865.8</ele>
        <time>2018-06-14T12:04:55Z</time>
      </trkpt>
      <trkpt lat="41.6306770" lon="2.0196730">
        <ele>865.9</ele>
        <time>2018-06-14T12:04:58Z</time>
      </trkpt>
      <trkpt lat="41.6307260" lon="2.0196540">
        <ele>866.5</ele>
        <time>2018-06-14T12:05:00Z</time>
      </trkpt>
      <trkpt lat="41.6307610" lon="2.0196690">
        <ele>867.6</ele>
        <time>2018-06-14T12:05:02Z</time>
      </trkpt>
      <trkpt lat="41.6307870" lon="2.0196830">
        <ele>868.4</ele>
        <time>2018-06-14T12:05:03Z</time>
      </trkpt>
      <trkpt lat="41.6308130" lon="2.0196990">
        <ele>869.0</ele>
        <time>2018-06-14T12:05:06Z</time>
      </trkpt>
      <trkpt lat="41.6308300" lon="2.0197290">
        <ele>869.6</ele>
        <time>2018-06-14T12:05:09Z</time>
      </trkpt>
      <trkpt lat="41.6308600" lon="2.0197400">
        <ele>870.2</ele>
        <time>2018-06-14T12:05:12Z</time>
      </trkpt>
      <trkpt lat="41.6308890" lon="2.0197550">
        <ele>871.0</ele>
        <time>2018-06-14T12:05:13Z</time>
      </trkpt>
      <trkpt lat="41.6309250" lon="2.0197700">
        <ele>871.8</ele>
        <time>2018-06-14T12:05:14Z</time>
      </trkpt>
      <trkpt lat="41.6309470" lon="2.0198030">
        <ele>872.5</ele>
        <time>2018-06-14T12:05:18Z</time>
      </trkpt>
      <trkpt lat="41.6309810" lon="2.0198690">
        <ele>873.3</ele>
        <time>2018-06-14T12:05:20Z</time>
      </trkpt>
      <trkpt lat="41.6310140" lon="2.0199380">
        <ele>874.2</ele>
        <time>2018-06-14T12:05:21Z</time>
      </trkpt>
      <trkpt lat="41.6310420" lon="2.0199840">
        <ele>874.8</ele>
        <time>2018-06-14T12:05:22Z</time>
      </trkpt>
      <trkpt lat="41.6310720" lon="2.0199990">
        <ele>875.3</ele>
        <time>2018-06-14T12:05:24Z</time>
      </trkpt>
      <trkpt lat="41.6311070" lon="2.0200120">
        <ele>875.9</ele>
        <time>2018-06-14T12:05:27Z</time>
      </trkpt>
      <trkpt lat="41.6311350" lon="2.0199700">
        <ele>876.5</ele>
        <time>2018-06-14T12:05:32Z</time>
      </trkpt>
      <trkpt lat="41.6311650" lon="2.0199520">
        <ele>876.9</ele>
        <time>2018-06-14T12:05:36Z</time>
      </trkpt>
      <trkpt lat="41.6311880" lon="2.0199310">
        <ele>877.3</ele>
        <time>2018-06-14T12:05:40Z</time>
      </trkpt>
      <trkpt lat="41.6312240" lon="2.0199330">
        <ele>877.6</ele>
        <time>2018-06-14T12:05:42Z</time>
      </trkpt>
      <trkpt lat="41.6312590" lon="2.0199530">
        <ele>878.0</ele>
        <time>2018-06-14T12:05:45Z</time>
      </trkpt>
      <trkpt lat="41.6312970" lon="2.0199700">
        <ele>878.4</ele>
        <time>2018-06-14T12:05:47Z</time>
      </trkpt>
      <trkpt lat="41.6313170" lon="2.0199980">
        <ele>878.7</ele>
        <time>2018-06-14T12:05:50Z</time>
      </trkpt>
      <trkpt lat="41.6313510" lon="2.0200030">
        <ele>879.0</ele>
        <time>2018-06-14T12:05:52Z</time>
      </trkpt>
      <trkpt lat="41.6313820" lon="2.0200170">
        <ele>879.3</ele>
        <time>2018-06-14T12:05:54Z</time>
      </trkpt>
      <trkpt lat="41.6314150" lon="2.0200320">
        <ele>879.6</ele>
        <time>2018-06-14T12:05:57Z</time>
      </trkpt>
      <trkpt lat="41.6314430" lon="2.0200440">
        <ele>879.8</ele>
        <time>2018-06-14T12:05:59Z</time>
      </trkpt>
      <trkpt lat="41.6314690" lon="2.0200520">
        <ele>880.1</ele>
        <time>2018-06-14T12:06:02Z</time>
      </trkpt>
      <trkpt lat="41.6314970" lon="2.0200760">
        <ele>880.4</ele>
        <time>2018-06-14T12:06:05Z</time>
      </trkpt>
      <trkpt lat="41.6315240" lon="2.0200900">
        <ele>880.7</ele>
        <time>2018-06-14T12:06:09Z</time>
      </trkpt>
      <trkpt lat="41.6315510" lon="2.0201220">
        <ele>881.0</ele>
        <time>2018-06-14T12:06:12Z</time>
      </trkpt>
      <trkpt lat="41.6315830" lon="2.0201330">
        <ele>881.0</ele>
        <time>2018-06-14T12:06:15Z</time>
      </trkpt>
      <trkpt lat="41.6316180" lon="2.0201640">
        <ele>881.0</ele>
        <time>2018-06-14T12:06:18Z</time>
      </trkpt>
      <trkpt lat="41.6316470" lon="2.0201730">
        <ele>881.0</ele>
        <time>2018-06-14T12:06:21Z</time>
      </trkpt>
      <trkpt lat="41.6316880" lon="2.0201860">
        <ele>881.0</ele>
        <time>2018-06-14T12:06:25Z</time>
      </trkpt>
      <trkpt lat="41.6317180" lon="2.0201920">
        <ele>881.1</ele>
        <time>2018-06-14T12:06:26Z</time>
      </trkpt>
      <trkpt lat="41.6317480" lon="2.0201710">
        <ele>881.1</ele>
        <time>2018-06-14T12:06:29Z</time>
      </trkpt>
      <trkpt lat="41.6317770" lon="2.0201740">
        <ele>881.1</ele>
        <time>2018-06-14T12:06:31Z</time>
      </trkpt>
      <trkpt lat="41.6318160" lon="2.0201840">
        <ele>881.1</ele>
        <time>2018-06-14T12:06:34Z</time>
      </trkpt>
      <trkpt lat="41.6318590" lon="2.0201800">
        <ele>881.2</ele>
        <time>2018-06-14T12:06:37Z</time>
      </trkpt>
      <trkpt lat="41.6318890" lon="2.0201860">
        <ele>881.2</ele>
        <time>2018-06-14T12:06:42Z</time>
      </trkpt>
      <trkpt lat="41.6319200" lon="2.0202070">
        <ele>881.3</ele>
        <time>2018-06-14T12:06:45Z</time>
      </trkpt>
      <trkpt lat="41.6319520" lon="2.0202430">
        <ele>881.4</ele>
        <time>2018-06-14T12:06:47Z</time>
      </trkpt>
      <trkpt lat="41.6319820" lon="2.0202580">
        <ele>881.4</ele>
        <time>2018-06-14T12:06:49Z</time>
      </trkpt>
      <trkpt lat="41.6320030" lon="2.0202840">
        <ele>881.5</ele>
        <time>2018-06-14T12:06:52Z</time>
      </trkpt>
      <trkpt lat="41.6320440" lon="2.0202970">
        <ele>881.6</ele>
        <time>2018-06-14T12:06:54Z</time>
      </trkpt>
      <trkpt lat="41.6320860" lon="2.0203180">
        <ele>881.8</ele>
        <time>2018-06-14T12:06:56Z</time>
      </trkpt>
      <trkpt lat="41.6321080" lon="2.0203450">
        <ele>881.9</ele>
        <time>2018-06-14T12:06:57Z</time>
      </trkpt>
      <trkpt lat="41.6321310" lon="2.0203650">
        <ele>882.0</ele>
        <time>2018-06-14T12:06:59Z</time>
      </trkpt>
      <trkpt lat="41.6321540" lon="2.0203940">
        <ele>882.2</ele>
        <time>2018-06-14T12:07:03Z</time>
      </trkpt>
      <trkpt lat="41.6321750" lon="2.0204240">
        <ele>882.4</ele>
        <time>2018-06-14T12:07:09Z</time>
      </trkpt>
      <trkpt lat="41.6322100" lon="2.0204340">
        <ele>882.8</ele>
        <time>2018-06-14T12:07:13Z</time>
      </trkpt>
      <trkpt lat="41.6322300" lon="2.0204640">
        <ele>883.0</ele>
        <time>2018-06-14T12:07:15Z</time>
      </trkpt>
      <trkpt lat="41.6322830" lon="2.0204800">
        <ele>883.6</ele>
        <time>2018-06-14T12:07:17Z</time>
      </trkpt>
      <trkpt lat="41.6323180" lon="2.0204770">
        <ele>884.0</ele>
        <time>2018-06-14T12:07:18Z</time>
      </trkpt>
      <trkpt lat="41.6323290" lon="2.0204260">
        <ele>884.3</ele>
        <time>2018-06-14T12:07:20Z</time>
      </trkpt>
      <trkpt lat="41.6323560" lon="2.0204600">
        <ele>884.7</ele>
        <time>2018-06-14T12:07:22Z</time>
      </trkpt>
      <trkpt lat="41.6323480" lon="2.0205310">
        <ele>885.1</ele>
        <time>2018-06-14T12:07:25Z</time>
      </trkpt>
      <trkpt lat="41.6323180" lon="2.0205460">
        <ele>885.3</ele>
        <time>2018-06-14T12:07:26Z</time>
      </trkpt>
      <trkpt lat="41.6322900" lon="2.0205620">
        <ele>885.5</ele>
        <time>2018-06-14T12:07:29Z</time>
      </trkpt>
      <trkpt lat="41.6323020" lon="2.0206240">
        <ele>885.7</ele>
        <time>2018-06-14T12:07:33Z</time>
      </trkpt>
      <trkpt lat="41.6323010" lon="2.0206610">
        <ele>885.8</ele>
        <time>2018-06-14T12:07:35Z</time>
      </trkpt>
      <trkpt lat="41.6323160" lon="2.0207100">
        <ele>885.9</ele>
        <time>2018-06-14T12:07:38Z</time>
      </trkpt>
      <trkpt lat="41.6323380" lon="2.0207410">
        <ele>885.9</ele>
        <time>2018-06-14T12:07:40Z</time>
      </trkpt>
      <trkpt lat="41.6323440" lon="2.0207910">
        <ele>886.0</ele>
        <time>2018-06-14T12:07:42Z</time>
      </trkpt>
      <trkpt lat="41.6323720" lon="2.0208350">
        <ele>886.0</ele>
        <time>2018-06-14T12:07:45Z</time>
      </trkpt>
      <trkpt lat="41.6323960" lon="2.0208570">
        <ele>886.0</ele>
        <time>2018-06-14T12:07:46Z</time>
      </trkpt>
      <trkpt lat="41.6324370" lon="2.0208850">
        <ele>886.0</ele>
        <time>2018-06-14T12:07:48Z</time>
      </trkpt>
      <trkpt lat="41.6324690" lon="2.0209170">
        <ele>886.0</ele>
        <time>2018-06-14T12:07:50Z</time>
      </trkpt>
      <trkpt lat="41.6324970" lon="2.0209220">
        <ele>886.0</ele>
        <time>2018-06-14T12:07:53Z</time>
      </trkpt>
      <trkpt lat="41.6325940" lon="2.0211040">
        <ele>890.0</ele>
        <time>2018-06-14T12:08:17Z</time>
      </trkpt>
      <trkpt lat="41.6325870" lon="2.0211550">
        <ele>891.2</ele>
        <time>2018-06-14T12:08:19Z</time>
      </trkpt>
      <trkpt lat="41.6325550" lon="2.0211550">
        <ele>892.2</ele>
        <time>2018-06-14T12:08:22Z</time>
      </trkpt>
      <trkpt lat="41.6325820" lon="2.0211630">
        <ele>893.0</ele>
        <time>2018-06-14T12:08:27Z</time>
      </trkpt>
      <trkpt lat="41.6326060" lon="2.0211870">
        <ele>893.7</ele>
        <time>2018-06-14T12:08:30Z</time>
      </trkpt>
      <trkpt lat="41.6326330" lon="2.0212110">
        <ele>894.4</ele>
        <time>2018-06-14T12:08:37Z</time>
      </trkpt>
      <trkpt lat="41.6326550" lon="2.0212380">
        <ele>895.1</ele>
        <time>2018-06-14T12:08:44Z</time>
      </trkpt>
      <trkpt lat="41.6326870" lon="2.0212440">
        <ele>896.4</ele>
        <time>2018-06-14T12:08:52Z</time>
      </trkpt>
      <trkpt lat="41.6327170" lon="2.0212600">
        <ele>897.8</ele>
        <time>2018-06-14T12:08:55Z</time>
      </trkpt>
      <trkpt lat="41.6327430" lon="2.0212480">
        <ele>898.5</ele>
        <time>2018-06-14T12:08:57Z</time>
      </trkpt>
      <trkpt lat="41.6327730" lon="2.0212640">
        <ele>899.3</ele>
        <time>2018-06-14T12:09:00Z</time>
      </trkpt>
      <trkpt lat="41.6328210" lon="2.0212820">
        <ele>901.4</ele>
        <time>2018-06-14T12:09:02Z</time>
      </trkpt>
      <trkpt lat="41.6328580" lon="2.0212700">
        <ele>902.9</ele>
        <time>2018-06-14T12:09:05Z</time>
      </trkpt>
      <trkpt lat="41.6328850" lon="2.0212600">
        <ele>903.8</ele>
        <time>2018-06-14T12:09:10Z</time>
      </trkpt>
      <trkpt lat="41.6329260" lon="2.0212480">
        <ele>905.0</ele>
        <time>2018-06-14T12:09:16Z</time>
      </trkpt>
      <trkpt lat="41.6329570" lon="2.0212560">
        <ele>906.0</ele>
        <time>2018-06-14T12:09:21Z</time>
      </trkpt>
      <trkpt lat="41.6329820" lon="2.0212380">
        <ele>906.9</ele>
        <time>2018-06-14T12:09:24Z</time>
      </trkpt>
      <trkpt lat="41.6330060" lon="2.0212180">
        <ele>907.8</ele>
        <time>2018-06-14T12:09:28Z</time>
      </trkpt>
      <trkpt lat="41.6330370" lon="2.0212230">
        <ele>908.8</ele>
        <time>2018-06-14T12:09:33Z</time>
      </trkpt>
      <trkpt lat="41.6330690" lon="2.0212430">
        <ele>910.1</ele>
        <time>2018-06-14T12:09:36Z</time>
      </trkpt>
      <trkpt lat="41.6331010" lon="2.0212430">
        <ele>911.1</ele>
        <time>2018-06-14T12:09:38Z</time>
      </trkpt>
      <trkpt lat="41.6331280" lon="2.0212490">
        <ele>911.7</ele>
        <time>2018-06-14T12:09:42Z</time>
      </trkpt>
      <trkpt lat="41.6331510" lon="2.0212180">
        <ele>912.2</ele>
        <time>2018-06-14T12:09:45Z</time>
      </trkpt>
      <trkpt lat="41.6331880" lon="2.0212160">
        <ele>912.9</ele>
        <time>2018-06-14T12:09:48Z</time>
      </trkpt>
      <trkpt lat="41.6332150" lon="2.0212360">
        <ele>913.8</ele>
        <time>2018-06-14T12:09:49Z</time>
      </trkpt>
      <trkpt lat="41.6332420" lon="2.0212610">
        <ele>914.5</ele>
        <time>2018-06-14T12:09:50Z</time>
      </trkpt>
      <trkpt lat="41.6332680" lon="2.0212470">
        <ele>915.2</ele>
        <time>2018-06-14T12:09:53Z</time>
      </trkpt>
      <trkpt lat="41.6332920" lon="2.0212290">
        <ele>915.7</ele>
        <time>2018-06-14T12:09:54Z</time>
      </trkpt>
      <trkpt lat="41.6333180" lon="2.0212010">
        <ele>916.4</ele>
        <time>2018-06-14T12:09:56Z</time>
      </trkpt>
      <trkpt lat="41.6333480" lon="2.0211960">
        <ele>916.8</ele>
        <time>2018-06-14T12:09:58Z</time>
      </trkpt>
      <trkpt lat="41.6333800" lon="2.0211630">
        <ele>917.4</ele>
        <time>2018-06-14T12:10:01Z</time>
      </trkpt>
      <trkpt lat="41.6334080" lon="2.0211410">
        <ele>917.8</ele>
        <time>2018-06-14T12:10:03Z</time>
      </trkpt>
      <trkpt lat="41.6334420" lon="2.0211320">
        <ele>918.3</ele>
        <time>2018-06-14T12:10:06Z</time>
      </trkpt>
      <trkpt lat="41.6334760" lon="2.0211290">
        <ele>918.7</ele>
        <time>2018-06-14T12:10:09Z</time>
      </trkpt>
      <trkpt lat="41.6335100" lon="2.0211080">
        <ele>919.1</ele>
        <time>2018-06-14T12:10:12Z</time>
      </trkpt>
      <trkpt lat="41.6335350" lon="2.0210960">
        <ele>919.4</ele>
        <time>2018-06-14T12:10:14Z</time>
      </trkpt>
      <trkpt lat="41.6335720" lon="2.0211020">
        <ele>920.0</ele>
        <time>2018-06-14T12:10:18Z</time>
      </trkpt>
      <trkpt lat="41.6336140" lon="2.0211000">
        <ele>920.6</ele>
        <time>2018-06-14T12:10:21Z</time>
      </trkpt>
      <trkpt lat="41.6336450" lon="2.0210910">
        <ele>920.9</ele>
        <time>2018-06-14T12:10:27Z</time>
      </trkpt>
      <trkpt lat="41.6336790" lon="2.0210960">
        <ele>921.1</ele>
        <time>2018-06-14T12:10:29Z</time>
      </trkpt>
      <trkpt lat="41.6337180" lon="2.0210930">
        <ele>921.4</ele>
        <time>2018-06-14T12:10:31Z</time>
      </trkpt>
      <trkpt lat="41.6337460" lon="2.0210920">
        <ele>921.7</ele>
        <time>2018-06-14T12:10:32Z</time>
      </trkpt>
      <trkpt lat="41.6337890" lon="2.0211010">
        <ele>922.1</ele>
        <time>2018-06-14T12:10:34Z</time>
      </trkpt>
      <trkpt lat="41.6338230" lon="2.0211220">
        <ele>922.6</ele>
        <time>2018-06-14T12:10:37Z</time>
      </trkpt>
      <trkpt lat="41.6338580" lon="2.0211170">
        <ele>922.9</ele>
        <time>2018-06-14T12:10:39Z</time>
      </trkpt>
      <trkpt lat="41.6339050" lon="2.0211040">
        <ele>923.4</ele>
        <time>2018-06-14T12:10:41Z</time>
      </trkpt>
      <trkpt lat="41.6339390" lon="2.0211010">
        <ele>923.6</ele>
        <time>2018-06-14T12:10:43Z</time>
      </trkpt>
      <trkpt lat="41.6339720" lon="2.0210740">
        <ele>923.8</ele>
        <time>2018-06-14T12:10:45Z</time>
      </trkpt>
      <trkpt lat="41.6340010" lon="2.0210390">
        <ele>923.1</ele>
        <time>2018-06-14T12:10:48Z</time>
      </trkpt>
      <trkpt lat="41.6340260" lon="2.0209980">
        <ele>922.4</ele>
        <time>2018-06-14T12:10:50Z</time>
      </trkpt>
      <trkpt lat="41.6340680" lon="2.0209590">
        <ele>921.4</ele>
        <time>2018-06-14T12:10:52Z</time>
      </trkpt>
      <trkpt lat="41.6341100" lon="2.0209310">
        <ele>920.5</ele>
        <time>2018-06-14T12:10:54Z</time>
      </trkpt>
      <trkpt lat="41.6341350" lon="2.0209060">
        <ele>919.9</ele>
        <time>2018-06-14T12:10:55Z</time>
      </trkpt>
      <trkpt lat="41.6341580" lon="2.0208820">
        <ele>919.3</ele>
        <time>2018-06-14T12:10:56Z</time>
      </trkpt>
      <trkpt lat="41.6341790" lon="2.0208530">
        <ele>918.7</ele>
        <time>2018-06-14T12:10:57Z</time>
      </trkpt>
      <trkpt lat="41.6342070" lon="2.0208350">
        <ele>918.1</ele>
        <time>2018-06-14T12:10:58Z</time>
      </trkpt>
      <trkpt lat="41.6342330" lon="2.0208110">
        <ele>917.5</ele>
        <time>2018-06-14T12:10:59Z</time>
      </trkpt>
      <trkpt lat="41.6342600" lon="2.0207940">
        <ele>916.9</ele>
        <time>2018-06-14T12:11:00Z</time>
      </trkpt>
      <trkpt lat="41.6342930" lon="2.0207840">
        <ele>916.2</ele>
        <time>2018-06-14T12:11:02Z</time>
      </trkpt>
      <trkpt lat="41.6343300" lon="2.0207650">
        <ele>915.4</ele>
        <time>2018-06-14T12:11:05Z</time>
      </trkpt>
      <trkpt lat="41.6343660" lon="2.0207490">
        <ele>914.7</ele>
        <time>2018-06-14T12:11:08Z</time>
      </trkpt>
      <trkpt lat="41.6343930" lon="2.0207390">
        <ele>914.1</ele>
        <time>2018-06-14T12:11:10Z</time>
      </trkpt>
      <trkpt lat="41.6344290" lon="2.0207520">
        <ele>913.4</ele>
        <time>2018-06-14T12:11:12Z</time>
      </trkpt>
      <trkpt lat="41.6344580" lon="2.0207480">
        <ele>912.9</ele>
        <time>2018-06-14T12:11:16Z</time>
      </trkpt>
      <trkpt lat="41.6344890" lon="2.0207270">
        <ele>912.2</ele>
        <time>2018-06-14T12:11:19Z</time>
      </trkpt>
      <trkpt lat="41.6345280" lon="2.0207200">
        <ele>911.0</ele>
        <time>2018-06-14T12:11:21Z</time>
      </trkpt>
      <trkpt lat="41.6349310" lon="2.0203820">
        <ele>928.8</ele>
        <time>2018-06-14T12:11:59Z</time>
      </trkpt>
      <trkpt lat="41.6349040" lon="2.0203750">
        <ele>929.1</ele>
        <time>2018-06-14T12:12:00Z</time>
      </trkpt>
      <trkpt lat="41.6349420" lon="2.0204590">
        <ele>930.3</ele>
        <time>2018-06-14T12:12:01Z</time>
      </trkpt>
      <trkpt lat="41.6349520" lon="2.0204940">
        <ele>930.8</ele>
        <time>2018-06-14T12:12:02Z</time>
      </trkpt>
      <trkpt lat="41.6350000" lon="2.0205200">
        <ele>931.5</ele>
        <time>2018-06-14T12:12:03Z</time>
      </trkpt>
      <trkpt lat="41.6350380" lon="2.0205300">
        <ele>932.1</ele>
        <time>2018-06-14T12:12:04Z</time>
      </trkpt>
      <trkpt lat="41.6350880" lon="2.0205090">
        <ele>932.6</ele>
        <time>2018-06-14T12:12:05Z</time>
      </trkpt>
      <trkpt lat="41.6351200" lon="2.0204570">
        <ele>933.1</ele>
        <time>2018-06-14T12:12:06Z</time>
      </trkpt>
      <trkpt lat="41.6351300" lon="2.0204170">
        <ele>933.3</ele>
        <time>2018-06-14T12:12:07Z</time>
      </trkpt>
      <trkpt lat="41.6351440" lon="2.0203410">
        <ele>933.9</ele>
        <time>2018-06-14T12:12:09Z</time>
      </trkpt>
      <trkpt lat="41.6351460" lon="2.0202980">
        <ele>934.1</ele>
        <time>2018-06-14T12:12:10Z</time>
      </trkpt>
      <trkpt lat="41.6351300" lon="2.0202650">
        <ele>934.4</ele>
        <time>2018-06-14T12:12:11Z</time>
      </trkpt>
      <trkpt lat="41.6351150" lon="2.0203290">
        <ele>934.8</ele>
        <time>2018-06-14T12:12:13Z</time>
      </trkpt>
      <trkpt lat="41.6351460" lon="2.0203750">
        <ele>935.2</ele>
        <time>2018-06-14T12:12:15Z</time>
      </trkpt>
      <trkpt lat="41.6351200" lon="2.0204000">
        <ele>936.0</ele>
        <time>2018-06-14T12:12:24Z</time>
      </trkpt>
      <trkpt lat="41.6351470" lon="2.0204100">
        <ele>936.6</ele>
        <time>2018-06-14T12:12:25Z</time>
      </trkpt>
      <trkpt lat="41.6351900" lon="2.0204010">
        <ele>937.1</ele>
        <time>2018-06-14T12:12:27Z</time>
      </trkpt>
      <trkpt lat="41.6352100" lon="2.0204590">
        <ele>937.6</ele>
        <time>2018-06-14T12:12:28Z</time>
      </trkpt>
      <trkpt lat="41.6352380" lon="2.0204860">
        <ele>938.0</ele>
        <time>2018-06-14T12:12:29Z</time>
      </trkpt>
      <trkpt lat="41.6352080" lon="2.0204480">
        <ele>938.5</ele>
        <time>2018-06-14T12:12:33Z</time>
      </trkpt>
      <trkpt lat="41.6351900" lon="2.0204050">
        <ele>938.9</ele>
        <time>2018-06-14T12:12:35Z</time>
      </trkpt>
      <trkpt lat="41.6351340" lon="2.0203910">
        <ele>939.7</ele>
        <time>2018-06-14T12:12:38Z</time>
      </trkpt>
      <trkpt lat="41.6351210" lon="2.0203570">
        <ele>940.1</ele>
        <time>2018-06-14T12:12:40Z</time>
      </trkpt>
      <trkpt lat="41.6351490" lon="2.0203800">
        <ele>940.6</ele>
        <time>2018-06-14T12:12:44Z</time>
      </trkpt>
      <trkpt lat="41.6351760" lon="2.0203900">
        <ele>941.1</ele>
        <time>2018-06-14T12:12:46Z</time>
      </trkpt>
      <trkpt lat="41.6352160" lon="2.0204000">
        <ele>941.9</ele>
        <time>2018-06-14T12:12:49Z</time>
      </trkpt>
      <trkpt lat="41.6352470" lon="2.0204020">
        <ele>942.6</ele>
        <time>2018-06-14T12:12:51Z</time>
      </trkpt>
      <trkpt lat="41.6352900" lon="2.0203890">
        <ele>944.2</ele>
        <time>2018-06-14T12:12:56Z</time>
      </trkpt>
      <trkpt lat="41.6353180" lon="2.0203710">
        <ele>945.1</ele>
        <time>2018-06-14T12:12:59Z</time>
      </trkpt>
      <trkpt lat="41.6353520" lon="2.0203720">
        <ele>946.4</ele>
        <time>2018-06-14T12:13:01Z</time>
      </trkpt>
      <trkpt lat="41.6353450" lon="2.0204100">
        <ele>947.7</ele>
        <time>2018-06-14T12:13:07Z</time>
      </trkpt>
      <trkpt lat="41.6353730" lon="2.0203920">
        <ele>948.2</ele>
        <time>2018-06-14T12:13:09Z</time>
      </trkpt>
      <trkpt lat="41.6353850" lon="2.0204250">
        <ele>948.7</ele>
        <time>2018-06-14T12:13:17Z</time>
      </trkpt>
      <trkpt lat="41.6353650" lon="2.0204770">
        <ele>949.4</ele>
        <time>2018-06-14T12:13:21Z</time>
      </trkpt>
      <trkpt lat="41.6353820" lon="2.0204230">
        <ele>950.2</ele>
        <time>2018-06-14T12:13:23Z</time>
      </trkpt>
      <trkpt lat="41.6353660" lon="2.0204530">
        <ele>950.7</ele>
        <time>2018-06-14T12:13:26Z</time>
      </trkpt>
      <trkpt lat="41.6353890" lon="2.0204280">
        <ele>951.2</ele>
        <time>2018-06-14T12:13:30Z</time>
      </trkpt>
      <trkpt lat="41.6354100" lon="2.0203810">
        <ele>951.9</ele>
        <time>2018-06-14T12:13:32Z</time>
      </trkpt>
      <trkpt lat="41.6354430" lon="2.0203460">
        <ele>952.6</ele>
        <time>2018-06-14T12:13:35Z</time>
      </trkpt>
      <trkpt lat="41.6354670" lon="2.0203190">
        <ele>953.1</ele>
        <time>2018-06-14T12:13:36Z</time>
      </trkpt>
      <trkpt lat="41.6354690" lon="2.0202820">
        <ele>953.6</ele>
        <time>2018-06-14T12:13:39Z</time>
      </trkpt>
      <trkpt lat="41.6353790" lon="2.0202500">
        <ele>957.6</ele>
        <time>2018-06-14T12:14:02Z</time>
      </trkpt>
      <trkpt lat="41.6354140" lon="2.0202130">
        <ele>959.2</ele>
        <time>2018-06-14T12:14:04Z</time>
      </trkpt>
      <trkpt lat="41.6354570" lon="2.0201800">
        <ele>960.3</ele>
        <time>2018-06-14T12:14:08Z</time>
      </trkpt>
      <trkpt lat="41.6354460" lon="2.0201220">
        <ele>961.2</ele>
        <time>2018-06-14T12:14:10Z</time>
      </trkpt>
      <trkpt lat="41.6354590" lon="2.0200900">
        <ele>961.5</ele>
        <time>2018-06-14T12:14:11Z</time>
      </trkpt>
      <trkpt lat="41.6354690" lon="2.0200450">
        <ele>961.9</ele>
        <time>2018-06-14T12:14:13Z</time>
      </trkpt>
      <trkpt lat="41.6354640" lon="2.0200040">
        <ele>962.2</ele>
        <time>2018-06-14T12:14:15Z</time>
      </trkpt>
      <trkpt lat="41.6354450" lon="2.0199590">
        <ele>962.5</ele>
        <time>2018-06-14T12:14:18Z</time>
      </trkpt>
      <trkpt lat="41.6354180" lon="2.0199310">
        <ele>962.7</ele>
        <time>2018-06-14T12:14:20Z</time>
      </trkpt>
      <trkpt lat="41.6354470" lon="2.0199250">
        <ele>962.9</ele>
        <time>2018-06-14T12:14:24Z</time>
      </trkpt>
      <trkpt lat="41.6354780" lon="2.0199090">
        <ele>963.1</ele>
        <time>2018-06-14T12:14:30Z</time>
      </trkpt>
      <trkpt lat="41.6355310" lon="2.0198840">
        <ele>963.7</ele>
        <time>2018-06-14T12:14:32Z</time>
      </trkpt>
      <trkpt lat="41.6355330" lon="2.0198260">
        <ele>964.3</ele>
        <time>2018-06-14T12:14:34Z</time>
      </trkpt>
      <trkpt lat="41.6355590" lon="2.0198560">
        <ele>964.8</ele>
        <time>2018-06-14T12:14:36Z</time>
      </trkpt>
      <trkpt lat="41.6356120" lon="2.0198630">
        <ele>965.4</ele>
        <time>2018-06-14T12:14:38Z</time>
      </trkpt>
      <trkpt lat="41.6355910" lon="2.0199290">
        <ele>966.1</ele>
        <time>2018-06-14T12:14:41Z</time>
      </trkpt>
      <trkpt lat="41.6356140" lon="2.0198770">
        <ele>966.6</ele>
        <time>2018-06-14T12:14:44Z</time>
      </trkpt>
      <trkpt lat="41.6356780" lon="2.0198340">
        <ele>967.7</ele>
        <time>2018-06-14T12:14:46Z</time>
      </trkpt>
      <trkpt lat="41.6357500" lon="2.0198000">
        <ele>968.9</ele>
        <time>2018-06-14T12:14:47Z</time>
      </trkpt>
      <trkpt lat="41.6358490" lon="2.0197590">
        <ele>970.6</ele>
        <time>2018-06-14T12:14:48Z</time>
      </trkpt>
      <trkpt lat="41.6358930" lon="2.0197550">
        <ele>971.6</ele>
        <time>2018-06-14T12:14:49Z</time>
      </trkpt>
      <trkpt lat="41.6358510" lon="2.0197540">
        <ele>972.4</ele>
        <time>2018-06-14T12:14:50Z</time>
      </trkpt>
      <trkpt lat="41.6358650" lon="2.0197070">
        <ele>973.0</ele>
        <time>2018-06-14T12:14:52Z</time>
      </trkpt>
      <trkpt lat="41.6358320" lon="2.0197270">
        <ele>973.6</ele>
        <time>2018-06-14T12:14:53Z</time>
      </trkpt>
      <trkpt lat="41.6357910" lon="2.0197540">
        <ele>974.3</ele>
        <time>2018-06-14T12:14:54Z</time>
      </trkpt>
      <trkpt lat="41.6357610" lon="2.0197690">
        <ele>974.8</ele>
        <time>2018-06-14T12:14:55Z</time>
      </trkpt>
      <trkpt lat="41.6357900" lon="2.0197500">
        <ele>975.3</ele>
        <time>2018-06-14T12:14:57Z</time>
      </trkpt>
      <trkpt lat="41.6358140" lon="2.0197210">
        <ele>975.8</ele>
        <time>2018-06-14T12:14:58Z</time>
      </trkpt>
      <trkpt lat="41.6358490" lon="2.0197140">
        <ele>976.3</ele>
        <time>2018-06-14T12:15:05Z</time>
      </trkpt>
      <trkpt lat="41.6358770" lon="2.0197260">
        <ele>976.7</ele>
        <time>2018-06-14T12:15:10Z</time>
      </trkpt>
      <trkpt lat="41.6358990" lon="2.0197690">
        <ele>977.1</ele>
        <time>2018-06-14T12:15:15Z</time>
      </trkpt>
      <trkpt lat="41.6359420" lon="2.0197660">
        <ele>977.6</ele>
        <time>2018-06-14T12:15:21Z</time>
      </trkpt>
      <trkpt lat="41.6359680" lon="2.0197430">
        <ele>978.0</ele>
        <time>2018-06-14T12:15:23Z</time>
      </trkpt>
      <trkpt lat="41.6359770" lon="2.0197020">
        <ele>978.1</ele>
        <time>2018-06-14T12:15:26Z</time>
      </trkpt>
      <trkpt lat="41.6360060" lon="2.0196830">
        <ele>978.3</ele>
        <time>2018-06-14T12:15:29Z</time>
      </trkpt>
      <trkpt lat="41.6360320" lon="2.0196670">
        <ele>978.4</ele>
        <time>2018-06-14T12:15:34Z</time>
      </trkpt>
      <trkpt lat="41.6360680" lon="2.0196580">
        <ele>978.6</ele>
        <time>2018-06-14T12:15:38Z</time>
      </trkpt>
      <trkpt lat="41.6361000" lon="2.0196380">
        <ele>978.9</ele>
        <time>2018-06-14T12:15:41Z</time>
      </trkpt>
      <trkpt lat="41.6361240" lon="2.0195990">
        <ele>979.0</ele>
        <time>2018-06-14T12:15:43Z</time>
      </trkpt>
      <trkpt lat="41.6361550" lon="2.0196050">
        <ele>979.1</ele>
        <time>2018-06-14T12:15:47Z</time>
      </trkpt>
      <trkpt lat="41.6361860" lon="2.0195880">
        <ele>979.2</ele>
        <time>2018-06-14T12:15:51Z</time>
      </trkpt>
      <trkpt lat="41.6362190" lon="2.0195940">
        <ele>979.3</ele>
        <time>2018-06-14T12:15:54Z</time>
      </trkpt>
      <trkpt lat="41.6362500" lon="2.0196120">
        <ele>979.4</ele>
        <time>2018-06-14T12:15:58Z</time>
      </trkpt>
      <trkpt lat="41.6362750" lon="2.0196290">
        <ele>979.6</ele>
        <time>2018-06-14T12:16:04Z</time>
      </trkpt>
      <trkpt lat="41.6363150" lon="2.0196560">
        <ele>979.8</ele>
        <time>2018-06-14T12:16:06Z</time>
      </trkpt>
      <trkpt lat="41.6363430" lon="2.0196790">
        <ele>979.9</ele>
        <time>2018-06-14T12:16:08Z</time>
      </trkpt>
      <trkpt lat="41.6363870" lon="2.0196790">
        <ele>980.2</ele>
        <time>2018-06-14T12:16:10Z</time>
      </trkpt>
      <trkpt lat="41.6364200" lon="2.0196760">
        <ele>980.5</ele>
        <time>2018-06-14T12:16:12Z</time>
      </trkpt>
      <trkpt lat="41.6364490" lon="2.0196560">
        <ele>980.7</ele>
        <time>2018-06-14T12:16:14Z</time>
      </trkpt>
      <trkpt lat="41.6364870" lon="2.0196600">
        <ele>981.0</ele>
        <time>2018-06-14T12:16:17Z</time>
      </trkpt>
      <trkpt lat="41.6365200" lon="2.0196600">
        <ele>981.3</ele>
        <time>2018-06-14T12:16:19Z</time>
      </trkpt>
      <trkpt lat="41.6365530" lon="2.0196800">
        <ele>981.6</ele>
        <time>2018-06-14T12:16:22Z</time>
      </trkpt>
      <trkpt lat="41.6365820" lon="2.0197100">
        <ele>982.0</ele>
        <time>2018-06-14T12:16:24Z</time>
      </trkpt>
      <trkpt lat="41.6366130" lon="2.0197110">
        <ele>982.3</ele>
        <time>2018-06-14T12:16:27Z</time>
      </trkpt>
      <trkpt lat="41.6366540" lon="2.0197020">
        <ele>982.8</ele>
        <time>2018-06-14T12:16:30Z</time>
      </trkpt>
      <trkpt lat="41.6366900" lon="2.0197060">
        <ele>983.2</ele>
        <time>2018-06-14T12:16:32Z</time>
      </trkpt>
      <trkpt lat="41.6367210" lon="2.0197200">
        <ele>983.4</ele>
        <time>2018-06-14T12:16:34Z</time>
      </trkpt>
      <trkpt lat="41.6372720" lon="2.0200260">
        <ele>993.3</ele>
        <time>2018-06-14T12:17:37Z</time>
      </trkpt>
      <trkpt lat="41.6373070" lon="2.0200310">
        <ele>993.6</ele>
        <time>2018-06-14T12:17:39Z</time>
      </trkpt>
      <trkpt lat="41.6373220" lon="2.0199970">
        <ele>993.9</ele>
        <time>2018-06-14T12:17:43Z</time>
      </trkpt>
      <trkpt lat="41.6373450" lon="2.0200340">
        <ele>994.2</ele>
        <time>2018-06-14T12:17:48Z</time>
      </trkpt>
      <trkpt lat="41.6373760" lon="2.0200320">
        <ele>994.7</ele>
        <time>2018-06-14T12:17:50Z</time>
      </trkpt>
      <trkpt lat="41.6374080" lon="2.0200230">
        <ele>995.2</ele>
        <time>2018-06-14T12:17:54Z</time>
      </trkpt>
      <trkpt lat="41.6374380" lon="2.0200410">
        <ele>995.6</ele>
        <time>2018-06-14T12:17:57Z</time>
      </trkpt>
      <trkpt lat="41.6374690" lon="2.0200490">
        <ele>995.8</ele>
        <time>2018-06-14T12:17:59Z</time>
      </trkpt>
      <trkpt lat="41.6375010" lon="2.0200630">
        <ele>995.9</ele>
        <time>2018-06-14T12:18:00Z</time>
      </trkpt>
      <trkpt lat="41.6375230" lon="2.0200870">
        <ele>996.0</ele>
        <time>2018-06-14T12:18:01Z</time>
      </trkpt>
      <trkpt lat="41.6375440" lon="2.0201140">
        <ele>996.2</ele>
        <time>2018-06-14T12:18:02Z</time>
      </trkpt>
      <trkpt lat="41.6375590" lon="2.0201450">
        <ele>996.3</ele>
        <time>2018-06-14T12:18:05Z</time>
      </trkpt>
      <trkpt lat="41.6375900" lon="2.0201810">
        <ele>996.4</ele>
        <time>2018-06-14T12:18:07Z</time>
      </trkpt>
      <trkpt lat="41.6376150" lon="2.0201970">
        <ele>996.4</ele>
        <time>2018-06-14T12:18:08Z</time>
      </trkpt>
      <trkpt lat="41.6376460" lon="2.0202170">
        <ele>996.5</ele>
        <time>2018-06-14T12:18:11Z</time>
      </trkpt>
      <trkpt lat="41.6376640" lon="2.0202520">
        <ele>996.6</ele>
        <time>2018-06-14T12:18:14Z</time>
      </trkpt>
      <trkpt lat="41.6376860" lon="2.0202750">
        <ele>996.6</ele>
        <time>2018-06-14T12:18:16Z</time>
      </trkpt>
      <trkpt lat="41.6377220" lon="2.0202970">
        <ele>996.6</ele>
        <time>2018-06-14T12:18:18Z</time>
      </trkpt>
      <trkpt lat="41.6377580" lon="2.0203200">
        <ele>996.5</ele>
        <time>2018-06-14T12:18:20Z</time>
      </trkpt>
      <trkpt lat="41.6377980" lon="2.0203450">
        <ele>996.5</ele>
        <time>2018-06-14T12:18:22Z</time>
      </trkpt>
      <trkpt lat="41.6378350" lon="2.0203370">
        <ele>996.4</ele>
        <time>2018-06-14T12:18:23Z</time>
      </trkpt>
      <trkpt lat="41.6378780" lon="2.0203320">
        <ele>996.3</ele>
        <time>2018-06-14T12:18:24Z</time>
      </trkpt>
      <trkpt lat="41.6379210" lon="2.0203220">
        <ele>996.2</ele>
        <time>2018-06-14T12:18:25Z</time>
      </trkpt>
      <trkpt lat="41.6379750" lon="2.0203170">
        <ele>996.1</ele>
        <time>2018-06-14T12:18:26Z</time>
      </trkpt>
      <trkpt lat="41.6380260" lon="2.0203130">
        <ele>996.5</ele>
        <time>2018-06-14T12:18:27Z</time>
      </trkpt>
      <trkpt lat="41.6380720" lon="2.0203290">
        <ele>997.0</ele>
        <time>2018-06-14T12:18:28Z</time>
      </trkpt>
      <trkpt lat="41.6381020" lon="2.0203330">
        <ele>997.3</ele>
        <time>2018-06-14T12:18:29Z</time>
      </trkpt>
      <trkpt lat="41.6381290" lon="2.0203280">
        <ele>997.7</ele>
        <time>2018-06-14T12:18:30Z</time>
      </trkpt>
      <trkpt lat="41.6381380" lon="2.0203660">
        <ele>998.0</ele>
        <time>2018-06-14T12:18:34Z</time>
      </trkpt>
      <trkpt lat="41.6381720" lon="2.0203860">
        <ele>998.4</ele>
        <time>2018-06-14T12:18:35Z</time>
      </trkpt>
      <trkpt lat="41.6382230" lon="2.0204050">
        <ele>999.0</ele>
        <time>2018-06-14T12:18:36Z</time>
      </trkpt>
      <trkpt lat="41.6381150" lon="2.0202980">
        <ele>1000.5</ele>
        <time>2018-06-14T12:18:47Z</time>
      </trkpt>
      <trkpt lat="41.6381150" lon="2.0202470">
        <ele>1000.9</ele>
        <time>2018-06-14T12:18:49Z</time>
      </trkpt>
      <trkpt lat="41.6381400" lon="2.0202830">
        <ele>1001.4</ele>
        <time>2018-06-14T12:18:53Z</time>
      </trkpt>
      <trkpt lat="41.6381680" lon="2.0203180">
        <ele>1001.8</ele>
        <time>2018-06-14T12:18:56Z</time>
      </trkpt>
      <trkpt lat="41.6382010" lon="2.0203290">
        <ele>1002.2</ele>
        <time>2018-06-14T12:18:58Z</time>
      </trkpt>
      <trkpt lat="41.6382330" lon="2.0203470">
        <ele>1002.6</ele>
        <time>2018-06-14T12:19:00Z</time>
      </trkpt>
      <trkpt lat="41.6382750" lon="2.0203780">
        <ele>1003.1</ele>
        <time>2018-06-14T12:19:08Z</time>
      </trkpt>
      <trkpt lat="41.6383090" lon="2.0203870">
        <ele>1003.5</ele>
        <time>2018-06-14T12:19:10Z</time>
      </trkpt>
      <trkpt lat="41.6383440" lon="2.0203910">
        <ele>1003.9</ele>
        <time>2018-06-14T12:19:13Z</time>
      </trkpt>
      <trkpt lat="41.6383750" lon="2.0204170">
        <ele>1003.9</ele>
        <time>2018-06-14T12:19:17Z</time>
      </trkpt>
      <trkpt lat="41.6384110" lon="2.0204350">
        <ele>1003.8</ele>
        <time>2018-06-14T12:19:19Z</time>
      </trkpt>
      <trkpt lat="41.6384560" lon="2.0204580">
        <ele>1003.7</ele>
        <time>2018-06-14T12:19:21Z</time>
      </trkpt>
      <trkpt lat="41.6384940" lon="2.0204820">
        <ele>1003.7</ele>
        <time>2018-06-14T12:19:23Z</time>
      </trkpt>
      <trkpt lat="41.6385690" lon="2.0205330">
        <ele>1003.7</ele>
        <time>2018-06-14T12:19:25Z</time>
      </trkpt>
      <trkpt lat="41.6386250" lon="2.0205640">
        <ele>1003.7</ele>
        <time>2018-06-14T12:19:26Z</time>
      </trkpt>
      <trkpt lat="41.6386840" lon="2.0205600">
        <ele>1003.8</ele>
        <time>2018-06-14T12:19:27Z</time>
      </trkpt>
      <trkpt lat="41.6385650" lon="2.0205240">
        <ele>1004.0</ele>
        <time>2018-06-14T12:19:28Z</time>
      </trkpt>
      <trkpt lat="41.6385410" lon="2.0204870">
        <ele>1004.1</ele>
        <time>2018-06-14T12:19:29Z</time>
      </trkpt>
      <trkpt lat="41.6385500" lon="2.0203450">
        <ele>1004.3</ele>
        <time>2018-06-14T12:19:32Z</time>
      </trkpt>
      <trkpt lat="41.6386490" lon="2.0204060">
        <ele>1004.4</ele>
        <time>2018-06-14T12:19:36Z</time>
      </trkpt>
      <trkpt lat="41.6386710" lon="2.0204350">
        <ele>1004.5</ele>
        <time>2018-06-14T12:19:37Z</time>
      </trkpt>
      <trkpt lat="41.6387010" lon="2.0204570">
        <ele>1004.5</ele>
        <time>2018-06-14T12:19:38Z</time>
      </trkpt>
      <trkpt lat="41.6387200" lon="2.0204160">
        <ele>1004.6</ele>
        <time>2018-06-14T12:19:40Z</time>
      </trkpt>
      <trkpt lat="41.6387600" lon="2.0204210">
        <ele>1004.6</ele>
        <time>2018-06-14T12:19:44Z</time>
      </trkpt>
      <trkpt lat="41.6387920" lon="2.0204440">
        <ele>1004.7</ele>
        <time>2018-06-14T12:19:48Z</time>
      </trkpt>
      <trkpt lat="41.6388220" lon="2.0204620">
        <ele>1004.7</ele>
        <time>2018-06-14T12:19:50Z</time>
      </trkpt>
      <trkpt lat="41.6388440" lon="2.0204880">
        <ele>1004.7</ele>
        <time>2018-06-14T12:19:51Z</time>
      </trkpt>
      <trkpt lat="41.6388680" lon="2.0205130">
        <ele>1004.6</ele>
        <time>2018-06-14T12:19:53Z</time>
      </trkpt>
      <trkpt lat="41.6388980" lon="2.0205300">
        <ele>1004.6</ele>
        <time>2018-06-14T12:19:55Z</time>
      </trkpt>
      <trkpt lat="41.6389410" lon="2.0205480">
        <ele>1004.5</ele>
        <time>2018-06-14T12:19:57Z</time>
      </trkpt>
      <trkpt lat="41.6389620" lon="2.0205720">
        <ele>1004.4</ele>
        <time>2018-06-14T12:20:00Z</time>
      </trkpt>
      <trkpt lat="41.6390020" lon="2.0205790">
        <ele>1004.4</ele>
        <time>2018-06-14T12:20:03Z</time>
      </trkpt>
      <trkpt lat="41.6390460" lon="2.0205840">
        <ele>1004.3</ele>
        <time>2018-06-14T12:20:05Z</time>
      </trkpt>
      <trkpt lat="41.6390720" lon="2.0206100">
        <ele>1004.2</ele>
        <time>2018-06-14T12:20:06Z</time>
      </trkpt>
      <trkpt lat="41.6391110" lon="2.0206260">
        <ele>1004.3</ele>
        <time>2018-06-14T12:20:08Z</time>
      </trkpt>
      <trkpt lat="41.6391460" lon="2.0206210">
        <ele>1006.8</ele>
        <time>2018-06-14T12:20:10Z</time>
      </trkpt>
      <trkpt lat="41.6394340" lon="2.0207210">
        <ele>1025.6</ele>
        <time>2018-06-14T12:20:51Z</time>
      </trkpt>
      <trkpt lat="41.6394620" lon="2.0207420">
        <ele>1027.3</ele>
        <time>2018-06-14T12:20:57Z</time>
      </trkpt>
      <trkpt lat="41.6395330" lon="2.0208030">
        <ele>1032.6</ele>
        <time>2018-06-14T12:21:03Z</time>
      </trkpt>
      <trkpt lat="41.6395560" lon="2.0208490">
        <ele>1036.1</ele>
        <time>2018-06-14T12:21:05Z</time>
      </trkpt>
      <trkpt lat="41.6395920" lon="2.0208180">
        <ele>1039.0</ele>
        <time>2018-06-14T12:21:08Z</time>
      </trkpt>
      <trkpt lat="41.6396240" lon="2.0208340">
        <ele>1040.7</ele>
        <time>2018-06-14T12:21:10Z</time>
      </trkpt>
      <trkpt lat="41.6396390" lon="2.0208700">
        <ele>1041.9</ele>
        <time>2018-06-14T12:21:12Z</time>
      </trkpt>
      <trkpt lat="41.6396660" lon="2.0208760">
        <ele>1042.9</ele>
        <time>2018-06-14T12:21:15Z</time>
      </trkpt>
      <trkpt lat="41.6396890" lon="2.0208490">
        <ele>1044.0</ele>
        <time>2018-06-14T12:21:26Z</time>
      </trkpt>
      <trkpt lat="41.6397180" lon="2.0208240">
        <ele>1045.3</ele>
        <time>2018-06-14T12:21:28Z</time>
      </trkpt>
      <trkpt lat="41.6397440" lon="2.0207970">
        <ele>1046.0</ele>
        <time>2018-06-14T12:21:31Z</time>
      </trkpt>
      <trkpt lat="41.6397700" lon="2.0207750">
        <ele>1046.8</ele>
        <time>2018-06-14T12:21:33Z</time>
      </trkpt>
      <trkpt lat="41.6398010" lon="2.0207510">
        <ele>1047.6</ele>
        <time>2018-06-14T12:21:35Z</time>
      </trkpt>
      <trkpt lat="41.6398290" lon="2.0207420">
        <ele>1048.3</ele>
        <time>2018-06-14T12:21:38Z</time>
      </trkpt>
      <trkpt lat="41.6398590" lon="2.0207500">
        <ele>1049.2</ele>
        <time>2018-06-14T12:21:40Z</time>
      </trkpt>
      <trkpt lat="41.6398900" lon="2.0207540">
        <ele>1050.1</ele>
        <time>2018-06-14T12:21:42Z</time>
      </trkpt>
      <trkpt lat="41.6399180" lon="2.0207510">
        <ele>1050.8</ele>
        <time>2018-06-14T12:21:44Z</time>
      </trkpt>
      <trkpt lat="41.6399540" lon="2.0207410">
        <ele>1051.5</ele>
        <time>2018-06-14T12:21:46Z</time>
      </trkpt>
      <trkpt lat="41.6399850" lon="2.0207140">
        <ele>1052.2</ele>
        <time>2018-06-14T12:21:48Z</time>
      </trkpt>
      <trkpt lat="41.6400130" lon="2.0207160">
        <ele>1052.7</ele>
        <time>2018-06-14T12:21:50Z</time>
      </trkpt>
      <trkpt lat="41.6400440" lon="2.0207060">
        <ele>1053.3</ele>
        <time>2018-06-14T12:21:52Z</time>
      </trkpt>
      <trkpt lat="41.6400750" lon="2.0206930">
        <ele>1053.7</ele>
        <time>2018-06-14T12:21:53Z</time>
      </trkpt>
      <trkpt lat="41.6401000" lon="2.0206790">
        <ele>1054.1</ele>
        <time>2018-06-14T12:21:54Z</time>
      </trkpt>
      <trkpt lat="41.6401420" lon="2.0206670">
        <ele>1054.5</ele>
        <time>2018-06-14T12:21:56Z</time>
      </trkpt>
      <trkpt lat="41.6401630" lon="2.0206300">
        <ele>1055.0</ele>
        <time>2018-06-14T12:21:58Z</time>
      </trkpt>
      <trkpt lat="41.6402090" lon="2.0206250">
        <ele>1055.5</ele>
        <time>2018-06-14T12:22:02Z</time>
      </trkpt>
      <trkpt lat="41.6402560" lon="2.0206340">
        <ele>1056.0</ele>
        <time>2018-06-14T12:22:04Z</time>
      </trkpt>
      <trkpt lat="41.6403070" lon="2.0206280">
        <ele>1056.6</ele>
        <time>2018-06-14T12:22:06Z</time>
      </trkpt>
      <trkpt lat="41.6403550" lon="2.0206390">
        <ele>1057.3</ele>
        <time>2018-06-14T12:22:08Z</time>
      </trkpt>
      <trkpt lat="41.6403970" lon="2.0206390">
        <ele>1058.2</ele>
        <time>2018-06-14T12:22:10Z</time>
      </trkpt>
      <trkpt lat="41.6404790" lon="2.0206380">
        <ele>1059.9</ele>
        <time>2018-06-14T12:22:12Z</time>
      </trkpt>
      <trkpt lat="41.6405340" lon="2.0206430">
        <ele>1060.9</ele>
        <time>2018-06-14T12:22:15Z</time>
      </trkpt>
      <trkpt lat="41.6405890" lon="2.0206490">
        <ele>1061.7</ele>
        <time>2018-06-14T12:22:22Z</time>
      </trkpt>
      <trkpt lat="41.6406440" lon="2.0206540">
        <ele>1062.4</ele>
        <time>2018-06-14T12:22:23Z</time>
      </trkpt>
      <trkpt lat="41.6406780" lon="2.0206740">
        <ele>1063.0</ele>
        <time>2018-06-14T12:22:24Z</time>
      </trkpt>
      <trkpt lat="41.6407050" lon="2.0206920">
        <ele>1063.5</ele>
        <time>2018-06-14T12:22:25Z</time>
      </trkpt>
      <trkpt lat="41.6407330" lon="2.0206990">
        <ele>1063.9</ele>
        <time>2018-06-14T12:22:26Z</time>
      </trkpt>
      <trkpt lat="41.6407560" lon="2.0206730">
        <ele>1064.4</ele>
        <time>2018-06-14T12:22:29Z</time>
      </trkpt>
      <trkpt lat="41.6407620" lon="2.0206330">
        <ele>1064.9</ele>
        <time>2018-06-14T12:22:32Z</time>
      </trkpt>
      <trkpt lat="41.6407890" lon="2.0205990">
        <ele>1065.1</ele>
        <time>2018-06-14T12:22:42Z</time>
      </trkpt>
      <trkpt lat="41.6408030" lon="2.0205510">
        <ele>1065.2</ele>
        <time>2018-06-14T12:22:44Z</time>
      </trkpt>
      <trkpt lat="41.6408180" lon="2.0205180">
        <ele>1065.2</ele>
        <time>2018-06-14T12:22:51Z</time>
      </trkpt>
      <trkpt lat="41.6408110" lon="2.0204730">
        <ele>1065.3</ele>
        <time>2018-06-14T12:22:55Z</time>
      </trkpt>
      <trkpt lat="41.6407960" lon="2.0204380">
        <ele>1065.4</ele>
        <time>2018-06-14T12:22:58Z</time>
      </trkpt>
      <trkpt lat="41.6408070" lon="2.0204760">
        <ele>1065.4</ele>
        <time>2018-06-14T12:23:04Z</time>
      </trkpt>
      <trkpt lat="41.6407790" lon="2.0204870">
        <ele>1065.5</ele>
        <time>2018-06-14T12:23:15Z</time>
      </trkpt>
      <trkpt lat="41.6408040" lon="2.0204500">
        <ele>1065.5</ele>
        <time>2018-06-14T12:23:17Z</time>
      </trkpt>
      <trkpt lat="41.6408160" lon="2.0204050">
        <ele>1065.5</ele>
        <time>2018-06-14T12:23:19Z</time>
      </trkpt>
      <trkpt lat="41.6408700" lon="2.0200610">
        <ele>1065.2</ele>
        <time>2018-06-14T12:23:21Z</time>
      </trkpt>
      <trkpt lat="41.6408960" lon="2.0197340">
        <ele>1062.7</ele>
        <time>2018-06-14T12:23:24Z</time>
      </trkpt>
      <trkpt lat="41.6406270" lon="2.0194080">
        <ele>1060.0</ele>
        <time>2018-06-14T12:23:26Z</time>
      </trkpt>
      <trkpt lat="41.6405300" lon="2.0192940">
        <ele>1059.8</ele>
        <time>2018-06-14T12:23:27Z</time>
      </trkpt>
      <trkpt lat="41.6405160" lon="2.0201910">
        <ele>1052.4</ele>
        <time>2018-06-14T12:24:06Z</time>
      </trkpt>
      <trkpt lat="41.6404850" lon="2.0201760">
        <ele>1052.9</ele>
        <time>2018-06-14T12:24:07Z</time>
      </trkpt>
      <trkpt lat="41.6404790" lon="2.0200540">
        <ele>1055.4</ele>
        <time>2018-06-14T12:24:08Z</time>
      </trkpt>
      <trkpt lat="41.6404370" lon="2.0200000">
        <ele>1056.3</ele>
        <time>2018-06-14T12:24:09Z</time>
      </trkpt>
      <trkpt lat="41.6404100" lon="2.0199040">
        <ele>1057.6</ele>
        <time>2018-06-14T12:24:10Z</time>
      </trkpt>
      <trkpt lat="41.6404110" lon="2.0198600">
        <ele>1058.9</ele>
        <time>2018-06-14T12:24:11Z</time>
      </trkpt>
      <trkpt lat="41.6404020" lon="2.0199080">
        <ele>1059.3</ele>
        <time>2018-06-14T12:24:13Z</time>
      </trkpt>
      <trkpt lat="41.6404080" lon="2.0199520">
        <ele>1059.8</ele>
        <time>2018-06-14T12:24:14Z</time>
      </trkpt>
      <trkpt lat="41.6404280" lon="2.0199190">
        <ele>1061.1</ele>
        <time>2018-06-14T12:24:17Z</time>
      </trkpt>
      <trkpt lat="41.6404400" lon="2.0200040">
        <ele>1061.5</ele>
        <time>2018-06-14T12:24:21Z</time>
      </trkpt>
      <trkpt lat="41.6404290" lon="2.0200710">
        <ele>1061.1</ele>
        <time>2018-06-14T12:24:22Z</time>
      </trkpt>
      <trkpt lat="41.6404400" lon="2.0201510">
        <ele>1061.8</ele>
        <time>2018-06-14T12:24:23Z</time>
      </trkpt>
      <trkpt lat="41.6404760" lon="2.0201760">
        <ele>1062.5</ele>
        <time>2018-06-14T12:24:24Z</time>
      </trkpt>
      <trkpt lat="41.6405040" lon="2.0201840">
        <ele>1063.7</ele>
        <time>2018-06-14T12:24:25Z</time>
      </trkpt>
      <trkpt lat="41.6405290" lon="2.0202090">
        <ele>1064.2</ele>
        <time>2018-06-14T12:24:26Z</time>
      </trkpt>
      <trkpt lat="41.6405640" lon="2.0201990">
        <ele>1065.4</ele>
        <time>2018-06-14T12:24:30Z</time>
      </trkpt>
      <trkpt lat="41.6405330" lon="2.0202230">
        <ele>1065.3</ele>
        <time>2018-06-14T12:24:31Z</time>
      </trkpt>
      <trkpt lat="41.6404980" lon="2.0202240">
        <ele>1065.1</ele>
        <time>2018-06-14T12:24:33Z</time>
      </trkpt>
      <trkpt lat="41.6404490" lon="2.0202370">
        <ele>1065.0</ele>
        <time>2018-06-14T12:24:35Z</time>
      </trkpt>
      <trkpt lat="41.6404230" lon="2.0202470">
        <ele>1064.9</ele>
        <time>2018-06-14T12:24:36Z</time>
      </trkpt>
      <trkpt lat="41.6403840" lon="2.0202570">
        <ele>1064.9</ele>
        <time>2018-06-14T12:24:38Z</time>
      </trkpt>
      <trkpt lat="41.6403600" lon="2.0202940">
        <ele>1065.0</ele>
        <time>2018-06-14T12:24:40Z</time>
      </trkpt>
      <trkpt lat="41.6403350" lon="2.0203120">
        <ele>1065.0</ele>
        <time>2018-06-14T12:24:43Z</time>
      </trkpt>
      <trkpt lat="41.6402990" lon="2.0202910">
        <ele>1065.2</ele>
        <time>2018-06-14T12:24:47Z</time>
      </trkpt>
      <trkpt lat="41.6402710" lon="2.0202730">
        <ele>1065.3</ele>
        <time>2018-06-14T12:24:51Z</time>
      </trkpt>
      <trkpt lat="41.6402490" lon="2.0203150">
        <ele>1065.4</ele>
        <time>2018-06-14T12:24:55Z</time>
      </trkpt>
      <trkpt lat="41.6402130" lon="2.0203000">
        <ele>1065.5</ele>
        <time>2018-06-14T12:25:03Z</time>
      </trkpt>
      <trkpt lat="41.6401760" lon="2.0203100">
        <ele>1065.6</ele>
        <time>2018-06-14T12:25:06Z</time>
      </trkpt>
      <trkpt lat="41.6401500" lon="2.0203030">
        <ele>1065.6</ele>
        <time>2018-06-14T12:25:08Z</time>
      </trkpt>
      <trkpt lat="41.6401050" lon="2.0203050">
        <ele>1065.7</ele>
        <time>2018-06-14T12:25:10Z</time>
      </trkpt>
      <trkpt lat="41.6400680" lon="2.0203000">
        <ele>1065.8</ele>
        <time>2018-06-14T12:25:14Z</time>
      </trkpt>
      <trkpt lat="41.6400400" lon="2.0203090">
        <ele>1065.8</ele>
        <time>2018-06-14T12:25:15Z</time>
      </trkpt>
      <trkpt lat="41.6400050" lon="2.0203090">
        <ele>1065.7</ele>
        <time>2018-06-14T12:25:17Z</time>
      </trkpt>
      <trkpt lat="41.6399490" lon="2.0202790">
        <ele>1065.7</ele>
        <time>2018-06-14T12:25:20Z</time>
      </trkpt>
      <trkpt lat="41.6399260" lon="2.0202490">
        <ele>1065.7</ele>
        <time>2018-06-14T12:25:23Z</time>
      </trkpt>
      <trkpt lat="41.6399040" lon="2.0202180">
        <ele>1065.7</ele>
        <time>2018-06-14T12:25:27Z</time>
      </trkpt>
      <trkpt lat="41.6398810" lon="2.0201870">
        <ele>1065.7</ele>
        <time>2018-06-14T12:25:30Z</time>
      </trkpt>
      <trkpt lat="41.6398590" lon="2.0201560">
        <ele>1065.7</ele>
        <time>2018-06-14T12:25:36Z</time>
      </trkpt>
      <trkpt lat="41.6398370" lon="2.0201260">
        <ele>1065.7</ele>
        <time>2018-06-14T12:25:39Z</time>
      </trkpt>
      <trkpt lat="41.6398140" lon="2.0200950">
        <ele>1065.8</ele>
        <time>2018-06-14T12:25:41Z</time>
      </trkpt>
      <trkpt lat="41.6397920" lon="2.0200640">
        <ele>1065.8</ele>
        <time>2018-06-14T12:25:47Z</time>
      </trkpt>
      <trkpt lat="41.6397690" lon="2.0200340">
        <ele>1065.8</ele>
        <time>2018-06-14T12:27:00Z</time>
      </trkpt>
      <trkpt lat="41.6397470" lon="2.0200030">
        <ele>1065.8</ele>
        <time>2018-06-14T12:27:01Z</time>
      </trkpt>
      <trkpt lat="41.6398180" lon="2.0199850">
        <ele>1065.7</ele>
        <time>2018-06-14T12:27:02Z</time>
      </trkpt>
      <trkpt lat="41.6397870" lon="2.0199320">
        <ele>1065.6</ele>
        <time>2018-06-14T12:27:04Z</time>
      </trkpt>
      <trkpt lat="41.6398080" lon="2.0198840">
        <ele>1065.3</ele>
        <time>2018-06-14T12:27:05Z</time>
      </trkpt>
      <trkpt lat="41.6398760" lon="2.0198890">
        <ele>1064.7</ele>
        <time>2018-06-14T12:27:08Z</time>
      </trkpt>
      <trkpt lat="41.6399450" lon="2.0199000">
        <ele>1064.4</ele>
        <time>2018-06-14T12:27:09Z</time>
      </trkpt>
      <trkpt lat="41.6399830" lon="2.0199120">
        <ele>1064.1</ele>
        <time>2018-06-14T12:27:11Z</time>
      </trkpt>
      <trkpt lat="41.6400120" lon="2.0198880">
        <ele>1063.9</ele>
        <time>2018-06-14T12:27:12Z</time>
      </trkpt>
      <trkpt lat="41.6400480" lon="2.0198660">
        <ele>1063.8</ele>
        <time>2018-06-14T12:27:14Z</time>
      </trkpt>
      <trkpt lat="41.6400830" lon="2.0198490">
        <ele>1063.6</ele>
        <time>2018-06-14T12:27:16Z</time>
      </trkpt>
      <trkpt lat="41.6401190" lon="2.0198000">
        <ele>1063.4</ele>
        <time>2018-06-14T12:27:18Z</time>
      </trkpt>
      <trkpt lat="41.6401380" lon="2.0197700">
        <ele>1063.3</ele>
        <time>2018-06-14T12:27:19Z</time>
      </trkpt>
      <trkpt lat="41.6401750" lon="2.0197390">
        <ele>1063.2</ele>
        <time>2018-06-14T12:27:21Z</time>
      </trkpt>
      <trkpt lat="41.6402080" lon="2.0197080">
        <ele>1063.1</ele>
        <time>2018-06-14T12:27:23Z</time>
      </trkpt>
      <trkpt lat="41.6402400" lon="2.0196790">
        <ele>1063.0</ele>
        <time>2018-06-14T12:27:25Z</time>
      </trkpt>
      <trkpt lat="41.6402810" lon="2.0196540">
        <ele>1062.8</ele>
        <time>2018-06-14T12:27:27Z</time>
      </trkpt>
      <trkpt lat="41.6403490" lon="2.0196600">
        <ele>1062.5</ele>
        <time>2018-06-14T12:27:28Z</time>
      </trkpt>
      <trkpt lat="41.6404540" lon="2.0196550">
        <ele>1062.1</ele>
        <time>2018-06-14T12:27:29Z</time>
      </trkpt>
      <trkpt lat="41.6405600" lon="2.0196020">
        <ele>1061.6</ele>
        <time>2018-06-14T12:27:30Z</time>
      </trkpt>
      <trkpt lat="41.6406480" lon="2.0195000">
        <ele>1060.8</ele>
        <time>2018-06-14T12:27:37Z</time>
      </trkpt>
      <trkpt lat="41.6406870" lon="2.0195160">
        <ele>1060.4</ele>
        <time>2018-06-14T12:27:38Z</time>
      </trkpt>
      <trkpt lat="41.6406860" lon="2.0194310">
        <ele>1059.9</ele>
        <time>2018-06-14T12:27:40Z</time>
      </trkpt>
      <trkpt lat="41.6406430" lon="2.0194150">
        <ele>1059.0</ele>
        <time>2018-06-14T12:27:41Z</time>
      </trkpt>
      <trkpt lat="41.6406070" lon="2.0193910">
        <ele>1060.5</ele>
        <time>2018-06-14T12:27:42Z</time>
      </trkpt>
      <trkpt lat="41.6405870" lon="2.0193420">
        <ele>1062.1</ele>
        <time>2018-06-14T12:27:43Z</time>
      </trkpt>
      <trkpt lat="41.6405750" lon="2.0192940">
        <ele>1063.2</ele>
        <time>2018-06-14T12:27:44Z</time>
      </trkpt>
      <trkpt lat="41.6405570" lon="2.0192650">
        <ele>1063.9</ele>
        <time>2018-06-14T12:27:45Z</time>
      </trkpt>
      <trkpt lat="41.6405320" lon="2.0192280">
        <ele>1064.7</ele>
        <time>2018-06-14T12:27:47Z</time>
      </trkpt>
      <trkpt lat="41.6405040" lon="2.0192290">
        <ele>1065.5</ele>
        <time>2018-06-14T12:27:48Z</time>
      </trkpt>
      <trkpt lat="41.6404820" lon="2.0191700">
        <ele>1067.6</ele>
        <time>2018-06-14T12:28:04Z</time>
      </trkpt>
      <trkpt lat="41.6405230" lon="2.0191570">
        <ele>1069.4</ele>
        <time>2018-06-14T12:28:06Z</time>
      </trkpt>
      <trkpt lat="41.6405510" lon="2.0191390">
        <ele>1070.2</ele>
        <time>2018-06-14T12:28:08Z</time>
      </trkpt>
      <trkpt lat="41.6405710" lon="2.0191130">
        <ele>1071.0</ele>
        <time>2018-06-14T12:28:11Z</time>
      </trkpt>
      <trkpt lat="41.6405950" lon="2.0190900">
        <ele>1072.0</ele>
        <time>2018-06-14T12:28:13Z</time>
      </trkpt>
      <trkpt lat="41.6406230" lon="2.0190610">
        <ele>1073.5</ele>
        <time>2018-06-14T12:28:16Z</time>
      </trkpt>
      <trkpt lat="41.6406530" lon="2.0190260">
        <ele>1075.0</ele>
        <time>2018-06-14T12:28:19Z</time>
      </trkpt>
      <trkpt lat="41.6406870" lon="2.0189970">
        <ele>1075.8</ele>
        <time>2018-06-14T12:28:22Z</time>
      </trkpt>
      <trkpt lat="41.6407090" lon="2.0189560">
        <ele>1076.6</ele>
        <time>2018-06-14T12:28:26Z</time>
      </trkpt>
      <trkpt lat="41.6407160" lon="2.0189150">
        <ele>1077.3</ele>
        <time>2018-06-14T12:28:29Z</time>
      </trkpt>
      <trkpt lat="41.6407300" lon="2.0188760">
        <ele>1078.3</ele>
        <time>2018-06-14T12:28:33Z</time>
      </trkpt>
      <trkpt lat="41.6407460" lon="2.0188350">
        <ele>1079.8</ele>
        <time>2018-06-14T12:28:37Z</time>
      </trkpt>
      <trkpt lat="41.6407670" lon="2.0187990">
        <ele>1081.0</ele>
        <time>2018-06-14T12:28:40Z</time>
      </trkpt>
      <trkpt lat="41.6407980" lon="2.0187740">
        <ele>1082.1</ele>
        <time>2018-06-14T12:28:43Z</time>
      </trkpt>
      <trkpt lat="41.6408230" lon="2.0187470">
        <ele>1083.0</ele>
        <time>2018-06-14T12:28:46Z</time>
      </trkpt>
      <trkpt lat="41.6408530" lon="2.0187170">
        <ele>1084.2</ele>
        <time>2018-06-14T12:28:52Z</time>
      </trkpt>
      <trkpt lat="41.6408810" lon="2.0187030">
        <ele>1085.3</ele>
        <time>2018-06-14T12:28:54Z</time>
      </trkpt>
      <trkpt lat="41.6409070" lon="2.0186810">
        <ele>1086.3</ele>
        <time>2018-06-14T12:28:58Z</time>
      </trkpt>
      <trkpt lat="41.6409430" lon="2.0186590">
        <ele>1088.0</ele>
        <time>2018-06-14T12:29:00Z</time>
      </trkpt>
      <trkpt lat="41.6409590" lon="2.0186200">
        <ele>1088.0</ele>
        <time>2018-06-14T12:29:04Z</time>
      </trkpt>
      <trkpt lat="41.6409910" lon="2.0186150">
        <ele>1088.0</ele>
        <time>2018-06-14T12:29:08Z</time>
      </trkpt>
      <trkpt lat="41.6410320" lon="2.0186240">
        <ele>1088.0</ele>
        <time>2018-06-14T12:29:10Z</time>
      </trkpt>
      <trkpt lat="41.6410660" lon="2.0186000">
        <ele>1088.0</ele>
        <time>2018-06-14T12:29:12Z</time>
      </trkpt>
      <trkpt lat="41.6410820" lon="2.0185670">
        <ele>1088.0</ele>
        <time>2018-06-14T12:29:15Z</time>
      </trkpt>
      <trkpt lat="41.6411070" lon="2.0185290">
        <ele>1088.0</ele>
        <time>2018-06-14T12:29:20Z</time>
      </trkpt>
      <trkpt lat="41.6411370" lon="2.0185080">
        <ele>1088.0</ele>
        <time>2018-06-14T12:29:23Z</time>
      </trkpt>
      <trkpt lat="41.6411600" lon="2.0184870">
        <ele>1087.9</ele>
        <time>2018-06-14T12:29:25Z</time>
      </trkpt>
      <trkpt lat="41.6411790" lon="2.0184500">
        <ele>1087.3</ele>
        <time>2018-06-14T12:29:29Z</time>
      </trkpt>
      <trkpt lat="41.6412040" lon="2.0184050">
        <ele>1086.5</ele>
        <time>2018-06-14T12:29:35Z</time>
      </trkpt>
      <trkpt lat="41.6412170" lon="2.0183710">
        <ele>1086.0</ele>
        <time>2018-06-14T12:29:38Z</time>
      </trkpt>
      <trkpt lat="41.6412130" lon="2.0183310">
        <ele>1085.5</ele>
        <time>2018-06-14T12:29:42Z</time>
      </trkpt>
      <trkpt lat="41.6412000" lon="2.0182980">
        <ele>1085.0</ele>
        <time>2018-06-14T12:29:45Z</time>
      </trkpt>
      <trkpt lat="41.6411830" lon="2.0182660">
        <ele>1084.4</ele>
        <time>2018-06-14T12:29:47Z</time>
      </trkpt>
      <trkpt lat="41.6411630" lon="2.0182290">
        <ele>1083.8</ele>
        <time>2018-06-14T12:29:50Z</time>
      </trkpt>
      <trkpt lat="41.6411330" lon="2.0182080">
        <ele>1083.0</ele>
        <time>2018-06-14T12:29:53Z</time>
      </trkpt>
      <trkpt lat="41.6411090" lon="2.0181820">
        <ele>1083.0</ele>
        <time>2018-06-14T12:29:57Z</time>
      </trkpt>
    </trkseg>
  </trk>
</gpx>
